Wetterdaten: Sonntag, 28.10.2018
Datum Zeit Temp. A. Feuchte A. Luftdruck Regen Wind Richtung Richtung Sonnenschein ET UV Solar Taupunkt Windchill Windböen
28.10.2018 00:00 0,6 °C 95 % 1005,2 hPa 0,0 mm 0,0 km/h (0 Bft) NO 51 ° 0 min 0,000 mm 0,0 UV-I 0 W/m² -0,1 °C 0,6 °C 0,0 km/h (0 Bft)
28.10.2018 00:01 0,6 °C 95 % 1005,2 hPa 0,0 mm 0,0 km/h (0 Bft) NO 51 ° 0 min 0,000 mm 0,0 UV-I 0 W/m² -0,1 °C 0,6 °C 0,0 km/h (0 Bft)
28.10.2018 00:03 0,6 °C 94 % 1005,3 hPa 0,0 mm 0,0 km/h (0 Bft) NO 51 ° 0 min 0,000 mm 0,0 UV-I 0 W/m² -0,3 °C 0,6 °C 0,0 km/h (0 Bft)
28.10.2018 00:04 0,6 °C 94 % 1005,2 hPa 0,0 mm 0,0 km/h (0 Bft) NO 51 ° 0 min 0,000 mm 0,0 UV-I 0 W/m² -0,3 °C 0,6 °C 0,0 km/h (0 Bft)
28.10.2018 00:05 0,6 °C 95 % 1005,2 hPa 0,0 mm 0,0 km/h (0 Bft) NO 51 ° 0 min 0,000 mm 0,0 UV-I 0 W/m² -0,1 °C 0,6 °C 0,0 km/h (0 Bft)
28.10.2018 00:06 0,6 °C 95 % 1005,3 hPa 0,0 mm 0,0 km/h (0 Bft) NO 51 ° 0 min 0,000 mm 0,0 UV-I 0 W/m² -0,1 °C 0,6 °C 0,0 km/h (0 Bft)
28.10.2018 00:07 0,6 °C 95 % 1005,3 hPa 0,0 mm 0,0 km/h (0 Bft) NO 51 ° 0 min 0,000 mm 0,0 UV-I 0 W/m² -0,1 °C 0,6 °C 0,0 km/h (0 Bft)
28.10.2018 00:08 0,7 °C 95 % 1005,3 hPa 0,0 mm 0,0 km/h (0 Bft) NO 51 ° 0 min 0,000 mm 0,0 UV-I 0 W/m² -0,0 °C 0,7 °C 0,0 km/h (0 Bft)
28.10.2018 00:09 0,7 °C 95 % 1005,3 hPa 0,0 mm 0,5 km/h (0 Bft) NO 51 ° 0 min 0,000 mm 0,0 UV-I 0 W/m² -0,0 °C 0,7 °C 3,2 km/h (1 Bft)
28.10.2018 00:10 0,7 °C 95 % 1005,3 hPa 0,0 mm 0,8 km/h (0 Bft) NO 51 ° 0 min 0,000 mm 0,0 UV-I 0 W/m² -0,0 °C 0,7 °C 3,2 km/h (1 Bft)
28.10.2018 00:11 0,8 °C 95 % 1005,3 hPa 0,0 mm 2,8 km/h (1 Bft) O 82 ° 0 min 0,000 mm 0,0 UV-I 0 W/m² 0,1 °C 0,8 °C 6,4 km/h (2 Bft)
28.10.2018 00:12 0,9 °C 95 % 1005,3 hPa 0,0 mm 1,9 km/h (1 Bft) O 96 ° 0 min 0,000 mm 0,0 UV-I 0 W/m² 0,2 °C 0,9 °C 3,2 km/h (1 Bft)
28.10.2018 00:13 0,9 °C 95 % 1005,3 hPa 0,0 mm 3,0 km/h (1 Bft) O 94 ° 0 min 0,000 mm 0,0 UV-I 0 W/m² 0,2 °C 0,9 °C 6,4 km/h (2 Bft)
28.10.2018 00:14 1,1 °C 95 % 1005,2 hPa 0,0 mm 2,5 km/h (1 Bft) O 90 ° 0 min 0,000 mm 0,0 UV-I 0 W/m² 0,4 °C 1,1 °C 4,8 km/h (1 Bft)
28.10.2018 00:15 1,1 °C 95 % 1005,2 hPa 0,0 mm 5,5 km/h (1 Bft) O-NO 59 ° 0 min 0,000 mm 0,0 UV-I 0 W/m² 0,4 °C -0,6 °C 9,7 km/h (2 Bft)
28.10.2018 00:16 1,1 °C 95 % 1005,2 hPa 0,0 mm 3,9 km/h (1 Bft) O-NO 61 ° 0 min 0,000 mm 0,0 UV-I 0 W/m² 0,4 °C 1,1 °C 6,4 km/h (2 Bft)
28.10.2018 00:17 1,1 °C 95 % 1005,2 hPa 0,0 mm 1,9 km/h (1 Bft) O 84 ° 0 min 0,000 mm 0,0 UV-I 0 W/m² 0,4 °C 1,1 °C 3,2 km/h (1 Bft)
28.10.2018 00:18 1,1 °C 95 % 1005,2 hPa 0,0 mm 0,9 km/h (0 Bft) O 84 ° 0 min 0,000 mm 0,0 UV-I 0 W/m² 0,4 °C 1,1 °C 1,6 km/h (1 Bft)
28.10.2018 00:19 1,1 °C 95 % 1005,2 hPa 0,0 mm 2,4 km/h (1 Bft) NO 55 ° 0 min 0,000 mm 0,0 UV-I 0 W/m² 0,4 °C 1,1 °C 6,4 km/h (2 Bft)
28.10.2018 00:20 1,1 °C 95 % 1005,2 hPa 0,0 mm 0,8 km/h (0 Bft) NO 55 ° 0 min 0,000 mm 0,0 UV-I 0 W/m² 0,4 °C 1,1 °C 3,2 km/h (1 Bft)
28.10.2018 00:21 1,1 °C 95 % 1005,2 hPa 0,0 mm 4,6 km/h (1 Bft) O-NO 62 ° 0 min 0,000 mm 0,0 UV-I 0 W/m² 0,4 °C -0,2 °C 6,4 km/h (2 Bft)
28.10.2018 00:22 1,2 °C 95 % 1005,1 hPa 0,0 mm 1,6 km/h (1 Bft) O-NO 62 ° 0 min 0,000 mm 0,0 UV-I 0 W/m² 0,5 °C 1,2 °C 4,8 km/h (1 Bft)
28.10.2018 00:23 1,2 °C 95 % 1005,1 hPa 0,0 mm 1,8 km/h (1 Bft) O-NO 68 ° 0 min 0,000 mm 0,0 UV-I 0 W/m² 0,5 °C 1,2 °C 4,8 km/h (1 Bft)
28.10.2018 00:24 1,2 °C 95 % 1005,1 hPa 0,0 mm 3,8 km/h (1 Bft) O 95 ° 0 min 0,000 mm 0,0 UV-I 0 W/m² 0,5 °C 1,2 °C 9,7 km/h (2 Bft)
28.10.2018 00:25 1,2 °C 95 % 1005,2 hPa 0,0 mm 6,2 km/h (2 Bft) N-NO 30 ° 0 min 0,000 mm 0,0 UV-I 0 W/m² 0,5 °C -0,7 °C 9,7 km/h (2 Bft)
28.10.2018 00:26 1,2 °C 95 % 1005,2 hPa 0,0 mm 3,2 km/h (1 Bft) N-NO 30 ° 0 min 0,000 mm 0,0 UV-I 0 W/m² 0,5 °C 1,2 °C 6,4 km/h (2 Bft)
28.10.2018 00:27 1,2 °C 95 % 1005,2 hPa 0,0 mm 0,3 km/h (0 Bft) N-NO 30 ° 0 min 0,000 mm 0,0 UV-I 0 W/m² 0,5 °C 1,2 °C 1,6 km/h (1 Bft)
28.10.2018 00:28 1,2 °C 95 % 1005,2 hPa 0,0 mm 0,3 km/h (0 Bft) N-NO 30 ° 0 min 0,000 mm 0,0 UV-I 0 W/m² 0,5 °C 1,2 °C 3,2 km/h (1 Bft)
28.10.2018 00:29 1,2 °C 95 % 1005,2 hPa 0,0 mm 1,1 km/h (1 Bft) N-NO 30 ° 0 min 0,000 mm 0,0 UV-I 0 W/m² 0,5 °C 1,2 °C 4,8 km/h (1 Bft)
28.10.2018 00:30 1,2 °C 95 % 1005,2 hPa 0,0 mm 0,0 km/h (0 Bft) N-NO 30 ° 0 min 0,000 mm 0,0 UV-I 0 W/m² 0,5 °C 1,2 °C 0,0 km/h (0 Bft)
28.10.2018 00:31 1,2 °C 95 % 1005,2 hPa 0,0 mm 1,7 km/h (1 Bft) N-NO 30 ° 0 min 0,000 mm 0,0 UV-I 0 W/m² 0,5 °C 1,2 °C 3,2 km/h (1 Bft)
28.10.2018 00:32 1,2 °C 95 % 1005,1 hPa 0,0 mm 0,7 km/h (0 Bft) N-NO 30 ° 0 min 0,000 mm 0,0 UV-I 0 W/m² 0,5 °C 1,2 °C 1,6 km/h (1 Bft)
28.10.2018 00:33 1,2 °C 95 % 1005,2 hPa 0,0 mm 1,5 km/h (1 Bft) O-NO 65 ° 0 min 0,000 mm 0,0 UV-I 0 W/m² 0,5 °C 1,2 °C 3,2 km/h (1 Bft)
28.10.2018 00:34 1,2 °C 95 % 1005,2 hPa 0,0 mm 3,0 km/h (1 Bft) O-SO 103 ° 0 min 0,000 mm 0,0 UV-I 0 W/m² 0,5 °C 1,2 °C 4,8 km/h (1 Bft)
28.10.2018 00:35 1,3 °C 95 % 1005,2 hPa 0,0 mm 3,3 km/h (1 Bft) O-NO 65 ° 0 min 0,000 mm 0,0 UV-I 0 W/m² 0,6 °C 1,3 °C 4,8 km/h (1 Bft)
28.10.2018 00:36 1,2 °C 95 % 1005,1 hPa 0,0 mm 3,9 km/h (1 Bft) O-NO 69 ° 0 min 0,000 mm 0,0 UV-I 0 W/m² 0,5 °C 1,2 °C 4,8 km/h (1 Bft)
28.10.2018 00:37 1,3 °C 95 % 1005,1 hPa 0,0 mm 2,8 km/h (1 Bft) O-NO 69 ° 0 min 0,000 mm 0,0 UV-I 0 W/m² 0,6 °C 1,3 °C 4,8 km/h (1 Bft)
28.10.2018 00:38 1,3 °C 95 % 1005,1 hPa 0,0 mm 3,0 km/h (1 Bft) O-NO 69 ° 0 min 0,000 mm 0,0 UV-I 0 W/m² 0,6 °C 1,3 °C 4,8 km/h (1 Bft)
28.10.2018 00:39 1,3 °C 95 % 1005,1 hPa 0,0 mm 3,8 km/h (1 Bft) O 94 ° 0 min 0,000 mm 0,0 UV-I 0 W/m² 0,6 °C 1,3 °C 6,4 km/h (2 Bft)
28.10.2018 00:40 1,3 °C 95 % 1005,1 hPa 0,0 mm 3,1 km/h (1 Bft) O 83 ° 0 min 0,000 mm 0,0 UV-I 0 W/m² 0,6 °C 1,3 °C 3,2 km/h (1 Bft)
28.10.2018 00:41 1,3 °C 95 % 1005,1 hPa 0,0 mm 3,6 km/h (1 Bft) O-NO 72 ° 0 min 0,000 mm 0,0 UV-I 0 W/m² 0,6 °C 1,3 °C 4,8 km/h (1 Bft)
28.10.2018 00:42 1,3 °C 95 % 1005,1 hPa 0,0 mm 4,1 km/h (1 Bft) O-NO 59 ° 0 min 0,000 mm 0,0 UV-I 0 W/m² 0,6 °C 1,3 °C 6,4 km/h (2 Bft)
28.10.2018 00:43 1,2 °C 95 % 1005,0 hPa 0,0 mm 3,8 km/h (1 Bft) NO 45 ° 0 min 0,000 mm 0,0 UV-I 0 W/m² 0,5 °C 1,2 °C 6,4 km/h (2 Bft)
28.10.2018 00:44 1,3 °C 95 % 1005,0 hPa 0,0 mm 3,7 km/h (1 Bft) NO 38 ° 0 min 0,000 mm 0,0 UV-I 0 W/m² 0,6 °C 1,3 °C 6,4 km/h (2 Bft)
28.10.2018 00:45 1,3 °C 95 % 1004,9 hPa 0,2 mm 5,2 km/h (1 Bft) NO 36 ° 0 min 0,000 mm 0,0 UV-I 0 W/m² 0,6 °C -0,2 °C 8,0 km/h (2 Bft)
28.10.2018 00:46 1,3 °C 95 % 1004,9 hPa 0,0 mm 3,5 km/h (1 Bft) NO 37 ° 0 min 0,000 mm 0,0 UV-I 0 W/m² 0,6 °C 1,3 °C 6,4 km/h (2 Bft)
28.10.2018 00:47 1,3 °C 95 % 1004,9 hPa 0,0 mm 4,6 km/h (1 Bft) O-NO 78 ° 0 min 0,000 mm 0,0 UV-I 0 W/m² 0,6 °C 0,1 °C 8,0 km/h (2 Bft)
28.10.2018 00:48 1,3 °C 95 % 1004,9 hPa 0,0 mm 3,3 km/h (1 Bft) NO 42 ° 0 min 0,000 mm 0,0 UV-I 0 W/m² 0,6 °C 1,3 °C 4,8 km/h (1 Bft)
28.10.2018 00:49 1,3 °C 95 % 1004,9 hPa 0,0 mm 3,9 km/h (1 Bft) NO 56 ° 0 min 0,000 mm 0,0 UV-I 0 W/m² 0,6 °C 1,3 °C 6,4 km/h (2 Bft)
28.10.2018 00:50 1,3 °C 95 % 1004,9 hPa 0,0 mm 2,3 km/h (1 Bft) NO 56 ° 0 min 0,000 mm 0,0 UV-I 0 W/m² 0,6 °C 1,3 °C 3,2 km/h (1 Bft)
28.10.2018 00:51 1,3 °C 95 % 1004,9 hPa 0,0 mm 1,5 km/h (1 Bft) O-NO 57 ° 0 min 0,000 mm 0,0 UV-I 0 W/m² 0,6 °C 1,3 °C 3,2 km/h (1 Bft)
28.10.2018 00:52 1,3 °C 95 % 1004,9 hPa 0,0 mm 3,2 km/h (1 Bft) O 82 ° 0 min 0,000 mm 0,0 UV-I 0 W/m² 0,6 °C 1,3 °C 6,4 km/h (2 Bft)
28.10.2018 00:53 1,3 °C 95 % 1004,9 hPa 0,0 mm 1,1 km/h (1 Bft) O 82 ° 0 min 0,000 mm 0,0 UV-I 0 W/m² 0,6 °C 1,3 °C 3,2 km/h (1 Bft)
28.10.2018 00:54 1,3 °C 95 % 1004,9 hPa 0,0 mm 1,4 km/h (1 Bft) O 84 ° 0 min 0,000 mm 0,0 UV-I 0 W/m² 0,6 °C 1,3 °C 4,8 km/h (1 Bft)
28.10.2018 00:55 1,3 °C 95 % 1005,0 hPa 0,0 mm 0,5 km/h (0 Bft) O 84 ° 0 min 0,000 mm 0,0 UV-I 0 W/m² 0,6 °C 1,3 °C 3,2 km/h (1 Bft)
28.10.2018 00:56 1,3 °C 95 % 1004,9 hPa 0,0 mm 2,7 km/h (1 Bft) O-NO 59 ° 0 min 0,000 mm 0,0 UV-I 0 W/m² 0,6 °C 1,3 °C 8,0 km/h (2 Bft)
28.10.2018 00:57 1,3 °C 95 % 1004,9 hPa 0,2 mm 4,5 km/h (1 Bft) NO 46 ° 0 min 0,000 mm 0,0 UV-I 0 W/m² 0,6 °C 1,3 °C 8,0 km/h (2 Bft)
28.10.2018 00:58 1,3 °C 95 % 1004,9 hPa 0,0 mm 2,6 km/h (1 Bft) NO 46 ° 0 min 0,000 mm 0,0 UV-I 0 W/m² 0,6 °C 1,3 °C 4,8 km/h (1 Bft)
28.10.2018 00:59 1,3 °C 95 % 1004,9 hPa 0,0 mm 3,5 km/h (1 Bft) S 173 ° 0 min 0,000 mm 0,0 UV-I 0 W/m² 0,6 °C 1,3 °C 9,7 km/h (2 Bft)
28.10.2018 01:00 1,3 °C 95 % 1004,9 hPa 0,0 mm 2,6 km/h (1 Bft) NO 47 ° 0 min 0,000 mm 0,0 UV-I 0 W/m² 0,6 °C 1,3 °C 6,4 km/h (2 Bft)
28.10.2018 01:01 1,3 °C 95 % 1004,9 hPa 0,0 mm 3,1 km/h (1 Bft) SO 129 ° 0 min 0,000 mm 0,0 UV-I 0 W/m² 0,6 °C 1,3 °C 6,4 km/h (2 Bft)
28.10.2018 01:02 1,3 °C 95 % 1004,9 hPa 0,0 mm 3,3 km/h (1 Bft) O-NO 61 ° 0 min 0,000 mm 0,0 UV-I 0 W/m² 0,6 °C 1,3 °C 6,4 km/h (2 Bft)
28.10.2018 01:03 1,3 °C 95 % 1005,0 hPa 0,0 mm 2,3 km/h (1 Bft) O-NO 57 ° 0 min 0,000 mm 0,0 UV-I 0 W/m² 0,6 °C 1,3 °C 6,4 km/h (2 Bft)
28.10.2018 01:04 1,3 °C 95 % 1004,9 hPa 0,0 mm 2,4 km/h (1 Bft) NO 48 ° 0 min 0,000 mm 0,0 UV-I 0 W/m² 0,6 °C 1,3 °C 9,7 km/h (2 Bft)
28.10.2018 01:05 1,3 °C 95 % 1004,9 hPa 0,0 mm 4,7 km/h (1 Bft) O 83 ° 0 min 0,000 mm 0,0 UV-I 0 W/m² 0,6 °C 0,0 °C 6,4 km/h (2 Bft)
28.10.2018 01:06 1,3 °C 95 % 1004,9 hPa 0,0 mm 3,3 km/h (1 Bft) O-NO 65 ° 0 min 0,000 mm 0,0 UV-I 0 W/m² 0,6 °C 1,3 °C 4,8 km/h (1 Bft)
28.10.2018 01:07 1,3 °C 95 % 1004,9 hPa 0,0 mm 0,2 km/h (0 Bft) O-NO 65 ° 0 min 0,000 mm 0,0 UV-I 0 W/m² 0,6 °C 1,3 °C 1,6 km/h (1 Bft)
28.10.2018 01:08 1,3 °C 95 % 1004,9 hPa 0,0 mm 1,7 km/h (1 Bft) O-NO 65 ° 0 min 0,000 mm 0,0 UV-I 0 W/m² 0,6 °C 1,3 °C 4,8 km/h (1 Bft)
28.10.2018 01:09 1,3 °C 95 % 1004,9 hPa 0,0 mm 3,2 km/h (1 Bft) O-NO 65 ° 0 min 0,000 mm 0,0 UV-I 0 W/m² 0,6 °C 1,3 °C 4,8 km/h (1 Bft)
28.10.2018 01:10 1,3 °C 95 % 1004,8 hPa 0,2 mm 1,9 km/h (1 Bft) O-NO 65 ° 0 min 0,000 mm 0,0 UV-I 0 W/m² 0,6 °C 1,3 °C 3,2 km/h (1 Bft)
28.10.2018 01:11 1,3 °C 95 % 1004,8 hPa 0,0 mm 1,5 km/h (1 Bft) O-NO 65 ° 0 min 0,000 mm 0,0 UV-I 0 W/m² 0,6 °C 1,3 °C 3,2 km/h (1 Bft)
28.10.2018 01:12 1,3 °C 95 % 1004,8 hPa 0,0 mm 1,0 km/h (0 Bft) O-NO 65 ° 0 min 0,000 mm 0,0 UV-I 0 W/m² 0,6 °C 1,3 °C 3,2 km/h (1 Bft)
28.10.2018 01:13 1,3 °C 95 % 1004,8 hPa 0,0 mm 0,8 km/h (0 Bft) O-NO 65 ° 0 min 0,000 mm 0,0 UV-I 0 W/m² 0,6 °C 1,3 °C 1,6 km/h (1 Bft)
28.10.2018 01:14 1,3 °C 95 % 1004,8 hPa 0,0 mm 1,9 km/h (1 Bft) O-NO 67 ° 0 min 0,000 mm 0,0 UV-I 0 W/m² 0,6 °C 1,3 °C 4,8 km/h (1 Bft)
28.10.2018 01:15 1,3 °C 95 % 1004,7 hPa 0,0 mm 3,5 km/h (1 Bft) O-NO 63 ° 0 min 0,000 mm 0,0 UV-I 0 W/m² 0,6 °C 1,3 °C 4,8 km/h (1 Bft)
28.10.2018 01:16 1,3 °C 95 % 1004,7 hPa 0,0 mm 2,1 km/h (1 Bft) O-NO 63 ° 0 min 0,000 mm 0,0 UV-I 0 W/m² 0,6 °C 1,3 °C 4,8 km/h (1 Bft)
28.10.2018 01:17 1,3 °C 95 % 1004,7 hPa 0,0 mm 3,5 km/h (1 Bft) NO 42 ° 0 min 0,000 mm 0,0 UV-I 0 W/m² 0,6 °C 1,3 °C 4,8 km/h (1 Bft)
28.10.2018 01:18 1,3 °C 95 % 1004,6 hPa 0,0 mm 0,8 km/h (0 Bft) NO 42 ° 0 min 0,000 mm 0,0 UV-I 0 W/m² 0,6 °C 1,3 °C 3,2 km/h (1 Bft)
28.10.2018 01:19 1,3 °C 95 % 1004,7 hPa 0,0 mm 3,8 km/h (1 Bft) O-NO 67 ° 0 min 0,000 mm 0,0 UV-I 0 W/m² 0,6 °C 1,3 °C 6,4 km/h (2 Bft)
28.10.2018 01:20 1,3 °C 95 % 1004,6 hPa 0,0 mm 3,1 km/h (1 Bft) O 85 ° 0 min 0,000 mm 0,0 UV-I 0 W/m² 0,6 °C 1,3 °C 4,8 km/h (1 Bft)
28.10.2018 01:21 1,3 °C 95 % 1004,6 hPa 0,0 mm 2,5 km/h (1 Bft) O-SO 114 ° 0 min 0,000 mm 0,0 UV-I 0 W/m² 0,6 °C 1,3 °C 6,4 km/h (2 Bft)
28.10.2018 01:22 1,3 °C 95 % 1004,6 hPa 0,2 mm 3,6 km/h (1 Bft) O 90 ° 0 min 0,000 mm 0,0 UV-I 0 W/m² 0,6 °C 1,3 °C 9,7 km/h (2 Bft)
28.10.2018 01:23 1,3 °C 95 % 1004,6 hPa 0,0 mm 6,9 km/h (2 Bft) O-NO 74 ° 0 min 0,000 mm 0,0 UV-I 0 W/m² 0,6 °C -0,9 °C 9,7 km/h (2 Bft)
28.10.2018 01:24 1,3 °C 95 % 1004,6 hPa 0,0 mm 2,7 km/h (1 Bft) O 97 ° 0 min 0,000 mm 0,0 UV-I 0 W/m² 0,6 °C 1,3 °C 4,8 km/h (1 Bft)
28.10.2018 01:25 1,3 °C 95 % 1004,6 hPa 0,0 mm 1,3 km/h (1 Bft) O 97 ° 0 min 0,000 mm 0,0 UV-I 0 W/m² 0,6 °C 1,3 °C 3,2 km/h (1 Bft)
28.10.2018 01:26 1,3 °C 95 % 1004,6 hPa 0,0 mm 2,6 km/h (1 Bft) O 97 ° 0 min 0,000 mm 0,0 UV-I 0 W/m² 0,6 °C 1,3 °C 4,8 km/h (1 Bft)
28.10.2018 01:27 1,3 °C 95 % 1004,6 hPa 0,0 mm 0,0 km/h (0 Bft) O 97 ° 0 min 0,000 mm 0,0 UV-I 0 W/m² 0,6 °C 1,3 °C 0,0 km/h (0 Bft)
28.10.2018 01:28 1,3 °C 95 % 1004,5 hPa 0,0 mm 1,7 km/h (1 Bft) O 83 ° 0 min 0,000 mm 0,0 UV-I 0 W/m² 0,6 °C 1,3 °C 4,8 km/h (1 Bft)
28.10.2018 01:29 1,3 °C 95 % 1004,5 hPa 0,0 mm 3,1 km/h (1 Bft) O 83 ° 0 min 0,000 mm 0,0 UV-I 0 W/m² 0,6 °C 1,3 °C 4,8 km/h (1 Bft)
28.10.2018 01:30 1,3 °C 95 % 1004,4 hPa 0,0 mm 2,7 km/h (1 Bft) O-NO 65 ° 0 min 0,000 mm 0,0 UV-I 0 W/m² 0,6 °C 1,3 °C 4,8 km/h (1 Bft)
28.10.2018 01:31 1,3 °C 95 % 1004,4 hPa 0,0 mm 4,2 km/h (1 Bft) O-NO 74 ° 0 min 0,000 mm 0,0 UV-I 0 W/m² 0,6 °C 1,3 °C 6,4 km/h (2 Bft)
28.10.2018 01:32 1,3 °C 95 % 1004,4 hPa 0,0 mm 4,6 km/h (1 Bft) O-NO 62 ° 0 min 0,000 mm 0,0 UV-I 0 W/m² 0,6 °C 0,1 °C 8,0 km/h (2 Bft)
28.10.2018 01:33 1,3 °C 95 % 1004,4 hPa 0,0 mm 6,6 km/h (2 Bft) O 86 ° 0 min 0,000 mm 0,0 UV-I 0 W/m² 0,6 °C -0,8 °C 9,7 km/h (2 Bft)
28.10.2018 01:34 1,4 °C 95 % 1004,4 hPa 0,0 mm 5,8 km/h (2 Bft) O 84 ° 0 min 0,000 mm 0,0 UV-I 0 W/m² 0,7 °C -0,3 °C 9,7 km/h (2 Bft)
28.10.2018 01:35 1,3 °C 95 % 1004,5 hPa 0,0 mm 2,9 km/h (1 Bft) O 84 ° 0 min 0,000 mm 0,0 UV-I 0 W/m² 0,6 °C 1,3 °C 6,4 km/h (2 Bft)
28.10.2018 01:36 1,3 °C 95 % 1004,5 hPa 0,0 mm 3,0 km/h (1 Bft) O 100 ° 0 min 0,000 mm 0,0 UV-I 0 W/m² 0,6 °C 1,3 °C 4,8 km/h (1 Bft)
28.10.2018 01:37 1,4 °C 95 % 1004,5 hPa 0,2 mm 2,5 km/h (1 Bft) NO 54 ° 0 min 0,000 mm 0,0 UV-I 0 W/m² 0,7 °C 1,4 °C 6,4 km/h (2 Bft)
28.10.2018 01:38 1,4 °C 95 % 1004,5 hPa 0,0 mm 5,9 km/h (2 Bft) NO 46 ° 0 min 0,000 mm 0,0 UV-I 0 W/m² 0,7 °C -0,4 °C 6,4 km/h (2 Bft)
28.10.2018 01:39 1,4 °C 95 % 1004,4 hPa 0,0 mm 6,0 km/h (2 Bft) O-NO 69 ° 0 min 0,000 mm 0,0 UV-I 0 W/m² 0,7 °C -0,4 °C 8,0 km/h (2 Bft)
28.10.2018 01:40 1,4 °C 95 % 1004,4 hPa 0,0 mm 1,6 km/h (1 Bft) O-NO 69 ° 0 min 0,000 mm 0,0 UV-I 0 W/m² 0,7 °C 1,4 °C 3,2 km/h (1 Bft)
28.10.2018 01:41 1,4 °C 95 % 1004,4 hPa 0,0 mm 2,7 km/h (1 Bft) O-NO 75 ° 0 min 0,000 mm 0,0 UV-I 0 W/m² 0,7 °C 1,4 °C 6,4 km/h (2 Bft)
28.10.2018 01:42 1,4 °C 95 % 1004,5 hPa 0,0 mm 3,4 km/h (1 Bft) NO 55 ° 0 min 0,000 mm 0,0 UV-I 0 W/m² 0,7 °C 1,4 °C 6,4 km/h (2 Bft)
28.10.2018 01:43 1,4 °C 95 % 1004,5 hPa 0,0 mm 2,4 km/h (1 Bft) S-SO 150 ° 0 min 0,000 mm 0,0 UV-I 0 W/m² 0,7 °C 1,4 °C 4,8 km/h (1 Bft)
28.10.2018 01:44 1,4 °C 95 % 1004,5 hPa 0,0 mm 4,1 km/h (1 Bft) O-NO 72 ° 0 min 0,000 mm 0,0 UV-I 0 W/m² 0,7 °C 1,4 °C 8,0 km/h (2 Bft)
28.10.2018 01:45 1,4 °C 95 % 1004,5 hPa 0,0 mm 4,4 km/h (1 Bft) O-NO 76 ° 0 min 0,000 mm 0,0 UV-I 0 W/m² 0,7 °C 1,4 °C 6,4 km/h (2 Bft)
28.10.2018 01:46 1,4 °C 95 % 1004,4 hPa 0,0 mm 1,0 km/h (0 Bft) O-NO 76 ° 0 min 0,000 mm 0,0 UV-I 0 W/m² 0,7 °C 1,4 °C 3,2 km/h (1 Bft)
28.10.2018 01:47 1,4 °C 95 % 1004,4 hPa 0,0 mm 2,1 km/h (1 Bft) O-NO 75 ° 0 min 0,000 mm 0,0 UV-I 0 W/m² 0,7 °C 1,4 °C 4,8 km/h (1 Bft)
28.10.2018 01:48 1,4 °C 95 % 1004,4 hPa 0,2 mm 1,6 km/h (1 Bft) O-NO 78 ° 0 min 0,000 mm 0,0 UV-I 0 W/m² 0,7 °C 1,4 °C 4,8 km/h (1 Bft)
28.10.2018 01:49 1,4 °C 95 % 1004,4 hPa 0,0 mm 5,0 km/h (1 Bft) O-SO 105 ° 0 min 0,000 mm 0,0 UV-I 0 W/m² 0,7 °C -0,0 °C 6,4 km/h (2 Bft)
28.10.2018 01:50 1,4 °C 95 % 1004,4 hPa 0,0 mm 3,6 km/h (1 Bft) O-NO 59 ° 0 min 0,000 mm 0,0 UV-I 0 W/m² 0,7 °C 1,4 °C 6,4 km/h (2 Bft)
28.10.2018 01:51 1,4 °C 95 % 1004,3 hPa 0,0 mm 4,4 km/h (1 Bft) O-NO 69 ° 0 min 0,000 mm 0,0 UV-I 0 W/m² 0,7 °C 1,4 °C 6,4 km/h (2 Bft)
28.10.2018 01:52 1,4 °C 95 % 1004,3 hPa 0,0 mm 2,9 km/h (1 Bft) O-NO 61 ° 0 min 0,000 mm 0,0 UV-I 0 W/m² 0,7 °C 1,4 °C 4,8 km/h (1 Bft)
28.10.2018 01:53 1,4 °C 95 % 1004,3 hPa 0,0 mm 2,7 km/h (1 Bft) O 79 ° 0 min 0,000 mm 0,0 UV-I 0 W/m² 0,7 °C 1,4 °C 6,4 km/h (2 Bft)
28.10.2018 01:54 1,4 °C 95 % 1004,2 hPa 0,0 mm 2,7 km/h (1 Bft) O-NO 71 ° 0 min 0,000 mm 0,0 UV-I 0 W/m² 0,7 °C 1,4 °C 4,8 km/h (1 Bft)
28.10.2018 01:55 1,4 °C 95 % 1004,2 hPa 0,0 mm 2,7 km/h (1 Bft) O 89 ° 0 min 0,000 mm 0,0 UV-I 0 W/m² 0,7 °C 1,4 °C 4,8 km/h (1 Bft)
28.10.2018 01:56 1,4 °C 95 % 1004,2 hPa 0,0 mm 3,2 km/h (1 Bft) NO 45 ° 0 min 0,000 mm 0,0 UV-I 0 W/m² 0,7 °C 1,4 °C 4,8 km/h (1 Bft)
28.10.2018 01:57 1,4 °C 95 % 1004,2 hPa 0,0 mm 4,3 km/h (1 Bft) O-NO 74 ° 0 min 0,000 mm 0,0 UV-I 0 W/m² 0,7 °C 1,4 °C 4,8 km/h (1 Bft)
28.10.2018 01:58 1,4 °C 95 % 1004,2 hPa 0,0 mm 3,2 km/h (1 Bft) O-NO 76 ° 0 min 0,000 mm 0,0 UV-I 0 W/m² 0,7 °C 1,4 °C 6,4 km/h (2 Bft)
28.10.2018 01:59 1,5 °C 95 % 1004,2 hPa 0,0 mm 1,7 km/h (1 Bft) O-NO 76 ° 0 min 0,000 mm 0,0 UV-I 0 W/m² 0,8 °C 1,5 °C 3,2 km/h (1 Bft)
28.10.2018 02:00 1,5 °C 95 % 1004,2 hPa 0,0 mm 3,1 km/h (1 Bft) O-NO 76 ° 0 min 0,000 mm 0,0 UV-I 0 W/m² 0,8 °C 1,5 °C 3,2 km/h (1 Bft)
28.10.2018 02:01 1,5 °C 95 % 1004,2 hPa 0,0 mm 2,5 km/h (1 Bft) O 93 ° 0 min 0,000 mm 0,0 UV-I 0 W/m² 0,8 °C 1,5 °C 4,8 km/h (1 Bft)
28.10.2018 02:02 1,5 °C 95 % 1004,2 hPa 0,2 mm 4,2 km/h (1 Bft) O 81 ° 0 min 0,000 mm 0,0 UV-I 0 W/m² 0,8 °C 1,5 °C 6,4 km/h (2 Bft)
28.10.2018 02:03 1,5 °C 95 % 1004,2 hPa 0,0 mm 5,7 km/h (1 Bft) NO 38 ° 0 min 0,000 mm 0,0 UV-I 0 W/m² 0,8 °C -0,2 °C 11,3 km/h (2 Bft)
28.10.2018 02:04 1,6 °C 95 % 1004,1 hPa 0,0 mm 5,9 km/h (2 Bft) O-NO 78 ° 0 min 0,000 mm 0,0 UV-I 0 W/m² 0,9 °C -0,1 °C 11,3 km/h (2 Bft)
28.10.2018 02:05 1,6 °C 95 % 1004,1 hPa 0,0 mm 4,9 km/h (1 Bft) O-NO 57 ° 0 min 0,000 mm 0,0 UV-I 0 W/m² 0,9 °C 0,3 °C 6,4 km/h (2 Bft)
28.10.2018 02:06 1,5 °C 95 % 1004,1 hPa 0,0 mm 2,8 km/h (1 Bft) NO 44 ° 0 min 0,000 mm 0,0 UV-I 0 W/m² 0,8 °C 1,5 °C 4,8 km/h (1 Bft)
28.10.2018 02:07 1,6 °C 95 % 1004,1 hPa 0,0 mm 3,5 km/h (1 Bft) O-NO 62 ° 0 min 0,000 mm 0,0 UV-I 0 W/m² 0,9 °C 1,6 °C 6,4 km/h (2 Bft)
28.10.2018 02:08 1,6 °C 95 % 1004,1 hPa 0,0 mm 1,6 km/h (1 Bft) O-NO 62 ° 0 min 0,000 mm 0,0 UV-I 0 W/m² 0,9 °C 1,6 °C 3,2 km/h (1 Bft)
28.10.2018 02:09 1,6 °C 95 % 1004,1 hPa 0,0 mm 3,5 km/h (1 Bft) N-NO 24 ° 0 min 0,000 mm 0,0 UV-I 0 W/m² 0,9 °C 1,6 °C 6,4 km/h (2 Bft)
28.10.2018 02:10 1,6 °C 95 % 1004,1 hPa 0,0 mm 4,2 km/h (1 Bft) O 87 ° 0 min 0,000 mm 0,0 UV-I 0 W/m² 0,9 °C 1,6 °C 6,4 km/h (2 Bft)
28.10.2018 02:11 1,6 °C 95 % 1004,1 hPa 0,0 mm 5,1 km/h (1 Bft) NO 43 ° 0 min 0,000 mm 0,0 UV-I 0 W/m² 0,9 °C 0,2 °C 9,7 km/h (2 Bft)
28.10.2018 02:12 1,6 °C 95 % 1004,1 hPa 0,0 mm 4,7 km/h (1 Bft) NO 42 ° 0 min 0,000 mm 0,0 UV-I 0 W/m² 0,9 °C 0,4 °C 8,0 km/h (2 Bft)
28.10.2018 02:13 1,6 °C 95 % 1004,1 hPa 0,0 mm 6,2 km/h (2 Bft) O-NO 61 ° 0 min 0,000 mm 0,0 UV-I 0 W/m² 0,9 °C -0,3 °C 9,7 km/h (2 Bft)
28.10.2018 02:14 1,6 °C 95 % 1004,1 hPa 0,0 mm 3,2 km/h (1 Bft) NO 35 ° 0 min 0,000 mm 0,0 UV-I 0 W/m² 0,9 °C 1,6 °C 4,8 km/h (1 Bft)
28.10.2018 02:15 1,6 °C 95 % 1004,1 hPa 0,0 mm 4,7 km/h (1 Bft) O-NO 58 ° 0 min 0,000 mm 0,0 UV-I 0 W/m² 0,9 °C 0,4 °C 6,4 km/h (2 Bft)
28.10.2018 02:16 1,6 °C 95 % 1004,1 hPa 0,2 mm 5,8 km/h (2 Bft) N-NO 28 ° 0 min 0,000 mm 0,0 UV-I 0 W/m² 0,9 °C -0,1 °C 9,7 km/h (2 Bft)
28.10.2018 02:17 1,6 °C 95 % 1004,0 hPa 0,0 mm 2,8 km/h (1 Bft) NO 46 ° 0 min 0,000 mm 0,0 UV-I 0 W/m² 0,9 °C 1,6 °C 8,0 km/h (2 Bft)
28.10.2018 02:18 1,6 °C 95 % 1004,0 hPa 0,0 mm 0,1 km/h (0 Bft) NO 46 ° 0 min 0,000 mm 0,0 UV-I 0 W/m² 0,9 °C 1,6 °C 1,6 km/h (1 Bft)
28.10.2018 02:19 1,6 °C 95 % 1004,1 hPa 0,0 mm 0,4 km/h (0 Bft) NO 46 ° 0 min 0,000 mm 0,0 UV-I 0 W/m² 0,9 °C 1,6 °C 1,6 km/h (1 Bft)
28.10.2018 02:20 1,6 °C 95 % 1004,1 hPa 0,0 mm 1,5 km/h (1 Bft) O-NO 71 ° 0 min 0,000 mm 0,0 UV-I 0 W/m² 0,9 °C 1,6 °C 8,0 km/h (2 Bft)
28.10.2018 02:21 1,7 °C 95 % 1004,0 hPa 0,0 mm 4,2 km/h (1 Bft) O-NO 61 ° 0 min 0,000 mm 0,0 UV-I 0 W/m² 1,0 °C 1,7 °C 6,4 km/h (2 Bft)
28.10.2018 02:22 1,6 °C 95 % 1004,0 hPa 0,0 mm 3,9 km/h (1 Bft) O-NO 60 ° 0 min 0,000 mm 0,0 UV-I 0 W/m² 0,9 °C 1,6 °C 8,0 km/h (2 Bft)
28.10.2018 02:23 1,6 °C 95 % 1004,1 hPa 0,0 mm 3,0 km/h (1 Bft) O-NO 60 ° 0 min 0,000 mm 0,0 UV-I 0 W/m² 0,9 °C 1,6 °C 4,8 km/h (1 Bft)
28.10.2018 02:24 1,6 °C 95 % 1004,0 hPa 0,0 mm 1,6 km/h (1 Bft) O-NO 61 ° 0 min 0,000 mm 0,0 UV-I 0 W/m² 0,9 °C 1,6 °C 3,2 km/h (1 Bft)
28.10.2018 02:25 1,7 °C 95 % 1004,0 hPa 0,0 mm 1,1 km/h (1 Bft) O 92 ° 0 min 0,000 mm 0,0 UV-I 0 W/m² 1,0 °C 1,7 °C 4,8 km/h (1 Bft)
28.10.2018 02:26 1,7 °C 95 % 1004,0 hPa 0,0 mm 5,8 km/h (2 Bft) O-NO 59 ° 0 min 0,000 mm 0,0 UV-I 0 W/m² 1,0 °C 0,0 °C 9,7 km/h (2 Bft)
28.10.2018 02:27 1,6 °C 95 % 1004,0 hPa 0,0 mm 3,6 km/h (1 Bft) O-NO 57 ° 0 min 0,000 mm 0,0 UV-I 0 W/m² 0,9 °C 1,6 °C 4,8 km/h (1 Bft)
28.10.2018 02:28 1,7 °C 95 % 1004,1 hPa 0,0 mm 5,7 km/h (1 Bft) O-NO 74 ° 0 min 0,000 mm 0,0 UV-I 0 W/m² 1,0 °C 0,0 °C 8,0 km/h (2 Bft)
28.10.2018 02:29 1,6 °C 95 % 1004,0 hPa 0,0 mm 5,8 km/h (2 Bft) O 86 ° 0 min 0,000 mm 0,0 UV-I 0 W/m² 0,9 °C -0,1 °C 8,0 km/h (2 Bft)
28.10.2018 02:30 1,7 °C 95 % 1004,0 hPa 0,0 mm 1,0 km/h (0 Bft) O 86 ° 0 min 0,000 mm 0,0 UV-I 0 W/m² 1,0 °C 1,7 °C 4,8 km/h (1 Bft)
28.10.2018 02:31 1,7 °C 95 % 1004,0 hPa 0,0 mm 0,0 km/h (0 Bft) O 86 ° 0 min 0,000 mm 0,0 UV-I 0 W/m² 1,0 °C 1,7 °C 0,0 km/h (0 Bft)
28.10.2018 02:32 1,7 °C 95 % 1004,0 hPa 0,2 mm 5,2 km/h (1 Bft) NO 46 ° 0 min 0,000 mm 0,0 UV-I 0 W/m² 1,0 °C 0,3 °C 8,0 km/h (2 Bft)
28.10.2018 02:33 1,7 °C 95 % 1004,0 hPa 0,0 mm 5,5 km/h (1 Bft) O-NO 60 ° 0 min 0,000 mm 0,0 UV-I 0 W/m² 1,0 °C 0,1 °C 11,3 km/h (2 Bft)
28.10.2018 02:34 1,7 °C 95 % 1004,0 hPa 0,0 mm 2,1 km/h (1 Bft) O-NO 60 ° 0 min 0,000 mm 0,0 UV-I 0 W/m² 1,0 °C 1,7 °C 4,8 km/h (1 Bft)
28.10.2018 02:35 1,7 °C 95 % 1004,0 hPa 0,0 mm 1,3 km/h (1 Bft) O-NO 57 ° 0 min 0,000 mm 0,0 UV-I 0 W/m² 1,0 °C 1,7 °C 6,4 km/h (2 Bft)
28.10.2018 02:36 1,7 °C 95 % 1004,0 hPa 0,0 mm 6,6 km/h (2 Bft) O-NO 76 ° 0 min 0,000 mm 0,0 UV-I 0 W/m² 1,0 °C -0,3 °C 12,9 km/h (3 Bft)
28.10.2018 02:37 1,7 °C 95 % 1004,1 hPa 0,0 mm 4,4 km/h (1 Bft) O 85 ° 0 min 0,000 mm 0,0 UV-I 0 W/m² 1,0 °C 1,7 °C 11,3 km/h (2 Bft)
28.10.2018 02:38 1,7 °C 95 % 1004,1 hPa 0,0 mm 1,8 km/h (1 Bft) O 86 ° 0 min 0,000 mm 0,0 UV-I 0 W/m² 1,0 °C 1,7 °C 4,8 km/h (1 Bft)
28.10.2018 02:39 1,7 °C 95 % 1004,1 hPa 0,0 mm 2,6 km/h (1 Bft) O-SO 109 ° 0 min 0,000 mm 0,0 UV-I 0 W/m² 1,0 °C 1,7 °C 14,5 km/h (3 Bft)
28.10.2018 02:40 1,7 °C 95 % 1004,1 hPa 0,0 mm 8,1 km/h (2 Bft) O-SO 103 ° 0 min 0,000 mm 0,0 UV-I 0 W/m² 1,0 °C -0,8 °C 12,9 km/h (3 Bft)
28.10.2018 02:41 1,7 °C 95 % 1004,0 hPa 0,0 mm 6,8 km/h (2 Bft) O-NO 63 ° 0 min 0,000 mm 0,0 UV-I 0 W/m² 1,0 °C -0,4 °C 11,3 km/h (2 Bft)
28.10.2018 02:42 1,7 °C 95 % 1003,9 hPa 0,0 mm 4,8 km/h (1 Bft) O-NO 74 ° 0 min 0,000 mm 0,0 UV-I 0 W/m² 1,0 °C 0,4 °C 6,4 km/h (2 Bft)
28.10.2018 02:43 1,7 °C 95 % 1004,0 hPa 0,0 mm 2,5 km/h (1 Bft) O-NO 72 ° 0 min 0,000 mm 0,0 UV-I 0 W/m² 1,0 °C 1,7 °C 4,8 km/h (1 Bft)
28.10.2018 02:44 1,8 °C 95 % 1003,9 hPa 0,2 mm 3,9 km/h (1 Bft) O-NO 69 ° 0 min 0,000 mm 0,0 UV-I 0 W/m² 1,1 °C 1,8 °C 6,4 km/h (2 Bft)
28.10.2018 02:45 1,7 °C 95 % 1003,9 hPa 0,0 mm 2,1 km/h (1 Bft) NO 53 ° 0 min 0,000 mm 0,0 UV-I 0 W/m² 1,0 °C 1,7 °C 3,2 km/h (1 Bft)
28.10.2018 02:46 1,8 °C 95 % 1003,9 hPa 0,0 mm 5,2 km/h (1 Bft) S-SO 168 ° 0 min 0,000 mm 0,0 UV-I 0 W/m² 1,1 °C 0,4 °C 9,7 km/h (2 Bft)
28.10.2018 02:47 1,8 °C 95 % 1003,9 hPa 0,0 mm 3,7 km/h (1 Bft) O-NO 62 ° 0 min 0,000 mm 0,0 UV-I 0 W/m² 1,1 °C 1,8 °C 6,4 km/h (2 Bft)
28.10.2018 02:48 1,7 °C 95 % 1003,9 hPa 0,0 mm 3,6 km/h (1 Bft) O 88 ° 0 min 0,000 mm 0,0 UV-I 0 W/m² 1,0 °C 1,7 °C 4,8 km/h (1 Bft)
28.10.2018 02:49 1,8 °C 95 % 1003,8 hPa 0,0 mm 6,0 km/h (2 Bft) NO 40 ° 0 min 0,000 mm 0,0 UV-I 0 W/m² 1,1 °C 0,0 °C 9,7 km/h (2 Bft)
28.10.2018 02:50 1,8 °C 95 % 1003,8 hPa 0,0 mm 3,8 km/h (1 Bft) O-NO 63 ° 0 min 0,000 mm 0,0 UV-I 0 W/m² 1,1 °C 1,8 °C 8,0 km/h (2 Bft)
28.10.2018 02:51 1,8 °C 95 % 1003,7 hPa 0,0 mm 5,4 km/h (1 Bft) O 86 ° 0 min 0,000 mm 0,0 UV-I 0 W/m² 1,1 °C 0,3 °C 8,0 km/h (2 Bft)
28.10.2018 02:52 1,8 °C 95 % 1003,7 hPa 0,0 mm 2,9 km/h (1 Bft) O-NO 59 ° 0 min 0,000 mm 0,0 UV-I 0 W/m² 1,1 °C 1,8 °C 8,0 km/h (2 Bft)
28.10.2018 02:53 1,8 °C 95 % 1003,7 hPa 0,0 mm 6,2 km/h (2 Bft) SO 135 ° 0 min 0,000 mm 0,0 UV-I 0 W/m² 1,1 °C -0,0 °C 9,7 km/h (2 Bft)
28.10.2018 02:54 1,8 °C 95 % 1003,7 hPa 0,0 mm 6,1 km/h (2 Bft) O-NO 68 ° 0 min 0,000 mm 0,0 UV-I 0 W/m² 1,1 °C 0,0 °C 8,0 km/h (2 Bft)
28.10.2018 02:55 1,8 °C 95 % 1003,7 hPa 0,0 mm 7,0 km/h (2 Bft) O-NO 65 ° 0 min 0,000 mm 0,0 UV-I 0 W/m² 1,1 °C -0,3 °C 11,3 km/h (2 Bft)
28.10.2018 02:56 1,8 °C 95 % 1003,7 hPa 0,0 mm 4,1 km/h (1 Bft) O-NO 71 ° 0 min 0,000 mm 0,0 UV-I 0 W/m² 1,1 °C 1,8 °C 6,4 km/h (2 Bft)
28.10.2018 02:57 1,8 °C 95 % 1003,6 hPa 0,0 mm 13,5 km/h (3 Bft) O-NO 60 ° 0 min 0,000 mm 0,0 UV-I 0 W/m² 1,1 °C -1,9 °C 24,1 km/h (4 Bft)
28.10.2018 02:58 1,8 °C 95 % 1003,6 hPa 0,0 mm 13,6 km/h (3 Bft) O-NO 70 ° 0 min 0,000 mm 0,0 UV-I 0 W/m² 1,1 °C -1,9 °C 22,5 km/h (4 Bft)
28.10.2018 02:59 1,8 °C 95 % 1003,6 hPa 0,2 mm 8,6 km/h (2 Bft) NO 49 ° 0 min 0,000 mm 0,0 UV-I 0 W/m² 1,1 °C -0,8 °C 12,9 km/h (3 Bft)
28.10.2018 02:00 1,8 °C 95 % 1003,6 hPa 0,0 mm 8,9 km/h (2 Bft) O-NO 75 ° 0 min 0,000 mm 0,0 UV-I 0 W/m² 1,1 °C -0,9 °C 12,9 km/h (3 Bft)
28.10.2018 02:02 1,8 °C 95 % 1003,6 hPa 0,0 mm 6,7 km/h (2 Bft) O 100 ° 0 min 0,000 mm 0,0 UV-I 0 W/m² 1,1 °C -0,2 °C 12,9 km/h (3 Bft)
28.10.2018 02:03 1,8 °C 95 % 1003,6 hPa 0,0 mm 5,0 km/h (1 Bft) N-NO 25 ° 0 min 0,000 mm 0,0 UV-I 0 W/m² 1,1 °C 0,5 °C 9,7 km/h (2 Bft)
28.10.2018 02:04 1,8 °C 95 % 1003,6 hPa 0,0 mm 1,6 km/h (1 Bft) O-SO 106 ° 0 min 0,000 mm 0,0 UV-I 0 W/m² 1,1 °C 1,8 °C 4,8 km/h (1 Bft)
28.10.2018 02:05 1,8 °C 95 % 1003,6 hPa 0,0 mm 2,7 km/h (1 Bft) O-NO 63 ° 0 min 0,000 mm 0,0 UV-I 0 W/m² 1,1 °C 1,8 °C 8,0 km/h (2 Bft)
28.10.2018 02:06 1,8 °C 95 % 1003,6 hPa 0,0 mm 7,4 km/h (2 Bft) S-SO 148 ° 0 min 0,000 mm 0,0 UV-I 0 W/m² 1,1 °C -0,4 °C 14,5 km/h (3 Bft)
28.10.2018 02:07 1,8 °C 95 % 1003,6 hPa 0,0 mm 10,9 km/h (2 Bft) O 89 ° 0 min 0,000 mm 0,0 UV-I 0 W/m² 1,1 °C -1,4 °C 17,7 km/h (3 Bft)
28.10.2018 02:08 1,8 °C 95 % 1003,5 hPa 0,0 mm 6,3 km/h (2 Bft) O-NO 63 ° 0 min 0,000 mm 0,0 UV-I 0 W/m² 1,1 °C -0,1 °C 9,7 km/h (2 Bft)
28.10.2018 02:09 1,8 °C 95 % 1003,5 hPa 0,2 mm 12,8 km/h (3 Bft) NO 51 ° 0 min 0,000 mm 0,0 UV-I 0 W/m² 1,1 °C -1,8 °C 17,7 km/h (3 Bft)
28.10.2018 02:10 1,8 °C 95 % 1003,4 hPa 0,0 mm 6,6 km/h (2 Bft) O-NO 57 ° 0 min 0,000 mm 0,0 UV-I 0 W/m² 1,1 °C -0,2 °C 9,7 km/h (2 Bft)
28.10.2018 02:11 1,8 °C 95 % 1003,4 hPa 0,0 mm 3,4 km/h (1 Bft) SO 140 ° 0 min 0,000 mm 0,0 UV-I 0 W/m² 1,1 °C 1,8 °C 8,0 km/h (2 Bft)
28.10.2018 02:12 1,8 °C 95 % 1003,3 hPa 0,0 mm 9,2 km/h (2 Bft) O-NO 73 ° 0 min 0,000 mm 0,0 UV-I 0 W/m² 1,1 °C -1,0 °C 17,7 km/h (3 Bft)
28.10.2018 02:13 1,8 °C 95 % 1003,4 hPa 0,0 mm 15,2 km/h (3 Bft) O-SO 103 ° 0 min 0,000 mm 0,0 UV-I 0 W/m² 1,1 °C -2,2 °C 22,5 km/h (4 Bft)
28.10.2018 02:14 1,9 °C 95 % 1003,4 hPa 0,0 mm 7,1 km/h (2 Bft) N-NO 29 ° 0 min 0,000 mm 0,0 UV-I 0 W/m² 1,2 °C -0,2 °C 12,9 km/h (3 Bft)
28.10.2018 02:15 1,8 °C 95 % 1003,5 hPa 0,0 mm 4,0 km/h (1 Bft) O-NO 75 ° 0 min 0,000 mm 0,0 UV-I 0 W/m² 1,1 °C 1,8 °C 14,5 km/h (3 Bft)
28.10.2018 02:16 1,8 °C 95 % 1003,5 hPa 0,0 mm 3,6 km/h (1 Bft) O 82 ° 0 min 0,000 mm 0,0 UV-I 0 W/m² 1,1 °C 1,8 °C 8,0 km/h (2 Bft)
28.10.2018 02:17 1,8 °C 95 % 1003,5 hPa 0,0 mm 7,4 km/h (2 Bft) NO 44 ° 0 min 0,000 mm 0,0 UV-I 0 W/m² 1,1 °C -0,4 °C 14,5 km/h (3 Bft)
28.10.2018 02:18 1,9 °C 95 % 1003,5 hPa 0,0 mm 7,6 km/h (2 Bft) NO 51 ° 0 min 0,000 mm 0,0 UV-I 0 W/m² 1,2 °C -0,4 °C 9,7 km/h (2 Bft)
28.10.2018 02:19 1,8 °C 95 % 1003,4 hPa 0,0 mm 4,1 km/h (1 Bft) O 85 ° 0 min 0,000 mm 0,0 UV-I 0 W/m² 1,1 °C 1,8 °C 6,4 km/h (2 Bft)
28.10.2018 02:20 1,9 °C 95 % 1003,4 hPa 0,0 mm 3,2 km/h (1 Bft) O 98 ° 0 min 0,000 mm 0,0 UV-I 0 W/m² 1,2 °C 1,9 °C 4,8 km/h (1 Bft)
28.10.2018 02:21 1,8 °C 95 % 1003,5 hPa 0,0 mm 2,5 km/h (1 Bft) NO 42 ° 0 min 0,000 mm 0,0 UV-I 0 W/m² 1,1 °C 1,8 °C 6,4 km/h (2 Bft)
28.10.2018 02:22 1,8 °C 95 % 1003,5 hPa 0,0 mm 4,4 km/h (1 Bft) S-SO 159 ° 0 min 0,000 mm 0,0 UV-I 0 W/m² 1,1 °C 1,8 °C 6,4 km/h (2 Bft)
28.10.2018 02:23 1,8 °C 95 % 1003,4 hPa 0,2 mm 2,7 km/h (1 Bft) O 79 ° 0 min 0,000 mm 0,0 UV-I 0 W/m² 1,1 °C 1,8 °C 6,4 km/h (2 Bft)
28.10.2018 02:24 1,8 °C 95 % 1003,4 hPa 0,0 mm 7,1 km/h (2 Bft) SO 126 ° 0 min 0,000 mm 0,0 UV-I 0 W/m² 1,1 °C -0,3 °C 11,3 km/h (2 Bft)
28.10.2018 02:25 1,9 °C 95 % 1003,4 hPa 0,0 mm 7,1 km/h (2 Bft) O-NO 57 ° 0 min 0,000 mm 0,0 UV-I 0 W/m² 1,2 °C -0,2 °C 11,3 km/h (2 Bft)
28.10.2018 02:26 1,9 °C 95 % 1003,3 hPa 0,0 mm 6,0 km/h (2 Bft) NO 50 ° 0 min 0,000 mm 0,0 UV-I 0 W/m² 1,2 °C 0,2 °C 14,5 km/h (3 Bft)
28.10.2018 02:27 1,9 °C 95 % 1003,4 hPa 0,0 mm 6,7 km/h (2 Bft) O-NO 64 ° 0 min 0,000 mm 0,0 UV-I 0 W/m² 1,2 °C -0,1 °C 11,3 km/h (2 Bft)
28.10.2018 02:28 1,9 °C 95 % 1003,4 hPa 0,0 mm 4,9 km/h (1 Bft) O-NO 76 ° 0 min 0,000 mm 0,0 UV-I 0 W/m² 1,2 °C 0,6 °C 8,0 km/h (2 Bft)
28.10.2018 02:29 1,9 °C 95 % 1003,4 hPa 0,0 mm 2,3 km/h (1 Bft) NO 50 ° 0 min 0,000 mm 0,0 UV-I 0 W/m² 1,2 °C 1,9 °C 4,8 km/h (1 Bft)
28.10.2018 02:30 1,9 °C 95 % 1003,4 hPa 0,0 mm 4,5 km/h (1 Bft) NO 55 ° 0 min 0,000 mm 0,0 UV-I 0 W/m² 1,2 °C 1,9 °C 9,7 km/h (2 Bft)
28.10.2018 02:31 1,9 °C 95 % 1003,4 hPa 0,0 mm 6,9 km/h (2 Bft) O-NO 78 ° 0 min 0,000 mm 0,0 UV-I 0 W/m² 1,2 °C -0,2 °C 11,3 km/h (2 Bft)
28.10.2018 02:32 1,9 °C 95 % 1003,4 hPa 0,0 mm 2,3 km/h (1 Bft) O-NO 69 ° 0 min 0,000 mm 0,0 UV-I 0 W/m² 1,2 °C 1,9 °C 3,2 km/h (1 Bft)
28.10.2018 02:33 1,9 °C 95 % 1003,4 hPa 0,0 mm 3,6 km/h (1 Bft) O 86 ° 0 min 0,000 mm 0,0 UV-I 0 W/m² 1,2 °C 1,9 °C 6,4 km/h (2 Bft)
28.10.2018 02:34 1,9 °C 95 % 1003,4 hPa 0,0 mm 4,3 km/h (1 Bft) O-NO 60 ° 0 min 0,000 mm 0,0 UV-I 0 W/m² 1,2 °C 1,9 °C 6,4 km/h (2 Bft)
28.10.2018 02:35 1,9 °C 95 % 1003,4 hPa 0,0 mm 5,9 km/h (2 Bft) O-NO 65 ° 0 min 0,000 mm 0,0 UV-I 0 W/m² 1,2 °C 0,2 °C 9,7 km/h (2 Bft)
28.10.2018 02:36 1,9 °C 95 % 1003,4 hPa 0,0 mm 4,5 km/h (1 Bft) O-NO 72 ° 0 min 0,000 mm 0,0 UV-I 0 W/m² 1,2 °C 1,9 °C 6,4 km/h (2 Bft)
28.10.2018 02:37 1,9 °C 95 % 1003,4 hPa 0,2 mm 5,0 km/h (1 Bft) O-NO 75 ° 0 min 0,000 mm 0,0 UV-I 0 W/m² 1,2 °C 0,6 °C 8,0 km/h (2 Bft)
28.10.2018 02:38 1,9 °C 95 % 1003,3 hPa 0,0 mm 5,0 km/h (1 Bft) O-NO 71 ° 0 min 0,000 mm 0,0 UV-I 0 W/m² 1,2 °C 0,6 °C 8,0 km/h (2 Bft)
28.10.2018 02:39 1,9 °C 95 % 1003,3 hPa 0,0 mm 9,4 km/h (2 Bft) O-NO 66 ° 0 min 0,000 mm 0,0 UV-I 0 W/m² 1,2 °C -0,9 °C 14,5 km/h (3 Bft)
28.10.2018 02:40 1,9 °C 95 % 1003,3 hPa 0,0 mm 3,8 km/h (1 Bft) O-NO 76 ° 0 min 0,000 mm 0,0 UV-I 0 W/m² 1,2 °C 1,9 °C 6,4 km/h (2 Bft)
28.10.2018 02:41 1,9 °C 95 % 1003,2 hPa 0,0 mm 5,0 km/h (1 Bft) O-NO 75 ° 0 min 0,000 mm 0,0 UV-I 0 W/m² 1,2 °C 0,6 °C 6,4 km/h (2 Bft)
28.10.2018 02:42 1,9 °C 95 % 1003,3 hPa 0,0 mm 3,1 km/h (1 Bft) NO 56 ° 0 min 0,000 mm 0,0 UV-I 0 W/m² 1,2 °C 1,9 °C 6,4 km/h (2 Bft)
28.10.2018 02:43 1,9 °C 95 % 1003,3 hPa 0,0 mm 5,4 km/h (1 Bft) O-NO 63 ° 0 min 0,000 mm 0,0 UV-I 0 W/m² 1,2 °C 0,4 °C 6,4 km/h (2 Bft)
28.10.2018 02:44 1,9 °C 95 % 1003,3 hPa 0,0 mm 6,4 km/h (2 Bft) O-NO 76 ° 0 min 0,000 mm 0,0 UV-I 0 W/m² 1,2 °C 0,0 °C 12,9 km/h (3 Bft)
28.10.2018 02:45 1,9 °C 95 % 1003,2 hPa 0,0 mm 6,5 km/h (2 Bft) O 84 ° 0 min 0,000 mm 0,0 UV-I 0 W/m² 1,2 °C -0,0 °C 9,7 km/h (2 Bft)
28.10.2018 02:46 2,0 °C 95 % 1003,2 hPa 0,0 mm 4,8 km/h (1 Bft) O-NO 70 ° 0 min 0,000 mm 0,0 UV-I 0 W/m² 1,3 °C 0,8 °C 8,0 km/h (2 Bft)
28.10.2018 02:47 2,0 °C 95 % 1003,2 hPa 0,0 mm 4,2 km/h (1 Bft) O 88 ° 0 min 0,000 mm 0,0 UV-I 0 W/m² 1,3 °C 2,0 °C 9,7 km/h (2 Bft)
28.10.2018 02:48 2,0 °C 95 % 1003,2 hPa 0,0 mm 4,2 km/h (1 Bft) NO 52 ° 0 min 0,000 mm 0,0 UV-I 0 W/m² 1,3 °C 2,0 °C 8,0 km/h (2 Bft)
28.10.2018 02:49 2,0 °C 95 % 1003,2 hPa 0,0 mm 4,7 km/h (1 Bft) O-NO 74 ° 0 min 0,000 mm 0,0 UV-I 0 W/m² 1,3 °C 0,8 °C 6,4 km/h (2 Bft)
28.10.2018 02:50 2,0 °C 95 % 1003,2 hPa 0,0 mm 1,3 km/h (1 Bft) O-NO 73 ° 0 min 0,000 mm 0,0 UV-I 0 W/m² 1,3 °C 2,0 °C 4,8 km/h (1 Bft)
28.10.2018 02:51 2,0 °C 95 % 1003,1 hPa 0,0 mm 2,4 km/h (1 Bft) O-NO 64 ° 0 min 0,000 mm 0,0 UV-I 0 W/m² 1,3 °C 2,0 °C 4,8 km/h (1 Bft)
28.10.2018 02:52 2,0 °C 95 % 1003,1 hPa 0,0 mm 3,5 km/h (1 Bft) O 82 ° 0 min 0,000 mm 0,0 UV-I 0 W/m² 1,3 °C 2,0 °C 6,4 km/h (2 Bft)
28.10.2018 02:53 2,0 °C 95 % 1003,1 hPa 0,2 mm 5,5 km/h (1 Bft) O-NO 76 ° 0 min 0,000 mm 0,0 UV-I 0 W/m² 1,3 °C 0,5 °C 9,7 km/h (2 Bft)
28.10.2018 02:54 2,0 °C 95 % 1003,1 hPa 0,0 mm 5,1 km/h (1 Bft) O-NO 62 ° 0 min 0,000 mm 0,0 UV-I 0 W/m² 1,3 °C 0,6 °C 6,4 km/h (2 Bft)
28.10.2018 02:55 2,0 °C 95 % 1003,1 hPa 0,0 mm 4,5 km/h (1 Bft) NO 43 ° 0 min 0,000 mm 0,0 UV-I 0 W/m² 1,3 °C 2,0 °C 6,4 km/h (2 Bft)
28.10.2018 02:56 2,0 °C 95 % 1003,1 hPa 0,0 mm 3,2 km/h (1 Bft) NO 51 ° 0 min 0,000 mm 0,0 UV-I 0 W/m² 1,3 °C 2,0 °C 4,8 km/h (1 Bft)
28.10.2018 02:57 2,0 °C 95 % 1003,1 hPa 0,0 mm 1,7 km/h (1 Bft) NO 55 ° 0 min 0,000 mm 0,0 UV-I 0 W/m² 1,3 °C 2,0 °C 6,4 km/h (2 Bft)
28.10.2018 02:58 2,0 °C 95 % 1003,1 hPa 0,0 mm 3,9 km/h (1 Bft) O 98 ° 0 min 0,000 mm 0,0 UV-I 0 W/m² 1,3 °C 2,0 °C 4,8 km/h (1 Bft)
28.10.2018 02:59 2,1 °C 95 % 1003,1 hPa 0,0 mm 2,7 km/h (1 Bft) O-NO 59 ° 0 min 0,000 mm 0,0 UV-I 0 W/m² 1,4 °C 2,1 °C 6,4 km/h (2 Bft)
28.10.2018 03:00 2,1 °C 95 % 1003,1 hPa 0,0 mm 5,2 km/h (1 Bft) NO 43 ° 0 min 0,000 mm 0,0 UV-I 0 W/m² 1,4 °C 0,7 °C 9,7 km/h (2 Bft)
28.10.2018 03:01 2,1 °C 95 % 1003,1 hPa 0,0 mm 3,5 km/h (1 Bft) O-NO 74 ° 0 min 0,000 mm 0,0 UV-I 0 W/m² 1,4 °C 2,1 °C 6,4 km/h (2 Bft)
28.10.2018 03:02 2,1 °C 95 % 1003,1 hPa 0,0 mm 4,5 km/h (1 Bft) O-NO 64 ° 0 min 0,000 mm 0,0 UV-I 0 W/m² 1,4 °C 2,1 °C 9,7 km/h (2 Bft)
28.10.2018 03:03 2,1 °C 95 % 1003,1 hPa 0,0 mm 3,8 km/h (1 Bft) O-NO 64 ° 0 min 0,000 mm 0,0 UV-I 0 W/m² 1,4 °C 2,1 °C 4,8 km/h (1 Bft)
28.10.2018 03:04 2,1 °C 95 % 1003,1 hPa 0,0 mm 8,0 km/h (2 Bft) O 81 ° 0 min 0,000 mm 0,0 UV-I 0 W/m² 1,4 °C -0,3 °C 11,3 km/h (2 Bft)
28.10.2018 03:05 2,1 °C 95 % 1003,1 hPa 0,0 mm 5,5 km/h (1 Bft) O-NO 67 ° 0 min 0,000 mm 0,0 UV-I 0 W/m² 1,4 °C 0,6 °C 8,0 km/h (2 Bft)
28.10.2018 03:06 2,1 °C 95 % 1003,1 hPa 0,0 mm 4,4 km/h (1 Bft) O-NO 69 ° 0 min 0,000 mm 0,0 UV-I 0 W/m² 1,4 °C 2,1 °C 6,4 km/h (2 Bft)
28.10.2018 03:07 2,1 °C 96 % 1003,0 hPa 0,0 mm 2,4 km/h (1 Bft) NO 40 ° 0 min 0,000 mm 0,0 UV-I 0 W/m² 1,5 °C 2,1 °C 4,8 km/h (1 Bft)
28.10.2018 03:08 2,1 °C 96 % 1003,0 hPa 0,0 mm 3,2 km/h (1 Bft) N 11 ° 0 min 0,000 mm 0,0 UV-I 0 W/m² 1,5 °C 2,1 °C 6,4 km/h (2 Bft)
28.10.2018 03:09 2,1 °C 95 % 1003,0 hPa 0,0 mm 0,6 km/h (0 Bft) N-NO 30 ° 0 min 0,000 mm 0,0 UV-I 0 W/m² 1,4 °C 2,1 °C 3,2 km/h (1 Bft)
28.10.2018 03:10 2,2 °C 95 % 1003,0 hPa 0,0 mm 4,4 km/h (1 Bft) O-NO 63 ° 0 min 0,000 mm 0,0 UV-I 0 W/m² 1,5 °C 2,2 °C 6,4 km/h (2 Bft)
28.10.2018 03:11 2,1 °C 95 % 1003,0 hPa 0,0 mm 7,3 km/h (2 Bft) O-NO 68 ° 0 min 0,000 mm 0,0 UV-I 0 W/m² 1,4 °C -0,1 °C 11,3 km/h (2 Bft)
28.10.2018 03:12 2,1 °C 95 % 1002,9 hPa 0,0 mm 6,9 km/h (2 Bft) O 89 ° 0 min 0,000 mm 0,0 UV-I 0 W/m² 1,4 °C 0,1 °C 12,9 km/h (3 Bft)
28.10.2018 03:13 2,2 °C 95 % 1003,0 hPa 0,2 mm 10,7 km/h (2 Bft) O-NO 69 ° 0 min 0,000 mm 0,0 UV-I 0 W/m² 1,5 °C -0,9 °C 14,5 km/h (3 Bft)
28.10.2018 03:14 2,2 °C 95 % 1003,0 hPa 0,0 mm 8,2 km/h (2 Bft) O-NO 57 ° 0 min 0,000 mm 0,0 UV-I 0 W/m² 1,5 °C -0,2 °C 14,5 km/h (3 Bft)
28.10.2018 03:15 2,2 °C 95 % 1003,0 hPa 0,0 mm 9,1 km/h (2 Bft) NO 34 ° 0 min 0,000 mm 0,0 UV-I 0 W/m² 1,5 °C -0,5 °C 14,5 km/h (3 Bft)
28.10.2018 03:16 2,2 °C 96 % 1003,0 hPa 0,0 mm 6,4 km/h (2 Bft) O-NO 63 ° 0 min 0,000 mm 0,0 UV-I 0 W/m² 1,6 °C 0,4 °C 12,9 km/h (3 Bft)
28.10.2018 03:17 2,2 °C 96 % 1003,1 hPa 0,0 mm 6,9 km/h (2 Bft) O 80 ° 0 min 0,000 mm 0,0 UV-I 0 W/m² 1,6 °C 0,2 °C 12,9 km/h (3 Bft)
28.10.2018 03:18 2,2 °C 95 % 1003,1 hPa 0,0 mm 3,4 km/h (1 Bft) O-NO 74 ° 0 min 0,000 mm 0,0 UV-I 0 W/m² 1,5 °C 2,2 °C 4,8 km/h (1 Bft)
28.10.2018 03:19 2,2 °C 95 % 1003,1 hPa 0,0 mm 3,0 km/h (1 Bft) O-NO 74 ° 0 min 0,000 mm 0,0 UV-I 0 W/m² 1,5 °C 2,2 °C 4,8 km/h (1 Bft)
28.10.2018 03:20 2,2 °C 95 % 1003,0 hPa 0,0 mm 0,5 km/h (0 Bft) O-NO 74 ° 0 min 0,000 mm 0,0 UV-I 0 W/m² 1,5 °C 2,2 °C 3,2 km/h (1 Bft)
28.10.2018 03:21 2,2 °C 96 % 1003,0 hPa 0,0 mm 0,6 km/h (0 Bft) O-NO 74 ° 0 min 0,000 mm 0,0 UV-I 0 W/m² 1,6 °C 2,2 °C 1,6 km/h (1 Bft)
28.10.2018 03:22 2,2 °C 95 % 1003,0 hPa 0,0 mm 0,5 km/h (0 Bft) O-NO 74 ° 0 min 0,000 mm 0,0 UV-I 0 W/m² 1,5 °C 2,2 °C 3,2 km/h (1 Bft)
28.10.2018 03:23 2,2 °C 95 % 1002,9 hPa 0,0 mm 3,9 km/h (1 Bft) O 84 ° 0 min 0,000 mm 0,0 UV-I 0 W/m² 1,5 °C 2,2 °C 6,4 km/h (2 Bft)
28.10.2018 03:24 2,2 °C 95 % 1002,9 hPa 0,0 mm 5,9 km/h (2 Bft) NO 56 ° 0 min 0,000 mm 0,0 UV-I 0 W/m² 1,5 °C 0,5 °C 8,0 km/h (2 Bft)
28.10.2018 03:25 2,2 °C 95 % 1002,9 hPa 0,0 mm 2,9 km/h (1 Bft) O-NO 76 ° 0 min 0,000 mm 0,0 UV-I 0 W/m² 1,5 °C 2,2 °C 4,8 km/h (1 Bft)
28.10.2018 03:26 2,2 °C 95 % 1002,9 hPa 0,0 mm 3,4 km/h (1 Bft) NO 53 ° 0 min 0,000 mm 0,0 UV-I 0 W/m² 1,5 °C 2,2 °C 6,4 km/h (2 Bft)
28.10.2018 03:27 2,2 °C 95 % 1002,9 hPa 0,0 mm 2,7 km/h (1 Bft) NO 53 ° 0 min 0,000 mm 0,0 UV-I 0 W/m² 1,5 °C 2,2 °C 4,8 km/h (1 Bft)
28.10.2018 03:28 2,2 °C 95 % 1002,8 hPa 0,0 mm 2,5 km/h (1 Bft) N-NO 16 ° 0 min 0,000 mm 0,0 UV-I 0 W/m² 1,5 °C 2,2 °C 8,0 km/h (2 Bft)
28.10.2018 03:29 2,2 °C 95 % 1002,9 hPa 0,0 mm 7,4 km/h (2 Bft) O-NO 76 ° 0 min 0,000 mm 0,0 UV-I 0 W/m² 1,5 °C 0,0 °C 12,9 km/h (3 Bft)
28.10.2018 03:30 2,2 °C 95 % 1002,9 hPa 0,0 mm 5,0 km/h (1 Bft) O 90 ° 0 min 0,000 mm 0,0 UV-I 0 W/m² 1,5 °C 0,9 °C 8,0 km/h (2 Bft)
28.10.2018 03:31 2,2 °C 95 % 1002,9 hPa 0,0 mm 0,1 km/h (0 Bft) O 90 ° 0 min 0,000 mm 0,0 UV-I 0 W/m² 1,5 °C 2,2 °C 1,6 km/h (1 Bft)
28.10.2018 03:32 2,2 °C 95 % 1003,0 hPa 0,0 mm 7,5 km/h (2 Bft) O-SO 120 ° 0 min 0,000 mm 0,0 UV-I 0 W/m² 1,5 °C -0,0 °C 12,9 km/h (3 Bft)
28.10.2018 03:33 2,3 °C 95 % 1002,9 hPa 0,2 mm 3,6 km/h (1 Bft) O-NO 74 ° 0 min 0,000 mm 0,0 UV-I 0 W/m² 1,6 °C 2,3 °C 6,4 km/h (2 Bft)
28.10.2018 03:34 2,3 °C 95 % 1002,9 hPa 0,0 mm 3,3 km/h (1 Bft) O-SO 103 ° 0 min 0,000 mm 0,0 UV-I 0 W/m² 1,6 °C 2,3 °C 8,0 km/h (2 Bft)
28.10.2018 03:35 2,3 °C 95 % 1002,9 hPa 0,0 mm 2,3 km/h (1 Bft) O-NO 73 ° 0 min 0,000 mm 0,0 UV-I 0 W/m² 1,6 °C 2,3 °C 4,8 km/h (1 Bft)
28.10.2018 03:36 2,3 °C 95 % 1002,9 hPa 0,0 mm 2,7 km/h (1 Bft) NO 55 ° 0 min 0,000 mm 0,0 UV-I 0 W/m² 1,6 °C 2,3 °C 4,8 km/h (1 Bft)
28.10.2018 03:37 2,3 °C 95 % 1002,9 hPa 0,0 mm 1,2 km/h (1 Bft) NO 55 ° 0 min 0,000 mm 0,0 UV-I 0 W/m² 1,6 °C 2,3 °C 3,2 km/h (1 Bft)
28.10.2018 03:38 2,3 °C 95 % 1002,9 hPa 0,0 mm 0,1 km/h (0 Bft) NO 55 ° 0 min 0,000 mm 0,0 UV-I 0 W/m² 1,6 °C 2,3 °C 1,6 km/h (1 Bft)
28.10.2018 03:39 2,3 °C 95 % 1002,8 hPa 0,0 mm 2,5 km/h (1 Bft) NO 55 ° 0 min 0,000 mm 0,0 UV-I 0 W/m² 1,6 °C 2,3 °C 4,8 km/h (1 Bft)
28.10.2018 03:40 2,3 °C 95 % 1002,9 hPa 0,0 mm 3,3 km/h (1 Bft) O-NO 78 ° 0 min 0,000 mm 0,0 UV-I 0 W/m² 1,6 °C 2,3 °C 6,4 km/h (2 Bft)
28.10.2018 03:41 2,3 °C 95 % 1002,8 hPa 0,0 mm 2,5 km/h (1 Bft) NO 54 ° 0 min 0,000 mm 0,0 UV-I 0 W/m² 1,6 °C 2,3 °C 4,8 km/h (1 Bft)
28.10.2018 03:42 2,3 °C 95 % 1002,8 hPa 0,0 mm 2,9 km/h (1 Bft) NO 38 ° 0 min 0,000 mm 0,0 UV-I 0 W/m² 1,6 °C 2,3 °C 4,8 km/h (1 Bft)
28.10.2018 03:43 2,3 °C 95 % 1002,7 hPa 0,0 mm 2,9 km/h (1 Bft) N-NO 23 ° 0 min 0,000 mm 0,0 UV-I 0 W/m² 1,6 °C 2,3 °C 6,4 km/h (2 Bft)
28.10.2018 03:44 2,3 °C 95 % 1002,8 hPa 0,0 mm 1,3 km/h (1 Bft) N-NO 23 ° 0 min 0,000 mm 0,0 UV-I 0 W/m² 1,6 °C 2,3 °C 3,2 km/h (1 Bft)
28.10.2018 03:45 2,3 °C 95 % 1002,8 hPa 0,0 mm 0,5 km/h (0 Bft) N-NO 23 ° 0 min 0,000 mm 0,0 UV-I 0 W/m² 1,6 °C 2,3 °C 1,6 km/h (1 Bft)
28.10.2018 03:46 2,4 °C 95 % 1002,8 hPa 0,0 mm 2,5 km/h (1 Bft) O-NO 65 ° 0 min 0,000 mm 0,0 UV-I 0 W/m² 1,7 °C 2,4 °C 3,2 km/h (1 Bft)
28.10.2018 03:47 2,4 °C 95 % 1002,8 hPa 0,0 mm 0,6 km/h (0 Bft) O-NO 65 ° 0 min 0,000 mm 0,0 UV-I 0 W/m² 1,7 °C 2,4 °C 4,8 km/h (1 Bft)
28.10.2018 03:48 2,4 °C 95 % 1002,8 hPa 0,0 mm 0,9 km/h (0 Bft) O-NO 62 ° 0 min 0,000 mm 0,0 UV-I 0 W/m² 1,7 °C 2,4 °C 3,2 km/h (1 Bft)
28.10.2018 03:49 2,4 °C 95 % 1002,8 hPa 0,0 mm 2,8 km/h (1 Bft) O-NO 61 ° 0 min 0,000 mm 0,0 UV-I 0 W/m² 1,7 °C 2,4 °C 8,0 km/h (2 Bft)
28.10.2018 03:50 2,4 °C 95 % 1002,8 hPa 0,0 mm 6,0 km/h (2 Bft) O-SO 115 ° 0 min 0,000 mm 0,0 UV-I 0 W/m² 1,7 °C 0,7 °C 8,0 km/h (2 Bft)
28.10.2018 03:51 2,4 °C 95 % 1002,8 hPa 0,0 mm 2,5 km/h (1 Bft) NO 43 ° 0 min 0,000 mm 0,0 UV-I 0 W/m² 1,7 °C 2,4 °C 6,4 km/h (2 Bft)
28.10.2018 03:52 2,4 °C 95 % 1002,8 hPa 0,0 mm 6,4 km/h (2 Bft) N-NO 32 ° 0 min 0,000 mm 0,0 UV-I 0 W/m² 1,7 °C 0,6 °C 8,0 km/h (2 Bft)
28.10.2018 03:53 2,4 °C 95 % 1002,8 hPa 0,0 mm 3,7 km/h (1 Bft) O-NO 67 ° 0 min 0,000 mm 0,0 UV-I 0 W/m² 1,7 °C 2,4 °C 4,8 km/h (1 Bft)
28.10.2018 03:54 2,4 °C 95 % 1002,8 hPa 0,2 mm 3,6 km/h (1 Bft) N-NO 32 ° 0 min 0,000 mm 0,0 UV-I 0 W/m² 1,7 °C 2,4 °C 6,4 km/h (2 Bft)
28.10.2018 03:55 2,4 °C 95 % 1002,7 hPa 0,0 mm 2,9 km/h (1 Bft) O-NO 73 ° 0 min 0,000 mm 0,0 UV-I 0 W/m² 1,7 °C 2,4 °C 4,8 km/h (1 Bft)
28.10.2018 03:56 2,4 °C 95 % 1002,7 hPa 0,0 mm 5,6 km/h (1 Bft) NO 51 ° 0 min 0,000 mm 0,0 UV-I 0 W/m² 1,7 °C 0,9 °C 9,7 km/h (2 Bft)
28.10.2018 03:57 2,4 °C 95 % 1002,7 hPa 0,0 mm 4,6 km/h (1 Bft) O-SO 119 ° 0 min 0,000 mm 0,0 UV-I 0 W/m² 1,7 °C 1,3 °C 6,4 km/h (2 Bft)
28.10.2018 03:58 2,4 °C 95 % 1002,8 hPa 0,0 mm 3,6 km/h (1 Bft) O 81 ° 0 min 0,000 mm 0,0 UV-I 0 W/m² 1,7 °C 2,4 °C 6,4 km/h (2 Bft)
28.10.2018 03:59 2,4 °C 95 % 1002,9 hPa 0,0 mm 5,0 km/h (1 Bft) O 85 ° 0 min 0,000 mm 0,0 UV-I 0 W/m² 1,7 °C 1,1 °C 9,7 km/h (2 Bft)
28.10.2018 04:00 2,4 °C 95 % 1002,8 hPa 0,0 mm 7,4 km/h (2 Bft) O 85 ° 0 min 0,000 mm 0,0 UV-I 0 W/m² 1,7 °C 0,3 °C 11,3 km/h (2 Bft)
28.10.2018 04:01 2,4 °C 96 % 1002,8 hPa 0,0 mm 7,3 km/h (2 Bft) N-NO 30 ° 0 min 0,000 mm 0,0 UV-I 0 W/m² 1,8 °C 0,3 °C 9,7 km/h (2 Bft)
28.10.2018 04:02 2,4 °C 95 % 1002,8 hPa 0,0 mm 6,3 km/h (2 Bft) O-NO 78 ° 0 min 0,000 mm 0,0 UV-I 0 W/m² 1,7 °C 0,6 °C 9,7 km/h (2 Bft)
28.10.2018 04:03 2,4 °C 96 % 1002,8 hPa 0,0 mm 4,8 km/h (1 Bft) O-NO 63 ° 0 min 0,000 mm 0,0 UV-I 0 W/m² 1,8 °C 1,2 °C 9,7 km/h (2 Bft)
28.10.2018 04:04 2,4 °C 96 % 1002,8 hPa 0,0 mm 7,2 km/h (2 Bft) O 94 ° 0 min 0,000 mm 0,0 UV-I 0 W/m² 1,8 °C 0,3 °C 12,9 km/h (3 Bft)
28.10.2018 04:05 2,4 °C 95 % 1002,9 hPa 0,0 mm 6,8 km/h (2 Bft) O-NO 63 ° 0 min 0,000 mm 0,0 UV-I 0 W/m² 1,7 °C 0,5 °C 11,3 km/h (2 Bft)
28.10.2018 04:06 2,4 °C 96 % 1002,9 hPa 0,0 mm 4,4 km/h (1 Bft) NO 56 ° 0 min 0,000 mm 0,0 UV-I 0 W/m² 1,8 °C 2,4 °C 6,4 km/h (2 Bft)
28.10.2018 04:07 2,4 °C 96 % 1002,9 hPa 0,0 mm 4,2 km/h (1 Bft) O-NO 59 ° 0 min 0,000 mm 0,0 UV-I 0 W/m² 1,8 °C 2,4 °C 6,4 km/h (2 Bft)
28.10.2018 04:08 2,4 °C 96 % 1002,9 hPa 0,0 mm 2,5 km/h (1 Bft) O-NO 59 ° 0 min 0,000 mm 0,0 UV-I 0 W/m² 1,8 °C 2,4 °C 4,8 km/h (1 Bft)
28.10.2018 04:09 2,4 °C 96 % 1002,9 hPa 0,0 mm 5,5 km/h (1 Bft) O-NO 61 ° 0 min 0,000 mm 0,0 UV-I 0 W/m² 1,8 °C 0,9 °C 8,0 km/h (2 Bft)
28.10.2018 04:10 2,5 °C 96 % 1002,9 hPa 0,0 mm 3,8 km/h (1 Bft) NO 49 ° 0 min 0,000 mm 0,0 UV-I 0 W/m² 1,9 °C 2,5 °C 8,0 km/h (2 Bft)
28.10.2018 04:11 2,5 °C 96 % 1002,9 hPa 0,0 mm 4,7 km/h (1 Bft) O-NO 59 ° 0 min 0,000 mm 0,0 UV-I 0 W/m² 1,9 °C 1,4 °C 9,7 km/h (2 Bft)
28.10.2018 04:12 2,5 °C 96 % 1002,9 hPa 0,0 mm 3,0 km/h (1 Bft) O-NO 68 ° 0 min 0,000 mm 0,0 UV-I 0 W/m² 1,9 °C 2,5 °C 6,4 km/h (2 Bft)
28.10.2018 04:13 2,5 °C 96 % 1003,0 hPa 0,0 mm 6,5 km/h (2 Bft) NO 53 ° 0 min 0,000 mm 0,0 UV-I 0 W/m² 1,9 °C 0,7 °C 12,9 km/h (3 Bft)
28.10.2018 04:14 2,5 °C 96 % 1002,9 hPa 0,0 mm 5,9 km/h (2 Bft) O-NO 73 ° 0 min 0,000 mm 0,0 UV-I 0 W/m² 1,9 °C 0,9 °C 9,7 km/h (2 Bft)
28.10.2018 04:15 2,5 °C 96 % 1002,9 hPa 0,0 mm 4,1 km/h (1 Bft) O-NO 65 ° 0 min 0,000 mm 0,0 UV-I 0 W/m² 1,9 °C 2,5 °C 6,4 km/h (2 Bft)
28.10.2018 04:16 2,6 °C 96 % 1003,0 hPa 0,0 mm 10,1 km/h (2 Bft) O 88 ° 0 min 0,000 mm 0,0 UV-I 0 W/m² 2,0 °C -0,2 °C 16,1 km/h (3 Bft)
28.10.2018 04:17 2,5 °C 96 % 1002,9 hPa 0,0 mm 5,2 km/h (1 Bft) O-NO 73 ° 0 min 0,000 mm 0,0 UV-I 0 W/m² 1,9 °C 1,2 °C 12,9 km/h (3 Bft)
28.10.2018 04:18 2,5 °C 96 % 1002,9 hPa 0,0 mm 4,5 km/h (1 Bft) O-NO 73 ° 0 min 0,000 mm 0,0 UV-I 0 W/m² 1,9 °C 2,5 °C 8,0 km/h (2 Bft)
28.10.2018 04:19 2,6 °C 96 % 1002,9 hPa 0,2 mm 4,7 km/h (1 Bft) O-SO 105 ° 0 min 0,000 mm 0,0 UV-I 0 W/m² 2,0 °C 1,5 °C 6,4 km/h (2 Bft)
28.10.2018 04:20 2,6 °C 96 % 1002,9 hPa 0,0 mm 4,2 km/h (1 Bft) O-NO 75 ° 0 min 0,000 mm 0,0 UV-I 0 W/m² 2,0 °C 2,6 °C 6,4 km/h (2 Bft)
28.10.2018 04:21 2,6 °C 96 % 1002,9 hPa 0,0 mm 2,1 km/h (1 Bft) O-NO 75 ° 0 min 0,000 mm 0,0 UV-I 0 W/m² 2,0 °C 2,6 °C 3,2 km/h (1 Bft)
28.10.2018 04:22 2,6 °C 96 % 1002,9 hPa 0,0 mm 0,5 km/h (0 Bft) O-NO 75 ° 0 min 0,000 mm 0,0 UV-I 0 W/m² 2,0 °C 2,6 °C 1,6 km/h (1 Bft)
28.10.2018 04:23 2,6 °C 96 % 1002,9 hPa 0,0 mm 3,4 km/h (1 Bft) NO 55 ° 0 min 0,000 mm 0,0 UV-I 0 W/m² 2,0 °C 2,6 °C 6,4 km/h (2 Bft)
28.10.2018 04:24 2,6 °C 96 % 1002,9 hPa 0,0 mm 3,3 km/h (1 Bft) O-NO 61 ° 0 min 0,000 mm 0,0 UV-I 0 W/m² 2,0 °C 2,6 °C 6,4 km/h (2 Bft)
28.10.2018 04:25 2,6 °C 96 % 1002,9 hPa 0,0 mm 5,2 km/h (1 Bft) N-NO 33 ° 0 min 0,000 mm 0,0 UV-I 0 W/m² 2,0 °C 1,3 °C 6,4 km/h (2 Bft)
28.10.2018 04:26 2,6 °C 96 % 1002,9 hPa 0,0 mm 5,0 km/h (1 Bft) NO 51 ° 0 min 0,000 mm 0,0 UV-I 0 W/m² 2,0 °C 1,4 °C 9,7 km/h (2 Bft)
28.10.2018 04:27 2,6 °C 96 % 1002,9 hPa 0,0 mm 5,4 km/h (1 Bft) O-NO 63 ° 0 min 0,000 mm 0,0 UV-I 0 W/m² 2,0 °C 1,2 °C 8,0 km/h (2 Bft)
28.10.2018 04:28 2,6 °C 96 % 1002,9 hPa 0,0 mm 6,1 km/h (2 Bft) NO 53 ° 0 min 0,000 mm 0,0 UV-I 0 W/m² 2,0 °C 0,9 °C 9,7 km/h (2 Bft)
28.10.2018 04:29 2,6 °C 96 % 1002,9 hPa 0,0 mm 6,0 km/h (2 Bft) NO 47 ° 0 min 0,000 mm 0,0 UV-I 0 W/m² 2,0 °C 1,0 °C 8,0 km/h (2 Bft)
28.10.2018 04:30 2,6 °C 96 % 1002,8 hPa 0,0 mm 5,1 km/h (1 Bft) O-NO 62 ° 0 min 0,000 mm 0,0 UV-I 0 W/m² 2,0 °C 1,3 °C 8,0 km/h (2 Bft)
28.10.2018 04:31 2,6 °C 96 % 1002,8 hPa 0,0 mm 1,4 km/h (1 Bft) O-NO 62 ° 0 min 0,000 mm 0,0 UV-I 0 W/m² 2,0 °C 2,6 °C 3,2 km/h (1 Bft)
28.10.2018 04:32 2,6 °C 96 % 1002,8 hPa 0,0 mm 1,9 km/h (1 Bft) NO 56 ° 0 min 0,000 mm 0,0 UV-I 0 W/m² 2,0 °C 2,6 °C 4,8 km/h (1 Bft)
28.10.2018 04:33 2,6 °C 96 % 1002,8 hPa 0,0 mm 5,9 km/h (2 Bft) NO 45 ° 0 min 0,000 mm 0,0 UV-I 0 W/m² 2,0 °C 1,0 °C 9,7 km/h (2 Bft)
28.10.2018 04:34 2,6 °C 96 % 1002,8 hPa 0,0 mm 6,8 km/h (2 Bft) NO 51 ° 0 min 0,000 mm 0,0 UV-I 0 W/m² 2,0 °C 0,7 °C 8,0 km/h (2 Bft)
28.10.2018 04:35 2,6 °C 96 % 1002,8 hPa 0,0 mm 4,8 km/h (1 Bft) O-NO 74 ° 0 min 0,000 mm 0,0 UV-I 0 W/m² 2,0 °C 1,4 °C 6,4 km/h (2 Bft)
28.10.2018 04:36 2,6 °C 96 % 1002,9 hPa 0,0 mm 4,8 km/h (1 Bft) NO 42 ° 0 min 0,000 mm 0,0 UV-I 0 W/m² 2,0 °C 1,4 °C 8,0 km/h (2 Bft)
28.10.2018 04:37 2,6 °C 96 % 1002,9 hPa 0,2 mm 4,6 km/h (1 Bft) O-NO 76 ° 0 min 0,000 mm 0,0 UV-I 0 W/m² 2,0 °C 1,5 °C 6,4 km/h (2 Bft)
28.10.2018 04:38 2,6 °C 96 % 1002,9 hPa 0,0 mm 7,4 km/h (2 Bft) O-NO 69 ° 0 min 0,000 mm 0,0 UV-I 0 W/m² 2,0 °C 0,5 °C 16,1 km/h (3 Bft)
28.10.2018 04:39 2,6 °C 96 % 1003,0 hPa 0,0 mm 5,8 km/h (2 Bft) O 98 ° 0 min 0,000 mm 0,0 UV-I 0 W/m² 2,0 °C 1,0 °C 9,7 km/h (2 Bft)
28.10.2018 04:40 2,6 °C 95 % 1003,0 hPa 0,0 mm 3,0 km/h (1 Bft) O 81 ° 0 min 0,000 mm 0,0 UV-I 0 W/m² 1,9 °C 2,6 °C 6,4 km/h (2 Bft)
28.10.2018 04:41 2,6 °C 95 % 1002,9 hPa 0,0 mm 2,0 km/h (1 Bft) O-NO 68 ° 0 min 0,000 mm 0,0 UV-I 0 W/m² 1,9 °C 2,6 °C 6,4 km/h (2 Bft)
28.10.2018 04:42 2,7 °C 95 % 1002,9 hPa 0,0 mm 5,2 km/h (1 Bft) O-NO 65 ° 0 min 0,000 mm 0,0 UV-I 0 W/m² 2,0 °C 1,4 °C 6,4 km/h (2 Bft)
28.10.2018 04:43 2,7 °C 96 % 1002,9 hPa 0,0 mm 4,8 km/h (1 Bft) O-NO 65 ° 0 min 0,000 mm 0,0 UV-I 0 W/m² 2,1 °C 1,6 °C 6,4 km/h (2 Bft)
28.10.2018 04:44 2,6 °C 95 % 1002,9 hPa 0,0 mm 4,8 km/h (1 Bft) O-NO 75 ° 0 min 0,000 mm 0,0 UV-I 0 W/m² 1,9 °C 1,4 °C 9,7 km/h (2 Bft)
28.10.2018 04:45 2,6 °C 95 % 1002,9 hPa 0,0 mm 5,6 km/h (1 Bft) O-NO 67 ° 0 min 0,000 mm 0,0 UV-I 0 W/m² 1,9 °C 1,1 °C 8,0 km/h (2 Bft)
28.10.2018 04:46 2,6 °C 95 % 1002,9 hPa 0,0 mm 3,9 km/h (1 Bft) O-NO 78 ° 0 min 0,000 mm 0,0 UV-I 0 W/m² 1,9 °C 2,6 °C 8,0 km/h (2 Bft)
28.10.2018 04:47 2,6 °C 96 % 1002,9 hPa 0,0 mm 5,4 km/h (1 Bft) O-NO 65 ° 0 min 0,000 mm 0,0 UV-I 0 W/m² 2,0 °C 1,2 °C 8,0 km/h (2 Bft)
28.10.2018 04:48 2,6 °C 96 % 1002,9 hPa 0,0 mm 3,5 km/h (1 Bft) N-NO 22 ° 0 min 0,000 mm 0,0 UV-I 0 W/m² 2,0 °C 2,6 °C 6,4 km/h (2 Bft)
28.10.2018 04:49 2,6 °C 96 % 1002,9 hPa 0,0 mm 7,6 km/h (2 Bft) O-NO 71 ° 0 min 0,000 mm 0,0 UV-I 0 W/m² 2,0 °C 0,4 °C 14,5 km/h (3 Bft)
28.10.2018 04:50 2,7 °C 95 % 1002,8 hPa 0,0 mm 7,2 km/h (2 Bft) NO 44 ° 0 min 0,000 mm 0,0 UV-I 0 W/m² 2,0 °C 0,7 °C 12,9 km/h (3 Bft)
28.10.2018 04:51 2,6 °C 95 % 1002,8 hPa 0,0 mm 3,3 km/h (1 Bft) NO 50 ° 0 min 0,000 mm 0,0 UV-I 0 W/m² 1,9 °C 2,6 °C 6,4 km/h (2 Bft)
28.10.2018 04:52 2,7 °C 95 % 1002,8 hPa 0,0 mm 6,2 km/h (2 Bft) O-NO 70 ° 0 min 0,000 mm 0,0 UV-I 0 W/m² 2,0 °C 1,0 °C 9,7 km/h (2 Bft)
28.10.2018 04:53 2,7 °C 95 % 1002,8 hPa 0,0 mm 7,4 km/h (2 Bft) O 84 ° 0 min 0,000 mm 0,0 UV-I 0 W/m² 2,0 °C 0,6 °C 9,7 km/h (2 Bft)
28.10.2018 04:54 2,7 °C 95 % 1002,8 hPa 0,0 mm 7,1 km/h (2 Bft) O-NO 76 ° 0 min 0,000 mm 0,0 UV-I 0 W/m² 2,0 °C 0,7 °C 9,7 km/h (2 Bft)
28.10.2018 04:55 2,6 °C 95 % 1002,8 hPa 0,0 mm 6,6 km/h (2 Bft) O 90 ° 0 min 0,000 mm 0,0 UV-I 0 W/m² 1,9 °C 0,8 °C 12,9 km/h (3 Bft)
28.10.2018 04:56 2,6 °C 95 % 1002,8 hPa 0,0 mm 8,1 km/h (2 Bft) O-NO 67 ° 0 min 0,000 mm 0,0 UV-I 0 W/m² 1,9 °C 0,3 °C 14,5 km/h (3 Bft)
28.10.2018 04:57 2,6 °C 95 % 1002,8 hPa 0,0 mm 8,2 km/h (2 Bft) NO 49 ° 0 min 0,000 mm 0,0 UV-I 0 W/m² 1,9 °C 0,3 °C 16,1 km/h (3 Bft)
28.10.2018 04:58 2,6 °C 96 % 1002,7 hPa 0,0 mm 9,4 km/h (2 Bft) NO 56 ° 0 min 0,000 mm 0,0 UV-I 0 W/m² 2,0 °C -0,1 °C 14,5 km/h (3 Bft)
28.10.2018 04:59 2,6 °C 95 % 1002,8 hPa 0,0 mm 8,8 km/h (2 Bft) O-SO 104 ° 0 min 0,000 mm 0,0 UV-I 0 W/m² 1,9 °C 0,1 °C 14,5 km/h (3 Bft)
28.10.2018 05:00 2,6 °C 95 % 1002,8 hPa 0,0 mm 12,0 km/h (2 Bft) NO 53 ° 0 min 0,000 mm 0,0 UV-I 0 W/m² 1,9 °C -0,7 °C 16,1 km/h (3 Bft)
28.10.2018 05:01 2,6 °C 96 % 1002,8 hPa 0,0 mm 11,4 km/h (2 Bft) O 80 ° 0 min 0,000 mm 0,0 UV-I 0 W/m² 2,0 °C -0,5 °C 17,7 km/h (3 Bft)
28.10.2018 05:02 2,6 °C 95 % 1002,8 hPa 0,0 mm 11,4 km/h (2 Bft) O 93 ° 0 min 0,000 mm 0,0 UV-I 0 W/m² 1,9 °C -0,5 °C 17,7 km/h (3 Bft)
28.10.2018 05:03 2,6 °C 95 % 1002,9 hPa 0,0 mm 7,3 km/h (2 Bft) O 82 ° 0 min 0,000 mm 0,0 UV-I 0 W/m² 1,9 °C 0,5 °C 9,7 km/h (2 Bft)
28.10.2018 05:04 2,6 °C 95 % 1003,0 hPa 0,0 mm 8,8 km/h (2 Bft) NO 50 ° 0 min 0,000 mm 0,0 UV-I 0 W/m² 1,9 °C 0,1 °C 16,1 km/h (3 Bft)
28.10.2018 05:05 2,6 °C 95 % 1002,9 hPa 0,0 mm 5,6 km/h (1 Bft) NO 53 ° 0 min 0,000 mm 0,0 UV-I 0 W/m² 1,9 °C 1,1 °C 9,7 km/h (2 Bft)
28.10.2018 05:06 2,6 °C 95 % 1002,9 hPa 0,0 mm 10,9 km/h (2 Bft) O-NO 72 ° 0 min 0,000 mm 0,0 UV-I 0 W/m² 1,9 °C -0,4 °C 20,9 km/h (4 Bft)
28.10.2018 05:07 2,6 °C 96 % 1003,0 hPa 0,0 mm 11,9 km/h (2 Bft) O-NO 65 ° 0 min 0,000 mm 0,0 UV-I 0 W/m² 2,0 °C -0,6 °C 19,3 km/h (3 Bft)
28.10.2018 05:08 2,6 °C 96 % 1002,9 hPa 0,0 mm 6,8 km/h (2 Bft) O-NO 71 ° 0 min 0,000 mm 0,0 UV-I 0 W/m² 2,0 °C 0,7 °C 12,9 km/h (3 Bft)
28.10.2018 05:09 2,6 °C 95 % 1002,9 hPa 0,0 mm 8,0 km/h (2 Bft) O-NO 77 ° 0 min 0,000 mm 0,0 UV-I 0 W/m² 1,9 °C 0,3 °C 11,3 km/h (2 Bft)
28.10.2018 05:10 2,6 °C 95 % 1002,9 hPa 0,0 mm 8,8 km/h (2 Bft) NO 51 ° 0 min 0,000 mm 0,0 UV-I 0 W/m² 1,9 °C 0,1 °C 11,3 km/h (2 Bft)
28.10.2018 05:11 2,6 °C 95 % 1002,9 hPa 0,0 mm 6,0 km/h (2 Bft) N 5 ° 0 min 0,000 mm 0,0 UV-I 0 W/m² 1,9 °C 1,0 °C 8,0 km/h (2 Bft)
28.10.2018 05:12 2,6 °C 95 % 1002,9 hPa 0,0 mm 9,1 km/h (2 Bft) N-NO 32 ° 0 min 0,000 mm 0,0 UV-I 0 W/m² 1,9 °C 0,0 °C 14,5 km/h (3 Bft)
28.10.2018 05:13 2,6 °C 96 % 1002,9 hPa 0,0 mm 12,3 km/h (3 Bft) O 88 ° 0 min 0,000 mm 0,0 UV-I 0 W/m² 2,0 °C -0,7 °C 20,9 km/h (4 Bft)
28.10.2018 05:14 2,7 °C 95 % 1002,9 hPa 0,0 mm 8,6 km/h (2 Bft) O 86 ° 0 min 0,000 mm 0,0 UV-I 0 W/m² 2,0 °C 0,3 °C 14,5 km/h (3 Bft)
28.10.2018 05:15 2,6 °C 96 % 1002,9 hPa 0,0 mm 10,9 km/h (2 Bft) O 101 ° 0 min 0,000 mm 0,0 UV-I 0 W/m² 2,0 °C -0,4 °C 16,1 km/h (3 Bft)
28.10.2018 05:16 2,6 °C 95 % 1002,9 hPa 0,0 mm 6,9 km/h (2 Bft) N-NO 12 ° 0 min 0,000 mm 0,0 UV-I 0 W/m² 1,9 °C 0,7 °C 12,9 km/h (3 Bft)
28.10.2018 05:17 2,6 °C 95 % 1002,9 hPa 0,0 mm 3,9 km/h (1 Bft) N 360 ° 0 min 0,000 mm 0,0 UV-I 0 W/m² 1,9 °C 2,6 °C 8,0 km/h (2 Bft)
28.10.2018 05:18 2,6 °C 96 % 1002,9 hPa 0,0 mm 6,3 km/h (2 Bft) O-NO 65 ° 0 min 0,000 mm 0,0 UV-I 0 W/m² 2,0 °C 0,9 °C 8,0 km/h (2 Bft)
28.10.2018 05:19 2,6 °C 96 % 1002,9 hPa 0,0 mm 12,6 km/h (3 Bft) O 101 ° 0 min 0,000 mm 0,0 UV-I 0 W/m² 2,0 °C -0,8 °C 19,3 km/h (3 Bft)
28.10.2018 05:20 2,6 °C 95 % 1002,9 hPa 0,2 mm 9,9 km/h (2 Bft) NO 50 ° 0 min 0,000 mm 0,0 UV-I 0 W/m² 1,9 °C -0,2 °C 17,7 km/h (3 Bft)
28.10.2018 05:21 2,6 °C 95 % 1002,9 hPa 0,0 mm 6,6 km/h (2 Bft) O-NO 64 ° 0 min 0,000 mm 0,0 UV-I 0 W/m² 1,9 °C 0,8 °C 14,5 km/h (3 Bft)
28.10.2018 05:22 2,6 °C 96 % 1002,9 hPa 0,0 mm 6,8 km/h (2 Bft) O-NO 61 ° 0 min 0,000 mm 0,0 UV-I 0 W/m² 2,0 °C 0,7 °C 11,3 km/h (2 Bft)
28.10.2018 05:23 2,6 °C 95 % 1002,9 hPa 0,0 mm 8,9 km/h (2 Bft) O-NO 71 ° 0 min 0,000 mm 0,0 UV-I 0 W/m² 1,9 °C 0,1 °C 14,5 km/h (3 Bft)
28.10.2018 05:24 2,6 °C 96 % 1002,9 hPa 0,0 mm 5,8 km/h (2 Bft) NO 54 ° 0 min 0,000 mm 0,0 UV-I 0 W/m² 2,0 °C 1,0 °C 12,9 km/h (3 Bft)
28.10.2018 05:25 2,6 °C 96 % 1002,9 hPa 0,0 mm 8,2 km/h (2 Bft) NO 51 ° 0 min 0,000 mm 0,0 UV-I 0 W/m² 2,0 °C 0,3 °C 14,5 km/h (3 Bft)
28.10.2018 05:26 2,6 °C 96 % 1002,9 hPa 0,0 mm 8,5 km/h (2 Bft) N 351 ° 0 min 0,000 mm 0,0 UV-I 0 W/m² 2,0 °C 0,2 °C 16,1 km/h (3 Bft)
28.10.2018 05:27 2,6 °C 96 % 1002,9 hPa 0,0 mm 6,8 km/h (2 Bft) NO 53 ° 0 min 0,000 mm 0,0 UV-I 0 W/m² 2,0 °C 0,7 °C 12,9 km/h (3 Bft)
28.10.2018 05:28 2,6 °C 96 % 1002,9 hPa 0,0 mm 8,4 km/h (2 Bft) O 82 ° 0 min 0,000 mm 0,0 UV-I 0 W/m² 2,0 °C 0,2 °C 14,5 km/h (3 Bft)
28.10.2018 05:29 2,6 °C 96 % 1002,8 hPa 0,0 mm 7,1 km/h (2 Bft) NO 54 ° 0 min 0,000 mm 0,0 UV-I 0 W/m² 2,0 °C 0,6 °C 12,9 km/h (3 Bft)
28.10.2018 05:30 2,6 °C 95 % 1002,8 hPa 0,0 mm 5,8 km/h (2 Bft) O-NO 68 ° 0 min 0,000 mm 0,0 UV-I 0 W/m² 1,9 °C 1,0 °C 8,0 km/h (2 Bft)
28.10.2018 05:31 2,6 °C 96 % 1002,8 hPa 0,0 mm 6,6 km/h (2 Bft) N-NO 33 ° 0 min 0,000 mm 0,0 UV-I 0 W/m² 2,0 °C 0,8 °C 9,7 km/h (2 Bft)
28.10.2018 05:32 2,6 °C 96 % 1002,8 hPa 0,0 mm 4,4 km/h (1 Bft) O-NO 78 ° 0 min 0,000 mm 0,0 UV-I 0 W/m² 2,0 °C 2,6 °C 6,4 km/h (2 Bft)
28.10.2018 05:33 2,6 °C 96 % 1002,8 hPa 0,0 mm 3,5 km/h (1 Bft) NO 39 ° 0 min 0,000 mm 0,0 UV-I 0 W/m² 2,0 °C 2,6 °C 8,0 km/h (2 Bft)
28.10.2018 05:34 2,6 °C 95 % 1002,8 hPa 0,0 mm 14,9 km/h (3 Bft) O-NO 63 ° 0 min 0,000 mm 0,0 UV-I 0 W/m² 1,9 °C -1,2 °C 20,9 km/h (4 Bft)
28.10.2018 05:35 2,6 °C 95 % 1002,8 hPa 0,0 mm 9,3 km/h (2 Bft) O-NO 74 ° 0 min 0,000 mm 0,0 UV-I 0 W/m² 1,9 °C -0,0 °C 16,1 km/h (3 Bft)
28.10.2018 05:36 2,6 °C 95 % 1002,8 hPa 0,0 mm 8,1 km/h (2 Bft) O-NO 71 ° 0 min 0,000 mm 0,0 UV-I 0 W/m² 1,9 °C 0,3 °C 14,5 km/h (3 Bft)
28.10.2018 05:37 2,6 °C 95 % 1002,8 hPa 0,0 mm 4,8 km/h (1 Bft) NO 55 ° 0 min 0,000 mm 0,0 UV-I 0 W/m² 1,9 °C 1,4 °C 9,7 km/h (2 Bft)
28.10.2018 05:38 2,6 °C 95 % 1002,8 hPa 0,0 mm 7,6 km/h (2 Bft) O-NO 71 ° 0 min 0,000 mm 0,0 UV-I 0 W/m² 1,9 °C 0,4 °C 14,5 km/h (3 Bft)
28.10.2018 05:39 2,6 °C 95 % 1002,9 hPa 0,0 mm 8,7 km/h (2 Bft) O-NO 69 ° 0 min 0,000 mm 0,0 UV-I 0 W/m² 1,9 °C 0,1 °C 12,9 km/h (3 Bft)
28.10.2018 05:40 2,6 °C 95 % 1002,9 hPa 0,0 mm 7,0 km/h (2 Bft) O-NO 57 ° 0 min 0,000 mm 0,0 UV-I 0 W/m² 1,9 °C 0,6 °C 9,7 km/h (2 Bft)
28.10.2018 05:41 2,6 °C 95 % 1003,0 hPa 0,0 mm 7,6 km/h (2 Bft) O 94 ° 0 min 0,000 mm 0,0 UV-I 0 W/m² 1,9 °C 0,4 °C 12,9 km/h (3 Bft)
28.10.2018 05:42 2,6 °C 95 % 1002,9 hPa 0,0 mm 9,7 km/h (2 Bft) NO 36 ° 0 min 0,000 mm 0,0 UV-I 0 W/m² 1,9 °C -0,1 °C 16,1 km/h (3 Bft)
28.10.2018 05:43 2,6 °C 96 % 1003,0 hPa 0,0 mm 8,4 km/h (2 Bft) NO 42 ° 0 min 0,000 mm 0,0 UV-I 0 W/m² 2,0 °C 0,2 °C 12,9 km/h (3 Bft)
28.10.2018 05:44 2,6 °C 95 % 1002,9 hPa 0,0 mm 5,8 km/h (2 Bft) O-NO 70 ° 0 min 0,000 mm 0,0 UV-I 0 W/m² 1,9 °C 1,0 °C 9,7 km/h (2 Bft)
28.10.2018 05:45 2,6 °C 96 % 1003,0 hPa 0,0 mm 10,0 km/h (2 Bft) O-NO 72 ° 0 min 0,000 mm 0,0 UV-I 0 W/m² 2,0 °C -0,2 °C 14,5 km/h (3 Bft)
28.10.2018 05:46 2,6 °C 95 % 1002,9 hPa 0,0 mm 7,2 km/h (2 Bft) O-SO 121 ° 0 min 0,000 mm 0,0 UV-I 0 W/m² 1,9 °C 0,6 °C 11,3 km/h (2 Bft)
28.10.2018 05:47 2,6 °C 96 % 1002,9 hPa 0,0 mm 3,3 km/h (1 Bft) N-NO 20 ° 0 min 0,000 mm 0,0 UV-I 0 W/m² 2,0 °C 2,6 °C 8,0 km/h (2 Bft)
28.10.2018 05:48 2,6 °C 95 % 1003,0 hPa 0,0 mm 5,6 km/h (1 Bft) O-NO 74 ° 0 min 0,000 mm 0,0 UV-I 0 W/m² 1,9 °C 1,1 °C 9,7 km/h (2 Bft)
28.10.2018 05:49 2,6 °C 95 % 1002,9 hPa 0,0 mm 5,2 km/h (1 Bft) O-SO 105 ° 0 min 0,000 mm 0,0 UV-I 0 W/m² 1,9 °C 1,3 °C 8,0 km/h (2 Bft)
28.10.2018 05:50 2,6 °C 96 % 1002,9 hPa 0,0 mm 3,1 km/h (1 Bft) S-SO 163 ° 0 min 0,000 mm 0,0 UV-I 0 W/m² 2,0 °C 2,6 °C 9,7 km/h (2 Bft)
28.10.2018 05:51 2,6 °C 95 % 1002,9 hPa 0,0 mm 3,8 km/h (1 Bft) O 82 ° 0 min 0,000 mm 0,0 UV-I 0 W/m² 1,9 °C 2,6 °C 8,0 km/h (2 Bft)
28.10.2018 05:52 2,6 °C 95 % 1002,9 hPa 0,0 mm 4,2 km/h (1 Bft) N-NO 31 ° 0 min 0,000 mm 0,0 UV-I 0 W/m² 1,9 °C 2,6 °C 6,4 km/h (2 Bft)
28.10.2018 05:53 2,6 °C 95 % 1002,9 hPa 0,0 mm 5,0 km/h (1 Bft) O-NO 61 ° 0 min 0,000 mm 0,0 UV-I 0 W/m² 1,9 °C 1,4 °C 6,4 km/h (2 Bft)
28.10.2018 05:54 2,6 °C 95 % 1002,9 hPa 0,0 mm 3,6 km/h (1 Bft) O-NO 61 ° 0 min 0,000 mm 0,0 UV-I 0 W/m² 1,9 °C 2,6 °C 6,4 km/h (2 Bft)
28.10.2018 05:55 2,6 °C 95 % 1002,9 hPa 0,0 mm 1,9 km/h (1 Bft) NO 51 ° 0 min 0,000 mm 0,0 UV-I 0 W/m² 1,9 °C 2,6 °C 4,8 km/h (1 Bft)
28.10.2018 05:56 2,7 °C 95 % 1002,9 hPa 0,0 mm 3,4 km/h (1 Bft) O-NO 65 ° 0 min 0,000 mm 0,0 UV-I 0 W/m² 2,0 °C 2,7 °C 4,8 km/h (1 Bft)
28.10.2018 05:57 2,6 °C 96 % 1002,9 hPa 0,0 mm 7,6 km/h (2 Bft) O 80 ° 0 min 0,000 mm 0,0 UV-I 0 W/m² 2,0 °C 0,4 °C 12,9 km/h (3 Bft)
28.10.2018 05:58 2,7 °C 95 % 1002,9 hPa 0,0 mm 6,8 km/h (2 Bft) O-NO 67 ° 0 min 0,000 mm 0,0 UV-I 0 W/m² 2,0 °C 0,8 °C 12,9 km/h (3 Bft)
28.10.2018 05:59 2,6 °C 95 % 1003,0 hPa 0,0 mm 7,7 km/h (2 Bft) O-NO 65 ° 0 min 0,000 mm 0,0 UV-I 0 W/m² 1,9 °C 0,4 °C 14,5 km/h (3 Bft)
28.10.2018 06:00 2,6 °C 95 % 1003,0 hPa 0,0 mm 10,4 km/h (2 Bft) N-NO 22 ° 0 min 0,000 mm 0,0 UV-I 0 W/m² 1,9 °C -0,3 °C 16,1 km/h (3 Bft)
28.10.2018 06:01 2,6 °C 95 % 1003,1 hPa 0,0 mm 3,1 km/h (1 Bft) O-NO 74 ° 0 min 0,000 mm 0,0 UV-I 0 W/m² 1,9 °C 2,6 °C 8,0 km/h (2 Bft)
28.10.2018 06:02 2,7 °C 95 % 1003,0 hPa 0,0 mm 4,1 km/h (1 Bft) O-NO 63 ° 0 min 0,000 mm 0,0 UV-I 0 W/m² 2,0 °C 2,7 °C 6,4 km/h (2 Bft)
28.10.2018 06:03 2,6 °C 95 % 1003,0 hPa 0,0 mm 4,0 km/h (1 Bft) NO 49 ° 0 min 0,000 mm 0,0 UV-I 0 W/m² 1,9 °C 2,6 °C 6,4 km/h (2 Bft)
28.10.2018 06:04 2,6 °C 95 % 1003,0 hPa 0,0 mm 4,4 km/h (1 Bft) N-NO 22 ° 0 min 0,000 mm 0,0 UV-I 0 W/m² 1,9 °C 2,6 °C 6,4 km/h (2 Bft)
28.10.2018 06:05 2,6 °C 95 % 1003,0 hPa 0,0 mm 6,8 km/h (2 Bft) N-NO 31 ° 0 min 0,000 mm 0,0 UV-I 0 W/m² 1,9 °C 0,7 °C 9,7 km/h (2 Bft)
28.10.2018 06:06 2,6 °C 95 % 1002,9 hPa 0,0 mm 3,6 km/h (1 Bft) NO 53 ° 0 min 0,000 mm 0,0 UV-I 0 W/m² 1,9 °C 2,6 °C 6,4 km/h (2 Bft)
28.10.2018 06:07 2,6 °C 95 % 1002,9 hPa 0,0 mm 5,5 km/h (1 Bft) O-NO 66 ° 0 min 0,000 mm 0,0 UV-I 0 W/m² 1,9 °C 1,2 °C 11,3 km/h (2 Bft)
28.10.2018 06:08 2,6 °C 95 % 1002,9 hPa 0,0 mm 8,9 km/h (2 Bft) NO 42 ° 0 min 0,000 mm 0,0 UV-I 0 W/m² 1,9 °C 0,1 °C 12,9 km/h (3 Bft)
28.10.2018 06:09 2,6 °C 95 % 1002,9 hPa 0,0 mm 6,6 km/h (2 Bft) O 96 ° 0 min 0,000 mm 0,0 UV-I 0 W/m² 1,9 °C 0,8 °C 12,9 km/h (3 Bft)
28.10.2018 06:10 2,6 °C 95 % 1003,0 hPa 0,0 mm 7,2 km/h (2 Bft) O-NO 58 ° 0 min 0,000 mm 0,0 UV-I 0 W/m² 1,9 °C 0,6 °C 11,3 km/h (2 Bft)
28.10.2018 06:11 2,6 °C 95 % 1002,9 hPa 0,0 mm 7,5 km/h (2 Bft) O-NO 62 ° 0 min 0,000 mm 0,0 UV-I 0 W/m² 1,9 °C 0,5 °C 12,9 km/h (3 Bft)
28.10.2018 06:12 2,6 °C 95 % 1002,9 hPa 0,0 mm 7,0 km/h (2 Bft) O-NO 63 ° 0 min 0,000 mm 0,0 UV-I 0 W/m² 1,9 °C 0,6 °C 12,9 km/h (3 Bft)
28.10.2018 06:13 2,6 °C 95 % 1003,0 hPa 0,0 mm 7,6 km/h (2 Bft) NO 40 ° 0 min 0,000 mm 0,0 UV-I 0 W/m² 1,9 °C 0,4 °C 12,9 km/h (3 Bft)
28.10.2018 06:14 2,6 °C 95 % 1002,9 hPa 0,0 mm 5,3 km/h (1 Bft) O-NO 65 ° 0 min 0,000 mm 0,0 UV-I 0 W/m² 1,9 °C 1,2 °C 14,5 km/h (3 Bft)
28.10.2018 06:15 2,6 °C 95 % 1002,8 hPa 0,0 mm 5,0 km/h (1 Bft) O 81 ° 0 min 0,000 mm 0,0 UV-I 0 W/m² 1,9 °C 1,4 °C 11,3 km/h (2 Bft)
28.10.2018 06:16 2,6 °C 95 % 1002,8 hPa 0,0 mm 8,8 km/h (2 Bft) O-NO 61 ° 0 min 0,000 mm 0,0 UV-I 0 W/m² 1,9 °C 0,1 °C 11,3 km/h (2 Bft)
28.10.2018 06:17 2,6 °C 95 % 1002,8 hPa 0,0 mm 7,8 km/h (2 Bft) NO 51 ° 0 min 0,000 mm 0,0 UV-I 0 W/m² 1,9 °C 0,4 °C 16,1 km/h (3 Bft)
28.10.2018 06:18 2,6 °C 95 % 1002,8 hPa 0,0 mm 3,6 km/h (1 Bft) O-NO 71 ° 0 min 0,000 mm 0,0 UV-I 0 W/m² 1,9 °C 2,6 °C 9,7 km/h (2 Bft)
28.10.2018 06:19 2,6 °C 95 % 1002,8 hPa 0,0 mm 2,9 km/h (1 Bft) NO 34 ° 0 min 0,000 mm 0,0 UV-I 0 W/m² 1,9 °C 2,6 °C 6,4 km/h (2 Bft)
28.10.2018 06:20 2,6 °C 95 % 1002,8 hPa 0,0 mm 5,0 km/h (1 Bft) NO 55 ° 0 min 0,000 mm 0,0 UV-I 0 W/m² 1,9 °C 1,4 °C 8,0 km/h (2 Bft)
28.10.2018 06:21 2,6 °C 95 % 1002,8 hPa 0,0 mm 5,4 km/h (1 Bft) O 84 ° 0 min 0,000 mm 0,0 UV-I 0 W/m² 1,9 °C 1,2 °C 8,0 km/h (2 Bft)
28.10.2018 06:22 2,6 °C 95 % 1002,8 hPa 0,0 mm 6,6 km/h (2 Bft) NO 54 ° 0 min 0,000 mm 0,0 UV-I 0 W/m² 1,9 °C 0,8 °C 11,3 km/h (2 Bft)
28.10.2018 06:23 2,6 °C 95 % 1002,8 hPa 0,0 mm 13,6 km/h (3 Bft) NO 49 ° 0 min 0,000 mm 0,0 UV-I 0 W/m² 1,9 °C -1,0 °C 19,3 km/h (3 Bft)
28.10.2018 06:24 2,6 °C 95 % 1002,8 hPa 0,0 mm 5,4 km/h (1 Bft) O 101 ° 0 min 0,000 mm 0,0 UV-I 0 W/m² 1,9 °C 1,2 °C 14,5 km/h (3 Bft)
28.10.2018 06:25 2,6 °C 95 % 1002,8 hPa 0,0 mm 9,7 km/h (2 Bft) O 92 ° 0 min 0,000 mm 0,0 UV-I 0 W/m² 1,9 °C -0,1 °C 12,9 km/h (3 Bft)
28.10.2018 06:26 2,6 °C 95 % 1002,8 hPa 0,0 mm 11,2 km/h (2 Bft) N-NO 26 ° 0 min 0,000 mm 0,0 UV-I 0 W/m² 1,9 °C -0,5 °C 17,7 km/h (3 Bft)
28.10.2018 06:27 2,5 °C 95 % 1002,8 hPa 0,0 mm 9,7 km/h (2 Bft) O-NO 61 ° 0 min 0,000 mm 0,0 UV-I 0 W/m² 1,8 °C -0,3 °C 16,1 km/h (3 Bft)
28.10.2018 06:28 2,5 °C 95 % 1002,8 hPa 0,0 mm 10,9 km/h (2 Bft) O-NO 61 ° 0 min 0,000 mm 0,0 UV-I 0 W/m² 1,8 °C -0,5 °C 17,7 km/h (3 Bft)
28.10.2018 06:29 2,5 °C 95 % 1002,7 hPa 0,0 mm 8,3 km/h (2 Bft) N-NO 20 ° 0 min 0,000 mm 0,0 UV-I 0 W/m² 1,8 °C 0,1 °C 14,5 km/h (3 Bft)
28.10.2018 06:30 2,5 °C 95 % 1002,7 hPa 0,0 mm 7,1 km/h (2 Bft) O-NO 63 ° 0 min 0,000 mm 0,0 UV-I 0 W/m² 1,8 °C 0,5 °C 16,1 km/h (3 Bft)
28.10.2018 06:31 2,5 °C 95 % 1002,7 hPa 0,0 mm 7,8 km/h (2 Bft) O-NO 61 ° 0 min 0,000 mm 0,0 UV-I 0 W/m² 1,8 °C 0,3 °C 12,9 km/h (3 Bft)
28.10.2018 06:32 2,4 °C 95 % 1002,7 hPa 0,0 mm 12,3 km/h (3 Bft) O-NO 59 ° 0 min 0,000 mm 0,0 UV-I 0 W/m² 1,7 °C -1,0 °C 19,3 km/h (3 Bft)
28.10.2018 06:33 2,4 °C 95 % 1002,7 hPa 0,0 mm 6,9 km/h (2 Bft) NO 53 ° 0 min 0,000 mm 0,0 UV-I 0 W/m² 1,7 °C 0,4 °C 11,3 km/h (2 Bft)
28.10.2018 06:34 2,4 °C 95 % 1002,7 hPa 0,0 mm 9,1 km/h (2 Bft) N-NO 32 ° 0 min 0,000 mm 0,0 UV-I 0 W/m² 1,7 °C -0,2 °C 14,5 km/h (3 Bft)
28.10.2018 06:35 2,4 °C 95 % 1002,7 hPa 0,0 mm 5,2 km/h (1 Bft) O 90 ° 0 min 0,000 mm 0,0 UV-I 0 W/m² 1,7 °C 1,0 °C 8,0 km/h (2 Bft)
28.10.2018 06:36 2,4 °C 95 % 1002,7 hPa 0,0 mm 7,8 km/h (2 Bft) N-NO 20 ° 0 min 0,000 mm 0,0 UV-I 0 W/m² 1,7 °C 0,1 °C 16,1 km/h (3 Bft)
28.10.2018 06:37 2,4 °C 95 % 1002,7 hPa 0,0 mm 9,1 km/h (2 Bft) NO 46 ° 0 min 0,000 mm 0,0 UV-I 0 W/m² 1,7 °C -0,2 °C 16,1 km/h (3 Bft)
28.10.2018 06:38 2,4 °C 95 % 1002,8 hPa 0,0 mm 11,9 km/h (2 Bft) NO 51 ° 0 min 0,000 mm 0,0 UV-I 0 W/m² 1,7 °C -0,9 °C 19,3 km/h (3 Bft)
28.10.2018 06:39 2,4 °C 95 % 1002,7 hPa 0,0 mm 9,8 km/h (2 Bft) NO 43 ° 0 min 0,000 mm 0,0 UV-I 0 W/m² 1,7 °C -0,4 °C 17,7 km/h (3 Bft)
28.10.2018 06:40 2,4 °C 95 % 1002,7 hPa 0,0 mm 8,7 km/h (2 Bft) NO 52 ° 0 min 0,000 mm 0,0 UV-I 0 W/m² 1,7 °C -0,1 °C 14,5 km/h (3 Bft)
28.10.2018 06:41 2,4 °C 95 % 1002,7 hPa 0,0 mm 7,2 km/h (2 Bft) NO 40 ° 0 min 0,000 mm 0,0 UV-I 0 W/m² 1,7 °C 0,3 °C 14,5 km/h (3 Bft)
28.10.2018 06:42 2,4 °C 95 % 1002,7 hPa 0,0 mm 10,9 km/h (2 Bft) N-NO 33 ° 0 min 0,000 mm 0,0 UV-I 0 W/m² 1,7 °C -0,7 °C 20,9 km/h (4 Bft)
28.10.2018 06:43 2,4 °C 95 % 1002,7 hPa 0,0 mm 10,1 km/h (2 Bft) NO 53 ° 0 min 0,000 mm 0,0 UV-I 0 W/m² 1,7 °C -0,5 °C 16,1 km/h (3 Bft)
28.10.2018 06:44 2,4 °C 95 % 1002,7 hPa 0,0 mm 13,2 km/h (3 Bft) O-NO 64 ° 0 min 0,000 mm 0,0 UV-I 0 W/m² 1,7 °C -1,1 °C 17,7 km/h (3 Bft)
28.10.2018 06:45 2,4 °C 95 % 1002,8 hPa 0,0 mm 5,4 km/h (1 Bft) O-SO 117 ° 0 min 0,000 mm 0,0 UV-I 0 W/m² 1,7 °C 1,0 °C 9,7 km/h (2 Bft)
28.10.2018 06:46 2,4 °C 95 % 1002,8 hPa 0,0 mm 5,1 km/h (1 Bft) O-NO 60 ° 0 min 0,000 mm 0,0 UV-I 0 W/m² 1,7 °C 1,1 °C 6,4 km/h (2 Bft)
28.10.2018 06:47 2,3 °C 95 % 1002,8 hPa 0,0 mm 7,4 km/h (2 Bft) NO 38 ° 0 min 0,000 mm 0,0 UV-I 0 W/m² 1,6 °C 0,1 °C 12,9 km/h (3 Bft)
28.10.2018 06:48 2,4 °C 95 % 1002,8 hPa 0,0 mm 6,3 km/h (2 Bft) O 81 ° 0 min 0,000 mm 0,0 UV-I 0 W/m² 1,7 °C 0,6 °C 12,9 km/h (3 Bft)
28.10.2018 06:49 2,4 °C 95 % 1002,8 hPa 0,0 mm 2,5 km/h (1 Bft) NO 39 ° 0 min 0,000 mm 0,0 UV-I 0 W/m² 1,7 °C 2,4 °C 4,8 km/h (1 Bft)
28.10.2018 06:50 2,4 °C 95 % 1002,8 hPa 0,0 mm 9,0 km/h (2 Bft) NO 44 ° 0 min 0,000 mm 0,0 UV-I 0 W/m² 1,7 °C -0,2 °C 12,9 km/h (3 Bft)
28.10.2018 06:51 2,4 °C 95 % 1002,8 hPa 0,0 mm 5,0 km/h (1 Bft) NO 49 ° 0 min 0,000 mm 0,0 UV-I 0 W/m² 1,7 °C 1,1 °C 8,0 km/h (2 Bft)
28.10.2018 06:52 2,4 °C 95 % 1002,8 hPa 0,0 mm 9,0 km/h (2 Bft) NO 35 ° 0 min 0,000 mm 0,0 UV-I 0 W/m² 1,7 °C -0,2 °C 14,5 km/h (3 Bft)
28.10.2018 06:53 2,3 °C 95 % 1002,8 hPa 0,0 mm 8,4 km/h (2 Bft) NO 49 ° 0 min 0,000 mm 0,0 UV-I 0 W/m² 1,6 °C -0,2 °C 14,5 km/h (3 Bft)
28.10.2018 06:54 2,3 °C 95 % 1002,8 hPa 0,0 mm 9,7 km/h (2 Bft) NO 34 ° 0 min 0,000 mm 0,0 UV-I 0 W/m² 1,6 °C -0,5 °C 16,1 km/h (3 Bft)
28.10.2018 06:55 2,3 °C 95 % 1002,8 hPa 0,0 mm 6,7 km/h (2 Bft) NO 47 ° 0 min 0,000 mm 0,0 UV-I 0 W/m² 1,6 °C 0,4 °C 9,7 km/h (2 Bft)
28.10.2018 06:56 2,3 °C 95 % 1002,9 hPa 0,0 mm 8,2 km/h (2 Bft) O-NO 62 ° 0 min 0,000 mm 0,0 UV-I 0 W/m² 1,6 °C -0,1 °C 16,1 km/h (3 Bft)
28.10.2018 06:57 2,3 °C 95 % 1002,8 hPa 0,0 mm 8,2 km/h (2 Bft) O-NO 69 ° 0 min 0,000 mm 0,0 UV-I 0 W/m² 1,6 °C -0,1 °C 11,3 km/h (2 Bft)
28.10.2018 06:58 2,3 °C 95 % 1002,9 hPa 0,0 mm 7,1 km/h (2 Bft) O-NO 73 ° 0 min 0,000 mm 0,0 UV-I 0 W/m² 1,6 °C 0,2 °C 11,3 km/h (2 Bft)
28.10.2018 06:59 2,3 °C 95 % 1002,9 hPa 0,0 mm 11,5 km/h (2 Bft) O 84 ° 0 min 0,000 mm 0,0 UV-I 0 W/m² 1,6 °C -0,9 °C 17,7 km/h (3 Bft)
28.10.2018 07:00 2,3 °C 95 % 1002,9 hPa 0,0 mm 11,9 km/h (2 Bft) O 94 ° 0 min 0,000 mm 0,0 UV-I 0 W/m² 1,6 °C -1,0 °C 17,7 km/h (3 Bft)
28.10.2018 07:01 2,3 °C 95 % 1003,0 hPa 0,0 mm 9,3 km/h (2 Bft) N-NO 32 ° 0 min 0,000 mm 0,0 UV-I 0 W/m² 1,6 °C -0,4 °C 12,9 km/h (3 Bft)
28.10.2018 07:02 2,3 °C 95 % 1003,0 hPa 0,0 mm 7,9 km/h (2 Bft) NO 53 ° 0 min 0,000 mm 0,0 UV-I 0 W/m² 1,6 °C -0,0 °C 12,9 km/h (3 Bft)
28.10.2018 07:03 2,3 °C 95 % 1003,0 hPa 0,0 mm 9,0 km/h (2 Bft) NO 35 ° 0 min 0,000 mm 0,0 UV-I 0 W/m² 1,6 °C -0,3 °C 14,5 km/h (3 Bft)
28.10.2018 07:04 2,3 °C 95 % 1003,0 hPa 0,0 mm 6,0 km/h (2 Bft) O-NO 59 ° 0 min 0,000 mm 0,0 UV-I 0 W/m² 1,6 °C 0,6 °C 9,7 km/h (2 Bft)
28.10.2018 07:05 2,3 °C 95 % 1002,9 hPa 0,0 mm 4,0 km/h (1 Bft) NO 45 ° 0 min 0,000 mm 0,0 UV-I 0 W/m² 1,6 °C 2,3 °C 9,7 km/h (2 Bft)
28.10.2018 07:06 2,3 °C 95 % 1002,9 hPa 0,0 mm 7,9 km/h (2 Bft) O-NO 75 ° 0 min 0,000 mm 0,0 UV-I 0 W/m² 1,6 °C -0,0 °C 14,5 km/h (3 Bft)
28.10.2018 07:07 2,2 °C 95 % 1002,9 hPa 0,0 mm 7,2 km/h (2 Bft) O-NO 76 ° 0 min 0,000 mm 0,0 UV-I 0 W/m² 1,5 °C 0,1 °C 12,9 km/h (3 Bft)
28.10.2018 07:08 2,2 °C 95 % 1002,9 hPa 0,0 mm 9,7 km/h (2 Bft) O-NO 73 ° 0 min 0,000 mm 0,0 UV-I 0 W/m² 1,5 °C -0,6 °C 12,9 km/h (3 Bft)
28.10.2018 07:09 2,2 °C 95 % 1003,0 hPa 0,0 mm 7,6 km/h (2 Bft) O-NO 76 ° 0 min 0,000 mm 0,0 UV-I 0 W/m² 1,5 °C -0,0 °C 14,5 km/h (3 Bft)
28.10.2018 07:10 2,2 °C 95 % 1003,0 hPa 0,0 mm 5,9 km/h (2 Bft) O-NO 64 ° 0 min 0,000 mm 0,0 UV-I 0 W/m² 1,5 °C 0,5 °C 8,0 km/h (2 Bft)
28.10.2018 07:11 2,2 °C 95 % 1003,1 hPa 0,0 mm 10,9 km/h (2 Bft) O 89 ° 0 min 0,000 mm 0,0 UV-I 0 W/m² 1,5 °C -0,9 °C 16,1 km/h (3 Bft)
28.10.2018 07:12 2,2 °C 95 % 1003,1 hPa 0,0 mm 7,6 km/h (2 Bft) NO 44 ° 0 min 0,000 mm 0,0 UV-I 0 W/m² 1,5 °C -0,0 °C 12,9 km/h (3 Bft)
28.10.2018 07:13 2,2 °C 95 % 1003,1 hPa 0,2 mm 6,1 km/h (2 Bft) N-NO 29 ° 0 min 0,000 mm 0,0 UV-I 0 W/m² 1,5 °C 0,5 °C 9,7 km/h (2 Bft)
28.10.2018 07:14 2,2 °C 95 % 1003,1 hPa 0,0 mm 4,3 km/h (1 Bft) NO 44 ° 0 min 0,000 mm 0,0 UV-I 5 W/m² 1,5 °C 2,2 °C 6,4 km/h (2 Bft)
28.10.2018 07:15 2,2 °C 95 % 1003,1 hPa 0,0 mm 6,3 km/h (2 Bft) NO 55 ° 0 min 0,000 mm 0,0 UV-I 5 W/m² 1,5 °C 0,4 °C 8,0 km/h (2 Bft)
28.10.2018 07:16 2,2 °C 95 % 1003,1 hPa 0,0 mm 7,0 km/h (2 Bft) O-NO 67 ° 0 min 0,000 mm 0,0 UV-I 5 W/m² 1,5 °C 0,2 °C 9,7 km/h (2 Bft)
28.10.2018 07:17 2,3 °C 95 % 1003,1 hPa 0,0 mm 4,4 km/h (1 Bft) NO 42 ° 0 min 0,000 mm 0,0 UV-I 7 W/m² 1,6 °C 2,3 °C 6,4 km/h (2 Bft)
28.10.2018 07:18 2,3 °C 95 % 1003,1 hPa 0,0 mm 5,3 km/h (1 Bft) O-NO 61 ° 0 min 0,000 mm 0,0 UV-I 7 W/m² 1,6 °C 0,9 °C 9,7 km/h (2 Bft)
28.10.2018 07:19 2,3 °C 95 % 1003,1 hPa 0,0 mm 7,4 km/h (2 Bft) O 90 ° 0 min 0,000 mm 0,0 UV-I 7 W/m² 1,6 °C 0,1 °C 14,5 km/h (3 Bft)
28.10.2018 07:20 2,3 °C 95 % 1003,1 hPa 0,0 mm 7,0 km/h (2 Bft) O-NO 65 ° 0 min 0,000 mm 0,0 UV-I 7 W/m² 1,6 °C 0,3 °C 12,9 km/h (3 Bft)
28.10.2018 07:21 2,3 °C 95 % 1003,0 hPa 0,0 mm 9,7 km/h (2 Bft) O 79 ° 0 min 0,000 mm 0,0 UV-I 7 W/m² 1,6 °C -0,5 °C 12,9 km/h (3 Bft)
28.10.2018 07:22 2,2 °C 95 % 1003,0 hPa 0,0 mm 5,8 km/h (2 Bft) NO 36 ° 0 min 0,000 mm 0,0 UV-I 9 W/m² 1,5 °C 0,6 °C 12,9 km/h (3 Bft)
28.10.2018 07:23 2,2 °C 95 % 1003,1 hPa 0,0 mm 9,1 km/h (2 Bft) NO 46 ° 0 min 0,000 mm 0,0 UV-I 9 W/m² 1,5 °C -0,5 °C 14,5 km/h (3 Bft)
28.10.2018 07:24 2,2 °C 95 % 1003,1 hPa 0,0 mm 8,1 km/h (2 Bft) O-NO 60 ° 0 min 0,000 mm 0,0 UV-I 7 W/m² 1,5 °C -0,2 °C 14,5 km/h (3 Bft)
28.10.2018 07:25 2,2 °C 95 % 1003,1 hPa 0,0 mm 9,7 km/h (2 Bft) O-NO 65 ° 0 min 0,000 mm 0,0 UV-I 7 W/m² 1,5 °C -0,6 °C 19,3 km/h (3 Bft)
28.10.2018 07:26 2,2 °C 95 % 1003,1 hPa 0,0 mm 3,9 km/h (1 Bft) O-NO 57 ° 0 min 0,000 mm 0,0 UV-I 7 W/m² 1,5 °C 2,2 °C 6,4 km/h (2 Bft)
28.10.2018 07:27 2,2 °C 95 % 1003,1 hPa 0,0 mm 4,6 km/h (1 Bft) NO 53 ° 0 min 0,000 mm 0,0 UV-I 7 W/m² 1,5 °C 1,1 °C 6,4 km/h (2 Bft)
28.10.2018 07:28 2,2 °C 95 % 1003,3 hPa 0,0 mm 3,8 km/h (1 Bft) O-NO 57 ° 0 min 0,000 mm 0,0 UV-I 7 W/m² 1,5 °C 2,2 °C 4,8 km/h (1 Bft)
28.10.2018 07:29 2,2 °C 95 % 1003,4 hPa 0,0 mm 6,3 km/h (2 Bft) N-NO 18 ° 0 min 0,000 mm 0,0 UV-I 7 W/m² 1,5 °C 0,4 °C 8,0 km/h (2 Bft)
28.10.2018 07:30 2,2 °C 95 % 1003,3 hPa 0,0 mm 8,8 km/h (2 Bft) NO 44 ° 0 min 0,000 mm 0,0 UV-I 7 W/m² 1,5 °C -0,4 °C 19,3 km/h (3 Bft)
28.10.2018 07:31 2,2 °C 95 % 1003,2 hPa 0,0 mm 7,0 km/h (2 Bft) O-NO 60 ° 0 min 0,000 mm 0,0 UV-I 7 W/m² 1,5 °C 0,2 °C 14,5 km/h (3 Bft)
28.10.2018 07:32 2,2 °C 95 % 1003,3 hPa 0,0 mm 7,4 km/h (2 Bft) O-NO 67 ° 0 min 0,000 mm 0,0 UV-I 7 W/m² 1,5 °C 0,0 °C 12,9 km/h (3 Bft)
28.10.2018 07:33 2,2 °C 95 % 1003,3 hPa 0,0 mm 6,6 km/h (2 Bft) O-NO 68 ° 0 min 0,000 mm 0,0 UV-I 7 W/m² 1,5 °C 0,3 °C 14,5 km/h (3 Bft)
28.10.2018 07:34 2,2 °C 95 % 1003,3 hPa 0,0 mm 6,0 km/h (2 Bft) O-NO 74 ° 0 min 0,000 mm 0,0 UV-I 7 W/m² 1,5 °C 0,5 °C 11,3 km/h (2 Bft)
28.10.2018 07:35 2,2 °C 95 % 1003,1 hPa 0,0 mm 7,8 km/h (2 Bft) NO 55 ° 0 min 0,000 mm 0,0 UV-I 7 W/m² 1,5 °C -0,1 °C 14,5 km/h (3 Bft)
28.10.2018 07:36 2,2 °C 95 % 1003,2 hPa 0,0 mm 5,0 km/h (1 Bft) N-NO 20 ° 0 min 0,000 mm 0,0 UV-I 7 W/m² 1,5 °C 0,9 °C 8,0 km/h (2 Bft)
28.10.2018 07:37 2,2 °C 95 % 1003,2 hPa 0,0 mm 5,6 km/h (1 Bft) NO 44 ° 0 min 0,000 mm 0,0 UV-I 7 W/m² 1,5 °C 0,7 °C 9,7 km/h (2 Bft)
28.10.2018 07:38 2,2 °C 95 % 1003,3 hPa 0,0 mm 5,4 km/h (1 Bft) NO 38 ° 0 min 0,000 mm 0,0 UV-I 7 W/m² 1,5 °C 0,7 °C 12,9 km/h (3 Bft)
28.10.2018 07:39 2,2 °C 95 % 1003,3 hPa 0,0 mm 2,3 km/h (1 Bft) NO 44 ° 0 min 0,000 mm 0,0 UV-I 7 W/m² 1,5 °C 2,2 °C 6,4 km/h (2 Bft)
28.10.2018 07:40 2,2 °C 95 % 1003,4 hPa 0,0 mm 7,8 km/h (2 Bft) NO 46 ° 0 min 0,000 mm 0,0 UV-I 9 W/m² 1,5 °C -0,1 °C 11,3 km/h (2 Bft)
28.10.2018 07:41 2,2 °C 95 % 1003,4 hPa 0,0 mm 7,7 km/h (2 Bft) SO 130 ° 0 min 0,000 mm 0,0 UV-I 9 W/m² 1,5 °C -0,1 °C 11,3 km/h (2 Bft)
28.10.2018 07:42 2,1 °C 95 % 1003,4 hPa 0,0 mm 4,4 km/h (1 Bft) O-NO 57 ° 0 min 0,000 mm 0,0 UV-I 9 W/m² 1,4 °C 2,1 °C 6,4 km/h (2 Bft)
28.10.2018 07:43 2,1 °C 95 % 1003,4 hPa 0,0 mm 7,7 km/h (2 Bft) O-NO 70 ° 0 min 0,000 mm 0,0 UV-I 11 W/m² 1,4 °C -0,2 °C 16,1 km/h (3 Bft)
28.10.2018 07:44 2,1 °C 95 % 1003,3 hPa 0,0 mm 10,3 km/h (2 Bft) S 170 ° 0 min 0,000 mm 0,0 UV-I 11 W/m² 1,4 °C -0,9 °C 16,1 km/h (3 Bft)
28.10.2018 07:45 2,1 °C 95 % 1003,3 hPa 0,0 mm 3,8 km/h (1 Bft) O 96 ° 0 min 0,000 mm 0,0 UV-I 11 W/m² 1,4 °C 2,1 °C 8,0 km/h (2 Bft)
28.10.2018 07:46 2,1 °C 95 % 1003,3 hPa 0,0 mm 7,8 km/h (2 Bft) NO 56 ° 0 min 0,000 mm 0,0 UV-I 11 W/m² 1,4 °C -0,2 °C 12,9 km/h (3 Bft)
28.10.2018 07:47 2,1 °C 95 % 1003,3 hPa 0,0 mm 5,6 km/h (1 Bft) O-NO 58 ° 0 min 0,000 mm 0,0 UV-I 11 W/m² 1,4 °C 0,5 °C 9,7 km/h (2 Bft)
28.10.2018 07:48 2,1 °C 95 % 1003,3 hPa 0,0 mm 6,1 km/h (2 Bft) O-NO 66 ° 0 min 0,000 mm 0,0 UV-I 11 W/m² 1,4 °C 0,4 °C 8,0 km/h (2 Bft)
28.10.2018 07:49 2,1 °C 95 % 1003,3 hPa 0,0 mm 7,7 km/h (2 Bft) O-NO 68 ° 0 min 0,000 mm 0,0 UV-I 12 W/m² 1,4 °C -0,2 °C 12,9 km/h (3 Bft)
28.10.2018 07:50 2,1 °C 95 % 1003,3 hPa 0,0 mm 9,7 km/h (2 Bft) NO 50 ° 0 min 0,000 mm 0,0 UV-I 12 W/m² 1,4 °C -0,7 °C 16,1 km/h (3 Bft)
28.10.2018 07:51 2,1 °C 95 % 1003,3 hPa 0,0 mm 9,5 km/h (2 Bft) O 82 ° 0 min 0,000 mm 0,0 UV-I 12 W/m² 1,4 °C -0,7 °C 17,7 km/h (3 Bft)
28.10.2018 07:52 2,1 °C 95 % 1003,3 hPa 0,0 mm 7,9 km/h (2 Bft) NO 48 ° 0 min 0,000 mm 0,0 UV-I 12 W/m² 1,4 °C -0,2 °C 11,3 km/h (2 Bft)
28.10.2018 07:53 2,1 °C 95 % 1003,4 hPa 0,0 mm 7,1 km/h (2 Bft) O-NO 57 ° 0 min 0,000 mm 0,0 UV-I 14 W/m² 1,4 °C 0,0 °C 9,7 km/h (2 Bft)
28.10.2018 07:54 2,1 °C 95 % 1003,3 hPa 0,0 mm 7,2 km/h (2 Bft) O-NO 72 ° 0 min 0,000 mm 0,0 UV-I 12 W/m² 1,4 °C -0,0 °C 14,5 km/h (3 Bft)
28.10.2018 07:55 2,1 °C 95 % 1003,3 hPa 0,0 mm 9,3 km/h (2 Bft) NO 44 ° 0 min 0,000 mm 0,0 UV-I 11 W/m² 1,4 °C -0,6 °C 17,7 km/h (3 Bft)
28.10.2018 07:56 2,2 °C 95 % 1003,3 hPa 0,0 mm 9,5 km/h (2 Bft) NO 41 ° 0 min 0,000 mm 0,0 UV-I 11 W/m² 1,5 °C -0,6 °C 14,5 km/h (3 Bft)
28.10.2018 07:57 2,2 °C 95 % 1003,4 hPa 0,0 mm 6,5 km/h (2 Bft) O-NO 68 ° 0 min 0,000 mm 0,0 UV-I 11 W/m² 1,5 °C 0,3 °C 11,3 km/h (2 Bft)
28.10.2018 07:58 2,2 °C 95 % 1003,4 hPa 0,0 mm 1,5 km/h (1 Bft) O-NO 68 ° 0 min 0,000 mm 0,0 UV-I 11 W/m² 1,5 °C 2,2 °C 3,2 km/h (1 Bft)
28.10.2018 07:59 2,2 °C 95 % 1003,3 hPa 0,0 mm 1,5 km/h (1 Bft) O-NO 67 ° 0 min 0,000 mm 0,0 UV-I 11 W/m² 1,5 °C 2,2 °C 4,8 km/h (1 Bft)
28.10.2018 08:00 2,1 °C 95 % 1003,3 hPa 0,0 mm 2,8 km/h (1 Bft) O-NO 71 ° 0 min 0,000 mm 0,0 UV-I 11 W/m² 1,4 °C 2,1 °C 8,0 km/h (2 Bft)
28.10.2018 08:01 2,2 °C 95 % 1003,3 hPa 0,0 mm 3,2 km/h (1 Bft) O-NO 59 ° 0 min 0,000 mm 0,0 UV-I 11 W/m² 1,5 °C 2,2 °C 4,8 km/h (1 Bft)
28.10.2018 08:02 2,2 °C 95 % 1003,3 hPa 0,0 mm 2,1 km/h (1 Bft) O-NO 58 ° 0 min 0,000 mm 0,0 UV-I 11 W/m² 1,5 °C 2,2 °C 4,8 km/h (1 Bft)
28.10.2018 08:03 2,2 °C 95 % 1003,3 hPa 0,0 mm 3,2 km/h (1 Bft) O-NO 75 ° 0 min 0,000 mm 0,0 UV-I 11 W/m² 1,5 °C 2,2 °C 4,8 km/h (1 Bft)
28.10.2018 08:04 2,2 °C 95 % 1003,3 hPa 0,0 mm 5,0 km/h (1 Bft) O-NO 72 ° 0 min 0,000 mm 0,0 UV-I 12 W/m² 1,5 °C 0,9 °C 9,7 km/h (2 Bft)
28.10.2018 08:05 2,2 °C 95 % 1003,3 hPa 0,0 mm 8,6 km/h (2 Bft) N-NO 24 ° 0 min 0,000 mm 0,0 UV-I 12 W/m² 1,5 °C -0,3 °C 12,9 km/h (3 Bft)
28.10.2018 08:06 2,2 °C 95 % 1003,4 hPa 0,0 mm 6,6 km/h (2 Bft) O-NO 72 ° 0 min 0,000 mm 0,0 UV-I 14 W/m² 1,5 °C 0,3 °C 9,7 km/h (2 Bft)
28.10.2018 08:07 2,2 °C 95 % 1003,5 hPa 0,0 mm 7,5 km/h (2 Bft) O-NO 65 ° 0 min 0,000 mm 0,0 UV-I 16 W/m² 1,5 °C -0,0 °C 12,9 km/h (3 Bft)
28.10.2018 08:08 2,1 °C 95 % 1003,5 hPa 0,0 mm 5,7 km/h (1 Bft) O-NO 67 ° 0 min 0,000 mm 0,0 UV-I 19 W/m² 1,4 °C 0,5 °C 9,7 km/h (2 Bft)
28.10.2018 08:09 2,2 °C 95 % 1003,5 hPa 0,0 mm 9,9 km/h (2 Bft) O-NO 65 ° 0 min 0,000 mm 0,0 UV-I 19 W/m² 1,5 °C -0,7 °C 17,7 km/h (3 Bft)
28.10.2018 08:10 2,2 °C 95 % 1003,5 hPa 0,0 mm 7,4 km/h (2 Bft) O 88 ° 0 min 0,000 mm 0,0 UV-I 23 W/m² 1,5 °C 0,0 °C 12,9 km/h (3 Bft)
28.10.2018 08:11 2,2 °C 95 % 1003,4 hPa 0,0 mm 4,8 km/h (1 Bft) NO 53 ° 0 min 0,000 mm 0,0 UV-I 26 W/m² 1,5 °C 1,0 °C 8,0 km/h (2 Bft)
28.10.2018 08:12 2,2 °C 95 % 1003,5 hPa 0,0 mm 7,6 km/h (2 Bft) O-NO 77 ° 0 min 0,000 mm 0,0 UV-I 30 W/m² 1,5 °C -0,0 °C 9,7 km/h (2 Bft)
28.10.2018 08:13 2,2 °C 95 % 1003,5 hPa 0,0 mm 11,0 km/h (2 Bft) O-NO 70 ° 0 min 0,000 mm 0,0 UV-I 28 W/m² 1,5 °C -0,9 °C 17,7 km/h (3 Bft)
28.10.2018 08:14 2,2 °C 95 % 1003,5 hPa 0,0 mm 10,7 km/h (2 Bft) O-NO 73 ° 0 min 0,000 mm 0,0 UV-I 25 W/m² 1,5 °C -0,9 °C 12,9 km/h (3 Bft)
28.10.2018 08:15 2,1 °C 95 % 1003,5 hPa 0,0 mm 10,9 km/h (2 Bft) O-NO 61 ° 0 min 0,000 mm 0,0 UV-I 26 W/m² 1,4 °C -1,0 °C 14,5 km/h (3 Bft)
28.10.2018 08:16 2,1 °C 95 % 1003,5 hPa 0,0 mm 10,9 km/h (2 Bft) NO 53 ° 0 min 0,000 mm 0,0 UV-I 26 W/m² 1,4 °C -1,0 °C 16,1 km/h (3 Bft)
28.10.2018 08:17 2,2 °C 95 % 1003,4 hPa 0,0 mm 3,4 km/h (1 Bft) O-SO 117 ° 0 min 0,000 mm 0,0 UV-I 26 W/m² 1,5 °C 2,2 °C 4,8 km/h (1 Bft)
28.10.2018 08:18 2,2 °C 95 % 1003,5 hPa 0,0 mm 4,2 km/h (1 Bft) O-NO 67 ° 0 min 0,000 mm 0,0 UV-I 25 W/m² 1,5 °C 2,2 °C 9,7 km/h (2 Bft)
28.10.2018 08:19 2,2 °C 95 % 1003,5 hPa 0,0 mm 3,1 km/h (1 Bft) O-SO 105 ° 0 min 0,000 mm 0,0 UV-I 25 W/m² 1,5 °C 2,2 °C 9,7 km/h (2 Bft)
28.10.2018 08:20 2,2 °C 95 % 1003,5 hPa 0,0 mm 2,3 km/h (1 Bft) O-NO 64 ° 0 min 0,000 mm 0,0 UV-I 23 W/m² 1,5 °C 2,2 °C 8,0 km/h (2 Bft)
28.10.2018 08:21 2,2 °C 95 % 1003,5 hPa 0,0 mm 4,6 km/h (1 Bft) NO 54 ° 0 min 0,000 mm 0,0 UV-I 25 W/m² 1,5 °C 1,1 °C 8,0 km/h (2 Bft)
28.10.2018 08:22 2,2 °C 95 % 1003,5 hPa 0,0 mm 15,2 km/h (3 Bft) O-NO 76 ° 0 min 0,000 mm 0,0 UV-I 25 W/m² 1,5 °C -1,7 °C 19,3 km/h (3 Bft)
28.10.2018 08:23 2,2 °C 95 % 1003,5 hPa 0,0 mm 10,1 km/h (2 Bft) NO 56 ° 0 min 0,000 mm 0,0 UV-I 23 W/m² 1,5 °C -0,7 °C 14,5 km/h (3 Bft)
28.10.2018 08:24 2,2 °C 95 % 1003,5 hPa 0,0 mm 7,0 km/h (2 Bft) NO 54 ° 0 min 0,000 mm 0,0 UV-I 21 W/m² 1,5 °C 0,2 °C 14,5 km/h (3 Bft)
28.10.2018 08:25 2,2 °C 95 % 1003,6 hPa 0,0 mm 7,3 km/h (2 Bft) O-NO 63 ° 0 min 0,000 mm 0,0 UV-I 21 W/m² 1,5 °C 0,1 °C 14,5 km/h (3 Bft)
28.10.2018 08:26 2,2 °C 95 % 1003,6 hPa 0,0 mm 9,7 km/h (2 Bft) O-NO 76 ° 0 min 0,000 mm 0,0 UV-I 21 W/m² 1,5 °C -0,6 °C 14,5 km/h (3 Bft)
28.10.2018 08:27 2,1 °C 95 % 1003,6 hPa 0,0 mm 9,7 km/h (2 Bft) O-NO 74 ° 0 min 0,000 mm 0,0 UV-I 19 W/m² 1,4 °C -0,7 °C 14,5 km/h (3 Bft)
28.10.2018 08:28 2,1 °C 95 % 1003,6 hPa 0,0 mm 5,8 km/h (2 Bft) O-NO 72 ° 0 min 0,000 mm 0,0 UV-I 19 W/m² 1,4 °C 0,5 °C 12,9 km/h (3 Bft)
28.10.2018 08:29 2,2 °C 95 % 1003,6 hPa 0,0 mm 7,2 km/h (2 Bft) O-NO 63 ° 0 min 0,000 mm 0,0 UV-I 19 W/m² 1,5 °C 0,1 °C 14,5 km/h (3 Bft)
28.10.2018 08:30 2,2 °C 95 % 1003,5 hPa 0,0 mm 7,0 km/h (2 Bft) O-SO 114 ° 0 min 0,000 mm 0,0 UV-I 16 W/m² 1,5 °C 0,2 °C 11,3 km/h (2 Bft)
28.10.2018 08:31 2,1 °C 95 % 1003,6 hPa 0,0 mm 8,5 km/h (2 Bft) O-NO 67 ° 0 min 0,000 mm 0,0 UV-I 16 W/m² 1,4 °C -0,4 °C 16,1 km/h (3 Bft)
28.10.2018 08:32 2,2 °C 95 % 1003,6 hPa 0,0 mm 6,1 km/h (2 Bft) NO 49 ° 0 min 0,000 mm 0,0 UV-I 16 W/m² 1,5 °C 0,5 °C 9,7 km/h (2 Bft)
28.10.2018 08:33 2,1 °C 95 % 1003,5 hPa 0,0 mm 7,0 km/h (2 Bft) SO 132 ° 0 min 0,000 mm 0,0 UV-I 16 W/m² 1,4 °C 0,0 °C 17,7 km/h (3 Bft)
28.10.2018 08:34 2,1 °C 95 % 1003,5 hPa 0,0 mm 11,9 km/h (2 Bft) O-NO 67 ° 0 min 0,000 mm 0,0 UV-I 18 W/m² 1,4 °C -1,2 °C 19,3 km/h (3 Bft)
28.10.2018 08:35 2,1 °C 95 % 1003,5 hPa 0,0 mm 6,2 km/h (2 Bft) O 84 ° 0 min 0,000 mm 0,0 UV-I 18 W/m² 1,4 °C 0,3 °C 12,9 km/h (3 Bft)
28.10.2018 08:36 2,2 °C 95 % 1003,5 hPa 0,0 mm 5,5 km/h (1 Bft) NO 42 ° 0 min 0,000 mm 0,0 UV-I 18 W/m² 1,5 °C 0,7 °C 8,0 km/h (2 Bft)
28.10.2018 08:37 2,1 °C 95 % 1003,4 hPa 0,0 mm 8,4 km/h (2 Bft) O-NO 71 ° 0 min 0,000 mm 0,0 UV-I 18 W/m² 1,4 °C -0,4 °C 14,5 km/h (3 Bft)
28.10.2018 08:38 2,2 °C 95 % 1003,5 hPa 0,0 mm 4,1 km/h (1 Bft) NO 40 ° 0 min 0,000 mm 0,0 UV-I 18 W/m² 1,5 °C 2,2 °C 8,0 km/h (2 Bft)
28.10.2018 08:39 2,1 °C 95 % 1003,4 hPa 0,0 mm 9,5 km/h (2 Bft) O-NO 65 ° 0 min 0,000 mm 0,0 UV-I 18 W/m² 1,4 °C -0,7 °C 14,5 km/h (3 Bft)
28.10.2018 08:40 2,1 °C 95 % 1003,5 hPa 0,0 mm 3,3 km/h (1 Bft) O-NO 58 ° 0 min 0,000 mm 0,0 UV-I 18 W/m² 1,4 °C 2,1 °C 9,7 km/h (2 Bft)
28.10.2018 08:41 2,2 °C 95 % 1003,4 hPa 0,0 mm 9,3 km/h (2 Bft) O 92 ° 0 min 0,000 mm 0,0 UV-I 19 W/m² 1,5 °C -0,5 °C 16,1 km/h (3 Bft)
28.10.2018 08:42 2,1 °C 95 % 1003,4 hPa 0,0 mm 8,7 km/h (2 Bft) O-NO 64 ° 0 min 0,000 mm 0,0 UV-I 23 W/m² 1,4 °C -0,5 °C 17,7 km/h (3 Bft)
28.10.2018 08:43 2,1 °C 95 % 1003,4 hPa 0,0 mm 8,2 km/h (2 Bft) O-NO 62 ° 0 min 0,000 mm 0,0 UV-I 23 W/m² 1,4 °C -0,3 °C 11,3 km/h (2 Bft)
28.10.2018 08:44 2,1 °C 95 % 1003,4 hPa 0,0 mm 4,6 km/h (1 Bft) O-NO 71 ° 0 min 0,000 mm 0,0 UV-I 23 W/m² 1,4 °C 1,0 °C 8,0 km/h (2 Bft)
28.10.2018 08:45 2,1 °C 95 % 1003,3 hPa 0,0 mm 6,4 km/h (2 Bft) NO 46 ° 0 min 0,000 mm 0,0 UV-I 23 W/m² 1,4 °C 0,2 °C 11,3 km/h (2 Bft)
28.10.2018 08:46 2,2 °C 95 % 1003,3 hPa 0,0 mm 4,8 km/h (1 Bft) O-NO 69 ° 0 min 0,000 mm 0,0 UV-I 26 W/m² 1,5 °C 1,0 °C 8,0 km/h (2 Bft)
28.10.2018 08:47 2,2 °C 95 % 1003,3 hPa 0,0 mm 4,6 km/h (1 Bft) NO 48 ° 0 min 0,000 mm 0,0 UV-I 26 W/m² 1,5 °C 1,1 °C 6,4 km/h (2 Bft)
28.10.2018 08:48 2,2 °C 95 % 1003,3 hPa 0,0 mm 5,1 km/h (1 Bft) O-NO 71 ° 0 min 0,000 mm 0,0 UV-I 26 W/m² 1,5 °C 0,9 °C 14,5 km/h (3 Bft)
28.10.2018 08:49 2,2 °C 95 % 1003,3 hPa 0,0 mm 4,6 km/h (1 Bft) O 86 ° 0 min 0,000 mm 0,0 UV-I 23 W/m² 1,5 °C 1,1 °C 8,0 km/h (2 Bft)
28.10.2018 08:50 2,1 °C 95 % 1003,3 hPa 0,0 mm 5,2 km/h (1 Bft) O-NO 60 ° 0 min 0,000 mm 0,0 UV-I 23 W/m² 1,4 °C 0,7 °C 8,0 km/h (2 Bft)
28.10.2018 08:51 2,2 °C 95 % 1003,3 hPa 0,0 mm 4,9 km/h (1 Bft) O 86 ° 0 min 0,000 mm 0,0 UV-I 21 W/m² 1,5 °C 1,0 °C 11,3 km/h (2 Bft)
28.10.2018 08:52 2,1 °C 95 % 1003,4 hPa 0,0 mm 1,2 km/h (1 Bft) O 86 ° 0 min 0,000 mm 0,0 UV-I 21 W/m² 1,4 °C 2,1 °C 3,2 km/h (1 Bft)
28.10.2018 08:53 2,2 °C 95 % 1003,4 hPa 0,2 mm 4,6 km/h (1 Bft) O-NO 61 ° 0 min 0,000 mm 0,0 UV-I 19 W/m² 1,5 °C 1,1 °C 9,7 km/h (2 Bft)
28.10.2018 08:54 2,2 °C 95 % 1003,4 hPa 0,0 mm 5,1 km/h (1 Bft) NO 50 ° 0 min 0,000 mm 0,0 UV-I 19 W/m² 1,5 °C 0,9 °C 8,0 km/h (2 Bft)
28.10.2018 08:55 2,2 °C 95 % 1003,3 hPa 0,0 mm 4,4 km/h (1 Bft) O-NO 66 ° 0 min 0,000 mm 0,0 UV-I 19 W/m² 1,5 °C 2,2 °C 8,0 km/h (2 Bft)
28.10.2018 08:56 2,1 °C 95 % 1003,3 hPa 0,0 mm 3,4 km/h (1 Bft) O-NO 77 ° 0 min 0,000 mm 0,0 UV-I 18 W/m² 1,4 °C 2,1 °C 11,3 km/h (2 Bft)
28.10.2018 08:57 2,2 °C 95 % 1003,2 hPa 0,0 mm 6,0 km/h (2 Bft) O-NO 65 ° 0 min 0,000 mm 0,0 UV-I 18 W/m² 1,5 °C 0,5 °C 9,7 km/h (2 Bft)
28.10.2018 08:58 2,1 °C 95 % 1003,1 hPa 0,0 mm 4,8 km/h (1 Bft) O-NO 61 ° 0 min 0,000 mm 0,0 UV-I 18 W/m² 1,4 °C 0,9 °C 8,0 km/h (2 Bft)
28.10.2018 08:59 2,1 °C 95 % 1003,1 hPa 0,0 mm 4,3 km/h (1 Bft) O-SO 109 ° 0 min 0,000 mm 0,0 UV-I 18 W/m² 1,4 °C 2,1 °C 11,3 km/h (2 Bft)
28.10.2018 09:00 2,1 °C 95 % 1003,1 hPa 0,0 mm 8,1 km/h (2 Bft) O-NO 64 ° 0 min 0,000 mm 0,0 UV-I 18 W/m² 1,4 °C -0,3 °C 20,9 km/h (4 Bft)
28.10.2018 09:01 2,1 °C 95 % 1003,1 hPa 0,0 mm 4,7 km/h (1 Bft) O-NO 63 ° 0 min 0,000 mm 0,0 UV-I 18 W/m² 1,4 °C 0,9 °C 8,0 km/h (2 Bft)
28.10.2018 09:02 2,1 °C 95 % 1003,0 hPa 0,0 mm 8,9 km/h (2 Bft) O-NO 63 ° 0 min 0,000 mm 0,0 UV-I 18 W/m² 1,4 °C -0,5 °C 14,5 km/h (3 Bft)
28.10.2018 09:03 2,1 °C 95 % 1003,1 hPa 0,0 mm 5,8 km/h (2 Bft) O-SO 114 ° 0 min 0,000 mm 0,0 UV-I 18 W/m² 1,4 °C 0,5 °C 11,3 km/h (2 Bft)
28.10.2018 09:04 2,1 °C 95 % 1003,1 hPa 0,0 mm 5,2 km/h (1 Bft) O 80 ° 0 min 0,000 mm 0,0 UV-I 18 W/m² 1,4 °C 0,7 °C 8,0 km/h (2 Bft)
28.10.2018 09:05 2,1 °C 95 % 1003,1 hPa 0,0 mm 6,0 km/h (2 Bft) O-NO 78 ° 0 min 0,000 mm 0,0 UV-I 19 W/m² 1,4 °C 0,4 °C 12,9 km/h (3 Bft)
28.10.2018 09:06 2,1 °C 95 % 1003,0 hPa 0,0 mm 6,9 km/h (2 Bft) O-NO 74 ° 0 min 0,000 mm 0,0 UV-I 19 W/m² 1,4 °C 0,1 °C 11,3 km/h (2 Bft)
28.10.2018 09:07 2,1 °C 95 % 1003,0 hPa 0,0 mm 7,7 km/h (2 Bft) O-NO 65 ° 0 min 0,000 mm 0,0 UV-I 19 W/m² 1,4 °C -0,2 °C 14,5 km/h (3 Bft)
28.10.2018 09:08 2,1 °C 95 % 1002,9 hPa 0,0 mm 7,7 km/h (2 Bft) O-NO 66 ° 0 min 0,000 mm 0,0 UV-I 19 W/m² 1,4 °C -0,2 °C 14,5 km/h (3 Bft)
28.10.2018 09:09 2,1 °C 95 % 1002,9 hPa 0,0 mm 7,9 km/h (2 Bft) NO 44 ° 0 min 0,000 mm 0,0 UV-I 19 W/m² 1,4 °C -0,2 °C 12,9 km/h (3 Bft)
28.10.2018 09:10 2,1 °C 95 % 1002,9 hPa 0,0 mm 7,8 km/h (2 Bft) O 83 ° 0 min 0,000 mm 0,0 UV-I 19 W/m² 1,4 °C -0,2 °C 12,9 km/h (3 Bft)
28.10.2018 09:11 2,1 °C 95 % 1003,0 hPa 0,0 mm 6,4 km/h (2 Bft) NO 36 ° 0 min 0,000 mm 0,0 UV-I 21 W/m² 1,4 °C 0,2 °C 11,3 km/h (2 Bft)
28.10.2018 09:12 2,1 °C 95 % 1003,0 hPa 0,0 mm 5,5 km/h (1 Bft) N-NO 31 ° 0 min 0,000 mm 0,0 UV-I 21 W/m² 1,4 °C 0,6 °C 9,7 km/h (2 Bft)
28.10.2018 09:13 2,1 °C 95 % 1003,0 hPa 0,2 mm 8,4 km/h (2 Bft) NO 36 ° 0 min 0,000 mm 0,0 UV-I 21 W/m² 1,4 °C -0,4 °C 14,5 km/h (3 Bft)
28.10.2018 09:14 2,1 °C 95 % 1002,9 hPa 0,0 mm 6,2 km/h (2 Bft) O-NO 74 ° 0 min 0,000 mm 0,0 UV-I 21 W/m² 1,4 °C 0,3 °C 14,5 km/h (3 Bft)
28.10.2018 09:15 2,1 °C 95 % 1003,0 hPa 0,0 mm 4,8 km/h (1 Bft) O-NO 70 ° 0 min 0,000 mm 0,0 UV-I 21 W/m² 1,4 °C 0,9 °C 8,0 km/h (2 Bft)
28.10.2018 09:16 2,1 °C 95 % 1002,9 hPa 0,0 mm 8,4 km/h (2 Bft) NO 53 ° 0 min 0,000 mm 0,0 UV-I 23 W/m² 1,4 °C -0,4 °C 12,9 km/h (3 Bft)
28.10.2018 09:17 2,1 °C 95 % 1002,9 hPa 0,0 mm 8,3 km/h (2 Bft) O 88 ° 0 min 0,000 mm 0,0 UV-I 23 W/m² 1,4 °C -0,4 °C 12,9 km/h (3 Bft)
28.10.2018 09:18 2,1 °C 95 % 1002,8 hPa 0,0 mm 5,6 km/h (1 Bft) NO 55 ° 0 min 0,000 mm 0,0 UV-I 23 W/m² 1,4 °C 0,5 °C 9,7 km/h (2 Bft)
28.10.2018 09:19 2,1 °C 95 % 1002,8 hPa 0,0 mm 10,3 km/h (2 Bft) O-NO 61 ° 0 min 0,000 mm 0,0 UV-I 25 W/m² 1,4 °C -0,9 °C 12,9 km/h (3 Bft)
28.10.2018 09:20 2,1 °C 95 % 1002,8 hPa 0,0 mm 6,5 km/h (2 Bft) O-NO 70 ° 0 min 0,000 mm 0,0 UV-I 25 W/m² 1,4 °C 0,2 °C 9,7 km/h (2 Bft)
28.10.2018 09:21 2,1 °C 95 % 1002,7 hPa 0,0 mm 4,4 km/h (1 Bft) O-NO 62 ° 0 min 0,000 mm 0,0 UV-I 26 W/m² 1,4 °C 2,1 °C 8,0 km/h (2 Bft)
28.10.2018 09:22 2,1 °C 95 % 1002,7 hPa 0,0 mm 3,9 km/h (1 Bft) NO 55 ° 0 min 0,000 mm 0,0 UV-I 25 W/m² 1,4 °C 2,1 °C 4,8 km/h (1 Bft)
28.10.2018 09:23 2,1 °C 95 % 1002,7 hPa 0,0 mm 11,1 km/h (2 Bft) NO 51 ° 0 min 0,000 mm 0,0 UV-I 26 W/m² 1,4 °C -1,1 °C 17,7 km/h (3 Bft)
28.10.2018 09:24 2,1 °C 95 % 1002,8 hPa 0,0 mm 11,6 km/h (2 Bft) O 85 ° 0 min 0,000 mm 0,0 UV-I 25 W/m² 1,4 °C -1,2 °C 16,1 km/h (3 Bft)
28.10.2018 09:25 2,1 °C 95 % 1002,8 hPa 0,0 mm 10,6 km/h (2 Bft) NO 50 ° 0 min 0,000 mm 0,0 UV-I 26 W/m² 1,4 °C -0,9 °C 20,9 km/h (4 Bft)
28.10.2018 09:26 2,1 °C 95 % 1002,8 hPa 0,0 mm 10,2 km/h (2 Bft) O-NO 59 ° 0 min 0,000 mm 0,0 UV-I 26 W/m² 1,4 °C -0,9 °C 16,1 km/h (3 Bft)
28.10.2018 09:27 2,1 °C 95 % 1002,8 hPa 0,0 mm 12,1 km/h (2 Bft) N-NO 31 ° 0 min 0,000 mm 0,0 UV-I 28 W/m² 1,4 °C -1,3 °C 16,1 km/h (3 Bft)
28.10.2018 09:28 2,1 °C 95 % 1002,8 hPa 0,0 mm 6,6 km/h (2 Bft) O-NO 61 ° 0 min 0,000 mm 0,0 UV-I 28 W/m² 1,4 °C 0,2 °C 8,0 km/h (2 Bft)
28.10.2018 09:29 2,1 °C 95 % 1002,9 hPa 0,0 mm 3,6 km/h (1 Bft) NO 47 ° 0 min 0,000 mm 0,0 UV-I 28 W/m² 1,4 °C 2,1 °C 6,4 km/h (2 Bft)
28.10.2018 09:30 2,1 °C 95 % 1003,0 hPa 0,0 mm 4,0 km/h (1 Bft) O 92 ° 0 min 0,000 mm 0,0 UV-I 28 W/m² 1,4 °C 2,1 °C 11,3 km/h (2 Bft)
28.10.2018 09:31 2,1 °C 95 % 1003,0 hPa 0,0 mm 4,6 km/h (1 Bft) O 94 ° 0 min 0,000 mm 0,0 UV-I 28 W/m² 1,4 °C 1,0 °C 9,7 km/h (2 Bft)
28.10.2018 09:32 2,1 °C 95 % 1002,9 hPa 0,0 mm 9,1 km/h (2 Bft) O-NO 74 ° 0 min 0,000 mm 0,0 UV-I 30 W/m² 1,4 °C -0,6 °C 16,1 km/h (3 Bft)
28.10.2018 09:33 2,1 °C 95 % 1002,9 hPa 0,0 mm 11,6 km/h (2 Bft) O 83 ° 0 min 0,000 mm 0,0 UV-I 32 W/m² 1,4 °C -1,2 °C 16,1 km/h (3 Bft)
28.10.2018 09:34 2,1 °C 95 % 1002,9 hPa 0,0 mm 2,6 km/h (1 Bft) O-NO 65 ° 0 min 0,000 mm 0,0 UV-I 32 W/m² 1,4 °C 2,1 °C 6,4 km/h (2 Bft)
28.10.2018 09:35 2,1 °C 95 % 1002,9 hPa 0,0 mm 2,5 km/h (1 Bft) O-NO 77 ° 0 min 0,000 mm 0,0 UV-I 32 W/m² 1,4 °C 2,1 °C 6,4 km/h (2 Bft)
28.10.2018 09:36 2,1 °C 95 % 1002,9 hPa 0,0 mm 6,1 km/h (2 Bft) NO 49 ° 0 min 0,000 mm 0,0 UV-I 32 W/m² 1,4 °C 0,4 °C 9,7 km/h (2 Bft)
28.10.2018 09:37 2,2 °C 95 % 1002,8 hPa 0,0 mm 7,3 km/h (2 Bft) O 92 ° 0 min 0,000 mm 0,0 UV-I 33 W/m² 1,5 °C 0,1 °C 11,3 km/h (2 Bft)
28.10.2018 09:38 2,1 °C 95 % 1002,8 hPa 0,0 mm 6,2 km/h (2 Bft) NO 48 ° 0 min 0,000 mm 0,0 UV-I 33 W/m² 1,4 °C 0,3 °C 11,3 km/h (2 Bft)
28.10.2018 09:39 2,1 °C 95 % 1002,8 hPa 0,0 mm 7,4 km/h (2 Bft) NO 41 ° 0 min 0,000 mm 0,0 UV-I 35 W/m² 1,4 °C -0,1 °C 12,9 km/h (3 Bft)
28.10.2018 09:40 2,2 °C 95 % 1002,8 hPa 0,0 mm 5,6 km/h (1 Bft) N-NO 32 ° 0 min 0,000 mm 0,0 UV-I 35 W/m² 1,5 °C 0,7 °C 9,7 km/h (2 Bft)
28.10.2018 09:41 2,1 °C 95 % 1002,8 hPa 0,0 mm 5,9 km/h (2 Bft) N-NO 21 ° 0 min 0,000 mm 0,0 UV-I 37 W/m² 1,4 °C 0,4 °C 8,0 km/h (2 Bft)
28.10.2018 09:42 2,2 °C 95 % 1002,8 hPa 0,0 mm 7,1 km/h (2 Bft) O-NO 69 ° 0 min 0,000 mm 0,0 UV-I 37 W/m² 1,5 °C 0,1 °C 12,9 km/h (3 Bft)
28.10.2018 09:43 2,2 °C 95 % 1002,8 hPa 0,0 mm 7,2 km/h (2 Bft) N-NO 19 ° 0 min 0,000 mm 0,0 UV-I 40 W/m² 1,5 °C 0,1 °C 12,9 km/h (3 Bft)
28.10.2018 09:44 2,2 °C 95 % 1002,8 hPa 0,0 mm 3,8 km/h (1 Bft) O-NO 64 ° 0 min 0,000 mm 0,0 UV-I 46 W/m² 1,5 °C 2,2 °C 8,0 km/h (2 Bft)
28.10.2018 09:45 2,2 °C 95 % 1002,7 hPa 0,0 mm 8,6 km/h (2 Bft) O-NO 76 ° 0 min 0,000 mm 0,0 UV-I 47 W/m² 1,5 °C -0,3 °C 14,5 km/h (3 Bft)
28.10.2018 09:46 2,2 °C 95 % 1002,7 hPa 0,0 mm 7,2 km/h (2 Bft) O-NO 68 ° 0 min 0,000 mm 0,0 UV-I 40 W/m² 1,5 °C 0,1 °C 11,3 km/h (2 Bft)
28.10.2018 09:47 2,2 °C 95 % 1002,8 hPa 0,0 mm 10,9 km/h (2 Bft) O-NO 70 ° 0 min 0,000 mm 0,0 UV-I 42 W/m² 1,5 °C -0,9 °C 17,7 km/h (3 Bft)
28.10.2018 09:48 2,2 °C 95 % 1002,8 hPa 0,2 mm 9,3 km/h (2 Bft) NO 46 ° 0 min 0,000 mm 0,0 UV-I 40 W/m² 1,5 °C -0,5 °C 12,9 km/h (3 Bft)
28.10.2018 09:49 2,2 °C 95 % 1002,7 hPa 0,0 mm 4,8 km/h (1 Bft) O-NO 65 ° 0 min 0,000 mm 0,0 UV-I 42 W/m² 1,5 °C 1,0 °C 6,4 km/h (2 Bft)
28.10.2018 09:50 2,2 °C 95 % 1002,7 hPa 0,0 mm 5,5 km/h (1 Bft) O-NO 64 ° 0 min 0,000 mm 0,0 UV-I 39 W/m² 1,5 °C 0,7 °C 8,0 km/h (2 Bft)
28.10.2018 09:51 2,2 °C 95 % 1002,7 hPa 0,0 mm 6,8 km/h (2 Bft) N 360 ° 0 min 0,000 mm 0,0 UV-I 40 W/m² 1,5 °C 0,2 °C 9,7 km/h (2 Bft)
28.10.2018 09:52 2,2 °C 95 % 1002,6 hPa 0,0 mm 4,6 km/h (1 Bft) NO 51 ° 0 min 0,000 mm 0,0 UV-I 42 W/m² 1,5 °C 1,1 °C 12,9 km/h (3 Bft)
28.10.2018 09:53 2,2 °C 95 % 1002,6 hPa 0,0 mm 8,9 km/h (2 Bft) SO 130 ° 0 min 0,000 mm 0,0 UV-I 42 W/m² 1,5 °C -0,4 °C 14,5 km/h (3 Bft)
28.10.2018 09:54 2,2 °C 95 % 1002,5 hPa 0,0 mm 6,9 km/h (2 Bft) O-NO 72 ° 0 min 0,000 mm 0,0 UV-I 42 W/m² 1,5 °C 0,2 °C 12,9 km/h (3 Bft)
28.10.2018 09:55 2,2 °C 95 % 1002,4 hPa 0,0 mm 11,8 km/h (2 Bft) O 94 ° 0 min 0,000 mm 0,0 UV-I 42 W/m² 1,5 °C -1,1 °C 22,5 km/h (4 Bft)
28.10.2018 09:56 2,1 °C 95 % 1002,4 hPa 0,0 mm 11,6 km/h (2 Bft) O-NO 78 ° 0 min 0,000 mm 0,0 UV-I 40 W/m² 1,4 °C -1,2 °C 19,3 km/h (3 Bft)
28.10.2018 09:57 2,2 °C 95 % 1002,4 hPa 0,0 mm 14,1 km/h (3 Bft) O-NO 71 ° 0 min 0,000 mm 0,0 UV-I 37 W/m² 1,5 °C -1,5 °C 17,7 km/h (3 Bft)
28.10.2018 09:58 2,1 °C 95 % 1002,2 hPa 0,0 mm 15,3 km/h (3 Bft) O-NO 68 ° 0 min 0,000 mm 0,0 UV-I 39 W/m² 1,4 °C -1,9 °C 24,1 km/h (4 Bft)
28.10.2018 09:59 2,1 °C 95 % 1002,3 hPa 0,0 mm 12,1 km/h (2 Bft) O-NO 69 ° 0 min 0,000 mm 0,0 UV-I 42 W/m² 1,4 °C -1,3 °C 17,7 km/h (3 Bft)
28.10.2018 10:00 2,1 °C 95 % 1002,4 hPa 0,0 mm 11,0 km/h (2 Bft) NO 44 ° 0 min 0,000 mm 0,0 UV-I 44 W/m² 1,4 °C -1,0 °C 22,5 km/h (4 Bft)
28.10.2018 10:01 2,1 °C 95 % 1002,3 hPa 0,0 mm 8,4 km/h (2 Bft) O-NO 61 ° 0 min 0,025 mm 0,0 UV-I 46 W/m² 1,4 °C -0,4 °C 16,1 km/h (3 Bft)
28.10.2018 10:02 2,1 °C 95 % 1002,3 hPa 0,0 mm 7,0 km/h (2 Bft) O 95 ° 0 min 0,000 mm 0,0 UV-I 39 W/m² 1,4 °C 0,0 °C 12,9 km/h (3 Bft)
28.10.2018 10:03 2,1 °C 95 % 1002,3 hPa 0,0 mm 5,9 km/h (2 Bft) O-NO 75 ° 0 min 0,000 mm 0,0 UV-I 40 W/m² 1,4 °C 0,4 °C 11,3 km/h (2 Bft)
28.10.2018 10:04 2,1 °C 95 % 1002,3 hPa 0,0 mm 9,3 km/h (2 Bft) O-NO 58 ° 0 min 0,000 mm 0,0 UV-I 40 W/m² 1,4 °C -0,6 °C 12,9 km/h (3 Bft)
28.10.2018 10:05 2,2 °C 95 % 1002,3 hPa 0,0 mm 7,5 km/h (2 Bft) O-SO 107 ° 0 min 0,000 mm 0,0 UV-I 35 W/m² 1,5 °C -0,0 °C 14,5 km/h (3 Bft)
28.10.2018 10:06 2,2 °C 95 % 1002,3 hPa 0,0 mm 4,1 km/h (1 Bft) O-SO 108 ° 0 min 0,000 mm 0,0 UV-I 35 W/m² 1,5 °C 2,2 °C 6,4 km/h (2 Bft)
28.10.2018 10:07 2,1 °C 95 % 1002,3 hPa 0,0 mm 3,4 km/h (1 Bft) O-NO 71 ° 0 min 0,000 mm 0,0 UV-I 39 W/m² 1,4 °C 2,1 °C 6,4 km/h (2 Bft)
28.10.2018 10:08 2,2 °C 95 % 1002,3 hPa 0,0 mm 8,2 km/h (2 Bft) NO 51 ° 0 min 0,000 mm 0,0 UV-I 40 W/m² 1,5 °C -0,2 °C 17,7 km/h (3 Bft)
28.10.2018 10:09 2,2 °C 95 % 1002,4 hPa 0,0 mm 9,9 km/h (2 Bft) O 93 ° 0 min 0,000 mm 0,0 UV-I 37 W/m² 1,5 °C -0,7 °C 20,9 km/h (4 Bft)
28.10.2018 10:10 2,2 °C 95 % 1002,3 hPa 0,0 mm 11,9 km/h (2 Bft) NO 55 ° 0 min 0,000 mm 0,0 UV-I 39 W/m² 1,5 °C -1,1 °C 17,7 km/h (3 Bft)
28.10.2018 10:11 2,2 °C 95 % 1002,4 hPa 0,0 mm 7,3 km/h (2 Bft) NO 43 ° 0 min 0,000 mm 0,0 UV-I 44 W/m² 1,5 °C 0,1 °C 11,3 km/h (2 Bft)
28.10.2018 10:12 2,2 °C 95 % 1002,5 hPa 0,0 mm 8,6 km/h (2 Bft) NO 38 ° 0 min 0,000 mm 0,0 UV-I 39 W/m² 1,5 °C -0,3 °C 16,1 km/h (3 Bft)
28.10.2018 10:13 2,2 °C 95 % 1002,4 hPa 0,0 mm 10,5 km/h (2 Bft) NO 35 ° 0 min 0,000 mm 0,0 UV-I 35 W/m² 1,5 °C -0,8 °C 16,1 km/h (3 Bft)
28.10.2018 10:14 2,2 °C 95 % 1002,5 hPa 0,0 mm 7,0 km/h (2 Bft) O-NO 75 ° 0 min 0,000 mm 0,0 UV-I 33 W/m² 1,5 °C 0,2 °C 11,3 km/h (2 Bft)
28.10.2018 10:15 2,2 °C 95 % 1002,4 hPa 0,0 mm 6,8 km/h (2 Bft) O-NO 69 ° 0 min 0,000 mm 0,0 UV-I 32 W/m² 1,5 °C 0,2 °C 9,7 km/h (2 Bft)
28.10.2018 10:16 2,2 °C 95 % 1002,4 hPa 0,0 mm 6,2 km/h (2 Bft) NO 54 ° 0 min 0,000 mm 0,0 UV-I 32 W/m² 1,5 °C 0,4 °C 9,7 km/h (2 Bft)
28.10.2018 10:17 2,2 °C 95 % 1002,4 hPa 0,0 mm 7,4 km/h (2 Bft) N-NO 21 ° 0 min 0,000 mm 0,0 UV-I 32 W/m² 1,5 °C 0,0 °C 14,5 km/h (3 Bft)
28.10.2018 10:18 2,2 °C 95 % 1002,5 hPa 0,0 mm 11,3 km/h (2 Bft) O-NO 70 ° 0 min 0,000 mm 0,0 UV-I 30 W/m² 1,5 °C -1,0 °C 17,7 km/h (3 Bft)
28.10.2018 10:19 2,1 °C 95 % 1002,5 hPa 0,0 mm 5,2 km/h (1 Bft) NO 37 ° 0 min 0,000 mm 0,0 UV-I 26 W/m² 1,4 °C 0,7 °C 9,7 km/h (2 Bft)
28.10.2018 10:20 2,2 °C 95 % 1002,6 hPa 0,0 mm 6,0 km/h (2 Bft) SO 130 ° 0 min 0,000 mm 0,0 UV-I 26 W/m² 1,5 °C 0,5 °C 8,0 km/h (2 Bft)
28.10.2018 10:21 2,1 °C 95 % 1002,7 hPa 0,0 mm 10,1 km/h (2 Bft) O 84 ° 0 min 0,000 mm 0,0 UV-I 28 W/m² 1,4 °C -0,8 °C 17,7 km/h (3 Bft)
28.10.2018 10:22 2,2 °C 95 % 1002,6 hPa 0,0 mm 6,2 km/h (2 Bft) O-NO 63 ° 0 min 0,000 mm 0,0 UV-I 28 W/m² 1,5 °C 0,4 °C 9,7 km/h (2 Bft)
28.10.2018 10:23 2,2 °C 95 % 1002,7 hPa 0,0 mm 9,4 km/h (2 Bft) O-SO 119 ° 0 min 0,000 mm 0,0 UV-I 28 W/m² 1,5 °C -0,5 °C 14,5 km/h (3 Bft)
28.10.2018 10:24 2,1 °C 95 % 1002,7 hPa 0,0 mm 4,9 km/h (1 Bft) O 85 ° 0 min 0,000 mm 0,0 UV-I 26 W/m² 1,4 °C 0,8 °C 11,3 km/h (2 Bft)
28.10.2018 10:25 2,1 °C 95 % 1002,7 hPa 0,0 mm 8,0 km/h (2 Bft) S-SO 159 ° 0 min 0,000 mm 0,0 UV-I 26 W/m² 1,4 °C -0,3 °C 16,1 km/h (3 Bft)
28.10.2018 10:26 2,2 °C 95 % 1002,7 hPa 0,0 mm 5,1 km/h (1 Bft) NO 52 ° 0 min 0,000 mm 0,0 UV-I 25 W/m² 1,5 °C 0,9 °C 9,7 km/h (2 Bft)
28.10.2018 10:27 2,1 °C 95 % 1002,8 hPa 0,0 mm 6,8 km/h (2 Bft) NO 53 ° 0 min 0,000 mm 0,0 UV-I 26 W/m² 1,4 °C 0,1 °C 11,3 km/h (2 Bft)
28.10.2018 10:28 2,2 °C 95 % 1002,8 hPa 0,0 mm 8,6 km/h (2 Bft) O-NO 62 ° 0 min 0,000 mm 0,0 UV-I 26 W/m² 1,5 °C -0,3 °C 14,5 km/h (3 Bft)
28.10.2018 10:29 2,2 °C 95 % 1002,8 hPa 0,0 mm 11,1 km/h (2 Bft) O-NO 71 ° 0 min 0,000 mm 0,0 UV-I 28 W/m² 1,5 °C -0,9 °C 17,7 km/h (3 Bft)
28.10.2018 10:30 2,2 °C 95 % 1002,6 hPa 0,0 mm 8,7 km/h (2 Bft) O 101 ° 0 min 0,000 mm 0,0 UV-I 30 W/m² 1,5 °C -0,4 °C 16,1 km/h (3 Bft)
28.10.2018 10:31 2,2 °C 95 % 1002,6 hPa 0,0 mm 8,9 km/h (2 Bft) O-NO 61 ° 0 min 0,000 mm 0,0 UV-I 30 W/m² 1,5 °C -0,4 °C 16,1 km/h (3 Bft)
28.10.2018 10:32 2,2 °C 95 % 1002,6 hPa 0,0 mm 5,5 km/h (1 Bft) O-NO 60 ° 0 min 0,000 mm 0,0 UV-I 30 W/m² 1,5 °C 0,7 °C 8,0 km/h (2 Bft)
28.10.2018 10:33 2,2 °C 95 % 1002,7 hPa 0,0 mm 8,5 km/h (2 Bft) O-NO 61 ° 0 min 0,000 mm 0,0 UV-I 32 W/m² 1,5 °C -0,3 °C 12,9 km/h (3 Bft)
28.10.2018 10:34 2,2 °C 95 % 1002,7 hPa 0,0 mm 4,8 km/h (1 Bft) O-NO 71 ° 0 min 0,000 mm 0,0 UV-I 32 W/m² 1,5 °C 1,0 °C 8,0 km/h (2 Bft)
28.10.2018 10:35 2,2 °C 95 % 1002,7 hPa 0,0 mm 7,7 km/h (2 Bft) O-NO 61 ° 0 min 0,000 mm 0,0 UV-I 30 W/m² 1,5 °C -0,1 °C 12,9 km/h (3 Bft)
28.10.2018 10:36 2,2 °C 95 % 1002,8 hPa 0,0 mm 8,6 km/h (2 Bft) NO 54 ° 0 min 0,000 mm 0,0 UV-I 28 W/m² 1,5 °C -0,3 °C 16,1 km/h (3 Bft)
28.10.2018 10:37 2,2 °C 95 % 1002,9 hPa 0,0 mm 9,9 km/h (2 Bft) O-NO 64 ° 0 min 0,000 mm 0,0 UV-I 35 W/m² 1,5 °C -0,7 °C 17,7 km/h (3 Bft)
28.10.2018 10:38 2,2 °C 95 % 1003,0 hPa 0,0 mm 10,9 km/h (2 Bft) O 79 ° 0 min 0,000 mm 0,0 UV-I 33 W/m² 1,5 °C -0,9 °C 14,5 km/h (3 Bft)
28.10.2018 10:39 2,2 °C 95 % 1003,0 hPa 0,0 mm 12,1 km/h (2 Bft) O 92 ° 0 min 0,000 mm 0,0 UV-I 32 W/m² 1,5 °C -1,2 °C 17,7 km/h (3 Bft)
28.10.2018 10:40 2,2 °C 95 % 1002,9 hPa 0,0 mm 10,3 km/h (2 Bft) O-NO 77 ° 0 min 0,000 mm 0,0 UV-I 33 W/m² 1,5 °C -0,8 °C 16,1 km/h (3 Bft)
28.10.2018 10:41 2,2 °C 95 % 1002,9 hPa 0,0 mm 5,5 km/h (1 Bft) NO 41 ° 0 min 0,000 mm 0,0 UV-I 33 W/m² 1,5 °C 0,7 °C 8,0 km/h (2 Bft)
28.10.2018 10:42 2,2 °C 95 % 1002,8 hPa 0,0 mm 7,1 km/h (2 Bft) O-NO 63 ° 0 min 0,000 mm 0,0 UV-I 37 W/m² 1,5 °C 0,1 °C 12,9 km/h (3 Bft)
28.10.2018 10:43 2,3 °C 95 % 1002,8 hPa 0,0 mm 10,6 km/h (2 Bft) O-NO 76 ° 0 min 0,000 mm 0,0 UV-I 42 W/m² 1,6 °C -0,7 °C 16,1 km/h (3 Bft)
28.10.2018 10:44 2,2 °C 95 % 1002,8 hPa 0,0 mm 8,0 km/h (2 Bft) O-NO 59 ° 0 min 0,000 mm 0,0 UV-I 35 W/m² 1,5 °C -0,2 °C 12,9 km/h (3 Bft)
28.10.2018 10:45 2,2 °C 95 % 1002,8 hPa 0,0 mm 6,6 km/h (2 Bft) O-NO 68 ° 0 min 0,000 mm 0,0 UV-I 39 W/m² 1,5 °C 0,3 °C 12,9 km/h (3 Bft)
28.10.2018 10:46 2,2 °C 95 % 1002,7 hPa 0,0 mm 6,9 km/h (2 Bft) NO 42 ° 0 min 0,000 mm 0,0 UV-I 39 W/m² 1,5 °C 0,2 °C 14,5 km/h (3 Bft)
28.10.2018 10:47 2,2 °C 95 % 1002,7 hPa 0,0 mm 6,7 km/h (2 Bft) NO 52 ° 0 min 0,000 mm 0,0 UV-I 39 W/m² 1,5 °C 0,3 °C 8,0 km/h (2 Bft)
28.10.2018 10:48 2,2 °C 95 % 1002,7 hPa 0,0 mm 9,6 km/h (2 Bft) NO 56 ° 0 min 0,000 mm 0,0 UV-I 39 W/m² 1,5 °C -0,6 °C 17,7 km/h (3 Bft)
28.10.2018 10:49 2,2 °C 95 % 1002,8 hPa 0,0 mm 7,6 km/h (2 Bft) O 80 ° 0 min 0,000 mm 0,0 UV-I 40 W/m² 1,5 °C -0,0 °C 12,9 km/h (3 Bft)
28.10.2018 10:50 2,2 °C 95 % 1002,8 hPa 0,0 mm 7,8 km/h (2 Bft) O 81 ° 0 min 0,000 mm 0,0 UV-I 42 W/m² 1,5 °C -0,1 °C 11,3 km/h (2 Bft)
28.10.2018 10:51 2,2 °C 95 % 1002,7 hPa 0,0 mm 8,1 km/h (2 Bft) O 96 ° 0 min 0,000 mm 0,0 UV-I 44 W/m² 1,5 °C -0,2 °C 11,3 km/h (2 Bft)
28.10.2018 10:52 2,2 °C 95 % 1002,7 hPa 0,0 mm 4,5 km/h (1 Bft) O-NO 57 ° 0 min 0,000 mm 0,0 UV-I 46 W/m² 1,5 °C 2,2 °C 8,0 km/h (2 Bft)
28.10.2018 10:53 2,3 °C 95 % 1002,6 hPa 0,0 mm 5,5 km/h (1 Bft) O 84 ° 0 min 0,000 mm 0,0 UV-I 42 W/m² 1,6 °C 0,8 °C 8,0 km/h (2 Bft)
28.10.2018 10:54 2,2 °C 95 % 1002,6 hPa 0,0 mm 6,4 km/h (2 Bft) O 90 ° 0 min 0,000 mm 0,0 UV-I 40 W/m² 1,5 °C 0,4 °C 12,9 km/h (3 Bft)
28.10.2018 10:55 2,3 °C 95 % 1002,6 hPa 0,0 mm 2,7 km/h (1 Bft) O 86 ° 0 min 0,000 mm 0,0 UV-I 40 W/m² 1,6 °C 2,3 °C 4,8 km/h (1 Bft)
28.10.2018 10:56 2,3 °C 95 % 1002,7 hPa 0,0 mm 2,1 km/h (1 Bft) O-NO 62 ° 0 min 0,000 mm 0,0 UV-I 44 W/m² 1,6 °C 2,3 °C 3,2 km/h (1 Bft)
28.10.2018 10:57 2,3 °C 95 % 1002,6 hPa 0,0 mm 1,7 km/h (1 Bft) O-NO 62 ° 0 min 0,000 mm 0,0 UV-I 46 W/m² 1,6 °C 2,3 °C 6,4 km/h (2 Bft)
28.10.2018 10:58 2,3 °C 95 % 1002,6 hPa 0,0 mm 7,4 km/h (2 Bft) SO 140 ° 0 min 0,000 mm 0,0 UV-I 46 W/m² 1,6 °C 0,1 °C 12,9 km/h (3 Bft)
28.10.2018 10:59 2,3 °C 95 % 1002,6 hPa 0,0 mm 8,2 km/h (2 Bft) O 80 ° 0 min 0,000 mm 0,0 UV-I 44 W/m² 1,6 °C -0,1 °C 14,5 km/h (3 Bft)
28.10.2018 11:00 2,3 °C 95 % 1002,6 hPa 0,0 mm 6,0 km/h (2 Bft) NO 40 ° 0 min 0,026 mm 0,0 UV-I 44 W/m² 1,6 °C 0,6 °C 11,3 km/h (2 Bft)
28.10.2018 11:01 2,3 °C 95 % 1002,5 hPa 0,0 mm 6,0 km/h (2 Bft) O-SO 105 ° 0 min 0,000 mm 0,0 UV-I 46 W/m² 1,6 °C 0,6 °C 16,1 km/h (3 Bft)
28.10.2018 11:02 2,3 °C 95 % 1002,5 hPa 0,0 mm 7,5 km/h (2 Bft) O 99 ° 0 min 0,000 mm 0,0 UV-I 46 W/m² 1,6 °C 0,1 °C 12,9 km/h (3 Bft)
28.10.2018 11:03 2,3 °C 95 % 1002,5 hPa 0,0 mm 8,9 km/h (2 Bft) NO 55 ° 0 min 0,000 mm 0,0 UV-I 44 W/m² 1,6 °C -0,3 °C 12,9 km/h (3 Bft)
28.10.2018 11:04 2,3 °C 95 % 1002,4 hPa 0,0 mm 5,5 km/h (1 Bft) O-NO 74 ° 0 min 0,000 mm 0,0 UV-I 44 W/m² 1,6 °C 0,8 °C 14,5 km/h (3 Bft)
28.10.2018 11:05 2,3 °C 95 % 1002,4 hPa 0,0 mm 10,8 km/h (2 Bft) O 86 ° 0 min 0,000 mm 0,0 UV-I 44 W/m² 1,6 °C -0,8 °C 16,1 km/h (3 Bft)
28.10.2018 11:06 2,3 °C 95 % 1002,4 hPa 0,0 mm 6,6 km/h (2 Bft) NO 36 ° 0 min 0,000 mm 0,0 UV-I 46 W/m² 1,6 °C 0,4 °C 11,3 km/h (2 Bft)
28.10.2018 11:07 2,3 °C 95 % 1002,4 hPa 0,0 mm 7,9 km/h (2 Bft) O-NO 71 ° 0 min 0,000 mm 0,0 UV-I 44 W/m² 1,6 °C -0,0 °C 12,9 km/h (3 Bft)
28.10.2018 11:08 2,3 °C 95 % 1002,4 hPa 0,0 mm 7,4 km/h (2 Bft) O-NO 60 ° 0 min 0,000 mm 0,0 UV-I 42 W/m² 1,6 °C 0,1 °C 11,3 km/h (2 Bft)
28.10.2018 11:09 2,3 °C 95 % 1002,5 hPa 0,0 mm 11,2 km/h (2 Bft) O 92 ° 0 min 0,000 mm 0,0 UV-I 42 W/m² 1,6 °C -0,8 °C 16,1 km/h (3 Bft)
28.10.2018 11:10 2,3 °C 95 % 1002,5 hPa 0,0 mm 8,0 km/h (2 Bft) O-NO 62 ° 0 min 0,000 mm 0,0 UV-I 47 W/m² 1,6 °C -0,0 °C 17,7 km/h (3 Bft)
28.10.2018 11:11 2,3 °C 95 % 1002,5 hPa 0,0 mm 10,5 km/h (2 Bft) NO 42 ° 0 min 0,000 mm 0,0 UV-I 46 W/m² 1,6 °C -0,7 °C 16,1 km/h (3 Bft)
28.10.2018 11:12 2,3 °C 95 % 1002,5 hPa 0,0 mm 7,2 km/h (2 Bft) NO 49 ° 0 min 0,000 mm 0,0 UV-I 49 W/m² 1,6 °C 0,2 °C 11,3 km/h (2 Bft)
28.10.2018 11:13 2,3 °C 95 % 1002,4 hPa 0,0 mm 5,8 km/h (2 Bft) NO 53 ° 0 min 0,000 mm 0,0 UV-I 60 W/m² 1,6 °C 0,7 °C 9,7 km/h (2 Bft)
28.10.2018 11:14 2,4 °C 95 % 1002,3 hPa 0,0 mm 9,9 km/h (2 Bft) O-NO 65 ° 0 min 0,000 mm 0,5 UV-I 69 W/m² 1,7 °C -0,4 °C 14,5 km/h (3 Bft)
28.10.2018 11:15 2,4 °C 95 % 1002,3 hPa 0,0 mm 7,6 km/h (2 Bft) O 86 ° 0 min 0,000 mm 0,0 UV-I 60 W/m² 1,7 °C 0,2 °C 12,9 km/h (3 Bft)
28.10.2018 11:16 2,4 °C 95 % 1002,3 hPa 0,0 mm 5,2 km/h (1 Bft) N-NO 33 ° 0 min 0,000 mm 0,5 UV-I 62 W/m² 1,7 °C 1,0 °C 8,0 km/h (2 Bft)
28.10.2018 11:17 2,4 °C 95 % 1002,3 hPa 0,0 mm 5,0 km/h (1 Bft) NO 51 ° 0 min 0,000 mm 0,5 UV-I 67 W/m² 1,7 °C 1,1 °C 9,7 km/h (2 Bft)
28.10.2018 11:18 2,4 °C 95 % 1002,3 hPa 0,0 mm 8,6 km/h (2 Bft) O-SO 103 ° 0 min 0,000 mm 0,0 UV-I 56 W/m² 1,7 °C -0,1 °C 11,3 km/h (2 Bft)
28.10.2018 11:19 2,4 °C 95 % 1002,3 hPa 0,0 mm 4,6 km/h (1 Bft) O 84 ° 0 min 0,000 mm 0,0 UV-I 51 W/m² 1,7 °C 1,3 °C 8,0 km/h (2 Bft)
28.10.2018 11:20 2,4 °C 95 % 1002,4 hPa 0,0 mm 6,4 km/h (2 Bft) NO 55 ° 0 min 0,000 mm 0,0 UV-I 46 W/m² 1,7 °C 0,6 °C 14,5 km/h (3 Bft)
28.10.2018 11:21 2,4 °C 95 % 1002,4 hPa 0,0 mm 7,4 km/h (2 Bft) NO 40 ° 0 min 0,000 mm 0,0 UV-I 47 W/m² 1,7 °C 0,3 °C 16,1 km/h (3 Bft)
28.10.2018 11:22 2,4 °C 95 % 1002,3 hPa 0,0 mm 4,8 km/h (1 Bft) O-NO 57 ° 0 min 0,000 mm 0,0 UV-I 47 W/m² 1,7 °C 1,2 °C 9,7 km/h (2 Bft)
28.10.2018 11:23 2,4 °C 95 % 1002,3 hPa 0,0 mm 6,1 km/h (2 Bft) O 87 ° 0 min 0,000 mm 0,0 UV-I 49 W/m² 1,7 °C 0,7 °C 9,7 km/h (2 Bft)
28.10.2018 11:24 2,4 °C 95 % 1002,2 hPa 0,0 mm 5,8 km/h (2 Bft) O-NO 65 ° 0 min 0,000 mm 0,0 UV-I 47 W/m² 1,7 °C 0,8 °C 12,9 km/h (3 Bft)
28.10.2018 11:25 2,4 °C 95 % 1002,2 hPa 0,0 mm 8,7 km/h (2 Bft) O-NO 61 ° 0 min 0,000 mm 0,0 UV-I 44 W/m² 1,7 °C -0,1 °C 11,3 km/h (2 Bft)
28.10.2018 11:26 2,4 °C 95 % 1002,1 hPa 0,0 mm 5,6 km/h (1 Bft) O-NO 69 ° 0 min 0,000 mm 0,0 UV-I 40 W/m² 1,7 °C 0,9 °C 12,9 km/h (3 Bft)
28.10.2018 11:27 2,4 °C 95 % 1002,1 hPa 0,0 mm 4,4 km/h (1 Bft) O-NO 68 ° 0 min 0,000 mm 0,0 UV-I 39 W/m² 1,7 °C 2,4 °C 6,4 km/h (2 Bft)
28.10.2018 11:28 2,4 °C 95 % 1002,1 hPa 0,0 mm 9,5 km/h (2 Bft) O-NO 69 ° 0 min 0,000 mm 0,0 UV-I 37 W/m² 1,7 °C -0,3 °C 12,9 km/h (3 Bft)
28.10.2018 11:29 2,4 °C 95 % 1002,1 hPa 0,0 mm 8,5 km/h (2 Bft) O-NO 63 ° 0 min 0,000 mm 0,0 UV-I 35 W/m² 1,7 °C -0,1 °C 14,5 km/h (3 Bft)
28.10.2018 11:30 2,4 °C 95 % 1002,0 hPa 0,0 mm 8,7 km/h (2 Bft) N-NO 24 ° 0 min 0,000 mm 0,0 UV-I 33 W/m² 1,7 °C -0,1 °C 14,5 km/h (3 Bft)
28.10.2018 11:31 2,4 °C 95 % 1002,1 hPa 0,0 mm 3,6 km/h (1 Bft) O-NO 62 ° 0 min 0,000 mm 0,0 UV-I 33 W/m² 1,7 °C 2,4 °C 6,4 km/h (2 Bft)
28.10.2018 11:32 2,4 °C 95 % 1002,1 hPa 0,0 mm 5,0 km/h (1 Bft) NO 49 ° 0 min 0,000 mm 0,0 UV-I 33 W/m² 1,7 °C 1,1 °C 9,7 km/h (2 Bft)
28.10.2018 11:33 2,4 °C 95 % 1002,1 hPa 0,0 mm 6,2 km/h (2 Bft) O-NO 57 ° 0 min 0,000 mm 0,0 UV-I 33 W/m² 1,7 °C 0,7 °C 8,0 km/h (2 Bft)
28.10.2018 11:34 2,4 °C 95 % 1002,1 hPa 0,0 mm 7,0 km/h (2 Bft) NO 52 ° 0 min 0,000 mm 0,0 UV-I 33 W/m² 1,7 °C 0,4 °C 12,9 km/h (3 Bft)
28.10.2018 11:35 2,4 °C 95 % 1002,2 hPa 0,0 mm 4,7 km/h (1 Bft) O 79 ° 0 min 0,000 mm 0,0 UV-I 33 W/m² 1,7 °C 1,3 °C 6,4 km/h (2 Bft)
28.10.2018 11:36 2,4 °C 95 % 1002,2 hPa 0,0 mm 5,5 km/h (1 Bft) O 82 ° 0 min 0,000 mm 0,0 UV-I 35 W/m² 1,7 °C 0,9 °C 12,9 km/h (3 Bft)
28.10.2018 11:37 2,4 °C 95 % 1002,1 hPa 0,0 mm 12,7 km/h (3 Bft) O 88 ° 0 min 0,000 mm 0,0 UV-I 35 W/m² 1,7 °C -1,0 °C 16,1 km/h (3 Bft)
28.10.2018 11:38 2,4 °C 95 % 1002,1 hPa 0,0 mm 8,7 km/h (2 Bft) NO 51 ° 0 min 0,000 mm 0,0 UV-I 35 W/m² 1,7 °C -0,1 °C 12,9 km/h (3 Bft)
28.10.2018 11:39 2,4 °C 95 % 1002,0 hPa 0,0 mm 10,1 km/h (2 Bft) O-NO 67 ° 0 min 0,000 mm 0,0 UV-I 39 W/m² 1,7 °C -0,5 °C 17,7 km/h (3 Bft)
28.10.2018 11:40 2,4 °C 95 % 1002,0 hPa 0,0 mm 8,6 km/h (2 Bft) SO 144 ° 0 min 0,000 mm 0,0 UV-I 39 W/m² 1,7 °C -0,1 °C 12,9 km/h (3 Bft)
28.10.2018 11:41 2,4 °C 95 % 1002,0 hPa 0,0 mm 8,9 km/h (2 Bft) O-NO 76 ° 0 min 0,000 mm 0,0 UV-I 37 W/m² 1,7 °C -0,2 °C 14,5 km/h (3 Bft)
28.10.2018 11:42 2,5 °C 95 % 1002,0 hPa 0,0 mm 7,0 km/h (2 Bft) O 88 ° 0 min 0,000 mm 0,0 UV-I 37 W/m² 1,8 °C 0,5 °C 14,5 km/h (3 Bft)
28.10.2018 11:43 2,5 °C 96 % 1002,0 hPa 0,0 mm 8,9 km/h (2 Bft) NO 53 ° 0 min 0,000 mm 0,0 UV-I 39 W/m² 1,9 °C -0,1 °C 12,9 km/h (3 Bft)
28.10.2018 11:44 2,4 °C 95 % 1001,9 hPa 0,0 mm 6,2 km/h (2 Bft) O-NO 77 ° 0 min 0,000 mm 0,0 UV-I 39 W/m² 1,7 °C 0,7 °C 9,7 km/h (2 Bft)
28.10.2018 11:45 2,4 °C 95 % 1001,8 hPa 0,0 mm 8,2 km/h (2 Bft) O-NO 68 ° 0 min 0,000 mm 0,0 UV-I 40 W/m² 1,7 °C 0,0 °C 12,9 km/h (3 Bft)
28.10.2018 11:46 2,4 °C 96 % 1001,9 hPa 0,0 mm 6,3 km/h (2 Bft) NO 53 ° 0 min 0,000 mm 0,0 UV-I 40 W/m² 1,8 °C 0,6 °C 16,1 km/h (3 Bft)
28.10.2018 11:47 2,4 °C 95 % 1002,0 hPa 0,0 mm 7,1 km/h (2 Bft) O-NO 69 ° 0 min 0,000 mm 0,0 UV-I 37 W/m² 1,7 °C 0,4 °C 16,1 km/h (3 Bft)
28.10.2018 11:48 2,4 °C 95 % 1002,0 hPa 0,0 mm 7,0 km/h (2 Bft) O 80 ° 0 min 0,000 mm 0,0 UV-I 35 W/m² 1,7 °C 0,4 °C 14,5 km/h (3 Bft)
28.10.2018 11:49 2,4 °C 95 % 1002,0 hPa 0,0 mm 8,1 km/h (2 Bft) NO 38 ° 0 min 0,000 mm 0,0 UV-I 39 W/m² 1,7 °C 0,1 °C 12,9 km/h (3 Bft)
28.10.2018 11:50 2,4 °C 95 % 1002,0 hPa 0,0 mm 4,8 km/h (1 Bft) O-NO 68 ° 0 min 0,000 mm 0,0 UV-I 39 W/m² 1,7 °C 1,2 °C 6,4 km/h (2 Bft)
28.10.2018 11:51 2,4 °C 95 % 1002,0 hPa 0,0 mm 8,2 km/h (2 Bft) O-NO 61 ° 0 min 0,000 mm 0,0 UV-I 37 W/m² 1,7 °C 0,0 °C 14,5 km/h (3 Bft)
28.10.2018 11:52 2,4 °C 95 % 1002,0 hPa 0,0 mm 6,6 km/h (2 Bft) O 85 ° 0 min 0,000 mm 0,0 UV-I 39 W/m² 1,7 °C 0,5 °C 11,3 km/h (2 Bft)
28.10.2018 11:53 2,4 °C 95 % 1002,0 hPa 0,0 mm 10,4 km/h (2 Bft) O-NO 69 ° 0 min 0,000 mm 0,0 UV-I 39 W/m² 1,7 °C -0,5 °C 16,1 km/h (3 Bft)
28.10.2018 11:54 2,4 °C 95 % 1002,0 hPa 0,0 mm 9,5 km/h (2 Bft) O 79 ° 0 min 0,000 mm 0,0 UV-I 40 W/m² 1,7 °C -0,3 °C 16,1 km/h (3 Bft)
28.10.2018 11:55 2,5 °C 95 % 1001,9 hPa 0,0 mm 11,8 km/h (2 Bft) O 92 ° 0 min 0,000 mm 0,0 UV-I 46 W/m² 1,8 °C -0,7 °C 17,7 km/h (3 Bft)
28.10.2018 11:56 2,4 °C 95 % 1001,9 hPa 0,0 mm 6,0 km/h (2 Bft) O-NO 58 ° 0 min 0,000 mm 0,0 UV-I 44 W/m² 1,7 °C 0,7 °C 12,9 km/h (3 Bft)
28.10.2018 11:57 2,4 °C 95 % 1001,9 hPa 0,0 mm 11,9 km/h (2 Bft) O-NO 66 ° 0 min 0,000 mm 0,0 UV-I 42 W/m² 1,7 °C -0,9 °C 17,7 km/h (3 Bft)
28.10.2018 11:58 2,4 °C 95 % 1001,9 hPa 0,0 mm 8,9 km/h (2 Bft) O 92 ° 0 min 0,000 mm 0,0 UV-I 42 W/m² 1,7 °C -0,2 °C 14,5 km/h (3 Bft)
28.10.2018 11:59 2,5 °C 95 % 1002,0 hPa 0,0 mm 4,8 km/h (1 Bft) O-NO 59 ° 0 min 0,000 mm 0,0 UV-I 42 W/m² 1,8 °C 1,3 °C 6,4 km/h (2 Bft)
28.10.2018 12:00 2,5 °C 95 % 1002,0 hPa 0,0 mm 1,8 km/h (1 Bft) O-NO 59 ° 0 min 0,000 mm 0,0 UV-I 40 W/m² 1,8 °C 2,5 °C 3,2 km/h (1 Bft)
28.10.2018 12:01 2,5 °C 95 % 1002,0 hPa 0,0 mm 3,7 km/h (1 Bft) O-NO 74 ° 0 min 0,025 mm 0,0 UV-I 39 W/m² 1,8 °C 2,5 °C 11,3 km/h (2 Bft)
28.10.2018 12:02 2,6 °C 95 % 1002,0 hPa 0,0 mm 7,2 km/h (2 Bft) O 87 ° 0 min 0,000 mm 0,0 UV-I 40 W/m² 1,9 °C 0,6 °C 11,3 km/h (2 Bft)
28.10.2018 12:03 2,6 °C 96 % 1002,0 hPa 0,0 mm 6,7 km/h (2 Bft) O-NO 68 ° 0 min 0,000 mm 0,0 UV-I 40 W/m² 2,0 °C 0,7 °C 9,7 km/h (2 Bft)
28.10.2018 12:04 2,6 °C 96 % 1002,0 hPa 0,0 mm 7,1 km/h (2 Bft) O-NO 77 ° 0 min 0,000 mm 0,0 UV-I 42 W/m² 2,0 °C 0,6 °C 11,3 km/h (2 Bft)
28.10.2018 12:05 2,6 °C 96 % 1001,9 hPa 0,2 mm 10,3 km/h (2 Bft) O-NO 76 ° 0 min 0,000 mm 0,0 UV-I 44 W/m² 2,0 °C -0,3 °C 17,7 km/h (3 Bft)
28.10.2018 12:06 2,6 °C 96 % 1001,8 hPa 0,0 mm 12,3 km/h (3 Bft) O-NO 78 ° 0 min 0,000 mm 0,0 UV-I 46 W/m² 2,0 °C -0,7 °C 16,1 km/h (3 Bft)
28.10.2018 12:07 2,6 °C 95 % 1001,7 hPa 0,0 mm 7,8 km/h (2 Bft) O 88 ° 0 min 0,000 mm 0,0 UV-I 44 W/m² 1,9 °C 0,4 °C 14,5 km/h (3 Bft)
28.10.2018 12:08 2,6 °C 95 % 1001,9 hPa 0,0 mm 5,3 km/h (1 Bft) O-NO 61 ° 0 min 0,000 mm 0,0 UV-I 40 W/m² 1,9 °C 1,2 °C 12,9 km/h (3 Bft)
28.10.2018 12:09 2,6 °C 96 % 1001,9 hPa 0,0 mm 9,0 km/h (2 Bft) NO 55 ° 0 min 0,000 mm 0,0 UV-I 40 W/m² 2,0 °C 0,0 °C 16,1 km/h (3 Bft)
28.10.2018 12:10 2,6 °C 95 % 1001,8 hPa 0,0 mm 3,5 km/h (1 Bft) NO 51 ° 0 min 0,000 mm 0,0 UV-I 40 W/m² 1,9 °C 2,6 °C 8,0 km/h (2 Bft)
28.10.2018 12:11 2,6 °C 95 % 1001,8 hPa 0,0 mm 5,3 km/h (1 Bft) NO 42 ° 0 min 0,000 mm 0,0 UV-I 40 W/m² 1,9 °C 1,2 °C 9,7 km/h (2 Bft)
28.10.2018 12:12 2,6 °C 95 % 1001,8 hPa 0,0 mm 5,9 km/h (2 Bft) O 86 ° 0 min 0,000 mm 0,0 UV-I 37 W/m² 1,9 °C 1,0 °C 12,9 km/h (3 Bft)
28.10.2018 12:13 2,6 °C 95 % 1001,7 hPa 0,0 mm 9,0 km/h (2 Bft) O-NO 75 ° 0 min 0,000 mm 0,0 UV-I 39 W/m² 1,9 °C 0,0 °C 12,9 km/h (3 Bft)
28.10.2018 12:14 2,6 °C 95 % 1001,7 hPa 0,0 mm 10,4 km/h (2 Bft) O-NO 77 ° 0 min 0,000 mm 0,0 UV-I 39 W/m² 1,9 °C -0,3 °C 16,1 km/h (3 Bft)
28.10.2018 12:15 2,6 °C 95 % 1001,7 hPa 0,0 mm 5,8 km/h (2 Bft) O 80 ° 0 min 0,000 mm 0,0 UV-I 37 W/m² 1,9 °C 1,0 °C 16,1 km/h (3 Bft)
28.10.2018 12:16 2,6 °C 95 % 1001,7 hPa 0,0 mm 6,9 km/h (2 Bft) O 90 ° 0 min 0,000 mm 0,0 UV-I 35 W/m² 1,9 °C 0,7 °C 12,9 km/h (3 Bft)
28.10.2018 12:17 2,6 °C 95 % 1001,8 hPa 0,0 mm 4,0 km/h (1 Bft) O-NO 76 ° 0 min 0,000 mm 0,0 UV-I 33 W/m² 1,9 °C 2,6 °C 9,7 km/h (2 Bft)
28.10.2018 12:18 2,6 °C 95 % 1001,8 hPa 0,0 mm 3,9 km/h (1 Bft) NO 55 ° 0 min 0,000 mm 0,0 UV-I 35 W/m² 1,9 °C 2,6 °C 4,8 km/h (1 Bft)
28.10.2018 12:19 2,6 °C 95 % 1001,8 hPa 0,0 mm 3,2 km/h (1 Bft) NO 36 ° 0 min 0,000 mm 0,0 UV-I 33 W/m² 1,9 °C 2,6 °C 6,4 km/h (2 Bft)
28.10.2018 12:20 2,6 °C 95 % 1001,8 hPa 0,0 mm 2,3 km/h (1 Bft) O 89 ° 0 min 0,000 mm 0,0 UV-I 35 W/m² 1,9 °C 2,6 °C 11,3 km/h (2 Bft)
28.10.2018 12:21 2,6 °C 95 % 1001,8 hPa 0,0 mm 12,6 km/h (3 Bft) O-NO 70 ° 0 min 0,000 mm 0,0 UV-I 33 W/m² 1,9 °C -0,8 °C 16,1 km/h (3 Bft)
28.10.2018 12:22 2,6 °C 95 % 1001,9 hPa 0,0 mm 9,5 km/h (2 Bft) NO 51 ° 0 min 0,000 mm 0,0 UV-I 32 W/m² 1,9 °C -0,1 °C 14,5 km/h (3 Bft)
28.10.2018 12:23 2,6 °C 95 % 1001,9 hPa 0,0 mm 8,9 km/h (2 Bft) O-NO 57 ° 0 min 0,000 mm 0,0 UV-I 32 W/m² 1,9 °C 0,1 °C 14,5 km/h (3 Bft)
28.10.2018 12:24 2,6 °C 95 % 1001,9 hPa 0,0 mm 8,4 km/h (2 Bft) NO 40 ° 0 min 0,000 mm 0,0 UV-I 33 W/m² 1,9 °C 0,2 °C 14,5 km/h (3 Bft)
28.10.2018 12:25 2,6 °C 95 % 1001,8 hPa 0,0 mm 5,3 km/h (1 Bft) O-NO 62 ° 0 min 0,000 mm 0,0 UV-I 33 W/m² 1,9 °C 1,2 °C 11,3 km/h (2 Bft)
28.10.2018 12:26 2,6 °C 95 % 1001,8 hPa 0,0 mm 6,7 km/h (2 Bft) N-NO 30 ° 0 min 0,000 mm 0,0 UV-I 35 W/m² 1,9 °C 0,7 °C 12,9 km/h (3 Bft)
28.10.2018 12:27 2,6 °C 95 % 1001,7 hPa 0,0 mm 8,3 km/h (2 Bft) O-NO 57 ° 0 min 0,000 mm 0,0 UV-I 35 W/m² 1,9 °C 0,2 °C 12,9 km/h (3 Bft)
28.10.2018 12:28 2,6 °C 95 % 1001,7 hPa 0,0 mm 6,7 km/h (2 Bft) O-NO 69 ° 0 min 0,000 mm 0,0 UV-I 39 W/m² 1,9 °C 0,7 °C 9,7 km/h (2 Bft)
28.10.2018 12:29 2,6 °C 95 % 1001,5 hPa 0,0 mm 7,3 km/h (2 Bft) O 81 ° 0 min 0,000 mm 0,0 UV-I 40 W/m² 1,9 °C 0,5 °C 11,3 km/h (2 Bft)
28.10.2018 12:30 2,6 °C 95 % 1001,5 hPa 0,0 mm 2,5 km/h (1 Bft) O-NO 61 ° 0 min 0,000 mm 0,0 UV-I 46 W/m² 1,9 °C 2,6 °C 4,8 km/h (1 Bft)
28.10.2018 12:31 2,6 °C 95 % 1001,5 hPa 0,0 mm 7,1 km/h (2 Bft) O-SO 103 ° 0 min 0,000 mm 0,0 UV-I 44 W/m² 1,9 °C 0,6 °C 12,9 km/h (3 Bft)
28.10.2018 12:32 2,6 °C 95 % 1001,5 hPa 0,0 mm 8,9 km/h (2 Bft) NO 39 ° 0 min 0,000 mm 0,0 UV-I 44 W/m² 1,9 °C 0,1 °C 16,1 km/h (3 Bft)
28.10.2018 12:33 2,6 °C 95 % 1001,5 hPa 0,0 mm 6,9 km/h (2 Bft) NO 36 ° 0 min 0,000 mm 0,0 UV-I 42 W/m² 1,9 °C 0,7 °C 11,3 km/h (2 Bft)
28.10.2018 12:34 2,6 °C 95 % 1001,5 hPa 0,0 mm 5,6 km/h (1 Bft) N-NO 30 ° 0 min 0,000 mm 0,0 UV-I 42 W/m² 1,9 °C 1,1 °C 8,0 km/h (2 Bft)
28.10.2018 12:35 2,6 °C 95 % 1001,5 hPa 0,0 mm 4,8 km/h (1 Bft) O-NO 71 ° 0 min 0,000 mm 0,0 UV-I 42 W/m² 1,9 °C 1,4 °C 8,0 km/h (2 Bft)
28.10.2018 12:36 2,6 °C 95 % 1001,5 hPa 0,0 mm 5,4 km/h (1 Bft) NO 53 ° 0 min 0,000 mm 0,0 UV-I 47 W/m² 1,9 °C 1,2 °C 12,9 km/h (3 Bft)
28.10.2018 12:37 2,6 °C 95 % 1001,7 hPa 0,0 mm 4,1 km/h (1 Bft) NO 47 ° 0 min 0,000 mm 0,0 UV-I 47 W/m² 1,9 °C 2,6 °C 6,4 km/h (2 Bft)
28.10.2018 12:38 2,6 °C 95 % 1001,7 hPa 0,0 mm 8,0 km/h (2 Bft) O-NO 69 ° 0 min 0,000 mm 0,0 UV-I 47 W/m² 1,9 °C 0,3 °C 14,5 km/h (3 Bft)
28.10.2018 12:39 2,7 °C 95 % 1001,7 hPa 0,0 mm 10,5 km/h (2 Bft) O-SO 107 ° 0 min 0,000 mm 0,0 UV-I 47 W/m² 2,0 °C -0,2 °C 14,5 km/h (3 Bft)
28.10.2018 12:40 2,7 °C 95 % 1001,8 hPa 0,0 mm 6,0 km/h (2 Bft) O-NO 70 ° 0 min 0,000 mm 0,0 UV-I 47 W/m² 2,0 °C 1,1 °C 14,5 km/h (3 Bft)
28.10.2018 12:41 2,6 °C 95 % 1001,8 hPa 0,0 mm 4,4 km/h (1 Bft) N-NO 24 ° 0 min 0,000 mm 0,0 UV-I 47 W/m² 1,9 °C 2,6 °C 8,0 km/h (2 Bft)
28.10.2018 12:42 2,6 °C 95 % 1001,7 hPa 0,0 mm 6,9 km/h (2 Bft) O-NO 73 ° 0 min 0,000 mm 0,0 UV-I 49 W/m² 1,9 °C 0,7 °C 12,9 km/h (3 Bft)
28.10.2018 12:43 2,6 °C 95 % 1001,7 hPa 0,0 mm 11,4 km/h (2 Bft) O 94 ° 0 min 0,000 mm 0,0 UV-I 51 W/m² 1,9 °C -0,5 °C 17,7 km/h (3 Bft)
28.10.2018 12:44 2,6 °C 95 % 1001,6 hPa 0,0 mm 6,1 km/h (2 Bft) O-NO 62 ° 0 min 0,000 mm 0,0 UV-I 51 W/m² 1,9 °C 0,9 °C 9,7 km/h (2 Bft)
28.10.2018 12:45 2,6 °C 95 % 1001,6 hPa 0,0 mm 7,0 km/h (2 Bft) O-NO 64 ° 0 min 0,000 mm 0,0 UV-I 49 W/m² 1,9 °C 0,6 °C 11,3 km/h (2 Bft)
28.10.2018 12:46 2,6 °C 95 % 1001,6 hPa 0,0 mm 6,0 km/h (2 Bft) O-NO 71 ° 0 min 0,000 mm 0,0 UV-I 49 W/m² 1,9 °C 1,0 °C 8,0 km/h (2 Bft)
28.10.2018 12:47 2,6 °C 95 % 1001,5 hPa 0,0 mm 4,1 km/h (1 Bft) O-NO 63 ° 0 min 0,000 mm 0,0 UV-I 49 W/m² 1,9 °C 2,6 °C 6,4 km/h (2 Bft)
28.10.2018 12:48 2,6 °C 95 % 1001,5 hPa 0,0 mm 3,6 km/h (1 Bft) NO 37 ° 0 min 0,000 mm 0,0 UV-I 46 W/m² 1,9 °C 2,6 °C 6,4 km/h (2 Bft)
28.10.2018 12:49 2,7 °C 95 % 1001,5 hPa 0,0 mm 5,8 km/h (2 Bft) O-NO 76 ° 0 min 0,000 mm 0,0 UV-I 44 W/m² 2,0 °C 1,2 °C 8,0 km/h (2 Bft)
28.10.2018 12:50 2,7 °C 95 % 1001,5 hPa 0,0 mm 6,8 km/h (2 Bft) O 88 ° 0 min 0,000 mm 0,0 UV-I 44 W/m² 2,0 °C 0,8 °C 12,9 km/h (3 Bft)
28.10.2018 12:51 2,7 °C 95 % 1001,5 hPa 0,0 mm 7,2 km/h (2 Bft) O-NO 67 ° 0 min 0,000 mm 0,0 UV-I 42 W/m² 2,0 °C 0,7 °C 11,3 km/h (2 Bft)
28.10.2018 12:52 2,7 °C 95 % 1001,5 hPa 0,0 mm 13,2 km/h (3 Bft) N-NO 27 ° 0 min 0,000 mm 0,0 UV-I 42 W/m² 2,0 °C -0,8 °C 19,3 km/h (3 Bft)
28.10.2018 12:53 2,7 °C 95 % 1001,5 hPa 0,0 mm 5,7 km/h (1 Bft) NO 55 ° 0 min 0,000 mm 0,0 UV-I 40 W/m² 2,0 °C 1,2 °C 8,0 km/h (2 Bft)
28.10.2018 12:54 2,7 °C 95 % 1001,5 hPa 0,0 mm 3,7 km/h (1 Bft) N-NO 28 ° 0 min 0,000 mm 0,0 UV-I 39 W/m² 2,0 °C 2,7 °C 6,4 km/h (2 Bft)
28.10.2018 12:55 2,7 °C 95 % 1001,6 hPa 0,0 mm 4,7 km/h (1 Bft) NO 45 ° 0 min 0,000 mm 0,0 UV-I 39 W/m² 2,0 °C 1,6 °C 8,0 km/h (2 Bft)
28.10.2018 12:56 2,7 °C 95 % 1001,5 hPa 0,0 mm 6,9 km/h (2 Bft) O 81 ° 0 min 0,000 mm 0,0 UV-I 39 W/m² 2,0 °C 0,8 °C 11,3 km/h (2 Bft)
28.10.2018 12:57 2,7 °C 95 % 1001,5 hPa 0,0 mm 6,4 km/h (2 Bft) O 82 ° 0 min 0,000 mm 0,0 UV-I 37 W/m² 2,0 °C 0,9 °C 8,0 km/h (2 Bft)
28.10.2018 12:58 2,7 °C 95 % 1001,5 hPa 0,0 mm 2,7 km/h (1 Bft) O-NO 76 ° 0 min 0,000 mm 0,0 UV-I 33 W/m² 2,0 °C 2,7 °C 6,4 km/h (2 Bft)
28.10.2018 12:59 2,7 °C 95 % 1001,6 hPa 0,0 mm 3,8 km/h (1 Bft) NO 47 ° 0 min 0,000 mm 0,0 UV-I 33 W/m² 2,0 °C 2,7 °C 9,7 km/h (2 Bft)
28.10.2018 13:00 2,7 °C 95 % 1001,6 hPa 0,0 mm 6,1 km/h (2 Bft) O-NO 61 ° 0 min 0,026 mm 0,0 UV-I 35 W/m² 2,0 °C 1,0 °C 11,3 km/h (2 Bft)
28.10.2018 13:01 2,7 °C 95 % 1001,7 hPa 0,0 mm 4,7 km/h (1 Bft) O-NO 57 ° 0 min 0,000 mm 0,0 UV-I 37 W/m² 2,0 °C 1,6 °C 8,0 km/h (2 Bft)
28.10.2018 13:02 2,7 °C 95 % 1001,7 hPa 0,0 mm 7,5 km/h (2 Bft) O-NO 59 ° 0 min 0,000 mm 0,0 UV-I 35 W/m² 2,0 °C 0,6 °C 11,3 km/h (2 Bft)
28.10.2018 13:03 2,7 °C 95 % 1001,7 hPa 0,0 mm 5,2 km/h (1 Bft) NO 36 ° 0 min 0,000 mm 0,0 UV-I 35 W/m² 2,0 °C 1,4 °C 11,3 km/h (2 Bft)
28.10.2018 13:04 2,7 °C 95 % 1001,8 hPa 0,0 mm 6,7 km/h (2 Bft) NO 50 ° 0 min 0,000 mm 0,0 UV-I 35 W/m² 2,0 °C 0,8 °C 9,7 km/h (2 Bft)
28.10.2018 13:05 2,7 °C 95 % 1001,8 hPa 0,0 mm 1,1 km/h (1 Bft) NO 51 ° 0 min 0,000 mm 0,0 UV-I 35 W/m² 2,0 °C 2,7 °C 4,8 km/h (1 Bft)
28.10.2018 13:06 2,7 °C 95 % 1001,8 hPa 0,0 mm 3,6 km/h (1 Bft) O-NO 74 ° 0 min 0,000 mm 0,0 UV-I 35 W/m² 2,0 °C 2,7 °C 6,4 km/h (2 Bft)
28.10.2018 13:07 2,7 °C 95 % 1001,9 hPa 0,0 mm 3,0 km/h (1 Bft) NO 54 ° 0 min 0,000 mm 0,0 UV-I 35 W/m² 2,0 °C 2,7 °C 6,4 km/h (2 Bft)
28.10.2018 13:08 2,7 °C 95 % 1001,8 hPa 0,0 mm 3,2 km/h (1 Bft) NO 51 ° 0 min 0,000 mm 0,0 UV-I 35 W/m² 2,0 °C 2,7 °C 6,4 km/h (2 Bft)
28.10.2018 13:09 2,7 °C 95 % 1001,8 hPa 0,0 mm 1,4 km/h (1 Bft) NO 50 ° 0 min 0,000 mm 0,0 UV-I 33 W/m² 2,0 °C 2,7 °C 3,2 km/h (1 Bft)
28.10.2018 13:10 2,7 °C 95 % 1001,9 hPa 0,0 mm 4,8 km/h (1 Bft) O-NO 65 ° 0 min 0,000 mm 0,0 UV-I 33 W/m² 2,0 °C 1,6 °C 6,4 km/h (2 Bft)
28.10.2018 13:11 2,7 °C 95 % 1002,0 hPa 0,0 mm 3,9 km/h (1 Bft) O-NO 71 ° 0 min 0,000 mm 0,0 UV-I 35 W/m² 2,0 °C 2,7 °C 6,4 km/h (2 Bft)
28.10.2018 13:12 2,7 °C 95 % 1002,0 hPa 0,0 mm 3,6 km/h (1 Bft) O-NO 59 ° 0 min 0,000 mm 0,0 UV-I 35 W/m² 2,0 °C 2,7 °C 6,4 km/h (2 Bft)
28.10.2018 13:13 2,8 °C 95 % 1001,9 hPa 0,0 mm 5,5 km/h (1 Bft) O-NO 78 ° 0 min 0,000 mm 0,0 UV-I 35 W/m² 2,1 °C 1,4 °C 9,7 km/h (2 Bft)
28.10.2018 13:14 2,7 °C 95 % 1001,9 hPa 0,0 mm 3,5 km/h (1 Bft) NO 36 ° 0 min 0,000 mm 0,0 UV-I 35 W/m² 2,0 °C 2,7 °C 4,8 km/h (1 Bft)
28.10.2018 13:15 2,7 °C 95 % 1001,9 hPa 0,0 mm 2,4 km/h (1 Bft) O 84 ° 0 min 0,000 mm 0,0 UV-I 33 W/m² 2,0 °C 2,7 °C 4,8 km/h (1 Bft)
28.10.2018 13:16 2,7 °C 95 % 1002,0 hPa 0,0 mm 1,1 km/h (1 Bft) O-NO 65 ° 0 min 0,000 mm 0,0 UV-I 32 W/m² 2,0 °C 2,7 °C 3,2 km/h (1 Bft)
28.10.2018 13:17 2,7 °C 95 % 1002,0 hPa 0,0 mm 2,7 km/h (1 Bft) N-NO 22 ° 0 min 0,000 mm 0,0 UV-I 30 W/m² 2,0 °C 2,7 °C 4,8 km/h (1 Bft)
28.10.2018 13:18 2,8 °C 95 % 1002,0 hPa 0,0 mm 2,5 km/h (1 Bft) NO 35 ° 0 min 0,000 mm 0,0 UV-I 30 W/m² 2,1 °C 2,8 °C 6,4 km/h (2 Bft)
28.10.2018 13:19 2,7 °C 95 % 1002,0 hPa 0,0 mm 5,8 km/h (2 Bft) N-NO 33 ° 0 min 0,000 mm 0,0 UV-I 28 W/m² 2,0 °C 1,2 °C 8,0 km/h (2 Bft)
28.10.2018 13:20 2,7 °C 95 % 1002,1 hPa 0,0 mm 1,5 km/h (1 Bft) N-NO 33 ° 0 min 0,000 mm 0,0 UV-I 28 W/m² 2,0 °C 2,7 °C 3,2 km/h (1 Bft)
28.10.2018 13:21 2,8 °C 95 % 1002,0 hPa 0,0 mm 2,0 km/h (1 Bft) N-NO 33 ° 0 min 0,000 mm 0,0 UV-I 28 W/m² 2,1 °C 2,8 °C 4,8 km/h (1 Bft)
28.10.2018 13:22 2,8 °C 96 % 1002,1 hPa 0,0 mm 2,6 km/h (1 Bft) NO 36 ° 0 min 0,000 mm 0,0 UV-I 28 W/m² 2,2 °C 2,8 °C 4,8 km/h (1 Bft)
28.10.2018 13:23 2,8 °C 95 % 1002,1 hPa 0,0 mm 4,8 km/h (1 Bft) NO 51 ° 0 min 0,000 mm 0,0 UV-I 28 W/m² 2,1 °C 1,7 °C 8,0 km/h (2 Bft)
28.10.2018 13:24 2,8 °C 95 % 1002,1 hPa 0,0 mm 1,0 km/h (0 Bft) NO 51 ° 0 min 0,000 mm 0,0 UV-I 26 W/m² 2,1 °C 2,8 °C 4,8 km/h (1 Bft)
28.10.2018 13:25 2,8 °C 95 % 1002,1 hPa 0,0 mm 3,8 km/h (1 Bft) NO 44 ° 0 min 0,000 mm 0,0 UV-I 28 W/m² 2,1 °C 2,8 °C 6,4 km/h (2 Bft)
28.10.2018 13:26 2,8 °C 95 % 1002,2 hPa 0,0 mm 4,0 km/h (1 Bft) NO 41 ° 0 min 0,000 mm 0,0 UV-I 26 W/m² 2,1 °C 2,8 °C 9,7 km/h (2 Bft)
28.10.2018 13:27 2,8 °C 95 % 1002,2 hPa 0,0 mm 4,7 km/h (1 Bft) N 355 ° 0 min 0,000 mm 0,0 UV-I 26 W/m² 2,1 °C 1,7 °C 8,0 km/h (2 Bft)
28.10.2018 13:28 2,8 °C 95 % 1002,2 hPa 0,0 mm 1,9 km/h (1 Bft) N-NO 17 ° 0 min 0,000 mm 0,0 UV-I 25 W/m² 2,1 °C 2,8 °C 4,8 km/h (1 Bft)
28.10.2018 13:29 2,8 °C 95 % 1002,2 hPa 0,0 mm 1,2 km/h (1 Bft) N-NO 17 ° 0 min 0,000 mm 0,0 UV-I 23 W/m² 2,1 °C 2,8 °C 4,8 km/h (1 Bft)
28.10.2018 13:30 2,8 °C 96 % 1002,2 hPa 0,0 mm 2,2 km/h (1 Bft) N-NO 17 ° 0 min 0,000 mm 0,0 UV-I 21 W/m² 2,2 °C 2,8 °C 6,4 km/h (2 Bft)
28.10.2018 13:31 2,8 °C 96 % 1002,1 hPa 0,0 mm 4,5 km/h (1 Bft) N 355 ° 0 min 0,000 mm 0,0 UV-I 21 W/m² 2,2 °C 2,8 °C 6,4 km/h (2 Bft)
28.10.2018 13:32 2,8 °C 96 % 1002,2 hPa 0,0 mm 1,4 km/h (1 Bft) N 355 ° 0 min 0,000 mm 0,0 UV-I 19 W/m² 2,2 °C 2,8 °C 4,8 km/h (1 Bft)
28.10.2018 13:33 2,8 °C 95 % 1002,2 hPa 0,0 mm 3,6 km/h (1 Bft) N-NO 14 ° 0 min 0,000 mm 0,0 UV-I 21 W/m² 2,1 °C 2,8 °C 4,8 km/h (1 Bft)
28.10.2018 13:34 2,8 °C 95 % 1002,2 hPa 0,0 mm 5,3 km/h (1 Bft) N 349 ° 0 min 0,000 mm 0,0 UV-I 21 W/m² 2,1 °C 1,5 °C 9,7 km/h (2 Bft)
28.10.2018 13:35 2,8 °C 95 % 1002,1 hPa 0,0 mm 5,3 km/h (1 Bft) N-NO 16 ° 0 min 0,000 mm 0,0 UV-I 23 W/m² 2,1 °C 1,5 °C 9,7 km/h (2 Bft)
28.10.2018 13:36 2,7 °C 95 % 1002,2 hPa 0,0 mm 2,7 km/h (1 Bft) NO 38 ° 0 min 0,000 mm 0,0 UV-I 25 W/m² 2,0 °C 2,7 °C 6,4 km/h (2 Bft)
28.10.2018 13:37 2,7 °C 95 % 1002,2 hPa 0,0 mm 3,9 km/h (1 Bft) N-NW 346 ° 0 min 0,000 mm 0,0 UV-I 25 W/m² 2,0 °C 2,7 °C 6,4 km/h (2 Bft)
28.10.2018 13:38 2,7 °C 95 % 1002,2 hPa 0,0 mm 2,0 km/h (1 Bft) N 5 ° 0 min 0,000 mm 0,0 UV-I 25 W/m² 2,0 °C 2,7 °C 6,4 km/h (2 Bft)
28.10.2018 13:39 2,7 °C 95 % 1002,3 hPa 0,0 mm 4,4 km/h (1 Bft) N 355 ° 0 min 0,000 mm 0,0 UV-I 25 W/m² 2,0 °C 2,7 °C 8,0 km/h (2 Bft)
28.10.2018 13:40 2,7 °C 95 % 1002,2 hPa 0,0 mm 1,8 km/h (1 Bft) NO 38 ° 0 min 0,000 mm 0,0 UV-I 25 W/m² 2,0 °C 2,7 °C 4,8 km/h (1 Bft)
28.10.2018 13:41 2,7 °C 95 % 1002,2 hPa 0,0 mm 2,8 km/h (1 Bft) N-NO 13 ° 0 min 0,000 mm 0,0 UV-I 26 W/m² 2,0 °C 2,7 °C 4,8 km/h (1 Bft)
28.10.2018 13:42 2,7 °C 95 % 1002,2 hPa 0,0 mm 5,2 km/h (1 Bft) N-NO 27 ° 0 min 0,000 mm 0,0 UV-I 28 W/m² 2,0 °C 1,4 °C 11,3 km/h (2 Bft)
28.10.2018 13:43 2,7 °C 95 % 1002,2 hPa 0,0 mm 2,4 km/h (1 Bft) N-NO 17 ° 0 min 0,000 mm 0,0 UV-I 26 W/m² 2,0 °C 2,7 °C 4,8 km/h (1 Bft)
28.10.2018 13:44 2,7 °C 95 % 1002,2 hPa 0,0 mm 5,1 km/h (1 Bft) N 5 ° 0 min 0,000 mm 0,0 UV-I 26 W/m² 2,0 °C 1,4 °C 6,4 km/h (2 Bft)
28.10.2018 13:45 2,7 °C 95 % 1002,2 hPa 0,0 mm 2,7 km/h (1 Bft) N 5 ° 0 min 0,000 mm 0,0 UV-I 26 W/m² 2,0 °C 2,7 °C 6,4 km/h (2 Bft)
28.10.2018 13:46 2,7 °C 95 % 1002,2 hPa 0,0 mm 3,2 km/h (1 Bft) O 86 ° 0 min 0,000 mm 0,0 UV-I 28 W/m² 2,0 °C 2,7 °C 6,4 km/h (2 Bft)
28.10.2018 13:47 2,7 °C 95 % 1002,3 hPa 0,0 mm 2,5 km/h (1 Bft) O 84 ° 0 min 0,000 mm 0,0 UV-I 28 W/m² 2,0 °C 2,7 °C 6,4 km/h (2 Bft)
28.10.2018 13:48 2,7 °C 95 % 1002,3 hPa 0,0 mm 4,4 km/h (1 Bft) NO 49 ° 0 min 0,000 mm 0,0 UV-I 28 W/m² 2,0 °C 2,7 °C 6,4 km/h (2 Bft)
28.10.2018 13:49 2,7 °C 95 % 1002,3 hPa 0,0 mm 3,2 km/h (1 Bft) N-NO 13 ° 0 min 0,000 mm 0,0 UV-I 30 W/m² 2,0 °C 2,7 °C 4,8 km/h (1 Bft)
28.10.2018 13:50 2,8 °C 95 % 1002,3 hPa 0,0 mm 3,1 km/h (1 Bft) NO 49 ° 0 min 0,000 mm 0,0 UV-I 30 W/m² 2,1 °C 2,8 °C 6,4 km/h (2 Bft)
28.10.2018 13:51 2,7 °C 95 % 1002,3 hPa 0,0 mm 2,3 km/h (1 Bft) NO 49 ° 0 min 0,000 mm 0,0 UV-I 30 W/m² 2,0 °C 2,7 °C 4,8 km/h (1 Bft)
28.10.2018 13:52 2,7 °C 95 % 1002,3 hPa 0,0 mm 2,1 km/h (1 Bft) NO 34 ° 0 min 0,000 mm 0,0 UV-I 26 W/m² 2,0 °C 2,7 °C 3,2 km/h (1 Bft)
28.10.2018 13:53 2,7 °C 95 % 1002,4 hPa 0,0 mm 1,8 km/h (1 Bft) O-NO 61 ° 0 min 0,000 mm 0,0 UV-I 25 W/m² 2,0 °C 2,7 °C 4,8 km/h (1 Bft)
28.10.2018 13:54 2,7 °C 95 % 1002,5 hPa 0,0 mm 4,2 km/h (1 Bft) O-NO 64 ° 0 min 0,000 mm 0,0 UV-I 25 W/m² 2,0 °C 2,7 °C 4,8 km/h (1 Bft)
28.10.2018 13:55 2,8 °C 95 % 1002,5 hPa 0,0 mm 3,7 km/h (1 Bft) O-NO 69 ° 0 min 0,000 mm 0,0 UV-I 25 W/m² 2,1 °C 2,8 °C 8,0 km/h (2 Bft)
28.10.2018 13:56 2,7 °C 95 % 1002,5 hPa 0,0 mm 7,5 km/h (2 Bft) O-NO 68 ° 0 min 0,000 mm 0,0 UV-I 25 W/m² 2,0 °C 0,6 °C 11,3 km/h (2 Bft)
28.10.2018 13:57 2,7 °C 95 % 1002,5 hPa 0,0 mm 5,3 km/h (1 Bft) O-NO 74 ° 0 min 0,000 mm 0,0 UV-I 25 W/m² 2,0 °C 1,3 °C 6,4 km/h (2 Bft)
28.10.2018 13:58 2,7 °C 95 % 1002,5 hPa 0,0 mm 3,6 km/h (1 Bft) O 82 ° 0 min 0,000 mm 0,0 UV-I 23 W/m² 2,0 °C 2,7 °C 4,8 km/h (1 Bft)
28.10.2018 13:59 2,7 °C 95 % 1002,5 hPa 0,0 mm 6,0 km/h (2 Bft) O 86 ° 0 min 0,000 mm 0,0 UV-I 25 W/m² 2,0 °C 1,1 °C 9,7 km/h (2 Bft)
28.10.2018 14:00 2,7 °C 95 % 1002,4 hPa 0,0 mm 6,4 km/h (2 Bft) O-NO 74 ° 0 min 0,000 mm 0,0 UV-I 23 W/m² 2,0 °C 0,9 °C 9,7 km/h (2 Bft)
28.10.2018 14:01 2,7 °C 95 % 1002,4 hPa 0,0 mm 6,1 km/h (2 Bft) NO 53 ° 0 min 0,000 mm 0,0 UV-I 25 W/m² 2,0 °C 1,0 °C 9,7 km/h (2 Bft)
28.10.2018 14:02 2,7 °C 95 % 1002,4 hPa 0,0 mm 3,7 km/h (1 Bft) NO 54 ° 0 min 0,000 mm 0,0 UV-I 25 W/m² 2,0 °C 2,7 °C 6,4 km/h (2 Bft)
28.10.2018 14:03 2,7 °C 95 % 1002,3 hPa 0,0 mm 4,2 km/h (1 Bft) O-NO 64 ° 0 min 0,000 mm 0,0 UV-I 23 W/m² 2,0 °C 2,7 °C 4,8 km/h (1 Bft)
28.10.2018 14:04 2,7 °C 95 % 1002,3 hPa 0,0 mm 4,4 km/h (1 Bft) O-NO 59 ° 0 min 0,000 mm 0,0 UV-I 23 W/m² 2,0 °C 2,7 °C 6,4 km/h (2 Bft)
28.10.2018 14:05 2,7 °C 95 % 1002,4 hPa 0,0 mm 5,2 km/h (1 Bft) O 83 ° 0 min 0,000 mm 0,0 UV-I 23 W/m² 2,0 °C 1,4 °C 6,4 km/h (2 Bft)
28.10.2018 14:06 2,7 °C 95 % 1002,4 hPa 0,0 mm 3,2 km/h (1 Bft) O 83 ° 0 min 0,000 mm 0,0 UV-I 21 W/m² 2,0 °C 2,7 °C 4,8 km/h (1 Bft)
28.10.2018 14:07 2,7 °C 95 % 1002,4 hPa 0,0 mm 2,1 km/h (1 Bft) O 83 ° 0 min 0,000 mm 0,0 UV-I 21 W/m² 2,0 °C 2,7 °C 4,8 km/h (1 Bft)
28.10.2018 14:08 2,7 °C 95 % 1002,4 hPa 0,0 mm 1,8 km/h (1 Bft) O 83 ° 0 min 0,000 mm 0,0 UV-I 23 W/m² 2,0 °C 2,7 °C 3,2 km/h (1 Bft)
28.10.2018 14:09 2,7 °C 95 % 1002,4 hPa 0,0 mm 1,4 km/h (1 Bft) NO 52 ° 0 min 0,000 mm 0,0 UV-I 23 W/m² 2,0 °C 2,7 °C 3,2 km/h (1 Bft)
28.10.2018 14:10 2,7 °C 95 % 1002,4 hPa 0,0 mm 4,4 km/h (1 Bft) NO 51 ° 0 min 0,000 mm 0,0 UV-I 21 W/m² 2,0 °C 2,7 °C 8,0 km/h (2 Bft)
28.10.2018 14:11 2,7 °C 95 % 1002,5 hPa 0,0 mm 6,1 km/h (2 Bft) O 92 ° 0 min 0,000 mm 0,0 UV-I 23 W/m² 2,0 °C 1,0 °C 11,3 km/h (2 Bft)
28.10.2018 14:12 2,7 °C 95 % 1002,5 hPa 0,0 mm 6,1 km/h (2 Bft) NO 43 ° 0 min 0,000 mm 0,0 UV-I 23 W/m² 2,0 °C 1,0 °C 8,0 km/h (2 Bft)
28.10.2018 14:13 2,7 °C 95 % 1002,5 hPa 0,0 mm 4,4 km/h (1 Bft) O-NO 74 ° 0 min 0,000 mm 0,0 UV-I 21 W/m² 2,0 °C 2,7 °C 8,0 km/h (2 Bft)
28.10.2018 14:14 2,7 °C 95 % 1002,5 hPa 0,0 mm 7,0 km/h (2 Bft) O-SO 102 ° 0 min 0,000 mm 0,0 UV-I 21 W/m² 2,0 °C 0,7 °C 8,0 km/h (2 Bft)
28.10.2018 14:15 2,7 °C 95 % 1002,5 hPa 0,0 mm 6,8 km/h (2 Bft) O-NO 59 ° 0 min 0,000 mm 0,0 UV-I 21 W/m² 2,0 °C 0,8 °C 8,0 km/h (2 Bft)
28.10.2018 14:16 2,7 °C 95 % 1002,5 hPa 0,0 mm 3,6 km/h (1 Bft) O-NO 67 ° 0 min 0,000 mm 0,0 UV-I 21 W/m² 2,0 °C 2,7 °C 6,4 km/h (2 Bft)
28.10.2018 14:17 2,7 °C 95 % 1002,5 hPa 0,0 mm 6,4 km/h (2 Bft) O-NO 71 ° 0 min 0,000 mm 0,0 UV-I 21 W/m² 2,0 °C 0,9 °C 9,7 km/h (2 Bft)
28.10.2018 14:18 2,7 °C 95 % 1002,5 hPa 0,0 mm 1,1 km/h (1 Bft) O-NO 71 ° 0 min 0,000 mm 0,0 UV-I 19 W/m² 2,0 °C 2,7 °C 4,8 km/h (1 Bft)
28.10.2018 14:19 2,7 °C 95 % 1002,5 hPa 0,0 mm 2,4 km/h (1 Bft) O-NO 71 ° 0 min 0,000 mm 0,0 UV-I 19 W/m² 2,0 °C 2,7 °C 4,8 km/h (1 Bft)
28.10.2018 14:20 2,7 °C 95 % 1002,5 hPa 0,0 mm 4,2 km/h (1 Bft) N-NO 32 ° 0 min 0,000 mm 0,0 UV-I 19 W/m² 2,0 °C 2,7 °C 6,4 km/h (2 Bft)
28.10.2018 14:21 2,7 °C 95 % 1002,6 hPa 0,0 mm 1,2 km/h (1 Bft) N-NO 32 ° 0 min 0,000 mm 0,0 UV-I 18 W/m² 2,0 °C 2,7 °C 4,8 km/h (1 Bft)
28.10.2018 14:22 2,7 °C 95 % 1002,6 hPa 0,0 mm 1,8 km/h (1 Bft) N-NO 32 ° 0 min 0,000 mm 0,0 UV-I 18 W/m² 2,0 °C 2,7 °C 3,2 km/h (1 Bft)
28.10.2018 14:23 2,7 °C 95 % 1002,7 hPa 0,2 mm 4,0 km/h (1 Bft) N 351 ° 0 min 0,000 mm 0,0 UV-I 19 W/m² 2,0 °C 2,7 °C 8,0 km/h (2 Bft)
28.10.2018 14:24 2,7 °C 95 % 1002,6 hPa 0,0 mm 4,4 km/h (1 Bft) N-NW 341 ° 0 min 0,000 mm 0,0 UV-I 19 W/m² 2,0 °C 2,7 °C 8,0 km/h (2 Bft)
28.10.2018 14:25 2,7 °C 95 % 1002,7 hPa 0,0 mm 6,8 km/h (2 Bft) N 10 ° 0 min 0,000 mm 0,0 UV-I 19 W/m² 2,0 °C 0,8 °C 8,0 km/h (2 Bft)
28.10.2018 14:26 2,6 °C 95 % 1002,7 hPa 0,0 mm 5,4 km/h (1 Bft) N-NO 15 ° 0 min 0,000 mm 0,0 UV-I 21 W/m² 1,9 °C 1,2 °C 8,0 km/h (2 Bft)
28.10.2018 14:27 2,6 °C 95 % 1002,9 hPa 0,0 mm 2,9 km/h (1 Bft) N-NO 15 ° 0 min 0,000 mm 0,0 UV-I 19 W/m² 1,9 °C 2,6 °C 6,4 km/h (2 Bft)
28.10.2018 14:28 2,6 °C 95 % 1002,9 hPa 0,0 mm 3,7 km/h (1 Bft) N-NW 338 ° 0 min 0,000 mm 0,0 UV-I 19 W/m² 1,9 °C 2,6 °C 4,8 km/h (1 Bft)
28.10.2018 14:29 2,6 °C 95 % 1002,9 hPa 0,0 mm 3,3 km/h (1 Bft) N-NW 335 ° 0 min 0,000 mm 0,0 UV-I 19 W/m² 1,9 °C 2,6 °C 4,8 km/h (1 Bft)
28.10.2018 14:30 2,6 °C 95 % 1003,0 hPa 0,0 mm 2,5 km/h (1 Bft) N-NW 334 ° 0 min 0,000 mm 0,0 UV-I 19 W/m² 1,9 °C 2,6 °C 4,8 km/h (1 Bft)
28.10.2018 14:31 2,6 °C 95 % 1003,1 hPa 0,0 mm 5,2 km/h (1 Bft) NW 309 ° 0 min 0,000 mm 0,0 UV-I 18 W/m² 1,9 °C 1,3 °C 11,3 km/h (2 Bft)
28.10.2018 14:32 2,6 °C 95 % 1003,1 hPa 0,0 mm 9,1 km/h (2 Bft) N-NW 333 ° 0 min 0,000 mm 0,0 UV-I 19 W/m² 1,9 °C 0,0 °C 12,9 km/h (3 Bft)
28.10.2018 14:33 2,6 °C 95 % 1003,1 hPa 0,0 mm 6,8 km/h (2 Bft) N 355 ° 0 min 0,000 mm 0,0 UV-I 19 W/m² 1,9 °C 0,7 °C 9,7 km/h (2 Bft)
28.10.2018 14:34 2,5 °C 95 % 1003,2 hPa 0,0 mm 5,5 km/h (1 Bft) N-NW 342 ° 0 min 0,000 mm 0,0 UV-I 19 W/m² 1,8 °C 1,0 °C 9,7 km/h (2 Bft)
28.10.2018 14:35 2,5 °C 95 % 1003,2 hPa 0,0 mm 6,6 km/h (2 Bft) N-NW 331 ° 0 min 0,000 mm 0,0 UV-I 19 W/m² 1,8 °C 0,6 °C 8,0 km/h (2 Bft)
28.10.2018 14:36 2,4 °C 95 % 1003,2 hPa 0,0 mm 2,9 km/h (1 Bft) N-NW 338 ° 0 min 0,000 mm 0,0 UV-I 19 W/m² 1,7 °C 2,4 °C 6,4 km/h (2 Bft)
28.10.2018 14:37 2,5 °C 95 % 1003,2 hPa 0,0 mm 2,5 km/h (1 Bft) NW 313 ° 0 min 0,000 mm 0,0 UV-I 19 W/m² 1,8 °C 2,5 °C 6,4 km/h (2 Bft)
28.10.2018 14:38 2,4 °C 95 % 1003,3 hPa 0,0 mm 8,9 km/h (2 Bft) N-NW 327 ° 0 min 0,000 mm 0,0 UV-I 19 W/m² 1,7 °C -0,2 °C 14,5 km/h (3 Bft)
28.10.2018 14:39 2,4 °C 95 % 1003,3 hPa 0,0 mm 6,1 km/h (2 Bft) NW 325 ° 0 min 0,000 mm 0,0 UV-I 21 W/m² 1,7 °C 0,7 °C 9,7 km/h (2 Bft)
28.10.2018 14:40 2,4 °C 95 % 1003,4 hPa 0,0 mm 5,9 km/h (2 Bft) N 350 ° 0 min 0,000 mm 0,0 UV-I 21 W/m² 1,7 °C 0,8 °C 12,9 km/h (3 Bft)
28.10.2018 14:41 2,4 °C 95 % 1003,4 hPa 0,0 mm 5,5 km/h (1 Bft) N 360 ° 0 min 0,000 mm 0,0 UV-I 21 W/m² 1,7 °C 0,9 °C 11,3 km/h (2 Bft)
28.10.2018 14:42 2,4 °C 95 % 1003,4 hPa 0,0 mm 1,1 km/h (1 Bft) N-NW 333 ° 0 min 0,000 mm 0,0 UV-I 23 W/m² 1,7 °C 2,4 °C 4,8 km/h (1 Bft)
28.10.2018 14:43 2,3 °C 95 % 1003,5 hPa 0,0 mm 4,8 km/h (1 Bft) NW 306 ° 0 min 0,000 mm 0,0 UV-I 25 W/m² 1,6 °C 1,1 °C 9,7 km/h (2 Bft)
28.10.2018 14:44 2,4 °C 95 % 1003,6 hPa 0,0 mm 4,2 km/h (1 Bft) N-NW 335 ° 0 min 0,000 mm 0,0 UV-I 25 W/m² 1,7 °C 2,4 °C 6,4 km/h (2 Bft)
28.10.2018 14:45 2,3 °C 95 % 1003,6 hPa 0,0 mm 1,8 km/h (1 Bft) N 355 ° 0 min 0,000 mm 0,0 UV-I 21 W/m² 1,6 °C 2,3 °C 4,8 km/h (1 Bft)
28.10.2018 14:46 2,3 °C 95 % 1003,7 hPa 0,0 mm 5,4 km/h (1 Bft) N 5 ° 0 min 0,000 mm 0,0 UV-I 21 W/m² 1,6 °C 0,9 °C 8,0 km/h (2 Bft)
28.10.2018 14:47 2,3 °C 95 % 1003,6 hPa 0,0 mm 4,1 km/h (1 Bft) N 5 ° 0 min 0,000 mm 0,0 UV-I 19 W/m² 1,6 °C 2,3 °C 6,4 km/h (2 Bft)
28.10.2018 14:48 2,3 °C 95 % 1003,7 hPa 0,0 mm 1,2 km/h (1 Bft) N 5 ° 0 min 0,000 mm 0,0 UV-I 19 W/m² 1,6 °C 2,3 °C 3,2 km/h (1 Bft)
28.10.2018 14:49 2,3 °C 95 % 1003,7 hPa 0,0 mm 0,2 km/h (0 Bft) N 5 ° 0 min 0,000 mm 0,0 UV-I 18 W/m² 1,6 °C 2,3 °C 1,6 km/h (1 Bft)
28.10.2018 14:50 2,4 °C 95 % 1003,7 hPa 0,0 mm 1,5 km/h (1 Bft) N 5 ° 0 min 0,000 mm 0,0 UV-I 18 W/m² 1,7 °C 2,4 °C 3,2 km/h (1 Bft)
28.10.2018 14:51 2,4 °C 95 % 1003,7 hPa 0,0 mm 2,8 km/h (1 Bft) N 5 ° 0 min 0,000 mm 0,0 UV-I 19 W/m² 1,7 °C 2,4 °C 4,8 km/h (1 Bft)
28.10.2018 14:52 2,4 °C 95 % 1003,7 hPa 0,0 mm 3,4 km/h (1 Bft) N 5 ° 0 min 0,000 mm 0,0 UV-I 19 W/m² 1,7 °C 2,4 °C 4,8 km/h (1 Bft)
28.10.2018 14:53 2,4 °C 95 % 1003,7 hPa 0,0 mm 5,2 km/h (1 Bft) NW 309 ° 0 min 0,000 mm 0,0 UV-I 18 W/m² 1,7 °C 1,0 °C 6,4 km/h (2 Bft)
28.10.2018 14:54 2,4 °C 95 % 1003,7 hPa 0,0 mm 2,1 km/h (1 Bft) NW 325 ° 0 min 0,000 mm 0,0 UV-I 18 W/m² 1,7 °C 2,4 °C 4,8 km/h (1 Bft)
28.10.2018 14:55 2,4 °C 95 % 1003,7 hPa 0,0 mm 1,6 km/h (1 Bft) NW 325 ° 0 min 0,000 mm 0,0 UV-I 18 W/m² 1,7 °C 2,4 °C 3,2 km/h (1 Bft)
28.10.2018 14:56 2,3 °C 95 % 1003,7 hPa 0,0 mm 2,5 km/h (1 Bft) N-NW 343 ° 0 min 0,000 mm 0,0 UV-I 18 W/m² 1,6 °C 2,3 °C 6,4 km/h (2 Bft)
28.10.2018 14:57 2,3 °C 95 % 1003,7 hPa 0,0 mm 1,9 km/h (1 Bft) N-NW 336 ° 0 min 0,000 mm 0,0 UV-I 18 W/m² 1,6 °C 2,3 °C 4,8 km/h (1 Bft)
28.10.2018 14:58 2,3 °C 95 % 1003,7 hPa 0,0 mm 3,0 km/h (1 Bft) N-NW 335 ° 0 min 0,000 mm 0,0 UV-I 18 W/m² 1,6 °C 2,3 °C 4,8 km/h (1 Bft)
28.10.2018 14:59 2,3 °C 95 % 1003,7 hPa 0,0 mm 3,2 km/h (1 Bft) W-NW 294 ° 0 min 0,000 mm 0,0 UV-I 16 W/m² 1,6 °C 2,3 °C 4,8 km/h (1 Bft)
28.10.2018 15:00 2,3 °C 95 % 1003,7 hPa 0,0 mm 2,9 km/h (1 Bft) W-NW 298 ° 0 min 0,000 mm 0,0 UV-I 16 W/m² 1,6 °C 2,3 °C 4,8 km/h (1 Bft)
28.10.2018 15:01 2,3 °C 95 % 1003,7 hPa 0,0 mm 3,3 km/h (1 Bft) N-NW 328 ° 0 min 0,000 mm 0,0 UV-I 16 W/m² 1,6 °C 2,3 °C 4,8 km/h (1 Bft)
28.10.2018 15:02 2,3 °C 95 % 1003,7 hPa 0,0 mm 1,8 km/h (1 Bft) N 350 ° 0 min 0,000 mm 0,0 UV-I 16 W/m² 1,6 °C 2,3 °C 3,2 km/h (1 Bft)
28.10.2018 15:03 2,3 °C 95 % 1003,7 hPa 0,0 mm 1,0 km/h (0 Bft) NW 325 ° 0 min 0,000 mm 0,0 UV-I 16 W/m² 1,6 °C 2,3 °C 3,2 km/h (1 Bft)
28.10.2018 15:04 2,3 °C 95 % 1003,7 hPa 0,0 mm 1,7 km/h (1 Bft) N-NW 333 ° 0 min 0,000 mm 0,0 UV-I 16 W/m² 1,6 °C 2,3 °C 3,2 km/h (1 Bft)
28.10.2018 15:05 2,3 °C 95 % 1003,7 hPa 0,0 mm 4,3 km/h (1 Bft) NW 319 ° 0 min 0,000 mm 0,0 UV-I 16 W/m² 1,6 °C 2,3 °C 6,4 km/h (2 Bft)
28.10.2018 15:06 2,3 °C 95 % 1003,7 hPa 0,0 mm 4,8 km/h (1 Bft) NW 321 ° 0 min 0,000 mm 0,0 UV-I 16 W/m² 1,6 °C 1,1 °C 8,0 km/h (2 Bft)
28.10.2018 15:07 2,3 °C 95 % 1003,8 hPa 0,0 mm 3,9 km/h (1 Bft) N 5 ° 0 min 0,000 mm 0,0 UV-I 18 W/m² 1,6 °C 2,3 °C 6,4 km/h (2 Bft)
28.10.2018 15:08 2,3 °C 95 % 1003,8 hPa 0,0 mm 3,6 km/h (1 Bft) N-NW 347 ° 0 min 0,000 mm 0,0 UV-I 18 W/m² 1,6 °C 2,3 °C 4,8 km/h (1 Bft)
28.10.2018 15:09 2,3 °C 95 % 1003,8 hPa 0,0 mm 2,1 km/h (1 Bft) N 360 ° 0 min 0,000 mm 0,0 UV-I 18 W/m² 1,6 °C 2,3 °C 4,8 km/h (1 Bft)
28.10.2018 15:10 2,3 °C 95 % 1003,8 hPa 0,0 mm 0,1 km/h (0 Bft) N 360 ° 0 min 0,000 mm 0,0 UV-I 18 W/m² 1,6 °C 2,3 °C 1,6 km/h (1 Bft)
28.10.2018 15:11 2,3 °C 95 % 1003,8 hPa 0,0 mm 0,1 km/h (0 Bft) N 360 ° 0 min 0,000 mm 0,0 UV-I 16 W/m² 1,6 °C 2,3 °C 1,6 km/h (1 Bft)
28.10.2018 15:12 2,3 °C 95 % 1003,8 hPa 0,0 mm 0,0 km/h (0 Bft) N 360 ° 0 min 0,000 mm 0,0 UV-I 16 W/m² 1,6 °C 2,3 °C 0,0 km/h (0 Bft)
28.10.2018 15:13 2,3 °C 95 % 1003,8 hPa 0,0 mm 2,0 km/h (1 Bft) N 360 ° 0 min 0,000 mm 0,0 UV-I 16 W/m² 1,6 °C 2,3 °C 4,8 km/h (1 Bft)
28.10.2018 15:14 2,3 °C 95 % 1003,8 hPa 0,0 mm 4,1 km/h (1 Bft) N 9 ° 0 min 0,000 mm 0,0 UV-I 16 W/m² 1,6 °C 2,3 °C 4,8 km/h (1 Bft)
28.10.2018 15:15 2,3 °C 95 % 1003,8 hPa 0,0 mm 4,4 km/h (1 Bft) N-NO 20 ° 0 min 0,000 mm 0,0 UV-I 16 W/m² 1,6 °C 2,3 °C 4,8 km/h (1 Bft)
28.10.2018 15:16 2,3 °C 95 % 1003,8 hPa 0,0 mm 3,0 km/h (1 Bft) N-NO 17 ° 0 min 0,000 mm 0,0 UV-I 16 W/m² 1,6 °C 2,3 °C 4,8 km/h (1 Bft)
28.10.2018 15:17 2,3 °C 95 % 1003,8 hPa 0,0 mm 2,7 km/h (1 Bft) N-NO 15 ° 0 min 0,000 mm 0,0 UV-I 16 W/m² 1,6 °C 2,3 °C 4,8 km/h (1 Bft)
28.10.2018 15:18 2,3 °C 95 % 1003,8 hPa 0,0 mm 0,4 km/h (0 Bft) N-NO 15 ° 0 min 0,000 mm 0,0 UV-I 16 W/m² 1,6 °C 2,3 °C 1,6 km/h (1 Bft)
28.10.2018 15:19 2,3 °C 95 % 1003,8 hPa 0,0 mm 0,0 km/h (0 Bft) N-NO 15 ° 0 min 0,000 mm 0,0 UV-I 14 W/m² 1,6 °C 2,3 °C 0,0 km/h (0 Bft)
28.10.2018 15:20 2,3 °C 95 % 1003,7 hPa 0,0 mm 1,5 km/h (1 Bft) N-NW 331 ° 0 min 0,000 mm 0,0 UV-I 14 W/m² 1,6 °C 2,3 °C 4,8 km/h (1 Bft)
28.10.2018 15:21 2,3 °C 95 % 1003,7 hPa 0,0 mm 3,3 km/h (1 Bft) N-NW 331 ° 0 min 0,000 mm 0,0 UV-I 14 W/m² 1,6 °C 2,3 °C 4,8 km/h (1 Bft)
28.10.2018 15:22 2,3 °C 95 % 1003,7 hPa 0,0 mm 3,9 km/h (1 Bft) NW 325 ° 0 min 0,000 mm 0,0 UV-I 14 W/m² 1,6 °C 2,3 °C 6,4 km/h (2 Bft)
28.10.2018 15:23 2,3 °C 95 % 1003,7 hPa 0,0 mm 4,5 km/h (1 Bft) N-NW 333 ° 0 min 0,000 mm 0,0 UV-I 14 W/m² 1,6 °C 2,3 °C 6,4 km/h (2 Bft)
28.10.2018 15:24 2,3 °C 95 % 1003,7 hPa 0,0 mm 2,6 km/h (1 Bft) N-NW 333 ° 0 min 0,000 mm 0,0 UV-I 12 W/m² 1,6 °C 2,3 °C 4,8 km/h (1 Bft)
28.10.2018 15:25 2,2 °C 95 % 1003,7 hPa 0,0 mm 0,1 km/h (0 Bft) N-NW 332 ° 0 min 0,000 mm 0,0 UV-I 12 W/m² 1,5 °C 2,2 °C 1,6 km/h (1 Bft)
28.10.2018 15:26 2,2 °C 95 % 1003,7 hPa 0,0 mm 0,0 km/h (0 Bft) N-NW 333 ° 0 min 0,000 mm 0,0 UV-I 12 W/m² 1,5 °C 2,2 °C 0,0 km/h (0 Bft)
28.10.2018 15:27 2,2 °C 95 % 1003,7 hPa 0,0 mm 0,0 km/h (0 Bft) N-NW 333 ° 0 min 0,000 mm 0,0 UV-I 12 W/m² 1,5 °C 2,2 °C 0,0 km/h (0 Bft)
28.10.2018 15:28 2,3 °C 95 % 1003,6 hPa 0,0 mm 0,0 km/h (0 Bft) N-NW 332 ° 0 min 0,000 mm 0,0 UV-I 12 W/m² 1,6 °C 2,3 °C 0,0 km/h (0 Bft)
28.10.2018 15:29 2,3 °C 95 % 1003,7 hPa 0,0 mm 0,0 km/h (0 Bft) N-NW 333 ° 0 min 0,000 mm 0,0 UV-I 12 W/m² 1,6 °C 2,3 °C 0,0 km/h (0 Bft)
28.10.2018 15:30 2,3 °C 95 % 1003,6 hPa 0,0 mm 0,1 km/h (0 Bft) N-NW 332 ° 0 min 0,000 mm 0,0 UV-I 12 W/m² 1,6 °C 2,3 °C 1,6 km/h (1 Bft)
28.10.2018 15:31 2,3 °C 95 % 1003,7 hPa 0,0 mm 1,8 km/h (1 Bft) N-NW 333 ° 0 min 0,000 mm 0,0 UV-I 12 W/m² 1,6 °C 2,3 °C 3,2 km/h (1 Bft)
28.10.2018 15:32 2,3 °C 95 % 1003,6 hPa 0,0 mm 0,9 km/h (0 Bft) N-NW 333 ° 0 min 0,000 mm 0,0 UV-I 12 W/m² 1,6 °C 2,3 °C 1,6 km/h (1 Bft)
28.10.2018 15:33 2,3 °C 95 % 1003,6 hPa 0,0 mm 1,8 km/h (1 Bft) NO 42 ° 0 min 0,000 mm 0,0 UV-I 12 W/m² 1,6 °C 2,3 °C 3,2 km/h (1 Bft)
28.10.2018 15:34 2,3 °C 95 % 1003,6 hPa 0,0 mm 3,1 km/h (1 Bft) N 5 ° 0 min 0,000 mm 0,0 UV-I 12 W/m² 1,6 °C 2,3 °C 4,8 km/h (1 Bft)
28.10.2018 15:35 2,3 °C 95 % 1003,6 hPa 0,0 mm 1,7 km/h (1 Bft) N 5 ° 0 min 0,000 mm 0,0 UV-I 14 W/m² 1,6 °C 2,3 °C 3,2 km/h (1 Bft)
28.10.2018 15:36 2,3 °C 95 % 1003,6 hPa 0,0 mm 2,8 km/h (1 Bft) N 5 ° 0 min 0,000 mm 0,0 UV-I 12 W/m² 1,6 °C 2,3 °C 4,8 km/h (1 Bft)
28.10.2018 15:37 2,3 °C 95 % 1003,6 hPa 0,0 mm 1,3 km/h (1 Bft) N 5 ° 0 min 0,000 mm 0,0 UV-I 14 W/m² 1,6 °C 2,3 °C 3,2 km/h (1 Bft)
28.10.2018 15:38 2,3 °C 95 % 1003,6 hPa 0,0 mm 1,4 km/h (1 Bft) N 5 ° 0 min 0,000 mm 0,0 UV-I 14 W/m² 1,6 °C 2,3 °C 3,2 km/h (1 Bft)
28.10.2018 15:39 2,3 °C 95 % 1003,6 hPa 0,0 mm 0,2 km/h (0 Bft) N 5 ° 0 min 0,000 mm 0,0 UV-I 14 W/m² 1,6 °C 2,3 °C 3,2 km/h (1 Bft)
28.10.2018 15:40 2,3 °C 95 % 1003,6 hPa 0,0 mm 0,4 km/h (0 Bft) N 5 ° 0 min 0,000 mm 0,0 UV-I 14 W/m² 1,6 °C 2,3 °C 3,2 km/h (1 Bft)
28.10.2018 15:41 2,3 °C 95 % 1003,6 hPa 0,0 mm 1,1 km/h (1 Bft) N 5 ° 0 min 0,000 mm 0,0 UV-I 14 W/m² 1,6 °C 2,3 °C 3,2 km/h (1 Bft)
28.10.2018 15:42 2,3 °C 95 % 1003,6 hPa 0,0 mm 0,9 km/h (0 Bft) N 5 ° 0 min 0,000 mm 0,0 UV-I 14 W/m² 1,6 °C 2,3 °C 3,2 km/h (1 Bft)
28.10.2018 15:43 2,3 °C 95 % 1003,6 hPa 0,0 mm 0,5 km/h (0 Bft) N 5 ° 0 min 0,000 mm 0,0 UV-I 14 W/m² 1,6 °C 2,3 °C 1,6 km/h (1 Bft)
28.10.2018 15:44 2,2 °C 95 % 1003,6 hPa 0,0 mm 0,1 km/h (0 Bft) N 5 ° 0 min 0,000 mm 0,0 UV-I 14 W/m² 1,5 °C 2,2 °C 1,6 km/h (1 Bft)
28.10.2018 15:45 2,2 °C 95 % 1003,6 hPa 0,0 mm 0,0 km/h (0 Bft) N 5 ° 0 min 0,000 mm 0,0 UV-I 14 W/m² 1,5 °C 2,2 °C 0,0 km/h (0 Bft)
28.10.2018 15:46 2,3 °C 95 % 1003,6 hPa 0,0 mm 1,2 km/h (1 Bft) N 5 ° 0 min 0,000 mm 0,0 UV-I 14 W/m² 1,6 °C 2,3 °C 3,2 km/h (1 Bft)
28.10.2018 15:47 2,3 °C 95 % 1003,6 hPa 0,0 mm 2,1 km/h (1 Bft) N-NW 347 ° 0 min 0,000 mm 0,0 UV-I 14 W/m² 1,6 °C 2,3 °C 3,2 km/h (1 Bft)
28.10.2018 15:48 2,2 °C 95 % 1003,6 hPa 0,0 mm 1,9 km/h (1 Bft) N-NW 329 ° 0 min 0,000 mm 0,0 UV-I 14 W/m² 1,5 °C 2,2 °C 4,8 km/h (1 Bft)
28.10.2018 15:49 2,2 °C 95 % 1003,6 hPa 0,0 mm 0,6 km/h (0 Bft) N-NW 329 ° 0 min 0,000 mm 0,0 UV-I 12 W/m² 1,5 °C 2,2 °C 3,2 km/h (1 Bft)
28.10.2018 15:50 2,2 °C 95 % 1003,7 hPa 0,0 mm 0,1 km/h (0 Bft) N-NW 329 ° 0 min 0,000 mm 0,0 UV-I 12 W/m² 1,5 °C 2,2 °C 1,6 km/h (1 Bft)
28.10.2018 15:51 2,2 °C 95 % 1003,7 hPa 0,0 mm 1,0 km/h (0 Bft) N-NW 329 ° 0 min 0,000 mm 0,0 UV-I 12 W/m² 1,5 °C 2,2 °C 3,2 km/h (1 Bft)
28.10.2018 15:52 2,2 °C 95 % 1003,6 hPa 0,0 mm 0,4 km/h (0 Bft) N-NW 329 ° 0 min 0,000 mm 0,0 UV-I 12 W/m² 1,5 °C 2,2 °C 1,6 km/h (1 Bft)
28.10.2018 15:53 2,2 °C 95 % 1003,7 hPa 0,2 mm 1,3 km/h (1 Bft) N-NW 329 ° 0 min 0,000 mm 0,0 UV-I 12 W/m² 1,5 °C 2,2 °C 3,2 km/h (1 Bft)
28.10.2018 15:54 2,2 °C 95 % 1003,6 hPa 0,0 mm 1,9 km/h (1 Bft) N-NW 329 ° 0 min 0,000 mm 0,0 UV-I 12 W/m² 1,5 °C 2,2 °C 3,2 km/h (1 Bft)
28.10.2018 15:55 2,2 °C 95 % 1003,6 hPa 0,0 mm 1,1 km/h (1 Bft) N-NW 329 ° 0 min 0,000 mm 0,0 UV-I 12 W/m² 1,5 °C 2,2 °C 3,2 km/h (1 Bft)
28.10.2018 15:56 2,2 °C 95 % 1003,6 hPa 0,0 mm 1,5 km/h (1 Bft) N-NW 329 ° 0 min 0,000 mm 0,0 UV-I 12 W/m² 1,5 °C 2,2 °C 3,2 km/h (1 Bft)
28.10.2018 15:57 2,2 °C 95 % 1003,6 hPa 0,0 mm 0,0 km/h (0 Bft) N-NW 329 ° 0 min 0,000 mm 0,0 UV-I 12 W/m² 1,5 °C 2,2 °C 0,0 km/h (0 Bft)
28.10.2018 15:58 2,2 °C 95 % 1003,6 hPa 0,0 mm 0,0 km/h (0 Bft) N-NW 329 ° 0 min 0,000 mm 0,0 UV-I 12 W/m² 1,5 °C 2,2 °C 0,0 km/h (0 Bft)
28.10.2018 15:59 2,3 °C 95 % 1003,7 hPa 0,0 mm 0,0 km/h (0 Bft) N-NW 329 ° 0 min 0,000 mm 0,0 UV-I 12 W/m² 1,6 °C 2,3 °C 0,0 km/h (0 Bft)
28.10.2018 16:00 2,3 °C 95 % 1003,6 hPa 0,0 mm 0,2 km/h (0 Bft) N-NW 329 ° 0 min 0,000 mm 0,0 UV-I 12 W/m² 1,6 °C 2,3 °C 1,6 km/h (1 Bft)
28.10.2018 16:01 2,3 °C 95 % 1003,7 hPa 0,0 mm 0,2 km/h (0 Bft) N-NW 329 ° 0 min 0,000 mm 0,0 UV-I 12 W/m² 1,6 °C 2,3 °C 1,6 km/h (1 Bft)
28.10.2018 16:02 2,3 °C 95 % 1003,5 hPa 0,0 mm 0,8 km/h (0 Bft) N-NW 329 ° 0 min 0,000 mm 0,0 UV-I 12 W/m² 1,6 °C 2,3 °C 1,6 km/h (1 Bft)
28.10.2018 16:03 2,2 °C 95 % 1003,5 hPa 0,0 mm 0,1 km/h (0 Bft) N-NW 329 ° 0 min 0,000 mm 0,0 UV-I 12 W/m² 1,5 °C 2,2 °C 1,6 km/h (1 Bft)
28.10.2018 16:04 2,2 °C 95 % 1003,5 hPa 0,0 mm 0,3 km/h (0 Bft) N-NW 329 ° 0 min 0,000 mm 0,0 UV-I 12 W/m² 1,5 °C 2,2 °C 1,6 km/h (1 Bft)
28.10.2018 16:05 2,2 °C 95 % 1003,5 hPa 0,0 mm 0,0 km/h (0 Bft) N-NW 347 ° 0 min 0,000 mm 0,0 UV-I 12 W/m² 1,5 °C 2,2 °C 0,0 km/h (0 Bft)
28.10.2018 16:06 2,3 °C 95 % 1003,5 hPa 0,0 mm 0,0 km/h (0 Bft) N 355 ° 0 min 0,000 mm 0,0 UV-I 12 W/m² 1,6 °C 2,3 °C 0,0 km/h (0 Bft)
28.10.2018 16:07 2,2 °C 95 % 1003,5 hPa 0,0 mm 3,3 km/h (1 Bft) N 355 ° 0 min 0,000 mm 0,0 UV-I 12 W/m² 1,5 °C 2,2 °C 4,8 km/h (1 Bft)
28.10.2018 16:08 2,3 °C 95 % 1003,6 hPa 0,0 mm 1,4 km/h (1 Bft) N 355 ° 0 min 0,000 mm 0,0 UV-I 12 W/m² 1,6 °C 2,3 °C 3,2 km/h (1 Bft)
28.10.2018 16:09 2,3 °C 95 % 1003,6 hPa 0,0 mm 1,1 km/h (1 Bft) N 355 ° 0 min 0,000 mm 0,0 UV-I 12 W/m² 1,6 °C 2,3 °C 3,2 km/h (1 Bft)
28.10.2018 16:10 2,3 °C 95 % 1003,6 hPa 0,0 mm 0,6 km/h (0 Bft) O 81 ° 0 min 0,000 mm 0,0 UV-I 11 W/m² 1,6 °C 2,3 °C 4,8 km/h (1 Bft)
28.10.2018 16:11 2,3 °C 95 % 1003,6 hPa 0,0 mm 1,5 km/h (1 Bft) O 81 ° 0 min 0,000 mm 0,0 UV-I 12 W/m² 1,6 °C 2,3 °C 3,2 km/h (1 Bft)
28.10.2018 16:12 2,2 °C 95 % 1003,6 hPa 0,0 mm 1,0 km/h (0 Bft) O 80 ° 0 min 0,000 mm 0,0 UV-I 12 W/m² 1,5 °C 2,2 °C 3,2 km/h (1 Bft)
28.10.2018 16:13 2,2 °C 95 % 1003,6 hPa 0,0 mm 2,8 km/h (1 Bft) N-NO 25 ° 0 min 0,000 mm 0,0 UV-I 11 W/m² 1,5 °C 2,2 °C 4,8 km/h (1 Bft)
28.10.2018 16:14 2,2 °C 95 % 1003,6 hPa 0,0 mm 3,2 km/h (1 Bft) N 9 ° 0 min 0,000 mm 0,0 UV-I 11 W/m² 1,5 °C 2,2 °C 4,8 km/h (1 Bft)
28.10.2018 16:15 2,2 °C 95 % 1003,5 hPa 0,0 mm 3,0 km/h (1 Bft) N-NO 19 ° 0 min 0,000 mm 0,0 UV-I 11 W/m² 1,5 °C 2,2 °C 4,8 km/h (1 Bft)
28.10.2018 16:16 2,2 °C 95 % 1003,5 hPa 0,0 mm 0,7 km/h (0 Bft) N-NO 19 ° 0 min 0,000 mm 0,0 UV-I 11 W/m² 1,5 °C 2,2 °C 3,2 km/h (1 Bft)
28.10.2018 16:17 2,2 °C 95 % 1003,6 hPa 0,0 mm 1,3 km/h (1 Bft) N 9 ° 0 min 0,000 mm 0,0 UV-I 9 W/m² 1,5 °C 2,2 °C 3,2 km/h (1 Bft)
28.10.2018 16:18 2,2 °C 95 % 1003,6 hPa 0,0 mm 1,7 km/h (1 Bft) N 9 ° 0 min 0,000 mm 0,0 UV-I 9 W/m² 1,5 °C 2,2 °C 3,2 km/h (1 Bft)
28.10.2018 16:19 2,2 °C 95 % 1003,7 hPa 0,0 mm 1,1 km/h (1 Bft) N 9 ° 0 min 0,000 mm 0,0 UV-I 9 W/m² 1,5 °C 2,2 °C 3,2 km/h (1 Bft)
28.10.2018 16:20 2,2 °C 95 % 1003,6 hPa 0,0 mm 0,3 km/h (0 Bft) N 9 ° 0 min 0,000 mm 0,0 UV-I 9 W/m² 1,5 °C 2,2 °C 1,6 km/h (1 Bft)
28.10.2018 16:21 2,2 °C 95 % 1003,7 hPa 0,0 mm 1,0 km/h (0 Bft) N 9 ° 0 min 0,000 mm 0,0 UV-I 9 W/m² 1,5 °C 2,2 °C 1,6 km/h (1 Bft)
28.10.2018 16:22 2,1 °C 95 % 1003,7 hPa 0,0 mm 2,9 km/h (1 Bft) N 9 ° 0 min 0,000 mm 0,0 UV-I 7 W/m² 1,4 °C 2,1 °C 4,8 km/h (1 Bft)
28.10.2018 16:23 2,1 °C 95 % 1003,8 hPa 0,0 mm 1,9 km/h (1 Bft) N 9 ° 0 min 0,000 mm 0,0 UV-I 7 W/m² 1,4 °C 2,1 °C 3,2 km/h (1 Bft)
28.10.2018 16:24 2,1 °C 95 % 1003,7 hPa 0,0 mm 0,2 km/h (0 Bft) N 9 ° 0 min 0,000 mm 0,0 UV-I 7 W/m² 1,4 °C 2,1 °C 1,6 km/h (1 Bft)
28.10.2018 16:25 2,1 °C 95 % 1003,7 hPa 0,0 mm 0,0 km/h (0 Bft) N 9 ° 0 min 0,000 mm 0,0 UV-I 7 W/m² 1,4 °C 2,1 °C 0,0 km/h (0 Bft)
28.10.2018 16:26 2,1 °C 95 % 1003,7 hPa 0,0 mm 3,0 km/h (1 Bft) O 92 ° 0 min 0,000 mm 0,0 UV-I 7 W/m² 1,4 °C 2,1 °C 4,8 km/h (1 Bft)
28.10.2018 16:27 2,1 °C 95 % 1003,7 hPa 0,0 mm 0,8 km/h (0 Bft) O 92 ° 0 min 0,000 mm 0,0 UV-I 7 W/m² 1,4 °C 2,1 °C 3,2 km/h (1 Bft)
28.10.2018 16:28 2,1 °C 95 % 1003,8 hPa 0,0 mm 2,7 km/h (1 Bft) NO 53 ° 0 min 0,000 mm 0,0 UV-I 7 W/m² 1,4 °C 2,1 °C 3,2 km/h (1 Bft)
28.10.2018 16:29 2,1 °C 95 % 1003,7 hPa 0,0 mm 2,0 km/h (1 Bft) NO 53 ° 0 min 0,000 mm 0,0 UV-I 7 W/m² 1,4 °C 2,1 °C 3,2 km/h (1 Bft)
28.10.2018 16:30 2,1 °C 95 % 1003,6 hPa 0,0 mm 2,0 km/h (1 Bft) NO 53 ° 0 min 0,000 mm 0,0 UV-I 7 W/m² 1,4 °C 2,1 °C 3,2 km/h (1 Bft)
28.10.2018 16:31 2,1 °C 95 % 1003,6 hPa 0,0 mm 2,5 km/h (1 Bft) O-NO 59 ° 0 min 0,000 mm 0,0 UV-I 7 W/m² 1,4 °C 2,1 °C 4,8 km/h (1 Bft)
28.10.2018 16:32 2,1 °C 95 % 1003,6 hPa 0,0 mm 2,0 km/h (1 Bft) O-NO 59 ° 0 min 0,000 mm 0,0 UV-I 5 W/m² 1,4 °C 2,1 °C 3,2 km/h (1 Bft)
28.10.2018 16:33 2,1 °C 95 % 1003,5 hPa 0,0 mm 1,5 km/h (1 Bft) O-NO 57 ° 0 min 0,000 mm 0,0 UV-I 5 W/m² 1,4 °C 2,1 °C 6,4 km/h (2 Bft)
28.10.2018 16:34 2,1 °C 95 % 1003,5 hPa 0,0 mm 4,4 km/h (1 Bft) NO 44 ° 0 min 0,000 mm 0,0 UV-I 5 W/m² 1,4 °C 2,1 °C 6,4 km/h (2 Bft)
28.10.2018 16:35 2,1 °C 95 % 1003,4 hPa 0,0 mm 2,7 km/h (1 Bft) NO 51 ° 0 min 0,000 mm 0,0 UV-I 5 W/m² 1,4 °C 2,1 °C 4,8 km/h (1 Bft)
28.10.2018 16:36 2,1 °C 95 % 1003,4 hPa 0,0 mm 2,0 km/h (1 Bft) O-NO 59 ° 0 min 0,000 mm 0,0 UV-I 5 W/m² 1,4 °C 2,1 °C 3,2 km/h (1 Bft)
28.10.2018 16:37 2,1 °C 95 % 1003,5 hPa 0,0 mm 4,6 km/h (1 Bft) O-NO 63 ° 0 min 0,000 mm 0,0 UV-I 5 W/m² 1,4 °C 1,0 °C 6,4 km/h (2 Bft)
28.10.2018 16:38 2,0 °C 95 % 1003,5 hPa 0,0 mm 4,8 km/h (1 Bft) O 86 ° 0 min 0,000 mm 0,0 UV-I 5 W/m² 1,3 °C 0,8 °C 11,3 km/h (2 Bft)
28.10.2018 16:39 2,0 °C 95 % 1003,4 hPa 0,0 mm 2,9 km/h (1 Bft) NO 48 ° 0 min 0,000 mm 0,0 UV-I 5 W/m² 1,3 °C 2,0 °C 4,8 km/h (1 Bft)
28.10.2018 16:40 2,0 °C 95 % 1003,4 hPa 0,0 mm 3,4 km/h (1 Bft) NO 54 ° 0 min 0,000 mm 0,0 UV-I 5 W/m² 1,3 °C 2,0 °C 4,8 km/h (1 Bft)
28.10.2018 16:41 2,0 °C 95 % 1003,4 hPa 0,0 mm 1,1 km/h (1 Bft) NO 54 ° 0 min 0,000 mm 0,0 UV-I 0 W/m² 1,3 °C 2,0 °C 3,2 km/h (1 Bft)
28.10.2018 16:42 2,0 °C 95 % 1003,4 hPa 0,0 mm 4,4 km/h (1 Bft) O 82 ° 0 min 0,000 mm 0,0 UV-I 0 W/m² 1,3 °C 2,0 °C 8,0 km/h (2 Bft)
28.10.2018 16:43 2,0 °C 95 % 1003,5 hPa 0,0 mm 1,9 km/h (1 Bft) O 82 ° 0 min 0,000 mm 0,0 UV-I 0 W/m² 1,3 °C 2,0 °C 4,8 km/h (1 Bft)
28.10.2018 16:44 2,0 °C 95 % 1003,5 hPa 0,0 mm 2,2 km/h (1 Bft) O-NO 66 ° 0 min 0,000 mm 0,0 UV-I 0 W/m² 1,3 °C 2,0 °C 4,8 km/h (1 Bft)
28.10.2018 16:45 2,0 °C 95 % 1003,5 hPa 0,0 mm 2,2 km/h (1 Bft) N-NO 29 ° 0 min 0,000 mm 0,0 UV-I 0 W/m² 1,3 °C 2,0 °C 4,8 km/h (1 Bft)
28.10.2018 16:46 1,9 °C 95 % 1003,5 hPa 0,0 mm 3,1 km/h (1 Bft) N 5 ° 0 min 0,000 mm 0,0 UV-I 0 W/m² 1,2 °C 1,9 °C 6,4 km/h (2 Bft)
28.10.2018 16:47 2,0 °C 95 % 1003,5 hPa 0,0 mm 1,9 km/h (1 Bft) N 360 ° 0 min 0,000 mm 0,0 UV-I 0 W/m² 1,3 °C 2,0 °C 4,8 km/h (1 Bft)
28.10.2018 16:48 2,0 °C 95 % 1003,5 hPa 0,0 mm 0,1 km/h (0 Bft) N 360 ° 0 min 0,000 mm 0,0 UV-I 0 W/m² 1,3 °C 2,0 °C 1,6 km/h (1 Bft)
28.10.2018 16:49 2,0 °C 95 % 1003,4 hPa 0,0 mm 1,0 km/h (0 Bft) N 360 ° 0 min 0,000 mm 0,0 UV-I 0 W/m² 1,3 °C 2,0 °C 3,2 km/h (1 Bft)
28.10.2018 16:50 2,0 °C 95 % 1003,5 hPa 0,0 mm 0,0 km/h (0 Bft) N 360 ° 0 min 0,000 mm 0,0 UV-I 0 W/m² 1,3 °C 2,0 °C 0,0 km/h (0 Bft)
28.10.2018 16:51 2,0 °C 95 % 1003,6 hPa 0,0 mm 0,0 km/h (0 Bft) N 360 ° 0 min 0,000 mm 0,0 UV-I 0 W/m² 1,3 °C 2,0 °C 0,0 km/h (0 Bft)
28.10.2018 16:52 2,0 °C 95 % 1003,6 hPa 0,0 mm 2,6 km/h (1 Bft) O-NO 66 ° 0 min 0,000 mm 0,0 UV-I 0 W/m² 1,3 °C 2,0 °C 4,8 km/h (1 Bft)
28.10.2018 16:53 2,0 °C 95 % 1003,6 hPa 0,0 mm 1,0 km/h (0 Bft) O-NO 66 ° 0 min 0,000 mm 0,0 UV-I 0 W/m² 1,3 °C 2,0 °C 3,2 km/h (1 Bft)
28.10.2018 16:54 2,0 °C 95 % 1003,6 hPa 0,0 mm 3,0 km/h (1 Bft) O-NO 63 ° 0 min 0,000 mm 0,0 UV-I 0 W/m² 1,3 °C 2,0 °C 6,4 km/h (2 Bft)
28.10.2018 16:55 2,0 °C 95 % 1003,7 hPa 0,0 mm 2,3 km/h (1 Bft) O-NO 63 ° 0 min 0,000 mm 0,0 UV-I 0 W/m² 1,3 °C 2,0 °C 3,2 km/h (1 Bft)
28.10.2018 16:56 2,0 °C 95 % 1003,6 hPa 0,0 mm 0,9 km/h (0 Bft) O-NO 63 ° 0 min 0,000 mm 0,0 UV-I 0 W/m² 1,3 °C 2,0 °C 1,6 km/h (1 Bft)
28.10.2018 16:57 2,0 °C 95 % 1003,6 hPa 0,0 mm 0,8 km/h (0 Bft) O-NO 63 ° 0 min 0,000 mm 0,0 UV-I 0 W/m² 1,3 °C 2,0 °C 3,2 km/h (1 Bft)
28.10.2018 16:58 2,0 °C 95 % 1003,6 hPa 0,0 mm 1,7 km/h (1 Bft) O-NO 63 ° 0 min 0,000 mm 0,0 UV-I 0 W/m² 1,3 °C 2,0 °C 3,2 km/h (1 Bft)
28.10.2018 16:59 2,0 °C 95 % 1003,5 hPa 0,0 mm 0,5 km/h (0 Bft) O-NO 63 ° 0 min 0,000 mm 0,0 UV-I 0 W/m² 1,3 °C 2,0 °C 3,2 km/h (1 Bft)
28.10.2018 17:00 2,0 °C 95 % 1003,5 hPa 0,0 mm 1,6 km/h (1 Bft) O-NO 63 ° 0 min 0,000 mm 0,0 UV-I 0 W/m² 1,3 °C 2,0 °C 3,2 km/h (1 Bft)
28.10.2018 17:01 2,0 °C 95 % 1003,5 hPa 0,0 mm 0,0 km/h (0 Bft) O-NO 63 ° 0 min 0,000 mm 0,0 UV-I 0 W/m² 1,3 °C 2,0 °C 0,0 km/h (0 Bft)
28.10.2018 17:02 2,0 °C 95 % 1003,5 hPa 0,0 mm 0,0 km/h (0 Bft) O-NO 63 ° 0 min 0,000 mm 0,0 UV-I 0 W/m² 1,3 °C 2,0 °C 0,0 km/h (0 Bft)
28.10.2018 17:03 2,0 °C 95 % 1003,6 hPa 0,0 mm 0,0 km/h (0 Bft) O-NO 63 ° 0 min 0,000 mm 0,0 UV-I 0 W/m² 1,3 °C 2,0 °C 0,0 km/h (0 Bft)
28.10.2018 17:04 2,0 °C 95 % 1003,6 hPa 0,0 mm 1,1 km/h (1 Bft) O-NO 63 ° 0 min 0,000 mm 0,0 UV-I 0 W/m² 1,3 °C 2,0 °C 3,2 km/h (1 Bft)
28.10.2018 17:05 2,0 °C 95 % 1003,6 hPa 0,0 mm 1,0 km/h (0 Bft) O-NO 63 ° 0 min 0,000 mm 0,0 UV-I 0 W/m² 1,3 °C 2,0 °C 3,2 km/h (1 Bft)
28.10.2018 17:06 2,0 °C 95 % 1003,5 hPa 0,0 mm 1,0 km/h (0 Bft) O-NO 63 ° 0 min 0,000 mm 0,0 UV-I 0 W/m² 1,3 °C 2,0 °C 3,2 km/h (1 Bft)
28.10.2018 17:07 2,0 °C 95 % 1003,6 hPa 0,0 mm 1,3 km/h (1 Bft) O-NO 63 ° 0 min 0,000 mm 0,0 UV-I 0 W/m² 1,3 °C 2,0 °C 3,2 km/h (1 Bft)
28.10.2018 17:08 2,0 °C 95 % 1003,6 hPa 0,0 mm 0,0 km/h (0 Bft) O-NO 63 ° 0 min 0,000 mm 0,0 UV-I 0 W/m² 1,3 °C 2,0 °C 0,0 km/h (0 Bft)
28.10.2018 17:09 2,0 °C 95 % 1003,6 hPa 0,0 mm 0,0 km/h (0 Bft) O-NO 63 ° 0 min 0,000 mm 0,0 UV-I 0 W/m² 1,3 °C 2,0 °C 0,0 km/h (0 Bft)
28.10.2018 17:10 2,0 °C 95 % 1003,6 hPa 0,0 mm 2,1 km/h (1 Bft) O-NO 72 ° 0 min 0,000 mm 0,0 UV-I 0 W/m² 1,3 °C 2,0 °C 6,4 km/h (2 Bft)
28.10.2018 17:11 2,0 °C 95 % 1003,7 hPa 0,2 mm 2,7 km/h (1 Bft) O-NO 72 ° 0 min 0,000 mm 0,0 UV-I 0 W/m² 1,3 °C 2,0 °C 4,8 km/h (1 Bft)
28.10.2018 17:12 2,0 °C 95 % 1003,8 hPa 0,0 mm 3,6 km/h (1 Bft) O-NO 75 ° 0 min 0,000 mm 0,0 UV-I 0 W/m² 1,3 °C 2,0 °C 6,4 km/h (2 Bft)
28.10.2018 17:13 2,0 °C 95 % 1003,8 hPa 0,0 mm 4,9 km/h (1 Bft) NO 52 ° 0 min 0,000 mm 0,0 UV-I 0 W/m² 1,3 °C 0,7 °C 8,0 km/h (2 Bft)
28.10.2018 17:14 2,0 °C 95 % 1003,9 hPa 0,0 mm 1,2 km/h (1 Bft) NO 52 ° 0 min 0,000 mm 0,0 UV-I 0 W/m² 1,3 °C 2,0 °C 3,2 km/h (1 Bft)
28.10.2018 17:15 2,0 °C 95 % 1003,9 hPa 0,0 mm 1,8 km/h (1 Bft) NO 55 ° 0 min 0,000 mm 0,0 UV-I 0 W/m² 1,3 °C 2,0 °C 3,2 km/h (1 Bft)
28.10.2018 17:16 2,0 °C 95 % 1004,0 hPa 0,0 mm 3,8 km/h (1 Bft) NO 53 ° 0 min 0,000 mm 0,0 UV-I 0 W/m² 1,3 °C 2,0 °C 4,8 km/h (1 Bft)
28.10.2018 17:17 2,0 °C 95 % 1004,1 hPa 0,0 mm 0,9 km/h (0 Bft) NO 53 ° 0 min 0,000 mm 0,0 UV-I 0 W/m² 1,3 °C 2,0 °C 1,6 km/h (1 Bft)
28.10.2018 17:18 2,0 °C 95 % 1004,1 hPa 0,0 mm 1,5 km/h (1 Bft) NO 53 ° 0 min 0,000 mm 0,0 UV-I 0 W/m² 1,3 °C 2,0 °C 3,2 km/h (1 Bft)
28.10.2018 17:19 1,9 °C 95 % 1004,0 hPa 0,0 mm 0,5 km/h (0 Bft) NO 53 ° 0 min 0,000 mm 0,0 UV-I 0 W/m² 1,2 °C 1,9 °C 1,6 km/h (1 Bft)
28.10.2018 17:20 1,9 °C 95 % 1003,9 hPa 0,0 mm 4,4 km/h (1 Bft) O-NO 58 ° 0 min 0,000 mm 0,0 UV-I 0 W/m² 1,2 °C 1,9 °C 6,4 km/h (2 Bft)
28.10.2018 17:21 1,9 °C 95 % 1003,9 hPa 0,0 mm 2,0 km/h (1 Bft) O-NO 58 ° 0 min 0,000 mm 0,0 UV-I 0 W/m² 1,2 °C 1,9 °C 3,2 km/h (1 Bft)
28.10.2018 17:22 1,9 °C 95 % 1003,9 hPa 0,0 mm 1,1 km/h (1 Bft) O-NO 58 ° 0 min 0,000 mm 0,0 UV-I 0 W/m² 1,2 °C 1,9 °C 3,2 km/h (1 Bft)
28.10.2018 17:23 1,9 °C 95 % 1003,9 hPa 0,0 mm 2,5 km/h (1 Bft) O-NO 58 ° 0 min 0,000 mm 0,0 UV-I 0 W/m² 1,2 °C 1,9 °C 4,8 km/h (1 Bft)
28.10.2018 17:24 1,9 °C 95 % 1003,9 hPa 0,0 mm 3,8 km/h (1 Bft) O-NO 63 ° 0 min 0,000 mm 0,0 UV-I 0 W/m² 1,2 °C 1,9 °C 6,4 km/h (2 Bft)
28.10.2018 17:25 1,9 °C 95 % 1003,9 hPa 0,0 mm 3,8 km/h (1 Bft) O-NO 63 ° 0 min 0,000 mm 0,0 UV-I 0 W/m² 1,2 °C 1,9 °C 4,8 km/h (1 Bft)
28.10.2018 17:26 1,9 °C 95 % 1003,9 hPa 0,0 mm 4,8 km/h (1 Bft) NO 50 ° 0 min 0,000 mm 0,0 UV-I 0 W/m² 1,2 °C 0,7 °C 6,4 km/h (2 Bft)
28.10.2018 17:27 1,9 °C 95 % 1003,9 hPa 0,0 mm 2,7 km/h (1 Bft) NO 50 ° 0 min 0,000 mm 0,0 UV-I 0 W/m² 1,2 °C 1,9 °C 6,4 km/h (2 Bft)
28.10.2018 17:28 1,9 °C 95 % 1003,9 hPa 0,0 mm 1,5 km/h (1 Bft) NO 50 ° 0 min 0,000 mm 0,0 UV-I 0 W/m² 1,2 °C 1,9 °C 3,2 km/h (1 Bft)
28.10.2018 17:29 1,9 °C 95 % 1003,8 hPa 0,0 mm 2,8 km/h (1 Bft) NO 50 ° 0 min 0,000 mm 0,0 UV-I 0 W/m² 1,2 °C 1,9 °C 3,2 km/h (1 Bft)
28.10.2018 17:30 1,9 °C 95 % 1003,9 hPa 0,0 mm 1,9 km/h (1 Bft) NO 50 ° 0 min 0,000 mm 0,0 UV-I 0 W/m² 1,2 °C 1,9 °C 3,2 km/h (1 Bft)
28.10.2018 17:31 1,9 °C 95 % 1003,9 hPa 0,0 mm 1,7 km/h (1 Bft) NO 50 ° 0 min 0,000 mm 0,0 UV-I 0 W/m² 1,2 °C 1,9 °C 3,2 km/h (1 Bft)
28.10.2018 17:32 1,9 °C 95 % 1003,9 hPa 0,0 mm 1,7 km/h (1 Bft) NO 50 ° 0 min 0,000 mm 0,0 UV-I 0 W/m² 1,2 °C 1,9 °C 3,2 km/h (1 Bft)
28.10.2018 17:33 1,9 °C 95 % 1003,9 hPa 0,0 mm 2,0 km/h (1 Bft) NO 50 ° 0 min 0,000 mm 0,0 UV-I 0 W/m² 1,2 °C 1,9 °C 4,8 km/h (1 Bft)
28.10.2018 17:34 1,9 °C 95 % 1003,9 hPa 0,0 mm 1,7 km/h (1 Bft) NO 50 ° 0 min 0,000 mm 0,0 UV-I 0 W/m² 1,2 °C 1,9 °C 3,2 km/h (1 Bft)
28.10.2018 17:35 1,9 °C 95 % 1003,9 hPa 0,0 mm 2,1 km/h (1 Bft) NO 51 ° 0 min 0,000 mm 0,0 UV-I 0 W/m² 1,2 °C 1,9 °C 3,2 km/h (1 Bft)
28.10.2018 17:36 1,9 °C 95 % 1004,0 hPa 0,0 mm 2,0 km/h (1 Bft) NO 51 ° 0 min 0,000 mm 0,0 UV-I 0 W/m² 1,2 °C 1,9 °C 3,2 km/h (1 Bft)
28.10.2018 17:37 1,8 °C 95 % 1004,0 hPa 0,0 mm 0,1 km/h (0 Bft) NO 51 ° 0 min 0,000 mm 0,0 UV-I 0 W/m² 1,1 °C 1,8 °C 1,6 km/h (1 Bft)
28.10.2018 17:38 1,9 °C 95 % 1004,0 hPa 0,0 mm 1,1 km/h (1 Bft) NO 51 ° 0 min 0,000 mm 0,0 UV-I 0 W/m² 1,2 °C 1,9 °C 3,2 km/h (1 Bft)
28.10.2018 17:39 1,9 °C 95 % 1004,0 hPa 0,0 mm 0,0 km/h (0 Bft) NO 51 ° 0 min 0,000 mm 0,0 UV-I 0 W/m² 1,2 °C 1,9 °C 0,0 km/h (0 Bft)
28.10.2018 17:40 1,8 °C 95 % 1004,0 hPa 0,0 mm 2,6 km/h (1 Bft) NO 51 ° 0 min 0,000 mm 0,0 UV-I 0 W/m² 1,1 °C 1,8 °C 3,2 km/h (1 Bft)
28.10.2018 17:41 1,8 °C 95 % 1004,1 hPa 0,0 mm 0,3 km/h (0 Bft) NO 51 ° 0 min 0,000 mm 0,0 UV-I 0 W/m² 1,1 °C 1,8 °C 3,2 km/h (1 Bft)
28.10.2018 17:42 1,9 °C 95 % 1004,1 hPa 0,0 mm 2,0 km/h (1 Bft) NO 51 ° 0 min 0,000 mm 0,0 UV-I 0 W/m² 1,2 °C 1,9 °C 3,2 km/h (1 Bft)
28.10.2018 17:43 1,8 °C 95 % 1004,1 hPa 0,0 mm 0,6 km/h (0 Bft) NO 51 ° 0 min 0,000 mm 0,0 UV-I 0 W/m² 1,1 °C 1,8 °C 1,6 km/h (1 Bft)
28.10.2018 17:44 1,8 °C 95 % 1004,1 hPa 0,0 mm 1,3 km/h (1 Bft) NO 51 ° 0 min 0,000 mm 0,0 UV-I 0 W/m² 1,1 °C 1,8 °C 3,2 km/h (1 Bft)
28.10.2018 17:45 1,8 °C 95 % 1004,1 hPa 0,0 mm 3,2 km/h (1 Bft) NO 51 ° 0 min 0,000 mm 0,0 UV-I 0 W/m² 1,1 °C 1,8 °C 4,8 km/h (1 Bft)
28.10.2018 17:46 1,8 °C 95 % 1004,2 hPa 0,0 mm 2,1 km/h (1 Bft) NO 51 ° 0 min 0,000 mm 0,0 UV-I 0 W/m² 1,1 °C 1,8 °C 3,2 km/h (1 Bft)
28.10.2018 17:47 1,9 °C 95 % 1004,2 hPa 0,0 mm 0,3 km/h (0 Bft) NO 51 ° 0 min 0,000 mm 0,0 UV-I 0 W/m² 1,2 °C 1,9 °C 1,6 km/h (1 Bft)
28.10.2018 17:48 1,9 °C 95 % 1004,2 hPa 0,0 mm 0,0 km/h (0 Bft) NO 51 ° 0 min 0,000 mm 0,0 UV-I 0 W/m² 1,2 °C 1,9 °C 0,0 km/h (0 Bft)
28.10.2018 17:49 1,9 °C 95 % 1004,3 hPa 0,0 mm 0,5 km/h (0 Bft) NO 51 ° 0 min 0,000 mm 0,0 UV-I 0 W/m² 1,2 °C 1,9 °C 3,2 km/h (1 Bft)
28.10.2018 17:50 1,9 °C 95 % 1004,3 hPa 0,0 mm 1,2 km/h (1 Bft) NO 51 ° 0 min 0,000 mm 0,0 UV-I 0 W/m² 1,2 °C 1,9 °C 3,2 km/h (1 Bft)
28.10.2018 17:51 1,8 °C 95 % 1004,3 hPa 0,0 mm 1,9 km/h (1 Bft) NO 51 ° 0 min 0,000 mm 0,0 UV-I 0 W/m² 1,1 °C 1,8 °C 3,2 km/h (1 Bft)
28.10.2018 17:52 1,8 °C 95 % 1004,3 hPa 0,0 mm 1,0 km/h (0 Bft) NO 51 ° 0 min 0,000 mm 0,0 UV-I 0 W/m² 1,1 °C 1,8 °C 3,2 km/h (1 Bft)
28.10.2018 17:53 1,8 °C 95 % 1004,3 hPa 0,0 mm 0,0 km/h (0 Bft) NO 51 ° 0 min 0,000 mm 0,0 UV-I 0 W/m² 1,1 °C 1,8 °C 0,0 km/h (0 Bft)
28.10.2018 17:54 1,8 °C 95 % 1004,4 hPa 0,0 mm 0,3 km/h (0 Bft) NO 51 ° 0 min 0,000 mm 0,0 UV-I 0 W/m² 1,1 °C 1,8 °C 1,6 km/h (1 Bft)
28.10.2018 17:55 1,8 °C 95 % 1004,3 hPa 0,0 mm 0,3 km/h (0 Bft) NO 51 ° 0 min 0,000 mm 0,0 UV-I 0 W/m² 1,1 °C 1,8 °C 1,6 km/h (1 Bft)
28.10.2018 17:56 1,8 °C 95 % 1004,4 hPa 0,0 mm 0,3 km/h (0 Bft) NO 51 ° 0 min 0,000 mm 0,0 UV-I 0 W/m² 1,1 °C 1,8 °C 1,6 km/h (1 Bft)
28.10.2018 17:57 1,8 °C 95 % 1004,3 hPa 0,0 mm 0,8 km/h (0 Bft) NO 51 ° 0 min 0,000 mm 0,0 UV-I 0 W/m² 1,1 °C 1,8 °C 3,2 km/h (1 Bft)
28.10.2018 17:58 1,8 °C 95 % 1004,3 hPa 0,0 mm 2,0 km/h (1 Bft) NO 51 ° 0 min 0,000 mm 0,0 UV-I 0 W/m² 1,1 °C 1,8 °C 4,8 km/h (1 Bft)
28.10.2018 17:59 1,8 °C 95 % 1004,3 hPa 0,0 mm 1,6 km/h (1 Bft) NO 51 ° 0 min 0,000 mm 0,0 UV-I 0 W/m² 1,1 °C 1,8 °C 3,2 km/h (1 Bft)
28.10.2018 18:00 1,8 °C 95 % 1004,3 hPa 0,0 mm 1,9 km/h (1 Bft) NO 51 ° 0 min 0,000 mm 0,0 UV-I 0 W/m² 1,1 °C 1,8 °C 3,2 km/h (1 Bft)
28.10.2018 18:01 1,8 °C 95 % 1004,2 hPa 0,0 mm 0,8 km/h (0 Bft) NO 51 ° 0 min 0,000 mm 0,0 UV-I 0 W/m² 1,1 °C 1,8 °C 3,2 km/h (1 Bft)
28.10.2018 18:02 1,8 °C 95 % 1004,3 hPa 0,0 mm 1,3 km/h (1 Bft) NO 51 ° 0 min 0,000 mm 0,0 UV-I 0 W/m² 1,1 °C 1,8 °C 3,2 km/h (1 Bft)
28.10.2018 18:03 1,8 °C 95 % 1004,3 hPa 0,0 mm 0,3 km/h (0 Bft) NO 51 ° 0 min 0,000 mm 0,0 UV-I 0 W/m² 1,1 °C 1,8 °C 1,6 km/h (1 Bft)
28.10.2018 18:04 1,8 °C 95 % 1004,3 hPa 0,0 mm 2,4 km/h (1 Bft) NO 51 ° 0 min 0,000 mm 0,0 UV-I 0 W/m² 1,1 °C 1,8 °C 4,8 km/h (1 Bft)
28.10.2018 18:05 1,8 °C 95 % 1004,3 hPa 0,0 mm 3,1 km/h (1 Bft) NO 51 ° 0 min 0,000 mm 0,0 UV-I 0 W/m² 1,1 °C 1,8 °C 4,8 km/h (1 Bft)
28.10.2018 18:06 1,8 °C 95 % 1004,3 hPa 0,0 mm 2,3 km/h (1 Bft) NO 51 ° 0 min 0,000 mm 0,0 UV-I 0 W/m² 1,1 °C 1,8 °C 4,8 km/h (1 Bft)
28.10.2018 18:07 1,8 °C 95 % 1004,3 hPa 0,0 mm 2,4 km/h (1 Bft) NO 51 ° 0 min 0,000 mm 0,0 UV-I 0 W/m² 1,1 °C 1,8 °C 4,8 km/h (1 Bft)
28.10.2018 18:08 1,8 °C 95 % 1004,3 hPa 0,0 mm 1,5 km/h (1 Bft) NO 51 ° 0 min 0,000 mm 0,0 UV-I 0 W/m² 1,1 °C 1,8 °C 3,2 km/h (1 Bft)
28.10.2018 18:09 1,8 °C 95 % 1004,4 hPa 0,0 mm 0,1 km/h (0 Bft) NO 51 ° 0 min 0,000 mm 0,0 UV-I 0 W/m² 1,1 °C 1,8 °C 1,6 km/h (1 Bft)
28.10.2018 18:10 1,8 °C 95 % 1004,4 hPa 0,0 mm 0,4 km/h (0 Bft) NO 51 ° 0 min 0,000 mm 0,0 UV-I 0 W/m² 1,1 °C 1,8 °C 1,6 km/h (1 Bft)
28.10.2018 18:11 1,8 °C 95 % 1004,4 hPa 0,0 mm 1,9 km/h (1 Bft) NO 51 ° 0 min 0,000 mm 0,0 UV-I 0 W/m² 1,1 °C 1,8 °C 3,2 km/h (1 Bft)
28.10.2018 18:12 1,8 °C 95 % 1004,4 hPa 0,0 mm 2,3 km/h (1 Bft) O-NO 69 ° 0 min 0,000 mm 0,0 UV-I 0 W/m² 1,1 °C 1,8 °C 4,8 km/h (1 Bft)
28.10.2018 18:13 1,8 °C 95 % 1004,5 hPa 0,0 mm 0,9 km/h (0 Bft) O-NO 69 ° 0 min 0,000 mm 0,0 UV-I 0 W/m² 1,1 °C 1,8 °C 3,2 km/h (1 Bft)
28.10.2018 18:14 1,8 °C 95 % 1004,5 hPa 0,0 mm 1,6 km/h (1 Bft) O-NO 69 ° 0 min 0,000 mm 0,0 UV-I 0 W/m² 1,1 °C 1,8 °C 3,2 km/h (1 Bft)
28.10.2018 18:15 1,8 °C 95 % 1004,5 hPa 0,0 mm 0,3 km/h (0 Bft) O-NO 69 ° 0 min 0,000 mm 0,0 UV-I 0 W/m² 1,1 °C 1,8 °C 1,6 km/h (1 Bft)
28.10.2018 18:16 1,8 °C 95 % 1004,5 hPa 0,0 mm 0,3 km/h (0 Bft) O-NO 69 ° 0 min 0,000 mm 0,0 UV-I 0 W/m² 1,1 °C 1,8 °C 1,6 km/h (1 Bft)
28.10.2018 18:17 1,8 °C 95 % 1004,5 hPa 0,0 mm 0,1 km/h (0 Bft) O-NO 69 ° 0 min 0,000 mm 0,0 UV-I 0 W/m² 1,1 °C 1,8 °C 1,6 km/h (1 Bft)
28.10.2018 18:18 1,8 °C 95 % 1004,5 hPa 0,0 mm 0,2 km/h (0 Bft) O-NO 69 ° 0 min 0,000 mm 0,0 UV-I 0 W/m² 1,1 °C 1,8 °C 1,6 km/h (1 Bft)
28.10.2018 18:19 1,8 °C 95 % 1004,6 hPa 0,0 mm 0,8 km/h (0 Bft) O-NO 69 ° 0 min 0,000 mm 0,0 UV-I 0 W/m² 1,1 °C 1,8 °C 3,2 km/h (1 Bft)
28.10.2018 18:20 1,8 °C 95 % 1004,6 hPa 0,0 mm 0,0 km/h (0 Bft) O-NO 69 ° 0 min 0,000 mm 0,0 UV-I 0 W/m² 1,1 °C 1,8 °C 0,0 km/h (0 Bft)
28.10.2018 18:21 1,8 °C 95 % 1004,6 hPa 0,0 mm 1,1 km/h (1 Bft) O-NO 69 ° 0 min 0,000 mm 0,0 UV-I 0 W/m² 1,1 °C 1,8 °C 3,2 km/h (1 Bft)
28.10.2018 18:22 1,8 °C 95 % 1004,6 hPa 0,0 mm 1,3 km/h (1 Bft) O-NO 69 ° 0 min 0,000 mm 0,0 UV-I 0 W/m² 1,1 °C 1,8 °C 3,2 km/h (1 Bft)
28.10.2018 18:23 1,8 °C 95 % 1004,6 hPa 0,0 mm 0,9 km/h (0 Bft) O-NO 69 ° 0 min 0,000 mm 0,0 UV-I 0 W/m² 1,1 °C 1,8 °C 3,2 km/h (1 Bft)
28.10.2018 18:24 1,8 °C 95 % 1004,5 hPa 0,0 mm 0,0 km/h (0 Bft) O-NO 69 ° 0 min 0,000 mm 0,0 UV-I 0 W/m² 1,1 °C 1,8 °C 0,0 km/h (0 Bft)
28.10.2018 18:25 1,8 °C 95 % 1004,5 hPa 0,0 mm 1,3 km/h (1 Bft) O-NO 69 ° 0 min 0,000 mm 0,0 UV-I 0 W/m² 1,1 °C 1,8 °C 3,2 km/h (1 Bft)
28.10.2018 18:26 1,8 °C 95 % 1004,5 hPa 0,0 mm 0,2 km/h (0 Bft) O-NO 69 ° 0 min 0,000 mm 0,0 UV-I 0 W/m² 1,1 °C 1,8 °C 1,6 km/h (1 Bft)
28.10.2018 18:27 1,7 °C 95 % 1004,5 hPa 0,0 mm 0,0 km/h (0 Bft) O-NO 69 ° 0 min 0,000 mm 0,0 UV-I 0 W/m² 1,0 °C 1,7 °C 0,0 km/h (0 Bft)
28.10.2018 18:28 1,8 °C 95 % 1004,6 hPa 0,0 mm 0,0 km/h (0 Bft) O-NO 69 ° 0 min 0,000 mm 0,0 UV-I 0 W/m² 1,1 °C 1,8 °C 0,0 km/h (0 Bft)
28.10.2018 18:29 1,7 °C 95 % 1004,5 hPa 0,0 mm 0,0 km/h (0 Bft) O-NO 69 ° 0 min 0,000 mm 0,0 UV-I 0 W/m² 1,0 °C 1,7 °C 0,0 km/h (0 Bft)
28.10.2018 18:30 1,7 °C 95 % 1004,6 hPa 0,0 mm 0,8 km/h (0 Bft) O-NO 69 ° 0 min 0,000 mm 0,0 UV-I 0 W/m² 1,0 °C 1,7 °C 3,2 km/h (1 Bft)
28.10.2018 18:31 1,8 °C 95 % 1004,5 hPa 0,0 mm 1,4 km/h (1 Bft) O-NO 69 ° 0 min 0,000 mm 0,0 UV-I 0 W/m² 1,1 °C 1,8 °C 3,2 km/h (1 Bft)
28.10.2018 18:32 1,8 °C 95 % 1004,5 hPa 0,0 mm 0,9 km/h (0 Bft) O-NO 69 ° 0 min 0,000 mm 0,0 UV-I 0 W/m² 1,1 °C 1,8 °C 3,2 km/h (1 Bft)
28.10.2018 18:33 1,7 °C 95 % 1004,5 hPa 0,0 mm 0,0 km/h (0 Bft) O-NO 69 ° 0 min 0,000 mm 0,0 UV-I 0 W/m² 1,0 °C 1,7 °C 0,0 km/h (0 Bft)
28.10.2018 18:34 1,7 °C 95 % 1004,4 hPa 0,0 mm 1,9 km/h (1 Bft) O-NO 69 ° 0 min 0,000 mm 0,0 UV-I 0 W/m² 1,0 °C 1,7 °C 3,2 km/h (1 Bft)
28.10.2018 18:35 1,7 °C 95 % 1004,4 hPa 0,0 mm 0,3 km/h (0 Bft) O-NO 69 ° 0 min 0,000 mm 0,0 UV-I 0 W/m² 1,0 °C 1,7 °C 1,6 km/h (1 Bft)
28.10.2018 18:36 1,7 °C 95 % 1004,4 hPa 0,0 mm 0,2 km/h (0 Bft) O-NO 69 ° 0 min 0,000 mm 0,0 UV-I 0 W/m² 1,0 °C 1,7 °C 3,2 km/h (1 Bft)
28.10.2018 18:37 1,8 °C 95 % 1004,4 hPa 0,0 mm 3,2 km/h (1 Bft) O-NO 69 ° 0 min 0,000 mm 0,0 UV-I 0 W/m² 1,1 °C 1,8 °C 4,8 km/h (1 Bft)
28.10.2018 18:38 1,8 °C 95 % 1004,4 hPa 0,0 mm 3,4 km/h (1 Bft) O-NO 69 ° 0 min 0,000 mm 0,0 UV-I 0 W/m² 1,1 °C 1,8 °C 4,8 km/h (1 Bft)
28.10.2018 18:39 1,7 °C 95 % 1004,4 hPa 0,0 mm 2,7 km/h (1 Bft) O-NO 69 ° 0 min 0,000 mm 0,0 UV-I 0 W/m² 1,0 °C 1,7 °C 4,8 km/h (1 Bft)
28.10.2018 18:40 1,7 °C 95 % 1004,4 hPa 0,0 mm 1,6 km/h (1 Bft) O-NO 69 ° 0 min 0,000 mm 0,0 UV-I 0 W/m² 1,0 °C 1,7 °C 3,2 km/h (1 Bft)
28.10.2018 18:41 1,7 °C 95 % 1004,4 hPa 0,0 mm 3,2 km/h (1 Bft) O-NO 69 ° 0 min 0,000 mm 0,0 UV-I 0 W/m² 1,0 °C 1,7 °C 4,8 km/h (1 Bft)
28.10.2018 18:42 1,7 °C 95 % 1004,3 hPa 0,0 mm 2,5 km/h (1 Bft) O-NO 69 ° 0 min 0,000 mm 0,0 UV-I 0 W/m² 1,0 °C 1,7 °C 3,2 km/h (1 Bft)
28.10.2018 18:43 1,7 °C 95 % 1004,3 hPa 0,0 mm 3,1 km/h (1 Bft) O-NO 69 ° 0 min 0,000 mm 0,0 UV-I 0 W/m² 1,0 °C 1,7 °C 4,8 km/h (1 Bft)
28.10.2018 18:44 1,7 °C 95 % 1004,3 hPa 0,0 mm 2,9 km/h (1 Bft) O-NO 69 ° 0 min 0,000 mm 0,0 UV-I 0 W/m² 1,0 °C 1,7 °C 4,8 km/h (1 Bft)
28.10.2018 18:45 1,7 °C 95 % 1004,2 hPa 0,0 mm 0,5 km/h (0 Bft) O-NO 69 ° 0 min 0,000 mm 0,0 UV-I 0 W/m² 1,0 °C 1,7 °C 1,6 km/h (1 Bft)
28.10.2018 18:46 1,7 °C 95 % 1004,2 hPa 0,0 mm 0,2 km/h (0 Bft) O-NO 69 ° 0 min 0,000 mm 0,0 UV-I 0 W/m² 1,0 °C 1,7 °C 1,6 km/h (1 Bft)
28.10.2018 18:47 1,7 °C 95 % 1004,2 hPa 0,0 mm 0,5 km/h (0 Bft) O-NO 69 ° 0 min 0,000 mm 0,0 UV-I 0 W/m² 1,0 °C 1,7 °C 1,6 km/h (1 Bft)
28.10.2018 18:48 1,7 °C 95 % 1004,2 hPa 0,0 mm 0,7 km/h (0 Bft) O-NO 70 ° 0 min 0,000 mm 0,0 UV-I 0 W/m² 1,0 °C 1,7 °C 1,6 km/h (1 Bft)
28.10.2018 18:49 1,7 °C 95 % 1004,2 hPa 0,0 mm 1,7 km/h (1 Bft) O-NO 69 ° 0 min 0,000 mm 0,0 UV-I 0 W/m² 1,0 °C 1,7 °C 4,8 km/h (1 Bft)
28.10.2018 18:50 1,7 °C 95 % 1004,2 hPa 0,0 mm 3,6 km/h (1 Bft) O-NO 69 ° 0 min 0,000 mm 0,0 UV-I 0 W/m² 1,0 °C 1,7 °C 4,8 km/h (1 Bft)
28.10.2018 18:51 1,7 °C 95 % 1004,2 hPa 0,0 mm 3,6 km/h (1 Bft) O-NO 64 ° 0 min 0,000 mm 0,0 UV-I 0 W/m² 1,0 °C 1,7 °C 6,4 km/h (2 Bft)
28.10.2018 18:52 1,7 °C 95 % 1004,2 hPa 0,0 mm 3,4 km/h (1 Bft) O-NO 63 ° 0 min 0,000 mm 0,0 UV-I 0 W/m² 1,0 °C 1,7 °C 4,8 km/h (1 Bft)
28.10.2018 18:53 1,7 °C 95 % 1004,2 hPa 0,0 mm 3,3 km/h (1 Bft) O-NO 69 ° 0 min 0,000 mm 0,0 UV-I 0 W/m² 1,0 °C 1,7 °C 4,8 km/h (1 Bft)
28.10.2018 18:54 1,7 °C 95 % 1004,1 hPa 0,0 mm 3,8 km/h (1 Bft) O-NO 59 ° 0 min 0,000 mm 0,0 UV-I 0 W/m² 1,0 °C 1,7 °C 6,4 km/h (2 Bft)
28.10.2018 18:55 1,7 °C 95 % 1004,1 hPa 0,0 mm 5,7 km/h (1 Bft) O-NO 63 ° 0 min 0,000 mm 0,0 UV-I 0 W/m² 1,0 °C 0,0 °C 8,0 km/h (2 Bft)
28.10.2018 18:56 1,7 °C 95 % 1004,1 hPa 0,0 mm 3,6 km/h (1 Bft) NO 49 ° 0 min 0,000 mm 0,0 UV-I 0 W/m² 1,0 °C 1,7 °C 6,4 km/h (2 Bft)
28.10.2018 18:57 1,7 °C 95 % 1004,1 hPa 0,0 mm 4,8 km/h (1 Bft) NO 51 ° 0 min 0,000 mm 0,0 UV-I 0 W/m² 1,0 °C 0,4 °C 6,4 km/h (2 Bft)
28.10.2018 18:58 1,7 °C 95 % 1004,1 hPa 0,0 mm 1,2 km/h (1 Bft) NO 51 ° 0 min 0,000 mm 0,0 UV-I 0 W/m² 1,0 °C 1,7 °C 3,2 km/h (1 Bft)
28.10.2018 18:59 1,7 °C 95 % 1004,2 hPa 0,0 mm 0,7 km/h (0 Bft) NO 51 ° 0 min 0,000 mm 0,0 UV-I 0 W/m² 1,0 °C 1,7 °C 3,2 km/h (1 Bft)
28.10.2018 19:00 1,7 °C 95 % 1004,3 hPa 0,0 mm 1,3 km/h (1 Bft) NO 56 ° 0 min 0,000 mm 0,0 UV-I 0 W/m² 1,0 °C 1,7 °C 3,2 km/h (1 Bft)
28.10.2018 19:01 1,7 °C 95 % 1004,4 hPa 0,0 mm 3,4 km/h (1 Bft) O-SO 111 ° 0 min 0,000 mm 0,0 UV-I 0 W/m² 1,0 °C 1,7 °C 6,4 km/h (2 Bft)
28.10.2018 19:02 1,7 °C 95 % 1004,3 hPa 0,0 mm 2,7 km/h (1 Bft) O-NO 72 ° 0 min 0,000 mm 0,0 UV-I 0 W/m² 1,0 °C 1,7 °C 4,8 km/h (1 Bft)
28.10.2018 19:03 1,7 °C 95 % 1004,3 hPa 0,0 mm 0,8 km/h (0 Bft) O-NO 72 ° 0 min 0,000 mm 0,0 UV-I 0 W/m² 1,0 °C 1,7 °C 1,6 km/h (1 Bft)
28.10.2018 19:04 1,7 °C 95 % 1004,3 hPa 0,0 mm 3,0 km/h (1 Bft) O 88 ° 0 min 0,000 mm 0,0 UV-I 0 W/m² 1,0 °C 1,7 °C 4,8 km/h (1 Bft)
28.10.2018 19:05 1,7 °C 95 % 1004,2 hPa 0,0 mm 2,7 km/h (1 Bft) NO 49 ° 0 min 0,000 mm 0,0 UV-I 0 W/m² 1,0 °C 1,7 °C 6,4 km/h (2 Bft)
28.10.2018 19:06 1,7 °C 95 % 1004,2 hPa 0,0 mm 3,6 km/h (1 Bft) NO 49 ° 0 min 0,000 mm 0,0 UV-I 0 W/m² 1,0 °C 1,7 °C 4,8 km/h (1 Bft)
28.10.2018 19:07 1,7 °C 95 % 1004,2 hPa 0,0 mm 2,5 km/h (1 Bft) NO 49 ° 0 min 0,000 mm 0,0 UV-I 0 W/m² 1,0 °C 1,7 °C 4,8 km/h (1 Bft)
28.10.2018 19:08 1,7 °C 95 % 1004,2 hPa 0,0 mm 2,3 km/h (1 Bft) NO 49 ° 0 min 0,000 mm 0,0 UV-I 0 W/m² 1,0 °C 1,7 °C 4,8 km/h (1 Bft)
28.10.2018 19:09 1,7 °C 95 % 1004,2 hPa 0,0 mm 1,5 km/h (1 Bft) NO 50 ° 0 min 0,000 mm 0,0 UV-I 0 W/m² 1,0 °C 1,7 °C 3,2 km/h (1 Bft)
28.10.2018 19:10 1,7 °C 95 % 1004,2 hPa 0,0 mm 0,1 km/h (0 Bft) NO 50 ° 0 min 0,000 mm 0,0 UV-I 0 W/m² 1,0 °C 1,7 °C 1,6 km/h (1 Bft)
28.10.2018 19:11 1,7 °C 95 % 1004,3 hPa 0,0 mm 0,8 km/h (0 Bft) NO 49 ° 0 min 0,000 mm 0,0 UV-I 0 W/m² 1,0 °C 1,7 °C 3,2 km/h (1 Bft)
28.10.2018 19:12 1,7 °C 95 % 1004,3 hPa 0,0 mm 0,0 km/h (0 Bft) NO 49 ° 0 min 0,000 mm 0,0 UV-I 0 W/m² 1,0 °C 1,7 °C 0,0 km/h (0 Bft)
28.10.2018 19:13 1,7 °C 95 % 1004,4 hPa 0,0 mm 0,2 km/h (0 Bft) NO 49 ° 0 min 0,000 mm 0,0 UV-I 0 W/m² 1,0 °C 1,7 °C 1,6 km/h (1 Bft)
28.10.2018 19:14 1,7 °C 95 % 1004,4 hPa 0,0 mm 0,5 km/h (0 Bft) NO 49 ° 0 min 0,000 mm 0,0 UV-I 0 W/m² 1,0 °C 1,7 °C 1,6 km/h (1 Bft)
28.10.2018 19:15 1,7 °C 95 % 1004,3 hPa 0,0 mm 0,9 km/h (0 Bft) NO 49 ° 0 min 0,000 mm 0,0 UV-I 0 W/m² 1,0 °C 1,7 °C 3,2 km/h (1 Bft)
28.10.2018 19:16 1,7 °C 95 % 1004,3 hPa 0,0 mm 2,1 km/h (1 Bft) NO 49 ° 0 min 0,000 mm 0,0 UV-I 0 W/m² 1,0 °C 1,7 °C 4,8 km/h (1 Bft)
28.10.2018 19:17 1,7 °C 95 % 1004,4 hPa 0,0 mm 1,0 km/h (0 Bft) NO 49 ° 0 min 0,000 mm 0,0 UV-I 0 W/m² 1,0 °C 1,7 °C 3,2 km/h (1 Bft)
28.10.2018 19:18 1,7 °C 95 % 1004,4 hPa 0,0 mm 2,7 km/h (1 Bft) NO 49 ° 0 min 0,000 mm 0,0 UV-I 0 W/m² 1,0 °C 1,7 °C 4,8 km/h (1 Bft)
28.10.2018 19:19 1,7 °C 95 % 1004,3 hPa 0,0 mm 1,9 km/h (1 Bft) NO 49 ° 0 min 0,000 mm 0,0 UV-I 0 W/m² 1,0 °C 1,7 °C 4,8 km/h (1 Bft)
28.10.2018 19:20 1,7 °C 95 % 1004,3 hPa 0,0 mm 0,7 km/h (0 Bft) O-NO 65 ° 0 min 0,000 mm 0,0 UV-I 0 W/m² 1,0 °C 1,7 °C 4,8 km/h (1 Bft)
28.10.2018 19:21 1,7 °C 95 % 1004,3 hPa 0,0 mm 3,4 km/h (1 Bft) NO 43 ° 0 min 0,000 mm 0,0 UV-I 0 W/m² 1,0 °C 1,7 °C 4,8 km/h (1 Bft)
28.10.2018 19:22 1,7 °C 95 % 1004,3 hPa 0,0 mm 3,7 km/h (1 Bft) O 92 ° 0 min 0,000 mm 0,0 UV-I 0 W/m² 1,0 °C 1,7 °C 6,4 km/h (2 Bft)
28.10.2018 19:23 1,7 °C 95 % 1004,3 hPa 0,0 mm 4,7 km/h (1 Bft) O-NO 64 ° 0 min 0,000 mm 0,0 UV-I 0 W/m² 1,0 °C 0,5 °C 6,4 km/h (2 Bft)
28.10.2018 19:24 1,6 °C 95 % 1004,3 hPa 0,0 mm 2,5 km/h (1 Bft) O-NO 64 ° 0 min 0,000 mm 0,0 UV-I 0 W/m² 0,9 °C 1,6 °C 3,2 km/h (1 Bft)
28.10.2018 19:25 1,6 °C 95 % 1004,4 hPa 0,0 mm 1,4 km/h (1 Bft) O-NO 64 ° 0 min 0,000 mm 0,0 UV-I 0 W/m² 0,9 °C 1,6 °C 4,8 km/h (1 Bft)
28.10.2018 19:26 1,6 °C 95 % 1004,4 hPa 0,2 mm 3,0 km/h (1 Bft) O-NO 64 ° 0 min 0,000 mm 0,0 UV-I 0 W/m² 0,9 °C 1,6 °C 4,8 km/h (1 Bft)
28.10.2018 19:27 1,6 °C 95 % 1004,4 hPa 0,0 mm 2,5 km/h (1 Bft) O-NO 65 ° 0 min 0,000 mm 0,0 UV-I 0 W/m² 0,9 °C 1,6 °C 4,8 km/h (1 Bft)
28.10.2018 19:28 1,6 °C 95 % 1004,4 hPa 0,0 mm 1,6 km/h (1 Bft) O-NO 65 ° 0 min 0,000 mm 0,0 UV-I 0 W/m² 0,9 °C 1,6 °C 3,2 km/h (1 Bft)
28.10.2018 19:29 1,6 °C 95 % 1004,4 hPa 0,0 mm 0,9 km/h (0 Bft) O-NO 65 ° 0 min 0,000 mm 0,0 UV-I 0 W/m² 0,9 °C 1,6 °C 3,2 km/h (1 Bft)
28.10.2018 19:30 1,6 °C 95 % 1004,4 hPa 0,0 mm 1,1 km/h (1 Bft) O-NO 65 ° 0 min 0,000 mm 0,0 UV-I 0 W/m² 0,9 °C 1,6 °C 3,2 km/h (1 Bft)
28.10.2018 19:31 1,6 °C 95 % 1004,4 hPa 0,0 mm 1,0 km/h (0 Bft) O-NO 65 ° 0 min 0,000 mm 0,0 UV-I 0 W/m² 0,9 °C 1,6 °C 3,2 km/h (1 Bft)
28.10.2018 19:32 1,6 °C 95 % 1004,4 hPa 0,0 mm 3,2 km/h (1 Bft) O-NO 65 ° 0 min 0,000 mm 0,0 UV-I 0 W/m² 0,9 °C 1,6 °C 4,8 km/h (1 Bft)
28.10.2018 19:33 1,6 °C 95 % 1004,4 hPa 0,0 mm 3,1 km/h (1 Bft) O-NO 68 ° 0 min 0,000 mm 0,0 UV-I 0 W/m² 0,9 °C 1,6 °C 4,8 km/h (1 Bft)
28.10.2018 19:34 1,6 °C 95 % 1004,3 hPa 0,0 mm 2,4 km/h (1 Bft) O-NO 68 ° 0 min 0,000 mm 0,0 UV-I 0 W/m² 0,9 °C 1,6 °C 4,8 km/h (1 Bft)
28.10.2018 19:35 1,6 °C 95 % 1004,3 hPa 0,0 mm 1,5 km/h (1 Bft) O-NO 68 ° 0 min 0,000 mm 0,0 UV-I 0 W/m² 0,9 °C 1,6 °C 3,2 km/h (1 Bft)
28.10.2018 19:36 1,6 °C 95 % 1004,2 hPa 0,0 mm 0,9 km/h (0 Bft) O-NO 68 ° 0 min 0,000 mm 0,0 UV-I 0 W/m² 0,9 °C 1,6 °C 3,2 km/h (1 Bft)
28.10.2018 19:37 1,6 °C 95 % 1004,2 hPa 0,0 mm 2,6 km/h (1 Bft) O 92 ° 0 min 0,000 mm 0,0 UV-I 0 W/m² 0,9 °C 1,6 °C 6,4 km/h (2 Bft)
28.10.2018 19:38 1,6 °C 95 % 1004,2 hPa 0,0 mm 1,3 km/h (1 Bft) O 92 ° 0 min 0,000 mm 0,0 UV-I 0 W/m² 0,9 °C 1,6 °C 3,2 km/h (1 Bft)
28.10.2018 19:39 1,6 °C 95 % 1004,2 hPa 0,0 mm 1,7 km/h (1 Bft) O 92 ° 0 min 0,000 mm 0,0 UV-I 0 W/m² 0,9 °C 1,6 °C 3,2 km/h (1 Bft)
28.10.2018 19:40 1,6 °C 95 % 1004,1 hPa 0,0 mm 2,1 km/h (1 Bft) O 92 ° 0 min 0,000 mm 0,0 UV-I 0 W/m² 0,9 °C 1,6 °C 3,2 km/h (1 Bft)
28.10.2018 19:41 1,6 °C 95 % 1004,0 hPa 0,0 mm 4,9 km/h (1 Bft) O 91 ° 0 min 0,000 mm 0,0 UV-I 0 W/m² 0,9 °C 0,3 °C 6,4 km/h (2 Bft)
28.10.2018 19:42 1,6 °C 96 % 1003,9 hPa 0,0 mm 5,0 km/h (1 Bft) O-NO 61 ° 0 min 0,000 mm 0,0 UV-I 0 W/m² 1,0 °C 0,2 °C 6,4 km/h (2 Bft)
28.10.2018 19:43 1,6 °C 95 % 1003,9 hPa 0,0 mm 5,2 km/h (1 Bft) O-SO 108 ° 0 min 0,000 mm 0,0 UV-I 0 W/m² 0,9 °C 0,1 °C 8,0 km/h (2 Bft)
28.10.2018 19:44 1,6 °C 95 % 1003,9 hPa 0,0 mm 3,4 km/h (1 Bft) O-NO 77 ° 0 min 0,000 mm 0,0 UV-I 0 W/m² 0,9 °C 1,6 °C 6,4 km/h (2 Bft)
28.10.2018 19:45 1,6 °C 95 % 1003,8 hPa 0,0 mm 4,0 km/h (1 Bft) O-NO 63 ° 0 min 0,000 mm 0,0 UV-I 0 W/m² 0,9 °C 1,6 °C 6,4 km/h (2 Bft)
28.10.2018 19:46 1,6 °C 95 % 1003,9 hPa 0,0 mm 2,1 km/h (1 Bft) O-NO 64 ° 0 min 0,000 mm 0,0 UV-I 0 W/m² 0,9 °C 1,6 °C 6,4 km/h (2 Bft)
28.10.2018 19:47 1,6 °C 95 % 1004,1 hPa 0,0 mm 2,5 km/h (1 Bft) O-NO 64 ° 0 min 0,000 mm 0,0 UV-I 0 W/m² 0,9 °C 1,6 °C 4,8 km/h (1 Bft)
28.10.2018 19:48 1,6 °C 95 % 1004,2 hPa 0,0 mm 1,6 km/h (1 Bft) O-NO 64 ° 0 min 0,000 mm 0,0 UV-I 0 W/m² 0,9 °C 1,6 °C 3,2 km/h (1 Bft)
28.10.2018 19:49 1,6 °C 95 % 1004,3 hPa 0,0 mm 0,3 km/h (0 Bft) O-NO 64 ° 0 min 0,000 mm 0,0 UV-I 0 W/m² 0,9 °C 1,6 °C 1,6 km/h (1 Bft)
28.10.2018 19:50 1,6 °C 95 % 1004,3 hPa 0,0 mm 0,0 km/h (0 Bft) O-NO 64 ° 0 min 0,000 mm 0,0 UV-I 0 W/m² 0,9 °C 1,6 °C 0,0 km/h (0 Bft)
28.10.2018 19:51 1,6 °C 95 % 1004,2 hPa 0,0 mm 0,0 km/h (0 Bft) O-NO 64 ° 0 min 0,000 mm 0,0 UV-I 0 W/m² 0,9 °C 1,6 °C 0,0 km/h (0 Bft)
28.10.2018 19:52 1,6 °C 96 % 1004,2 hPa 0,0 mm 0,0 km/h (0 Bft) O-NO 64 ° 0 min 0,000 mm 0,0 UV-I 0 W/m² 1,0 °C 1,6 °C 0,0 km/h (0 Bft)
28.10.2018 19:53 1,6 °C 95 % 1004,0 hPa 0,0 mm 0,0 km/h (0 Bft) O-NO 64 ° 0 min 0,000 mm 0,0 UV-I 0 W/m² 0,9 °C 1,6 °C 0,0 km/h (0 Bft)
28.10.2018 19:54 1,6 °C 96 % 1004,0 hPa 0,0 mm 3,2 km/h (1 Bft) O-NO 64 ° 0 min 0,000 mm 0,0 UV-I 0 W/m² 1,0 °C 1,6 °C 6,4 km/h (2 Bft)
28.10.2018 19:55 1,6 °C 95 % 1003,9 hPa 0,0 mm 3,7 km/h (1 Bft) O-NO 78 ° 0 min 0,000 mm 0,0 UV-I 0 W/m² 0,9 °C 1,6 °C 4,8 km/h (1 Bft)
28.10.2018 19:56 1,6 °C 95 % 1003,9 hPa 0,0 mm 2,2 km/h (1 Bft) O-NO 78 ° 0 min 0,000 mm 0,0 UV-I 0 W/m² 0,9 °C 1,6 °C 3,2 km/h (1 Bft)
28.10.2018 19:57 1,6 °C 96 % 1003,9 hPa 0,0 mm 2,0 km/h (1 Bft) O-NO 78 ° 0 min 0,000 mm 0,0 UV-I 0 W/m² 1,0 °C 1,6 °C 3,2 km/h (1 Bft)
28.10.2018 19:58 1,6 °C 96 % 1003,9 hPa 0,0 mm 2,8 km/h (1 Bft) O-NO 78 ° 0 min 0,000 mm 0,0 UV-I 0 W/m² 1,0 °C 1,6 °C 4,8 km/h (1 Bft)
28.10.2018 19:59 1,6 °C 96 % 1003,8 hPa 0,0 mm 4,6 km/h (1 Bft) O 80 ° 0 min 0,000 mm 0,0 UV-I 0 W/m² 1,0 °C 0,4 °C 8,0 km/h (2 Bft)
28.10.2018 20:00 1,6 °C 96 % 1003,8 hPa 0,0 mm 4,7 km/h (1 Bft) O-NO 69 ° 0 min 0,000 mm 0,0 UV-I 0 W/m² 1,0 °C 0,4 °C 6,4 km/h (2 Bft)
28.10.2018 20:01 1,6 °C 96 % 1003,8 hPa 0,0 mm 2,7 km/h (1 Bft) O-NO 68 ° 0 min 0,000 mm 0,0 UV-I 0 W/m² 1,0 °C 1,6 °C 4,8 km/h (1 Bft)
28.10.2018 20:02 1,6 °C 96 % 1003,8 hPa 0,0 mm 3,0 km/h (1 Bft) O-NO 68 ° 0 min 0,000 mm 0,0 UV-I 0 W/m² 1,0 °C 1,6 °C 4,8 km/h (1 Bft)
28.10.2018 20:03 1,6 °C 96 % 1003,8 hPa 0,0 mm 6,4 km/h (2 Bft) O 98 ° 0 min 0,000 mm 0,0 UV-I 0 W/m² 1,0 °C -0,3 °C 9,7 km/h (2 Bft)
28.10.2018 20:04 1,6 °C 96 % 1003,8 hPa 0,0 mm 4,2 km/h (1 Bft) NO 43 ° 0 min 0,000 mm 0,0 UV-I 0 W/m² 1,0 °C 1,6 °C 9,7 km/h (2 Bft)
28.10.2018 20:05 1,6 °C 96 % 1003,7 hPa 0,0 mm 4,9 km/h (1 Bft) O-NO 68 ° 0 min 0,000 mm 0,0 UV-I 0 W/m² 1,0 °C 0,3 °C 6,4 km/h (2 Bft)
28.10.2018 20:06 1,7 °C 96 % 1003,7 hPa 0,0 mm 5,1 km/h (1 Bft) O 81 ° 0 min 0,000 mm 0,0 UV-I 0 W/m² 1,1 °C 0,3 °C 9,7 km/h (2 Bft)
28.10.2018 20:07 1,6 °C 96 % 1003,7 hPa 0,0 mm 3,8 km/h (1 Bft) O-NO 74 ° 0 min 0,000 mm 0,0 UV-I 0 W/m² 1,0 °C 1,6 °C 8,0 km/h (2 Bft)
28.10.2018 20:08 1,6 °C 96 % 1003,7 hPa 0,0 mm 5,3 km/h (1 Bft) O 89 ° 0 min 0,000 mm 0,0 UV-I 0 W/m² 1,0 °C 0,1 °C 6,4 km/h (2 Bft)
28.10.2018 20:09 1,6 °C 96 % 1003,7 hPa 0,0 mm 4,0 km/h (1 Bft) O-NO 74 ° 0 min 0,000 mm 0,0 UV-I 0 W/m² 1,0 °C 1,6 °C 6,4 km/h (2 Bft)
28.10.2018 20:10 1,6 °C 96 % 1003,7 hPa 0,0 mm 4,1 km/h (1 Bft) O-NO 60 ° 0 min 0,000 mm 0,0 UV-I 0 W/m² 1,0 °C 1,6 °C 6,4 km/h (2 Bft)
28.10.2018 20:11 1,6 °C 96 % 1003,6 hPa 0,0 mm 2,8 km/h (1 Bft) O-NO 68 ° 0 min 0,000 mm 0,0 UV-I 0 W/m² 1,0 °C 1,6 °C 4,8 km/h (1 Bft)
28.10.2018 20:12 1,6 °C 96 % 1003,6 hPa 0,0 mm 4,1 km/h (1 Bft) NO 55 ° 0 min 0,000 mm 0,0 UV-I 0 W/m² 1,0 °C 1,6 °C 6,4 km/h (2 Bft)
28.10.2018 20:13 1,6 °C 96 % 1003,6 hPa 0,0 mm 3,8 km/h (1 Bft) O-NO 59 ° 0 min 0,000 mm 0,0 UV-I 0 W/m² 1,0 °C 1,6 °C 6,4 km/h (2 Bft)
28.10.2018 20:14 1,6 °C 96 % 1003,6 hPa 0,0 mm 2,8 km/h (1 Bft) O-NO 59 ° 0 min 0,000 mm 0,0 UV-I 0 W/m² 1,0 °C 1,6 °C 6,4 km/h (2 Bft)
28.10.2018 20:15 1,6 °C 96 % 1003,7 hPa 0,0 mm 1,4 km/h (1 Bft) O-NO 59 ° 0 min 0,000 mm 0,0 UV-I 0 W/m² 1,0 °C 1,6 °C 3,2 km/h (1 Bft)
28.10.2018 20:16 1,6 °C 96 % 1003,7 hPa 0,0 mm 1,6 km/h (1 Bft) NO 45 ° 0 min 0,000 mm 0,0 UV-I 0 W/m² 1,0 °C 1,6 °C 4,8 km/h (1 Bft)
28.10.2018 20:17 1,6 °C 96 % 1003,7 hPa 0,0 mm 4,9 km/h (1 Bft) O 83 ° 0 min 0,000 mm 0,0 UV-I 0 W/m² 1,0 °C 0,3 °C 6,4 km/h (2 Bft)
28.10.2018 20:18 1,6 °C 96 % 1003,7 hPa 0,0 mm 4,3 km/h (1 Bft) O-NO 78 ° 0 min 0,000 mm 0,0 UV-I 0 W/m² 1,0 °C 1,6 °C 6,4 km/h (2 Bft)
28.10.2018 20:19 1,6 °C 96 % 1003,6 hPa 0,0 mm 4,4 km/h (1 Bft) NO 51 ° 0 min 0,000 mm 0,0 UV-I 0 W/m² 1,0 °C 1,6 °C 8,0 km/h (2 Bft)
28.10.2018 20:20 1,6 °C 96 % 1003,6 hPa 0,0 mm 5,0 km/h (1 Bft) NO 49 ° 0 min 0,000 mm 0,0 UV-I 0 W/m² 1,0 °C 0,2 °C 9,7 km/h (2 Bft)
28.10.2018 20:21 1,6 °C 96 % 1003,6 hPa 0,0 mm 4,6 km/h (1 Bft) O-NO 76 ° 0 min 0,000 mm 0,0 UV-I 0 W/m² 1,0 °C 0,4 °C 6,4 km/h (2 Bft)
28.10.2018 20:22 1,6 °C 96 % 1003,6 hPa 0,0 mm 4,6 km/h (1 Bft) O-NO 62 ° 0 min 0,000 mm 0,0 UV-I 0 W/m² 1,0 °C 0,4 °C 6,4 km/h (2 Bft)
28.10.2018 20:23 1,6 °C 96 % 1003,6 hPa 0,0 mm 5,4 km/h (1 Bft) NO 55 ° 0 min 0,000 mm 0,0 UV-I 0 W/m² 1,0 °C 0,1 °C 9,7 km/h (2 Bft)
28.10.2018 20:24 1,6 °C 96 % 1003,5 hPa 0,0 mm 6,1 km/h (2 Bft) O 94 ° 0 min 0,000 mm 0,0 UV-I 0 W/m² 1,0 °C -0,2 °C 8,0 km/h (2 Bft)
28.10.2018 20:25 1,6 °C 96 % 1003,5 hPa 0,0 mm 4,7 km/h (1 Bft) O-NO 57 ° 0 min 0,000 mm 0,0 UV-I 0 W/m² 1,0 °C 0,4 °C 6,4 km/h (2 Bft)
28.10.2018 20:26 1,6 °C 96 % 1003,5 hPa 0,0 mm 6,4 km/h (2 Bft) NO 48 ° 0 min 0,000 mm 0,0 UV-I 0 W/m² 1,0 °C -0,3 °C 9,7 km/h (2 Bft)
28.10.2018 20:27 1,6 °C 96 % 1003,4 hPa 0,0 mm 5,5 km/h (1 Bft) O 83 ° 0 min 0,000 mm 0,0 UV-I 0 W/m² 1,0 °C 0,0 °C 8,0 km/h (2 Bft)
28.10.2018 20:28 1,6 °C 96 % 1003,4 hPa 0,0 mm 5,6 km/h (1 Bft) O-NO 69 ° 0 min 0,000 mm 0,0 UV-I 0 W/m² 1,0 °C -0,0 °C 11,3 km/h (2 Bft)
28.10.2018 20:29 1,6 °C 96 % 1003,4 hPa 0,0 mm 5,3 km/h (1 Bft) NO 51 ° 0 min 0,000 mm 0,0 UV-I 0 W/m² 1,0 °C 0,1 °C 9,7 km/h (2 Bft)
28.10.2018 20:30 1,6 °C 96 % 1003,4 hPa 0,0 mm 4,4 km/h (1 Bft) NO 49 ° 0 min 0,000 mm 0,0 UV-I 0 W/m² 1,0 °C 1,6 °C 8,0 km/h (2 Bft)
28.10.2018 20:31 1,6 °C 96 % 1003,4 hPa 0,0 mm 6,4 km/h (2 Bft) O-NO 65 ° 0 min 0,000 mm 0,0 UV-I 0 W/m² 1,0 °C -0,3 °C 9,7 km/h (2 Bft)
28.10.2018 20:32 1,6 °C 96 % 1003,4 hPa 0,0 mm 6,8 km/h (2 Bft) O-NO 67 ° 0 min 0,000 mm 0,0 UV-I 0 W/m² 1,0 °C -0,5 °C 8,0 km/h (2 Bft)
28.10.2018 20:33 1,6 °C 96 % 1003,3 hPa 0,0 mm 4,7 km/h (1 Bft) O-NO 71 ° 0 min 0,000 mm 0,0 UV-I 0 W/m² 1,0 °C 0,4 °C 6,4 km/h (2 Bft)
28.10.2018 20:34 1,6 °C 96 % 1003,3 hPa 0,0 mm 5,0 km/h (1 Bft) O-NO 77 ° 0 min 0,000 mm 0,0 UV-I 0 W/m² 1,0 °C 0,2 °C 8,0 km/h (2 Bft)
28.10.2018 20:35 1,6 °C 96 % 1003,4 hPa 0,0 mm 3,7 km/h (1 Bft) O 82 ° 0 min 0,000 mm 0,0 UV-I 0 W/m² 1,0 °C 1,6 °C 6,4 km/h (2 Bft)
28.10.2018 20:36 1,6 °C 96 % 1003,4 hPa 0,0 mm 2,6 km/h (1 Bft) O 90 ° 0 min 0,000 mm 0,0 UV-I 0 W/m² 1,0 °C 1,6 °C 4,8 km/h (1 Bft)
28.10.2018 20:37 1,6 °C 96 % 1003,4 hPa 0,0 mm 2,6 km/h (1 Bft) O-NO 76 ° 0 min 0,000 mm 0,0 UV-I 0 W/m² 1,0 °C 1,6 °C 4,8 km/h (1 Bft)
28.10.2018 20:38 1,6 °C 96 % 1003,4 hPa 0,0 mm 1,0 km/h (0 Bft) O-NO 76 ° 0 min 0,000 mm 0,0 UV-I 0 W/m² 1,0 °C 1,6 °C 3,2 km/h (1 Bft)
28.10.2018 20:39 1,6 °C 96 % 1003,4 hPa 0,0 mm 3,1 km/h (1 Bft) O 88 ° 0 min 0,000 mm 0,0 UV-I 0 W/m² 1,0 °C 1,6 °C 4,8 km/h (1 Bft)
28.10.2018 20:40 1,6 °C 96 % 1003,5 hPa 0,0 mm 4,3 km/h (1 Bft) NO 52 ° 0 min 0,000 mm 0,0 UV-I 0 W/m² 1,0 °C 1,6 °C 6,4 km/h (2 Bft)
28.10.2018 20:41 1,6 °C 96 % 1003,5 hPa 0,0 mm 3,3 km/h (1 Bft) O 86 ° 0 min 0,000 mm 0,0 UV-I 0 W/m² 1,0 °C 1,6 °C 4,8 km/h (1 Bft)
28.10.2018 20:42 1,6 °C 96 % 1003,5 hPa 0,0 mm 3,0 km/h (1 Bft) O 101 ° 0 min 0,000 mm 0,0 UV-I 0 W/m² 1,0 °C 1,6 °C 6,4 km/h (2 Bft)
28.10.2018 20:43 1,6 °C 96 % 1003,4 hPa 0,0 mm 1,1 km/h (1 Bft) O 101 ° 0 min 0,000 mm 0,0 UV-I 0 W/m² 1,0 °C 1,6 °C 4,8 km/h (1 Bft)
28.10.2018 20:44 1,6 °C 96 % 1003,4 hPa 0,0 mm 1,3 km/h (1 Bft) O-NO 65 ° 0 min 0,000 mm 0,0 UV-I 0 W/m² 1,0 °C 1,6 °C 3,2 km/h (1 Bft)
28.10.2018 20:45 1,6 °C 96 % 1003,4 hPa 0,0 mm 1,1 km/h (1 Bft) O-NO 65 ° 0 min 0,000 mm 0,0 UV-I 0 W/m² 1,0 °C 1,6 °C 3,2 km/h (1 Bft)
28.10.2018 20:46 1,6 °C 96 % 1003,4 hPa 0,0 mm 2,8 km/h (1 Bft) O-NO 57 ° 0 min 0,000 mm 0,0 UV-I 0 W/m² 1,0 °C 1,6 °C 6,4 km/h (2 Bft)
28.10.2018 20:47 1,7 °C 96 % 1003,4 hPa 0,0 mm 5,6 km/h (1 Bft) NO 34 ° 0 min 0,000 mm 0,0 UV-I 0 W/m² 1,1 °C 0,1 °C 8,0 km/h (2 Bft)
28.10.2018 20:48 1,7 °C 96 % 1003,4 hPa 0,0 mm 5,5 km/h (1 Bft) NO 55 ° 0 min 0,000 mm 0,0 UV-I 0 W/m² 1,1 °C 0,1 °C 8,0 km/h (2 Bft)
28.10.2018 20:49 1,6 °C 96 % 1003,3 hPa 0,0 mm 5,3 km/h (1 Bft) O 97 ° 0 min 0,000 mm 0,0 UV-I 0 W/m² 1,0 °C 0,1 °C 8,0 km/h (2 Bft)
28.10.2018 20:50 1,7 °C 96 % 1003,4 hPa 0,0 mm 5,1 km/h (1 Bft) O-NO 65 ° 0 min 0,000 mm 0,0 UV-I 0 W/m² 1,1 °C 0,3 °C 6,4 km/h (2 Bft)
28.10.2018 20:51 1,7 °C 96 % 1003,3 hPa 0,0 mm 3,8 km/h (1 Bft) O-NO 65 ° 0 min 0,000 mm 0,0 UV-I 0 W/m² 1,1 °C 1,7 °C 4,8 km/h (1 Bft)
28.10.2018 20:52 1,7 °C 96 % 1003,4 hPa 0,0 mm 1,7 km/h (1 Bft) O-SO 121 ° 0 min 0,000 mm 0,0 UV-I 0 W/m² 1,1 °C 1,7 °C 4,8 km/h (1 Bft)
28.10.2018 20:53 1,6 °C 96 % 1003,4 hPa 0,0 mm 3,2 km/h (1 Bft) NO 55 ° 0 min 0,000 mm 0,0 UV-I 0 W/m² 1,0 °C 1,6 °C 4,8 km/h (1 Bft)
28.10.2018 20:54 1,6 °C 96 % 1003,4 hPa 0,0 mm 4,3 km/h (1 Bft) O-NO 76 ° 0 min 0,000 mm 0,0 UV-I 0 W/m² 1,0 °C 1,6 °C 6,4 km/h (2 Bft)
28.10.2018 20:55 1,7 °C 96 % 1003,4 hPa 0,0 mm 2,9 km/h (1 Bft) NO 53 ° 0 min 0,000 mm 0,0 UV-I 0 W/m² 1,1 °C 1,7 °C 4,8 km/h (1 Bft)
28.10.2018 20:56 1,6 °C 96 % 1003,4 hPa 0,0 mm 3,2 km/h (1 Bft) NO 53 ° 0 min 0,000 mm 0,0 UV-I 0 W/m² 1,0 °C 1,6 °C 4,8 km/h (1 Bft)
28.10.2018 20:57 1,6 °C 96 % 1003,3 hPa 0,0 mm 4,8 km/h (1 Bft) O-NO 74 ° 0 min 0,000 mm 0,0 UV-I 0 W/m² 1,0 °C 0,3 °C 6,4 km/h (2 Bft)
28.10.2018 20:58 1,7 °C 96 % 1003,3 hPa 0,0 mm 5,6 km/h (1 Bft) O-NO 67 ° 0 min 0,000 mm 0,0 UV-I 0 W/m² 1,1 °C 0,1 °C 8,0 km/h (2 Bft)
28.10.2018 20:59 1,7 °C 96 % 1003,2 hPa 0,0 mm 5,6 km/h (1 Bft) O-NO 73 ° 0 min 0,000 mm 0,0 UV-I 0 W/m² 1,1 °C 0,1 °C 6,4 km/h (2 Bft)
28.10.2018 21:00 1,7 °C 96 % 1003,1 hPa 0,0 mm 4,0 km/h (1 Bft) O-NO 61 ° 0 min 0,000 mm 0,0 UV-I 0 W/m² 1,1 °C 1,7 °C 6,4 km/h (2 Bft)
28.10.2018 21:01 1,7 °C 96 % 1003,1 hPa 0,0 mm 4,2 km/h (1 Bft) O-NO 61 ° 0 min 0,000 mm 0,0 UV-I 0 W/m² 1,1 °C 1,7 °C 6,4 km/h (2 Bft)
28.10.2018 21:02 1,7 °C 96 % 1003,1 hPa 0,0 mm 1,4 km/h (1 Bft) O-NO 61 ° 0 min 0,000 mm 0,0 UV-I 0 W/m² 1,1 °C 1,7 °C 3,2 km/h (1 Bft)
28.10.2018 21:03 1,7 °C 96 % 1003,1 hPa 0,0 mm 4,1 km/h (1 Bft) O-NO 69 ° 0 min 0,000 mm 0,0 UV-I 0 W/m² 1,1 °C 1,7 °C 6,4 km/h (2 Bft)
28.10.2018 21:04 1,7 °C 96 % 1003,1 hPa 0,0 mm 4,7 km/h (1 Bft) NO 46 ° 0 min 0,000 mm 0,0 UV-I 0 W/m² 1,1 °C 0,5 °C 6,4 km/h (2 Bft)
28.10.2018 21:05 1,7 °C 96 % 1003,1 hPa 0,0 mm 1,9 km/h (1 Bft) O 85 ° 0 min 0,000 mm 0,0 UV-I 0 W/m² 1,1 °C 1,7 °C 4,8 km/h (1 Bft)
28.10.2018 21:06 1,7 °C 96 % 1003,0 hPa 0,0 mm 2,5 km/h (1 Bft) O 84 ° 0 min 0,000 mm 0,0 UV-I 0 W/m² 1,1 °C 1,7 °C 4,8 km/h (1 Bft)
28.10.2018 21:07 1,7 °C 96 % 1003,1 hPa 0,0 mm 2,5 km/h (1 Bft) O 81 ° 0 min 0,000 mm 0,0 UV-I 0 W/m² 1,1 °C 1,7 °C 6,4 km/h (2 Bft)
28.10.2018 21:08 1,7 °C 96 % 1003,1 hPa 0,0 mm 3,6 km/h (1 Bft) O-NO 70 ° 0 min 0,000 mm 0,0 UV-I 0 W/m² 1,1 °C 1,7 °C 4,8 km/h (1 Bft)
28.10.2018 21:09 1,7 °C 96 % 1003,1 hPa 0,0 mm 3,8 km/h (1 Bft) NO 49 ° 0 min 0,000 mm 0,0 UV-I 0 W/m² 1,1 °C 1,7 °C 4,8 km/h (1 Bft)
28.10.2018 21:10 1,7 °C 96 % 1003,1 hPa 0,0 mm 3,8 km/h (1 Bft) O-NO 71 ° 0 min 0,000 mm 0,0 UV-I 0 W/m² 1,1 °C 1,7 °C 4,8 km/h (1 Bft)
28.10.2018 21:11 1,7 °C 96 % 1003,1 hPa 0,0 mm 2,5 km/h (1 Bft) O-NO 72 ° 0 min 0,000 mm 0,0 UV-I 0 W/m² 1,1 °C 1,7 °C 4,8 km/h (1 Bft)
28.10.2018 21:12 1,7 °C 96 % 1003,1 hPa 0,0 mm 3,9 km/h (1 Bft) O-NO 57 ° 0 min 0,000 mm 0,0 UV-I 0 W/m² 1,1 °C 1,7 °C 8,0 km/h (2 Bft)
28.10.2018 21:13 1,7 °C 96 % 1003,2 hPa 0,0 mm 3,4 km/h (1 Bft) NO 34 ° 0 min 0,000 mm 0,0 UV-I 0 W/m² 1,1 °C 1,7 °C 6,4 km/h (2 Bft)
28.10.2018 21:14 1,7 °C 96 % 1003,2 hPa 0,0 mm 4,0 km/h (1 Bft) O-NO 70 ° 0 min 0,000 mm 0,0 UV-I 0 W/m² 1,1 °C 1,7 °C 4,8 km/h (1 Bft)
28.10.2018 21:15 1,7 °C 96 % 1003,2 hPa 0,0 mm 4,6 km/h (1 Bft) O-NO 57 ° 0 min 0,000 mm 0,0 UV-I 0 W/m² 1,1 °C 0,5 °C 6,4 km/h (2 Bft)
28.10.2018 21:16 1,7 °C 96 % 1003,2 hPa 0,0 mm 3,7 km/h (1 Bft) NO 55 ° 0 min 0,000 mm 0,0 UV-I 0 W/m² 1,1 °C 1,7 °C 4,8 km/h (1 Bft)
28.10.2018 21:17 1,7 °C 96 % 1003,1 hPa 0,0 mm 0,3 km/h (0 Bft) NO 55 ° 0 min 0,000 mm 0,0 UV-I 0 W/m² 1,1 °C 1,7 °C 1,6 km/h (1 Bft)
28.10.2018 21:18 1,7 °C 96 % 1003,3 hPa 0,0 mm 0,5 km/h (0 Bft) NO 55 ° 0 min 0,000 mm 0,0 UV-I 0 W/m² 1,1 °C 1,7 °C 3,2 km/h (1 Bft)
28.10.2018 21:19 1,7 °C 96 % 1003,3 hPa 0,0 mm 6,2 km/h (2 Bft) O 86 ° 0 min 0,000 mm 0,0 UV-I 0 W/m² 1,1 °C -0,1 °C 8,0 km/h (2 Bft)
28.10.2018 21:20 1,7 °C 96 % 1003,3 hPa 0,0 mm 3,6 km/h (1 Bft) O 85 ° 0 min 0,000 mm 0,0 UV-I 0 W/m² 1,1 °C 1,7 °C 4,8 km/h (1 Bft)
28.10.2018 21:21 1,7 °C 96 % 1003,3 hPa 0,0 mm 0,9 km/h (0 Bft) O 85 ° 0 min 0,000 mm 0,0 UV-I 0 W/m² 1,1 °C 1,7 °C 3,2 km/h (1 Bft)
28.10.2018 21:22 1,7 °C 96 % 1003,3 hPa 0,0 mm 1,1 km/h (1 Bft) O-SO 103 ° 0 min 0,000 mm 0,0 UV-I 0 W/m² 1,1 °C 1,7 °C 6,4 km/h (2 Bft)
28.10.2018 21:23 1,7 °C 96 % 1003,3 hPa 0,0 mm 2,8 km/h (1 Bft) N-NO 13 ° 0 min 0,000 mm 0,0 UV-I 0 W/m² 1,1 °C 1,7 °C 4,8 km/h (1 Bft)
28.10.2018 21:24 1,7 °C 96 % 1003,3 hPa 0,0 mm 1,3 km/h (1 Bft) N-NO 14 ° 0 min 0,000 mm 0,0 UV-I 0 W/m² 1,1 °C 1,7 °C 3,2 km/h (1 Bft)
28.10.2018 21:25 1,7 °C 96 % 1003,3 hPa 0,0 mm 5,2 km/h (1 Bft) O 84 ° 0 min 0,000 mm 0,0 UV-I 0 W/m² 1,1 °C 0,3 °C 9,7 km/h (2 Bft)
28.10.2018 21:26 1,7 °C 96 % 1003,3 hPa 0,0 mm 4,7 km/h (1 Bft) NO 50 ° 0 min 0,000 mm 0,0 UV-I 0 W/m² 1,1 °C 0,5 °C 6,4 km/h (2 Bft)
28.10.2018 21:27 1,8 °C 96 % 1003,2 hPa 0,0 mm 3,3 km/h (1 Bft) O-NO 67 ° 0 min 0,000 mm 0,0 UV-I 0 W/m² 1,2 °C 1,8 °C 4,8 km/h (1 Bft)
28.10.2018 21:28 1,8 °C 96 % 1003,2 hPa 0,0 mm 3,6 km/h (1 Bft) O 86 ° 0 min 0,000 mm 0,0 UV-I 0 W/m² 1,2 °C 1,8 °C 6,4 km/h (2 Bft)
28.10.2018 21:29 1,8 °C 96 % 1003,2 hPa 0,0 mm 1,5 km/h (1 Bft) O 86 ° 0 min 0,000 mm 0,0 UV-I 0 W/m² 1,2 °C 1,8 °C 3,2 km/h (1 Bft)
28.10.2018 21:30 1,7 °C 96 % 1003,2 hPa 0,0 mm 3,8 km/h (1 Bft) NO 44 ° 0 min 0,000 mm 0,0 UV-I 0 W/m² 1,1 °C 1,7 °C 8,0 km/h (2 Bft)
28.10.2018 21:31 1,8 °C 96 % 1003,3 hPa 0,0 mm 3,9 km/h (1 Bft) NO 39 ° 0 min 0,000 mm 0,0 UV-I 0 W/m² 1,2 °C 1,8 °C 4,8 km/h (1 Bft)
28.10.2018 21:32 1,8 °C 96 % 1003,3 hPa 0,0 mm 0,6 km/h (0 Bft) NO 39 ° 0 min 0,000 mm 0,0 UV-I 0 W/m² 1,2 °C 1,8 °C 1,6 km/h (1 Bft)
28.10.2018 21:33 1,8 °C 96 % 1003,4 hPa 0,0 mm 0,9 km/h (0 Bft) O-NO 59 ° 0 min 0,000 mm 0,0 UV-I 0 W/m² 1,2 °C 1,8 °C 3,2 km/h (1 Bft)
28.10.2018 21:34 1,8 °C 96 % 1003,3 hPa 0,0 mm 1,7 km/h (1 Bft) O-NO 59 ° 0 min 0,000 mm 0,0 UV-I 0 W/m² 1,2 °C 1,8 °C 4,8 km/h (1 Bft)
28.10.2018 21:35 1,8 °C 96 % 1003,4 hPa 0,0 mm 0,5 km/h (0 Bft) O-NO 59 ° 0 min 0,000 mm 0,0 UV-I 0 W/m² 1,2 °C 1,8 °C 1,6 km/h (1 Bft)
28.10.2018 21:36 1,8 °C 96 % 1003,5 hPa 0,0 mm 0,5 km/h (0 Bft) O-NO 59 ° 0 min 0,000 mm 0,0 UV-I 0 W/m² 1,2 °C 1,8 °C 3,2 km/h (1 Bft)
28.10.2018 21:37 1,8 °C 96 % 1003,5 hPa 0,0 mm 1,1 km/h (1 Bft) O-NO 59 ° 0 min 0,000 mm 0,0 UV-I 0 W/m² 1,2 °C 1,8 °C 3,2 km/h (1 Bft)
28.10.2018 21:38 1,8 °C 96 % 1003,6 hPa 0,0 mm 2,5 km/h (1 Bft) O-NO 59 ° 0 min 0,000 mm 0,0 UV-I 0 W/m² 1,2 °C 1,8 °C 3,2 km/h (1 Bft)
28.10.2018 21:39 1,8 °C 96 % 1003,6 hPa 0,0 mm 0,0 km/h (0 Bft) O-NO 59 ° 0 min 0,000 mm 0,0 UV-I 0 W/m² 1,2 °C 1,8 °C 0,0 km/h (0 Bft)
28.10.2018 21:40 1,9 °C 96 % 1003,6 hPa 0,0 mm 0,0 km/h (0 Bft) O-NO 59 ° 0 min 0,000 mm 0,0 UV-I 0 W/m² 1,3 °C 1,9 °C 0,0 km/h (0 Bft)
28.10.2018 21:41 1,9 °C 96 % 1003,6 hPa 0,0 mm 1,8 km/h (1 Bft) NO 40 ° 0 min 0,000 mm 0,0 UV-I 0 W/m² 1,3 °C 1,9 °C 4,8 km/h (1 Bft)
28.10.2018 21:42 1,9 °C 96 % 1003,7 hPa 0,0 mm 4,3 km/h (1 Bft) NW 321 ° 0 min 0,000 mm 0,0 UV-I 0 W/m² 1,3 °C 1,9 °C 4,8 km/h (1 Bft)
28.10.2018 21:43 1,9 °C 96 % 1003,7 hPa 0,0 mm 3,7 km/h (1 Bft) NW 322 ° 0 min 0,000 mm 0,0 UV-I 0 W/m² 1,3 °C 1,9 °C 4,8 km/h (1 Bft)
28.10.2018 21:44 1,9 °C 96 % 1003,8 hPa 0,0 mm 2,3 km/h (1 Bft) NW 322 ° 0 min 0,000 mm 0,0 UV-I 0 W/m² 1,3 °C 1,9 °C 3,2 km/h (1 Bft)
28.10.2018 21:45 1,9 °C 96 % 1003,8 hPa 0,0 mm 1,4 km/h (1 Bft) NW 322 ° 0 min 0,000 mm 0,0 UV-I 0 W/m² 1,3 °C 1,9 °C 3,2 km/h (1 Bft)
28.10.2018 21:46 1,9 °C 96 % 1003,8 hPa 0,0 mm 1,8 km/h (1 Bft) NW 322 ° 0 min 0,000 mm 0,0 UV-I 0 W/m² 1,3 °C 1,9 °C 3,2 km/h (1 Bft)
28.10.2018 21:47 1,9 °C 96 % 1003,8 hPa 0,0 mm 2,1 km/h (1 Bft) NW 322 ° 0 min 0,000 mm 0,0 UV-I 0 W/m² 1,3 °C 1,9 °C 3,2 km/h (1 Bft)
28.10.2018 21:48 1,9 °C 96 % 1003,8 hPa 0,0 mm 2,6 km/h (1 Bft) NW 322 ° 0 min 0,000 mm 0,0 UV-I 0 W/m² 1,3 °C 1,9 °C 3,2 km/h (1 Bft)
28.10.2018 21:49 1,9 °C 96 % 1003,8 hPa 0,0 mm 1,0 km/h (0 Bft) NW 322 ° 0 min 0,000 mm 0,0 UV-I 0 W/m² 1,3 °C 1,9 °C 3,2 km/h (1 Bft)
28.10.2018 21:50 1,9 °C 96 % 1003,8 hPa 0,0 mm 0,5 km/h (0 Bft) NW 322 ° 0 min 0,000 mm 0,0 UV-I 0 W/m² 1,3 °C 1,9 °C 1,6 km/h (1 Bft)
28.10.2018 21:51 1,9 °C 96 % 1003,6 hPa 0,0 mm 0,7 km/h (0 Bft) NW 322 ° 0 min 0,000 mm 0,0 UV-I 0 W/m² 1,3 °C 1,9 °C 3,2 km/h (1 Bft)
28.10.2018 21:52 1,9 °C 96 % 1003,6 hPa 0,0 mm 0,1 km/h (0 Bft) NW 323 ° 0 min 0,000 mm 0,0 UV-I 0 W/m² 1,3 °C 1,9 °C 1,6 km/h (1 Bft)
28.10.2018 21:53 1,9 °C 96 % 1003,6 hPa 0,0 mm 0,0 km/h (0 Bft) NW 323 ° 0 min 0,000 mm 0,0 UV-I 0 W/m² 1,3 °C 1,9 °C 0,0 km/h (0 Bft)
28.10.2018 21:54 1,9 °C 96 % 1003,6 hPa 0,0 mm 0,1 km/h (0 Bft) NW 323 ° 0 min 0,000 mm 0,0 UV-I 0 W/m² 1,3 °C 1,9 °C 1,6 km/h (1 Bft)
28.10.2018 21:55 1,9 °C 96 % 1003,6 hPa 0,0 mm 0,0 km/h (0 Bft) NW 323 ° 0 min 0,000 mm 0,0 UV-I 0 W/m² 1,3 °C 1,9 °C 0,0 km/h (0 Bft)
28.10.2018 21:56 1,9 °C 96 % 1003,6 hPa 0,0 mm 0,0 km/h (0 Bft) NW 323 ° 0 min 0,000 mm 0,0 UV-I 0 W/m² 1,3 °C 1,9 °C 0,0 km/h (0 Bft)
28.10.2018 21:57 2,0 °C 96 % 1003,7 hPa 0,0 mm 2,3 km/h (1 Bft) NW 324 ° 0 min 0,000 mm 0,0 UV-I 0 W/m² 1,4 °C 2,0 °C 4,8 km/h (1 Bft)
28.10.2018 21:58 1,9 °C 96 % 1003,7 hPa 0,0 mm 2,5 km/h (1 Bft) N 355 ° 0 min 0,000 mm 0,0 UV-I 0 W/m² 1,3 °C 1,9 °C 4,8 km/h (1 Bft)
28.10.2018 21:59 1,9 °C 96 % 1003,6 hPa 0,0 mm 3,0 km/h (1 Bft) N 5 ° 0 min 0,000 mm 0,0 UV-I 0 W/m² 1,3 °C 1,9 °C 4,8 km/h (1 Bft)
28.10.2018 22:00 1,9 °C 96 % 1003,6 hPa 0,0 mm 0,8 km/h (0 Bft) N 5 ° 0 min 0,000 mm 0,0 UV-I 0 W/m² 1,3 °C 1,9 °C 3,2 km/h (1 Bft)
28.10.2018 22:01 2,0 °C 96 % 1003,7 hPa 0,0 mm 0,3 km/h (0 Bft) N 5 ° 0 min 0,000 mm 0,0 UV-I 0 W/m² 1,4 °C 2,0 °C 1,6 km/h (1 Bft)
28.10.2018 22:02 2,0 °C 96 % 1003,7 hPa 0,0 mm 0,0 km/h (0 Bft) N 5 ° 0 min 0,000 mm 0,0 UV-I 0 W/m² 1,4 °C 2,0 °C 0,0 km/h (0 Bft)
28.10.2018 22:03 2,0 °C 96 % 1003,7 hPa 0,0 mm 1,4 km/h (1 Bft) N 360 ° 0 min 0,000 mm 0,0 UV-I 0 W/m² 1,4 °C 2,0 °C 3,2 km/h (1 Bft)
28.10.2018 22:04 2,0 °C 96 % 1003,7 hPa 0,0 mm 2,9 km/h (1 Bft) N 360 ° 0 min 0,000 mm 0,0 UV-I 0 W/m² 1,4 °C 2,0 °C 3,2 km/h (1 Bft)
28.10.2018 22:05 1,9 °C 96 % 1003,8 hPa 0,0 mm 3,1 km/h (1 Bft) N 360 ° 0 min 0,000 mm 0,0 UV-I 0 W/m² 1,3 °C 1,9 °C 4,8 km/h (1 Bft)
28.10.2018 22:06 1,9 °C 96 % 1003,7 hPa 0,0 mm 2,2 km/h (1 Bft) N 360 ° 0 min 0,000 mm 0,0 UV-I 0 W/m² 1,3 °C 1,9 °C 3,2 km/h (1 Bft)
28.10.2018 22:07 1,9 °C 96 % 1003,4 hPa 0,0 mm 2,8 km/h (1 Bft) N-NO 29 ° 0 min 0,000 mm 0,0 UV-I 0 W/m² 1,3 °C 1,9 °C 4,8 km/h (1 Bft)
28.10.2018 22:08 2,0 °C 96 % 1003,4 hPa 0,0 mm 0,9 km/h (0 Bft) N-NO 29 ° 0 min 0,000 mm 0,0 UV-I 0 W/m² 1,4 °C 2,0 °C 1,6 km/h (1 Bft)
28.10.2018 22:09 1,9 °C 96 % 1003,4 hPa 0,0 mm 3,6 km/h (1 Bft) NO 40 ° 0 min 0,000 mm 0,0 UV-I 0 W/m² 1,3 °C 1,9 °C 6,4 km/h (2 Bft)
28.10.2018 22:10 1,9 °C 96 % 1003,4 hPa 0,0 mm 4,3 km/h (1 Bft) O-NO 78 ° 0 min 0,000 mm 0,0 UV-I 0 W/m² 1,3 °C 1,9 °C 6,4 km/h (2 Bft)
28.10.2018 22:11 2,0 °C 96 % 1003,4 hPa 0,0 mm 1,1 km/h (1 Bft) O-NO 78 ° 0 min 0,000 mm 0,0 UV-I 0 W/m² 1,4 °C 2,0 °C 3,2 km/h (1 Bft)
28.10.2018 22:12 2,0 °C 96 % 1003,4 hPa 0,0 mm 1,5 km/h (1 Bft) O-NO 78 ° 0 min 0,000 mm 0,0 UV-I 0 W/m² 1,4 °C 2,0 °C 3,2 km/h (1 Bft)
28.10.2018 22:13 2,0 °C 96 % 1003,4 hPa 0,0 mm 0,3 km/h (0 Bft) O-NO 77 ° 0 min 0,000 mm 0,0 UV-I 0 W/m² 1,4 °C 2,0 °C 1,6 km/h (1 Bft)
28.10.2018 22:14 2,0 °C 96 % 1003,6 hPa 0,0 mm 2,7 km/h (1 Bft) N-NW 331 ° 0 min 0,000 mm 0,0 UV-I 0 W/m² 1,4 °C 2,0 °C 4,8 km/h (1 Bft)
28.10.2018 22:15 2,0 °C 96 % 1003,6 hPa 0,0 mm 1,5 km/h (1 Bft) N-NW 331 ° 0 min 0,000 mm 0,0 UV-I 0 W/m² 1,4 °C 2,0 °C 3,2 km/h (1 Bft)
28.10.2018 22:16 2,0 °C 96 % 1003,6 hPa 0,0 mm 1,2 km/h (1 Bft) N-NW 331 ° 0 min 0,000 mm 0,0 UV-I 0 W/m² 1,4 °C 2,0 °C 3,2 km/h (1 Bft)
28.10.2018 22:17 2,0 °C 96 % 1003,6 hPa 0,0 mm 0,2 km/h (0 Bft) N-NW 331 ° 0 min 0,000 mm 0,0 UV-I 0 W/m² 1,4 °C 2,0 °C 1,6 km/h (1 Bft)
28.10.2018 22:18 2,0 °C 96 % 1003,6 hPa 0,0 mm 0,5 km/h (0 Bft) N-NW 331 ° 0 min 0,000 mm 0,0 UV-I 0 W/m² 1,4 °C 2,0 °C 3,2 km/h (1 Bft)
28.10.2018 22:19 2,0 °C 96 % 1003,6 hPa 0,0 mm 2,1 km/h (1 Bft) N-NW 331 ° 0 min 0,000 mm 0,0 UV-I 0 W/m² 1,4 °C 2,0 °C 3,2 km/h (1 Bft)
28.10.2018 22:20 2,0 °C 96 % 1003,6 hPa 0,0 mm 0,0 km/h (0 Bft) N-NW 331 ° 0 min 0,000 mm 0,0 UV-I 0 W/m² 1,4 °C 2,0 °C 0,0 km/h (0 Bft)
28.10.2018 22:21 2,0 °C 96 % 1003,6 hPa 0,0 mm 0,0 km/h (0 Bft) N-NW 331 ° 0 min 0,000 mm 0,0 UV-I 0 W/m² 1,4 °C 2,0 °C 0,0 km/h (0 Bft)
28.10.2018 22:22 2,0 °C 96 % 1003,6 hPa 0,0 mm 0,0 km/h (0 Bft) N-NW 331 ° 0 min 0,000 mm 0,0 UV-I 0 W/m² 1,4 °C 2,0 °C 0,0 km/h (0 Bft)
28.10.2018 22:23 2,0 °C 96 % 1003,6 hPa 0,0 mm 0,6 km/h (0 Bft) N-NW 331 ° 0 min 0,000 mm 0,0 UV-I 0 W/m² 1,4 °C 2,0 °C 3,2 km/h (1 Bft)
28.10.2018 22:24 2,0 °C 96 % 1003,7 hPa 0,0 mm 2,1 km/h (1 Bft) N-NW 338 ° 0 min 0,000 mm 0,0 UV-I 0 W/m² 1,4 °C 2,0 °C 3,2 km/h (1 Bft)
28.10.2018 22:25 2,0 °C 96 % 1003,6 hPa 0,0 mm 1,4 km/h (1 Bft) N-NW 338 ° 0 min 0,000 mm 0,0 UV-I 0 W/m² 1,4 °C 2,0 °C 3,2 km/h (1 Bft)
28.10.2018 22:26 2,0 °C 96 % 1003,6 hPa 0,0 mm 0,5 km/h (0 Bft) N-NW 338 ° 0 min 0,000 mm 0,0 UV-I 0 W/m² 1,4 °C 2,0 °C 1,6 km/h (1 Bft)
28.10.2018 22:27 2,0 °C 96 % 1003,6 hPa 0,0 mm 2,6 km/h (1 Bft) N 360 ° 0 min 0,000 mm 0,0 UV-I 0 W/m² 1,4 °C 2,0 °C 4,8 km/h (1 Bft)
28.10.2018 22:28 2,0 °C 96 % 1003,6 hPa 0,0 mm 2,5 km/h (1 Bft) N 360 ° 0 min 0,000 mm 0,0 UV-I 0 W/m² 1,4 °C 2,0 °C 3,2 km/h (1 Bft)
28.10.2018 22:29 2,0 °C 96 % 1003,5 hPa 0,0 mm 0,9 km/h (0 Bft) N 360 ° 0 min 0,000 mm 0,0 UV-I 0 W/m² 1,4 °C 2,0 °C 3,2 km/h (1 Bft)
28.10.2018 22:30 2,0 °C 96 % 1003,5 hPa 0,0 mm 2,5 km/h (1 Bft) N-NO 22 ° 0 min 0,000 mm 0,0 UV-I 0 W/m² 1,4 °C 2,0 °C 4,8 km/h (1 Bft)
28.10.2018 22:31 2,0 °C 96 % 1003,5 hPa 0,0 mm 1,1 km/h (1 Bft) N-NO 23 ° 0 min 0,000 mm 0,0 UV-I 0 W/m² 1,4 °C 2,0 °C 3,2 km/h (1 Bft)
28.10.2018 22:32 1,9 °C 96 % 1003,5 hPa 0,0 mm 1,2 km/h (1 Bft) N-NO 23 ° 0 min 0,000 mm 0,0 UV-I 0 W/m² 1,3 °C 1,9 °C 3,2 km/h (1 Bft)
28.10.2018 22:33 2,0 °C 96 % 1003,5 hPa 0,0 mm 2,9 km/h (1 Bft) N-NO 24 ° 0 min 0,000 mm 0,0 UV-I 0 W/m² 1,4 °C 2,0 °C 4,8 km/h (1 Bft)
28.10.2018 22:34 2,0 °C 96 % 1003,6 hPa 0,0 mm 1,9 km/h (1 Bft) N-NO 24 ° 0 min 0,000 mm 0,0 UV-I 0 W/m² 1,4 °C 2,0 °C 3,2 km/h (1 Bft)
28.10.2018 22:35 2,0 °C 96 % 1003,6 hPa 0,0 mm 0,5 km/h (0 Bft) N-NO 24 ° 0 min 0,000 mm 0,0 UV-I 0 W/m² 1,4 °C 2,0 °C 1,6 km/h (1 Bft)
28.10.2018 22:36 2,0 °C 96 % 1003,5 hPa 0,0 mm 0,1 km/h (0 Bft) N-NO 24 ° 0 min 0,000 mm 0,0 UV-I 0 W/m² 1,4 °C 2,0 °C 1,6 km/h (1 Bft)
28.10.2018 22:37 2,0 °C 96 % 1003,4 hPa 0,0 mm 3,0 km/h (1 Bft) N-NO 24 ° 0 min 0,000 mm 0,0 UV-I 0 W/m² 1,4 °C 2,0 °C 4,8 km/h (1 Bft)
28.10.2018 22:38 2,0 °C 96 % 1003,4 hPa 0,0 mm 4,5 km/h (1 Bft) O-NO 72 ° 0 min 0,000 mm 0,0 UV-I 0 W/m² 1,4 °C 2,0 °C 6,4 km/h (2 Bft)
28.10.2018 22:39 2,0 °C 96 % 1003,5 hPa 0,0 mm 3,3 km/h (1 Bft) O-NO 71 ° 0 min 0,000 mm 0,0 UV-I 0 W/m² 1,4 °C 2,0 °C 4,8 km/h (1 Bft)
28.10.2018 22:40 2,0 °C 96 % 1003,5 hPa 0,0 mm 3,8 km/h (1 Bft) O-NO 59 ° 0 min 0,000 mm 0,0 UV-I 0 W/m² 1,4 °C 2,0 °C 4,8 km/h (1 Bft)
28.10.2018 22:41 2,0 °C 96 % 1003,5 hPa 0,0 mm 3,4 km/h (1 Bft) O-NO 59 ° 0 min 0,000 mm 0,0 UV-I 0 W/m² 1,4 °C 2,0 °C 4,8 km/h (1 Bft)
28.10.2018 22:42 2,0 °C 96 % 1003,4 hPa 0,0 mm 3,3 km/h (1 Bft) O-NO 59 ° 0 min 0,000 mm 0,0 UV-I 0 W/m² 1,4 °C 2,0 °C 4,8 km/h (1 Bft)
28.10.2018 22:43 2,1 °C 96 % 1003,5 hPa 0,0 mm 4,6 km/h (1 Bft) NO 42 ° 0 min 0,000 mm 0,0 UV-I 0 W/m² 1,5 °C 1,0 °C 8,0 km/h (2 Bft)
28.10.2018 22:44 2,0 °C 96 % 1003,5 hPa 0,0 mm 1,9 km/h (1 Bft) NO 42 ° 0 min 0,000 mm 0,0 UV-I 0 W/m² 1,4 °C 2,0 °C 3,2 km/h (1 Bft)
28.10.2018 22:45 2,0 °C 96 % 1003,5 hPa 0,0 mm 2,5 km/h (1 Bft) NO 40 ° 0 min 0,000 mm 0,0 UV-I 0 W/m² 1,4 °C 2,0 °C 3,2 km/h (1 Bft)
28.10.2018 22:46 2,0 °C 96 % 1003,5 hPa 0,0 mm 2,5 km/h (1 Bft) NO 40 ° 0 min 0,000 mm 0,0 UV-I 0 W/m² 1,4 °C 2,0 °C 3,2 km/h (1 Bft)
28.10.2018 22:47 2,1 °C 96 % 1003,5 hPa 0,0 mm 0,6 km/h (0 Bft) NO 40 ° 0 min 0,000 mm 0,0 UV-I 0 W/m² 1,5 °C 2,1 °C 3,2 km/h (1 Bft)
28.10.2018 22:48 2,1 °C 96 % 1003,6 hPa 0,0 mm 0,4 km/h (0 Bft) NO 40 ° 0 min 0,000 mm 0,0 UV-I 0 W/m² 1,5 °C 2,1 °C 1,6 km/h (1 Bft)
28.10.2018 22:49 2,1 °C 96 % 1003,6 hPa 0,0 mm 4,0 km/h (1 Bft) O-NO 76 ° 0 min 0,000 mm 0,0 UV-I 0 W/m² 1,5 °C 2,1 °C 6,4 km/h (2 Bft)
28.10.2018 22:50 2,1 °C 96 % 1003,6 hPa 0,0 mm 3,8 km/h (1 Bft) O-NO 76 ° 0 min 0,000 mm 0,0 UV-I 0 W/m² 1,5 °C 2,1 °C 4,8 km/h (1 Bft)
28.10.2018 22:51 2,1 °C 96 % 1003,7 hPa 0,0 mm 3,2 km/h (1 Bft) O-NO 76 ° 0 min 0,000 mm 0,0 UV-I 0 W/m² 1,5 °C 2,1 °C 4,8 km/h (1 Bft)
28.10.2018 22:52 2,0 °C 96 % 1003,6 hPa 0,0 mm 3,4 km/h (1 Bft) O-NO 76 ° 0 min 0,000 mm 0,0 UV-I 0 W/m² 1,4 °C 2,0 °C 4,8 km/h (1 Bft)
28.10.2018 22:53 2,1 °C 96 % 1003,5 hPa 0,0 mm 4,4 km/h (1 Bft) O-NO 76 ° 0 min 0,000 mm 0,0 UV-I 0 W/m² 1,5 °C 2,1 °C 6,4 km/h (2 Bft)
28.10.2018 22:54 2,1 °C 96 % 1003,4 hPa 0,0 mm 4,6 km/h (1 Bft) O-NO 67 ° 0 min 0,000 mm 0,0 UV-I 0 W/m² 1,5 °C 1,0 °C 6,4 km/h (2 Bft)
28.10.2018 22:55 2,1 °C 96 % 1003,4 hPa 0,0 mm 1,0 km/h (0 Bft) NO 49 ° 0 min 0,000 mm 0,0 UV-I 0 W/m² 1,5 °C 2,1 °C 3,2 km/h (1 Bft)
28.10.2018 22:56 2,1 °C 96 % 1003,4 hPa 0,0 mm 1,0 km/h (0 Bft) NO 49 ° 0 min 0,000 mm 0,0 UV-I 0 W/m² 1,5 °C 2,1 °C 1,6 km/h (1 Bft)
28.10.2018 22:57 2,1 °C 96 % 1003,5 hPa 0,0 mm 0,1 km/h (0 Bft) NO 49 ° 0 min 0,000 mm 0,0 UV-I 0 W/m² 1,5 °C 2,1 °C 1,6 km/h (1 Bft)
28.10.2018 22:58 2,1 °C 96 % 1003,6 hPa 0,0 mm 0,1 km/h (0 Bft) NO 49 ° 0 min 0,000 mm 0,0 UV-I 0 W/m² 1,5 °C 2,1 °C 1,6 km/h (1 Bft)
28.10.2018 22:59 2,1 °C 96 % 1003,6 hPa 0,0 mm 0,0 km/h (0 Bft) NO 49 ° 0 min 0,000 mm 0,0 UV-I 0 W/m² 1,5 °C 2,1 °C 0,0 km/h (0 Bft)
28.10.2018 23:00 2,1 °C 96 % 1003,6 hPa 0,0 mm 0,0 km/h (0 Bft) NO 49 ° 0 min 0,000 mm 0,0 UV-I 0 W/m² 1,5 °C 2,1 °C 0,0 km/h (0 Bft)
28.10.2018 23:01 2,1 °C 96 % 1003,5 hPa 0,0 mm 2,0 km/h (1 Bft) NO 49 ° 0 min 0,000 mm 0,0 UV-I 0 W/m² 1,5 °C 2,1 °C 3,2 km/h (1 Bft)
28.10.2018 23:02 2,1 °C 96 % 1003,4 hPa 0,0 mm 3,7 km/h (1 Bft) NO 49 ° 0 min 0,000 mm 0,0 UV-I 0 W/m² 1,5 °C 2,1 °C 4,8 km/h (1 Bft)
28.10.2018 23:03 2,1 °C 96 % 1003,3 hPa 0,0 mm 1,5 km/h (1 Bft) NO 49 ° 0 min 0,000 mm 0,0 UV-I 0 W/m² 1,5 °C 2,1 °C 3,2 km/h (1 Bft)
28.10.2018 23:04 2,1 °C 96 % 1003,3 hPa 0,0 mm 2,0 km/h (1 Bft) NO 49 ° 0 min 0,000 mm 0,0 UV-I 0 W/m² 1,5 °C 2,1 °C 3,2 km/h (1 Bft)
28.10.2018 23:05 2,1 °C 96 % 1003,3 hPa 0,0 mm 1,0 km/h (0 Bft) NO 49 ° 0 min 0,000 mm 0,0 UV-I 0 W/m² 1,5 °C 2,1 °C 3,2 km/h (1 Bft)
28.10.2018 23:06 2,1 °C 96 % 1003,3 hPa 0,0 mm 1,9 km/h (1 Bft) NO 49 ° 0 min 0,000 mm 0,0 UV-I 0 W/m² 1,5 °C 2,1 °C 3,2 km/h (1 Bft)
28.10.2018 23:07 2,1 °C 96 % 1003,3 hPa 0,0 mm 0,2 km/h (0 Bft) NO 49 ° 0 min 0,000 mm 0,0 UV-I 0 W/m² 1,5 °C 2,1 °C 1,6 km/h (1 Bft)
28.10.2018 23:08 2,1 °C 96 % 1003,3 hPa 0,0 mm 0,0 km/h (0 Bft) NO 49 ° 0 min 0,000 mm 0,0 UV-I 0 W/m² 1,5 °C 2,1 °C 0,0 km/h (0 Bft)
28.10.2018 23:09 2,1 °C 96 % 1003,3 hPa 0,0 mm 0,0 km/h (0 Bft) NO 49 ° 0 min 0,000 mm 0,0 UV-I 0 W/m² 1,5 °C 2,1 °C 0,0 km/h (0 Bft)
28.10.2018 23:10 2,1 °C 96 % 1003,3 hPa 0,0 mm 0,9 km/h (0 Bft) NO 49 ° 0 min 0,000 mm 0,0 UV-I 0 W/m² 1,5 °C 2,1 °C 3,2 km/h (1 Bft)
28.10.2018 23:11 2,1 °C 96 % 1003,3 hPa 0,0 mm 1,8 km/h (1 Bft) NO 49 ° 0 min 0,000 mm 0,0 UV-I 0 W/m² 1,5 °C 2,1 °C 3,2 km/h (1 Bft)
28.10.2018 23:12 2,1 °C 96 % 1003,3 hPa 0,0 mm 1,1 km/h (1 Bft) NO 49 ° 0 min 0,000 mm 0,0 UV-I 0 W/m² 1,5 °C 2,1 °C 3,2 km/h (1 Bft)
28.10.2018 23:13 2,1 °C 96 % 1003,1 hPa 0,0 mm 3,0 km/h (1 Bft) O 84 ° 0 min 0,000 mm 0,0 UV-I 0 W/m² 1,5 °C 2,1 °C 6,4 km/h (2 Bft)
28.10.2018 23:14 2,1 °C 96 % 1003,1 hPa 0,0 mm 0,5 km/h (0 Bft) O 84 ° 0 min 0,000 mm 0,0 UV-I 0 W/m² 1,5 °C 2,1 °C 1,6 km/h (1 Bft)
28.10.2018 23:15 2,0 °C 96 % 1003,1 hPa 0,0 mm 1,7 km/h (1 Bft) O 84 ° 0 min 0,000 mm 0,0 UV-I 0 W/m² 1,4 °C 2,0 °C 3,2 km/h (1 Bft)
28.10.2018 23:16 2,1 °C 96 % 1003,1 hPa 0,0 mm 0,1 km/h (0 Bft) O 84 ° 0 min 0,000 mm 0,0 UV-I 0 W/m² 1,5 °C 2,1 °C 1,6 km/h (1 Bft)
28.10.2018 23:17 2,1 °C 96 % 1003,1 hPa 0,0 mm 1,0 km/h (0 Bft) O 84 ° 0 min 0,000 mm 0,0 UV-I 0 W/m² 1,5 °C 2,1 °C 3,2 km/h (1 Bft)
28.10.2018 23:18 2,0 °C 96 % 1003,1 hPa 0,0 mm 0,8 km/h (0 Bft) O 84 ° 0 min 0,000 mm 0,0 UV-I 0 W/m² 1,4 °C 2,0 °C 1,6 km/h (1 Bft)
28.10.2018 23:19 2,0 °C 96 % 1003,1 hPa 0,0 mm 1,7 km/h (1 Bft) O 84 ° 0 min 0,000 mm 0,0 UV-I 0 W/m² 1,4 °C 2,0 °C 3,2 km/h (1 Bft)
28.10.2018 23:20 2,0 °C 96 % 1003,1 hPa 0,0 mm 4,1 km/h (1 Bft) NO 36 ° 0 min 0,000 mm 0,0 UV-I 0 W/m² 1,4 °C 2,0 °C 6,4 km/h (2 Bft)
28.10.2018 23:21 2,0 °C 96 % 1003,1 hPa 0,0 mm 1,5 km/h (1 Bft) NO 36 ° 0 min 0,000 mm 0,0 UV-I 0 W/m² 1,4 °C 2,0 °C 3,2 km/h (1 Bft)
28.10.2018 23:22 2,1 °C 96 % 1003,1 hPa 0,0 mm 0,0 km/h (0 Bft) NO 36 ° 0 min 0,000 mm 0,0 UV-I 0 W/m² 1,5 °C 2,1 °C 0,0 km/h (0 Bft)
28.10.2018 23:23 2,0 °C 96 % 1003,1 hPa 0,0 mm 0,3 km/h (0 Bft) NO 36 ° 0 min 0,000 mm 0,0 UV-I 0 W/m² 1,4 °C 2,0 °C 1,6 km/h (1 Bft)
28.10.2018 23:24 2,0 °C 96 % 1003,2 hPa 0,0 mm 1,2 km/h (1 Bft) NO 36 ° 0 min 0,000 mm 0,0 UV-I 0 W/m² 1,4 °C 2,0 °C 3,2 km/h (1 Bft)
28.10.2018 23:25 2,0 °C 96 % 1003,3 hPa 0,0 mm 1,4 km/h (1 Bft) NO 36 ° 0 min 0,000 mm 0,0 UV-I 0 W/m² 1,4 °C 2,0 °C 3,2 km/h (1 Bft)
28.10.2018 23:26 2,0 °C 96 % 1003,3 hPa 0,0 mm 0,2 km/h (0 Bft) NO 36 ° 0 min 0,000 mm 0,0 UV-I 0 W/m² 1,4 °C 2,0 °C 1,6 km/h (1 Bft)
28.10.2018 23:27 2,0 °C 96 % 1003,4 hPa 0,0 mm 2,3 km/h (1 Bft) NO 36 ° 0 min 0,000 mm 0,0 UV-I 0 W/m² 1,4 °C 2,0 °C 3,2 km/h (1 Bft)
28.10.2018 23:28 2,0 °C 96 % 1003,3 hPa 0,0 mm 2,5 km/h (1 Bft) NO 36 ° 0 min 0,000 mm 0,0 UV-I 0 W/m² 1,4 °C 2,0 °C 3,2 km/h (1 Bft)
28.10.2018 23:29 2,0 °C 96 % 1003,3 hPa 0,0 mm 1,7 km/h (1 Bft) NO 36 ° 0 min 0,000 mm 0,0 UV-I 0 W/m² 1,4 °C 2,0 °C 3,2 km/h (1 Bft)
28.10.2018 23:30 2,1 °C 96 % 1003,3 hPa 0,0 mm 0,1 km/h (0 Bft) NO 36 ° 0 min 0,000 mm 0,0 UV-I 0 W/m² 1,5 °C 2,1 °C 1,6 km/h (1 Bft)
28.10.2018 23:31 2,1 °C 96 % 1003,4 hPa 0,0 mm 0,0 km/h (0 Bft) NO 36 ° 0 min 0,000 mm 0,0 UV-I 0 W/m² 1,5 °C 2,1 °C 0,0 km/h (0 Bft)
28.10.2018 23:32 2,0 °C 96 % 1003,4 hPa 0,0 mm 1,2 km/h (1 Bft) NO 36 ° 0 min 0,000 mm 0,0 UV-I 0 W/m² 1,4 °C 2,0 °C 3,2 km/h (1 Bft)
28.10.2018 23:33 2,0 °C 96 % 1003,3 hPa 0,0 mm 3,4 km/h (1 Bft) O-NO 74 ° 0 min 0,000 mm 0,0 UV-I 0 W/m² 1,4 °C 2,0 °C 4,8 km/h (1 Bft)
28.10.2018 23:34 2,0 °C 96 % 1003,2 hPa 0,0 mm 2,7 km/h (1 Bft) O-NO 74 ° 0 min 0,000 mm 0,0 UV-I 0 W/m² 1,4 °C 2,0 °C 4,8 km/h (1 Bft)
28.10.2018 23:35 2,1 °C 96 % 1003,1 hPa 0,0 mm 0,0 km/h (0 Bft) O-NO 74 ° 0 min 0,000 mm 0,0 UV-I 0 W/m² 1,5 °C 2,1 °C 0,0 km/h (0 Bft)
28.10.2018 23:36 2,1 °C 96 % 1003,1 hPa 0,0 mm 3,3 km/h (1 Bft) NO 51 ° 0 min 0,000 mm 0,0 UV-I 0 W/m² 1,5 °C 2,1 °C 4,8 km/h (1 Bft)
28.10.2018 23:37 2,0 °C 96 % 1003,0 hPa 0,0 mm 5,6 km/h (1 Bft) O-NO 66 ° 0 min 0,000 mm 0,0 UV-I 0 W/m² 1,4 °C 0,4 °C 9,7 km/h (2 Bft)
28.10.2018 23:38 2,0 °C 96 % 1003,0 hPa 0,0 mm 3,8 km/h (1 Bft) O-NO 66 ° 0 min 0,000 mm 0,0 UV-I 0 W/m² 1,4 °C 2,0 °C 6,4 km/h (2 Bft)
28.10.2018 23:39 2,0 °C 96 % 1003,1 hPa 0,0 mm 2,2 km/h (1 Bft) O-NO 66 ° 0 min 0,000 mm 0,0 UV-I 0 W/m² 1,4 °C 2,0 °C 3,2 km/h (1 Bft)
28.10.2018 23:40 2,0 °C 96 % 1003,1 hPa 0,0 mm 1,9 km/h (1 Bft) O-NO 65 ° 0 min 0,000 mm 0,0 UV-I 0 W/m² 1,4 °C 2,0 °C 3,2 km/h (1 Bft)
28.10.2018 23:41 2,0 °C 96 % 1003,1 hPa 0,0 mm 3,2 km/h (1 Bft) NO 34 ° 0 min 0,000 mm 0,0 UV-I 0 W/m² 1,4 °C 2,0 °C 4,8 km/h (1 Bft)
28.10.2018 23:42 2,0 °C 96 % 1003,1 hPa 0,0 mm 2,4 km/h (1 Bft) NO 34 ° 0 min 0,000 mm 0,0 UV-I 0 W/m² 1,4 °C 2,0 °C 6,4 km/h (2 Bft)
28.10.2018 23:43 2,0 °C 96 % 1003,1 hPa 0,0 mm 2,5 km/h (1 Bft) NO 34 ° 0 min 0,000 mm 0,0 UV-I 0 W/m² 1,4 °C 2,0 °C 4,8 km/h (1 Bft)
28.10.2018 23:44 2,0 °C 96 % 1003,1 hPa 0,0 mm 3,0 km/h (1 Bft) NO 34 ° 0 min 0,000 mm 0,0 UV-I 0 W/m² 1,4 °C 2,0 °C 4,8 km/h (1 Bft)
28.10.2018 23:45 2,0 °C 96 % 1003,1 hPa 0,0 mm 1,0 km/h (0 Bft) NO 34 ° 0 min 0,000 mm 0,0 UV-I 0 W/m² 1,4 °C 2,0 °C 1,6 km/h (1 Bft)
28.10.2018 23:46 2,1 °C 96 % 1003,1 hPa 0,0 mm 1,5 km/h (1 Bft) NO 46 ° 0 min 0,000 mm 0,0 UV-I 0 W/m² 1,5 °C 2,1 °C 4,8 km/h (1 Bft)
28.10.2018 23:47 2,0 °C 96 % 1003,1 hPa 0,0 mm 2,1 km/h (1 Bft) O 96 ° 0 min 0,000 mm 0,0 UV-I 0 W/m² 1,4 °C 2,0 °C 3,2 km/h (1 Bft)
28.10.2018 23:48 2,0 °C 96 % 1003,0 hPa 0,0 mm 0,3 km/h (0 Bft) O 96 ° 0 min 0,000 mm 0,0 UV-I 0 W/m² 1,4 °C 2,0 °C 1,6 km/h (1 Bft)
28.10.2018 23:49 2,0 °C 96 % 1003,0 hPa 0,0 mm 2,3 km/h (1 Bft) O 96 ° 0 min 0,000 mm 0,0 UV-I 0 W/m² 1,4 °C 2,0 °C 4,8 km/h (1 Bft)
28.10.2018 23:50 2,0 °C 96 % 1002,9 hPa 0,0 mm 2,8 km/h (1 Bft) O-NO 62 ° 0 min 0,000 mm 0,0 UV-I 0 W/m² 1,4 °C 2,0 °C 4,8 km/h (1 Bft)
28.10.2018 23:51 2,0 °C 96 % 1002,9 hPa 0,0 mm 2,6 km/h (1 Bft) O-NO 62 ° 0 min 0,000 mm 0,0 UV-I 0 W/m² 1,4 °C 2,0 °C 3,2 km/h (1 Bft)
28.10.2018 23:52 2,0 °C 96 % 1002,9 hPa 0,0 mm 3,6 km/h (1 Bft) O-NO 70 ° 0 min 0,000 mm 0,0 UV-I 0 W/m² 1,4 °C 2,0 °C 6,4 km/h (2 Bft)
28.10.2018 23:53 1,9 °C 96 % 1002,9 hPa 0,0 mm 2,5 km/h (1 Bft) O-NO 70 ° 0 min 0,000 mm 0,0 UV-I 0 W/m² 1,3 °C 1,9 °C 4,8 km/h (1 Bft)
28.10.2018 23:54 2,0 °C 96 % 1002,9 hPa 0,0 mm 2,4 km/h (1 Bft) O-NO 71 ° 0 min 0,000 mm 0,0 UV-I 0 W/m² 1,4 °C 2,0 °C 4,8 km/h (1 Bft)
28.10.2018 23:55 2,0 °C 96 % 1002,9 hPa 0,0 mm 2,0 km/h (1 Bft) O-NO 71 ° 0 min 0,000 mm 0,0 UV-I 0 W/m² 1,4 °C 2,0 °C 4,8 km/h (1 Bft)
28.10.2018 23:56 2,0 °C 96 % 1002,9 hPa 0,0 mm 3,2 km/h (1 Bft) O-NO 71 ° 0 min 0,000 mm 0,0 UV-I 0 W/m² 1,4 °C 2,0 °C 4,8 km/h (1 Bft)
28.10.2018 23:57 2,0 °C 96 % 1002,9 hPa 0,0 mm 3,3 km/h (1 Bft) NO 53 ° 0 min 0,000 mm 0,0 UV-I 0 W/m² 1,4 °C 2,0 °C 6,4 km/h (2 Bft)
28.10.2018 23:58 2,0 °C 96 % 1003,0 hPa 0,0 mm 1,7 km/h (1 Bft) NO 53 ° 0 min 0,000 mm 0,0 UV-I 0 W/m² 1,4 °C 2,0 °C 3,2 km/h (1 Bft)
28.10.2018 23:59 2,0 °C 96 % 1003,1 hPa 0,0 mm 0,3 km/h (0 Bft) NO 53 ° 0 min 0,000 mm 0,0 UV-I 0 W/m² 1,4 °C 2,0 °C 1,6 km/h (1 Bft)
_ Min-Zeit 00:03 00:04 12:58 - 23:35 - - - - - - 00:04 02:13 23:35
Minimum _ 0,5 °C 94 % 1001,5 hPa - 0,0 km/h (0 Bft) - - - - - - -0,3 °C -2,2 °C 0,0 km/h (0 Bft)
_ Max-Zeit 13:55 23:59 00:13 19:26 09:58 - - 23:59 13:00 11:17 11:14 13:32 13:55 09:58
Maximum _ 2,8 °C 96 % 1005,3 hPa 0,2 mm 15,3 km/h
O-NO (3 Bft)
- - 0 min 0,026 mm 0,5 UV-I 69 W/m² 2,2 °C 2,8 °C 24,1 km/h
O-NO (4 Bft)
Durchschnitt _ 2,1 °C 95 % 1003,3 hPa #6,0 mm 4,1 km/h (1 Bft) O-NO - #0 min. #0,102 mm 0,5 UV-I 10 W/m² 1,4 °C 1,3 °C 7,3 km/h (2 Bft)